<?xml version="1.0" encoding="UTF-8" standalone="no" ?>
<gpx xmlns="http://www.topografix.com/GPX/1/1" xmlns:xsi="http://www.w3.org/2001/XMLSchema-instance" xsi:schemaLocation="http://www.topografix.com/GPX/1/1 http://www.topografix.com/GPX/1/1/gpx.xsd" version="1.1" creator="VisuGPX - https://www.visugpx.com">
  <metadata>
    <name>Les Sybelles</name>
    <desc><![CDATA[

]]></desc>
  </metadata>
  <trk>
    <name><![CDATA[Les Sybelles]]></name>
    <extensions>
      <line xmlns="http://www.topografix.com/GPX/gpx_style/0/2">
        <color>0000FF</color>
        <width>4</width>
      </line>
    </extensions>
    <trkseg>
      <trkpt lat="45.29412" lon="6.22673">
        <ele>1109.4899902344</ele>
        <time>2017-02-26T06:25:31Z</time>
      </trkpt>
      <trkpt lat="45.29417" lon="6.22676">
        <ele>1109.4899902344</ele>
        <time>2017-02-26T06:25:37Z</time>
      </trkpt>
      <trkpt lat="45.29422" lon="6.22679">
        <ele>1110.4899902344</ele>
        <time>2017-02-26T06:25:41Z</time>
      </trkpt>
      <trkpt lat="45.29426" lon="6.22681">
        <ele>1110.4899902344</ele>
        <time>2017-02-26T06:25:46Z</time>
      </trkpt>
      <trkpt lat="45.29431" lon="6.2268">
        <ele>1110.4899902344</ele>
        <time>2017-02-26T06:25:52Z</time>
      </trkpt>
      <trkpt lat="45.29432" lon="6.22673">
        <ele>1109.4899902344</ele>
        <time>2017-02-26T06:26:00Z</time>
      </trkpt>
      <trkpt lat="45.29433" lon="6.22666">
        <ele>1111.4899902344</ele>
        <time>2017-02-26T06:26:14Z</time>
      </trkpt>
      <trkpt lat="45.29436" lon="6.22659">
        <ele>1109.4899902344</ele>
        <time>2017-02-26T06:26:20Z</time>
      </trkpt>
      <trkpt lat="45.29436" lon="6.22653">
        <ele>1110.4899902344</ele>
        <time>2017-02-26T06:26:26Z</time>
      </trkpt>
      <trkpt lat="45.29434" lon="6.22645">
        <ele>1110.4899902344</ele>
        <time>2017-02-26T06:26:32Z</time>
      </trkpt>
      <trkpt lat="45.29432" lon="6.22638">
        <ele>1112.4890136719</ele>
        <time>2017-02-26T06:26:37Z</time>
      </trkpt>
      <trkpt lat="45.29429" lon="6.22633">
        <ele>1110.4890136719</ele>
        <time>2017-02-26T06:26:50Z</time>
      </trkpt>
      <trkpt lat="45.29432" lon="6.22628">
        <ele>1112.4890136719</ele>
        <time>2017-02-26T06:26:59Z</time>
      </trkpt>
      <trkpt lat="45.29436" lon="6.22622">
        <ele>1113.4890136719</ele>
        <time>2017-02-26T06:27:02Z</time>
      </trkpt>
      <trkpt lat="45.29439" lon="6.22616">
        <ele>1113.4890136719</ele>
        <time>2017-02-26T06:27:07Z</time>
      </trkpt>
      <trkpt lat="45.2944" lon="6.2261">
        <ele>1114.4890136719</ele>
        <time>2017-02-26T06:27:12Z</time>
      </trkpt>
      <trkpt lat="45.29442" lon="6.22603">
        <ele>1113.4890136719</ele>
        <time>2017-02-26T06:27:18Z</time>
      </trkpt>
      <trkpt lat="45.29445" lon="6.22597">
        <ele>1113.4890136719</ele>
        <time>2017-02-26T06:27:22Z</time>
      </trkpt>
      <trkpt lat="45.29445" lon="6.2259">
        <ele>1116.4890136719</ele>
        <time>2017-02-26T06:27:30Z</time>
      </trkpt>
      <trkpt lat="45.29445" lon="6.22583">
        <ele>1115.4890136719</ele>
        <time>2017-02-26T06:27:39Z</time>
      </trkpt>
      <trkpt lat="45.29448" lon="6.22578">
        <ele>1118.4890136719</ele>
        <time>2017-02-26T06:27:45Z</time>
      </trkpt>
      <trkpt lat="45.29449" lon="6.2257">
        <ele>1118.4890136719</ele>
        <time>2017-02-26T06:27:48Z</time>
      </trkpt>
      <trkpt lat="45.29451" lon="6.22563">
        <ele>1117.4890136719</ele>
        <time>2017-02-26T06:27:54Z</time>
      </trkpt>
      <trkpt lat="45.29452" lon="6.22556">
        <ele>1118.4890136719</ele>
        <time>2017-02-26T06:28:00Z</time>
      </trkpt>
      <trkpt lat="45.29452" lon="6.22547">
        <ele>1120.4890136719</ele>
        <time>2017-02-26T06:28:16Z</time>
      </trkpt>
      <trkpt lat="45.2945" lon="6.22542">
        <ele>1122.4890136719</ele>
        <time>2017-02-26T06:28:19Z</time>
      </trkpt>
      <trkpt lat="45.29451" lon="6.22533">
        <ele>1124.4890136719</ele>
        <time>2017-02-26T06:28:24Z</time>
      </trkpt>
      <trkpt lat="45.29448" lon="6.22526">
        <ele>1124.4890136719</ele>
        <time>2017-02-26T06:28:28Z</time>
      </trkpt>
      <trkpt lat="45.29447" lon="6.22518">
        <ele>1127.4890136719</ele>
        <time>2017-02-26T06:28:33Z</time>
      </trkpt>
      <trkpt lat="45.29445" lon="6.22511">
        <ele>1130.4890136719</ele>
        <time>2017-02-26T06:28:37Z</time>
      </trkpt>
      <trkpt lat="45.29444" lon="6.22504">
        <ele>1132.4890136719</ele>
        <time>2017-02-26T06:28:41Z</time>
      </trkpt>
      <trkpt lat="45.29442" lon="6.22498">
        <ele>1132.4890136719</ele>
        <time>2017-02-26T06:28:47Z</time>
      </trkpt>
      <trkpt lat="45.29442" lon="6.2249">
        <ele>1130.4890136719</ele>
        <time>2017-02-26T06:28:51Z</time>
      </trkpt>
      <trkpt lat="45.2944" lon="6.22484">
        <ele>1131.4890136719</ele>
        <time>2017-02-26T06:28:55Z</time>
      </trkpt>
      <trkpt lat="45.29438" lon="6.22477">
        <ele>1132.4890136719</ele>
        <time>2017-02-26T06:28:59Z</time>
      </trkpt>
      <trkpt lat="45.29437" lon="6.2247">
        <ele>1132.4890136719</ele>
        <time>2017-02-26T06:29:03Z</time>
      </trkpt>
      <trkpt lat="45.29435" lon="6.22462">
        <ele>1135.4890136719</ele>
        <time>2017-02-26T06:29:08Z</time>
      </trkpt>
      <trkpt lat="45.29433" lon="6.22456">
        <ele>1137.4890136719</ele>
        <time>2017-02-26T06:29:12Z</time>
      </trkpt>
      <trkpt lat="45.29432" lon="6.22449">
        <ele>1136.4890136719</ele>
        <time>2017-02-26T06:29:16Z</time>
      </trkpt>
      <trkpt lat="45.29431" lon="6.22443">
        <ele>1138.4890136719</ele>
        <time>2017-02-26T06:29:20Z</time>
      </trkpt>
      <trkpt lat="45.29436" lon="6.22439">
        <ele>1138.4890136719</ele>
        <time>2017-02-26T06:29:26Z</time>
      </trkpt>
      <trkpt lat="45.29438" lon="6.22432">
        <ele>1137.4890136719</ele>
        <time>2017-02-26T06:29:31Z</time>
      </trkpt>
      <trkpt lat="45.29437" lon="6.22426">
        <ele>1139.4890136719</ele>
        <time>2017-02-26T06:29:36Z</time>
      </trkpt>
      <trkpt lat="45.29437" lon="6.22418">
        <ele>1143.4890136719</ele>
        <time>2017-02-26T06:29:40Z</time>
      </trkpt>
      <trkpt lat="45.29441" lon="6.22413">
        <ele>1144.4890136719</ele>
        <time>2017-02-26T06:29:45Z</time>
      </trkpt>
      <trkpt lat="45.29444" lon="6.22408">
        <ele>1146.4890136719</ele>
        <time>2017-02-26T06:29:55Z</time>
      </trkpt>
      <trkpt lat="45.29448" lon="6.22406">
        <ele>1144.4890136719</ele>
        <time>2017-02-26T06:30:06Z</time>
      </trkpt>
      <trkpt lat="45.29454" lon="6.22404">
        <ele>1146.4890136719</ele>
        <time>2017-02-26T06:30:12Z</time>
      </trkpt>
      <trkpt lat="45.29459" lon="6.22404">
        <ele>1146.4890136719</ele>
        <time>2017-02-26T06:30:15Z</time>
      </trkpt>
      <trkpt lat="45.29464" lon="6.22403">
        <ele>1147.4890136719</ele>
        <time>2017-02-26T06:30:19Z</time>
      </trkpt>
      <trkpt lat="45.29468" lon="6.22407">
        <ele>1146.4890136719</ele>
        <time>2017-02-26T06:30:24Z</time>
      </trkpt>
      <trkpt lat="45.29472" lon="6.22411">
        <ele>1146.4890136719</ele>
        <time>2017-02-26T06:30:28Z</time>
      </trkpt>
      <trkpt lat="45.29472" lon="6.22418">
        <ele>1145.4890136719</ele>
        <time>2017-02-26T06:30:31Z</time>
      </trkpt>
      <trkpt lat="45.29473" lon="6.22427">
        <ele>1146.4890136719</ele>
        <time>2017-02-26T06:30:35Z</time>
      </trkpt>
      <trkpt lat="45.29476" lon="6.22434">
        <ele>1141.4890136719</ele>
        <time>2017-02-26T06:30:41Z</time>
      </trkpt>
      <trkpt lat="45.2948" lon="6.22438">
        <ele>1144.4890136719</ele>
        <time>2017-02-26T06:30:46Z</time>
      </trkpt>
      <trkpt lat="45.29485" lon="6.22441">
        <ele>1146.4890136719</ele>
        <time>2017-02-26T06:30:50Z</time>
      </trkpt>
      <trkpt lat="45.29489" lon="6.22448">
        <ele>1149.4890136719</ele>
        <time>2017-02-26T06:30:55Z</time>
      </trkpt>
      <trkpt lat="45.29494" lon="6.2245">
        <ele>1146.4890136719</ele>
        <time>2017-02-26T06:30:58Z</time>
      </trkpt>
      <trkpt lat="45.29498" lon="6.22456">
        <ele>1148.4890136719</ele>
        <time>2017-02-26T06:31:02Z</time>
      </trkpt>
      <trkpt lat="45.29503" lon="6.2246">
        <ele>1148.4890136719</ele>
        <time>2017-02-26T06:31:07Z</time>
      </trkpt>
      <trkpt lat="45.29507" lon="6.22464">
        <ele>1147.4890136719</ele>
        <time>2017-02-26T06:31:12Z</time>
      </trkpt>
      <trkpt lat="45.2951" lon="6.22469">
        <ele>1151.4890136719</ele>
        <time>2017-02-26T06:31:17Z</time>
      </trkpt>
      <trkpt lat="45.29515" lon="6.22471">
        <ele>1151.4890136719</ele>
        <time>2017-02-26T06:31:21Z</time>
      </trkpt>
      <trkpt lat="45.2952" lon="6.22472">
        <ele>1152.4890136719</ele>
        <time>2017-02-26T06:31:24Z</time>
      </trkpt>
      <trkpt lat="45.29525" lon="6.22473">
        <ele>1151.4890136719</ele>
        <time>2017-02-26T06:31:28Z</time>
      </trkpt>
      <trkpt lat="45.29531" lon="6.22476">
        <ele>1153.4890136719</ele>
        <time>2017-02-26T06:31:33Z</time>
      </trkpt>
      <trkpt lat="45.29535" lon="6.22477">
        <ele>1156.4890136719</ele>
        <time>2017-02-26T06:31:37Z</time>
      </trkpt>
      <trkpt lat="45.29541" lon="6.22479">
        <ele>1155.4890136719</ele>
        <time>2017-02-26T06:31:42Z</time>
      </trkpt>
      <trkpt lat="45.29544" lon="6.22485">
        <ele>1154.4890136719</ele>
        <time>2017-02-26T06:31:47Z</time>
      </trkpt>
      <trkpt lat="45.29547" lon="6.22491">
        <ele>1155.4899902344</ele>
        <time>2017-02-26T06:31:52Z</time>
      </trkpt>
      <trkpt lat="45.29551" lon="6.22495">
        <ele>1155.4899902344</ele>
        <time>2017-02-26T06:31:56Z</time>
      </trkpt>
      <trkpt lat="45.29555" lon="6.22499">
        <ele>1158.4899902344</ele>
        <time>2017-02-26T06:32:02Z</time>
      </trkpt>
      <trkpt lat="45.29559" lon="6.22503">
        <ele>1159.4899902344</ele>
        <time>2017-02-26T06:32:08Z</time>
      </trkpt>
      <trkpt lat="45.29561" lon="6.22509">
        <ele>1157.4899902344</ele>
        <time>2017-02-26T06:32:12Z</time>
      </trkpt>
      <trkpt lat="45.29566" lon="6.22512">
        <ele>1154.4899902344</ele>
        <time>2017-02-26T06:32:17Z</time>
      </trkpt>
      <trkpt lat="45.2957" lon="6.22518">
        <ele>1153.4899902344</ele>
        <time>2017-02-26T06:32:22Z</time>
      </trkpt>
      <trkpt lat="45.29574" lon="6.22523">
        <ele>1155.4899902344</ele>
        <time>2017-02-26T06:32:29Z</time>
      </trkpt>
      <trkpt lat="45.29578" lon="6.22528">
        <ele>1156.4899902344</ele>
        <time>2017-02-26T06:32:33Z</time>
      </trkpt>
      <trkpt lat="45.29581" lon="6.22533">
        <ele>1158.4899902344</ele>
        <time>2017-02-26T06:32:36Z</time>
      </trkpt>
      <trkpt lat="45.29585" lon="6.22537">
        <ele>1160.4899902344</ele>
        <time>2017-02-26T06:32:40Z</time>
      </trkpt>
      <trkpt lat="45.2959" lon="6.22539">
        <ele>1160.4899902344</ele>
        <time>2017-02-26T06:32:44Z</time>
      </trkpt>
      <trkpt lat="45.29594" lon="6.22541">
        <ele>1160.4899902344</ele>
        <time>2017-02-26T06:32:47Z</time>
      </trkpt>
      <trkpt lat="45.29599" lon="6.22545">
        <ele>1159.4899902344</ele>
        <time>2017-02-26T06:32:51Z</time>
      </trkpt>
      <trkpt lat="45.29604" lon="6.22546">
        <ele>1160.4899902344</ele>
        <time>2017-02-26T06:32:54Z</time>
      </trkpt>
      <trkpt lat="45.29609" lon="6.22549">
        <ele>1163.4899902344</ele>
        <time>2017-02-26T06:32:59Z</time>
      </trkpt>
      <trkpt lat="45.29613" lon="6.22551">
        <ele>1167.4899902344</ele>
        <time>2017-02-26T06:33:03Z</time>
      </trkpt>
      <trkpt lat="45.29618" lon="6.22553">
        <ele>1165.4899902344</ele>
        <time>2017-02-26T06:33:08Z</time>
      </trkpt>
      <trkpt lat="45.29624" lon="6.22555">
        <ele>1166.4899902344</ele>
        <time>2017-02-26T06:33:12Z</time>
      </trkpt>
      <trkpt lat="45.29629" lon="6.22557">
        <ele>1168.4899902344</ele>
        <time>2017-02-26T06:33:17Z</time>
      </trkpt>
      <trkpt lat="45.29634" lon="6.22559">
        <ele>1171.4899902344</ele>
        <time>2017-02-26T06:33:21Z</time>
      </trkpt>
      <trkpt lat="45.29639" lon="6.22561">
        <ele>1173.4899902344</ele>
        <time>2017-02-26T06:33:25Z</time>
      </trkpt>
      <trkpt lat="45.29646" lon="6.22561">
        <ele>1171.4899902344</ele>
        <time>2017-02-26T06:33:29Z</time>
      </trkpt>
      <trkpt lat="45.2965" lon="6.22564">
        <ele>1171.4899902344</ele>
        <time>2017-02-26T06:33:34Z</time>
      </trkpt>
      <trkpt lat="45.29654" lon="6.22567">
        <ele>1172.4899902344</ele>
        <time>2017-02-26T06:33:40Z</time>
      </trkpt>
      <trkpt lat="45.29658" lon="6.22572">
        <ele>1172.4899902344</ele>
        <time>2017-02-26T06:33:44Z</time>
      </trkpt>
      <trkpt lat="45.29662" lon="6.22576">
        <ele>1174.4899902344</ele>
        <time>2017-02-26T06:33:50Z</time>
      </trkpt>
      <trkpt lat="45.29666" lon="6.22581">
        <ele>1175.4899902344</ele>
        <time>2017-02-26T06:33:54Z</time>
      </trkpt>
      <trkpt lat="45.2967" lon="6.22584">
        <ele>1176.4899902344</ele>
        <time>2017-02-26T06:33:58Z</time>
      </trkpt>
      <trkpt lat="45.29673" lon="6.2259">
        <ele>1178.4899902344</ele>
        <time>2017-02-26T06:34:01Z</time>
      </trkpt>
      <trkpt lat="45.29677" lon="6.22594">
        <ele>1178.4899902344</ele>
        <time>2017-02-26T06:34:04Z</time>
      </trkpt>
      <trkpt lat="45.29681" lon="6.22598">
        <ele>1179.4899902344</ele>
        <time>2017-02-26T06:34:08Z</time>
      </trkpt>
      <trkpt lat="45.29685" lon="6.22601">
        <ele>1178.4899902344</ele>
        <time>2017-02-26T06:34:13Z</time>
      </trkpt>
      <trkpt lat="45.29689" lon="6.22606">
        <ele>1177.4899902344</ele>
        <time>2017-02-26T06:34:18Z</time>
      </trkpt>
      <trkpt lat="45.29693" lon="6.22613">
        <ele>1179.4899902344</ele>
        <time>2017-02-26T06:34:23Z</time>
      </trkpt>
      <trkpt lat="45.29695" lon="6.22619">
        <ele>1181.4899902344</ele>
        <time>2017-02-26T06:34:27Z</time>
      </trkpt>
      <trkpt lat="45.29698" lon="6.22627">
        <ele>1182.4899902344</ele>
        <time>2017-02-26T06:34:33Z</time>
      </trkpt>
      <trkpt lat="45.29702" lon="6.22633">
        <ele>1181.4899902344</ele>
        <time>2017-02-26T06:34:37Z</time>
      </trkpt>
      <trkpt lat="45.29704" lon="6.2264">
        <ele>1183.4899902344</ele>
        <time>2017-02-26T06:34:41Z</time>
      </trkpt>
      <trkpt lat="45.29707" lon="6.22645">
        <ele>1182.4899902344</ele>
        <time>2017-02-26T06:34:46Z</time>
      </trkpt>
      <trkpt lat="45.29711" lon="6.22649">
        <ele>1183.4899902344</ele>
        <time>2017-02-26T06:34:50Z</time>
      </trkpt>
      <trkpt lat="45.29715" lon="6.22653">
        <ele>1183.4899902344</ele>
        <time>2017-02-26T06:34:53Z</time>
      </trkpt>
      <trkpt lat="45.2972" lon="6.22659">
        <ele>1182.4899902344</ele>
        <time>2017-02-26T06:34:57Z</time>
      </trkpt>
      <trkpt lat="45.29723" lon="6.22663">
        <ele>1183.4899902344</ele>
        <time>2017-02-26T06:35:02Z</time>
      </trkpt>
      <trkpt lat="45.29728" lon="6.22666">
        <ele>1181.4899902344</ele>
        <time>2017-02-26T06:35:06Z</time>
      </trkpt>
      <trkpt lat="45.29729" lon="6.22672">
        <ele>1182.4899902344</ele>
        <time>2017-02-26T06:35:10Z</time>
      </trkpt>
      <trkpt lat="45.2973" lon="6.22678">
        <ele>1185.4899902344</ele>
        <time>2017-02-26T06:35:13Z</time>
      </trkpt>
      <trkpt lat="45.29732" lon="6.22684">
        <ele>1185.4899902344</ele>
        <time>2017-02-26T06:35:16Z</time>
      </trkpt>
      <trkpt lat="45.29733" lon="6.22691">
        <ele>1186.4899902344</ele>
        <time>2017-02-26T06:35:20Z</time>
      </trkpt>
      <trkpt lat="45.29733" lon="6.22699">
        <ele>1191.4899902344</ele>
        <time>2017-02-26T06:35:24Z</time>
      </trkpt>
      <trkpt lat="45.29734" lon="6.22707">
        <ele>1190.4899902344</ele>
        <time>2017-02-26T06:35:29Z</time>
      </trkpt>
      <trkpt lat="45.29738" lon="6.22712">
        <ele>1189.4899902344</ele>
        <time>2017-02-26T06:35:33Z</time>
      </trkpt>
      <trkpt lat="45.2974" lon="6.2272">
        <ele>1189.4899902344</ele>
        <time>2017-02-26T06:35:38Z</time>
      </trkpt>
      <trkpt lat="45.29742" lon="6.22727">
        <ele>1190.4899902344</ele>
        <time>2017-02-26T06:35:43Z</time>
      </trkpt>
      <trkpt lat="45.29746" lon="6.22733">
        <ele>1190.4899902344</ele>
        <time>2017-02-26T06:35:48Z</time>
      </trkpt>
      <trkpt lat="45.29748" lon="6.22739">
        <ele>1190.4899902344</ele>
        <time>2017-02-26T06:35:51Z</time>
      </trkpt>
      <trkpt lat="45.29753" lon="6.2274">
        <ele>1188.4899902344</ele>
        <time>2017-02-26T06:35:55Z</time>
      </trkpt>
      <trkpt lat="45.29757" lon="6.22745">
        <ele>1187.4899902344</ele>
        <time>2017-02-26T06:35:59Z</time>
      </trkpt>
      <trkpt lat="45.29761" lon="6.22749">
        <ele>1186.4899902344</ele>
        <time>2017-02-26T06:36:02Z</time>
      </trkpt>
      <trkpt lat="45.29762" lon="6.22755">
        <ele>1187.4899902344</ele>
        <time>2017-02-26T06:36:07Z</time>
      </trkpt>
      <trkpt lat="45.29766" lon="6.22761">
        <ele>1188.4899902344</ele>
        <time>2017-02-26T06:36:11Z</time>
      </trkpt>
      <trkpt lat="45.2977" lon="6.22764">
        <ele>1187.4899902344</ele>
        <time>2017-02-26T06:36:14Z</time>
      </trkpt>
      <trkpt lat="45.29775" lon="6.22767">
        <ele>1187.4899902344</ele>
        <time>2017-02-26T06:36:18Z</time>
      </trkpt>
      <trkpt lat="45.29778" lon="6.22773">
        <ele>1188.4899902344</ele>
        <time>2017-02-26T06:36:22Z</time>
      </trkpt>
      <trkpt lat="45.29783" lon="6.22777">
        <ele>1190.4899902344</ele>
        <time>2017-02-26T06:36:27Z</time>
      </trkpt>
      <trkpt lat="45.29786" lon="6.22783">
        <ele>1190.4899902344</ele>
        <time>2017-02-26T06:36:33Z</time>
      </trkpt>
      <trkpt lat="45.29785" lon="6.2279">
        <ele>1195.4899902344</ele>
        <time>2017-02-26T06:36:37Z</time>
      </trkpt>
      <trkpt lat="45.29787" lon="6.22797">
        <ele>1201.4899902344</ele>
        <time>2017-02-26T06:36:40Z</time>
      </trkpt>
      <trkpt lat="45.2979" lon="6.22803">
        <ele>1203.4899902344</ele>
        <time>2017-02-26T06:36:45Z</time>
      </trkpt>
      <trkpt lat="45.29794" lon="6.22809">
        <ele>1200.4899902344</ele>
        <time>2017-02-26T06:36:49Z</time>
      </trkpt>
      <trkpt lat="45.29797" lon="6.22814">
        <ele>1200.4899902344</ele>
        <time>2017-02-26T06:36:54Z</time>
      </trkpt>
      <trkpt lat="45.29801" lon="6.22818">
        <ele>1199.4899902344</ele>
        <time>2017-02-26T06:36:58Z</time>
      </trkpt>
      <trkpt lat="45.29804" lon="6.22823">
        <ele>1197.4899902344</ele>
        <time>2017-02-26T06:37:03Z</time>
      </trkpt>
      <trkpt lat="45.29808" lon="6.22829">
        <ele>1196.4899902344</ele>
        <time>2017-02-26T06:37:07Z</time>
      </trkpt>
      <trkpt lat="45.29809" lon="6.22836">
        <ele>1199.4899902344</ele>
        <time>2017-02-26T06:37:11Z</time>
      </trkpt>
      <trkpt lat="45.29812" lon="6.22843">
        <ele>1200.4899902344</ele>
        <time>2017-02-26T06:37:16Z</time>
      </trkpt>
      <trkpt lat="45.29814" lon="6.22849">
        <ele>1202.4899902344</ele>
        <time>2017-02-26T06:37:20Z</time>
      </trkpt>
      <trkpt lat="45.2982" lon="6.22851">
        <ele>1205.4909667969</ele>
        <time>2017-02-26T06:37:26Z</time>
      </trkpt>
      <trkpt lat="45.29825" lon="6.22853">
        <ele>1206.4909667969</ele>
        <time>2017-02-26T06:37:30Z</time>
      </trkpt>
      <trkpt lat="45.2983" lon="6.22854">
        <ele>1203.4909667969</ele>
        <time>2017-02-26T06:37:35Z</time>
      </trkpt>
      <trkpt lat="45.29835" lon="6.22859">
        <ele>1205.4909667969</ele>
        <time>2017-02-26T06:37:42Z</time>
      </trkpt>
      <trkpt lat="45.29839" lon="6.22864">
        <ele>1207.4909667969</ele>
        <time>2017-02-26T06:37:45Z</time>
      </trkpt>
      <trkpt lat="45.29843" lon="6.22865">
        <ele>1205.4909667969</ele>
        <time>2017-02-26T06:37:48Z</time>
      </trkpt>
      <trkpt lat="45.29847" lon="6.2287">
        <ele>1206.4909667969</ele>
        <time>2017-02-26T06:37:52Z</time>
      </trkpt>
      <trkpt lat="45.29852" lon="6.22873">
        <ele>1205.4909667969</ele>
        <time>2017-02-26T06:37:57Z</time>
      </trkpt>
      <trkpt lat="45.29856" lon="6.22878">
        <ele>1209.4909667969</ele>
        <time>2017-02-26T06:38:02Z</time>
      </trkpt>
      <trkpt lat="45.29861" lon="6.2288">
        <ele>1208.4909667969</ele>
        <time>2017-02-26T06:38:05Z</time>
      </trkpt>
      <trkpt lat="45.29863" lon="6.22886">
        <ele>1210.4909667969</ele>
        <time>2017-02-26T06:38:09Z</time>
      </trkpt>
      <trkpt lat="45.29865" lon="6.22893">
        <ele>1210.4909667969</ele>
        <time>2017-02-26T06:38:14Z</time>
      </trkpt>
      <trkpt lat="45.29868" lon="6.229">
        <ele>1210.4909667969</ele>
        <time>2017-02-26T06:38:18Z</time>
      </trkpt>
      <trkpt lat="45.29871" lon="6.22904">
        <ele>1211.4909667969</ele>
        <time>2017-02-26T06:38:21Z</time>
      </trkpt>
      <trkpt lat="45.29873" lon="6.22911">
        <ele>1210.4909667969</ele>
        <time>2017-02-26T06:38:27Z</time>
      </trkpt>
      <trkpt lat="45.29878" lon="6.22916">
        <ele>1210.4909667969</ele>
        <time>2017-02-26T06:38:31Z</time>
      </trkpt>
      <trkpt lat="45.29878" lon="6.22922">
        <ele>1212.4909667969</ele>
        <time>2017-02-26T06:38:35Z</time>
      </trkpt>
      <trkpt lat="45.2988" lon="6.22928">
        <ele>1211.4909667969</ele>
        <time>2017-02-26T06:38:41Z</time>
      </trkpt>
      <trkpt lat="45.29885" lon="6.2293">
        <ele>1210.4909667969</ele>
        <time>2017-02-26T06:38:44Z</time>
      </trkpt>
      <trkpt lat="45.2989" lon="6.22934">
        <ele>1210.4909667969</ele>
        <time>2017-02-26T06:38:50Z</time>
      </trkpt>
      <trkpt lat="45.29893" lon="6.22939">
        <ele>1210.4909667969</ele>
        <time>2017-02-26T06:38:54Z</time>
      </trkpt>
      <trkpt lat="45.29895" lon="6.22945">
        <ele>1211.4909667969</ele>
        <time>2017-02-26T06:38:58Z</time>
      </trkpt>
      <trkpt lat="45.29898" lon="6.22951">
        <ele>1212.4909667969</ele>
        <time>2017-02-26T06:39:02Z</time>
      </trkpt>
      <trkpt lat="45.29901" lon="6.22956">
        <ele>1213.4909667969</ele>
        <time>2017-02-26T06:39:06Z</time>
      </trkpt>
      <trkpt lat="45.29904" lon="6.22961">
        <ele>1211.4909667969</ele>
        <time>2017-02-26T06:39:11Z</time>
      </trkpt>
      <trkpt lat="45.29909" lon="6.22965">
        <ele>1213.4909667969</ele>
        <time>2017-02-26T06:39:16Z</time>
      </trkpt>
      <trkpt lat="45.29913" lon="6.22967">
        <ele>1213.4909667969</ele>
        <time>2017-02-26T06:39:19Z</time>
      </trkpt>
      <trkpt lat="45.29918" lon="6.22971">
        <ele>1213.4909667969</ele>
        <time>2017-02-26T06:39:24Z</time>
      </trkpt>
      <trkpt lat="45.29923" lon="6.22972">
        <ele>1213.4909667969</ele>
        <time>2017-02-26T06:39:28Z</time>
      </trkpt>
      <trkpt lat="45.29927" lon="6.22976">
        <ele>1215.4909667969</ele>
        <time>2017-02-26T06:39:33Z</time>
      </trkpt>
      <trkpt lat="45.29932" lon="6.22979">
        <ele>1216.4909667969</ele>
        <time>2017-02-26T06:39:39Z</time>
      </trkpt>
      <trkpt lat="45.29937" lon="6.22982">
        <ele>1215.4909667969</ele>
        <time>2017-02-26T06:39:43Z</time>
      </trkpt>
      <trkpt lat="45.29942" lon="6.22985">
        <ele>1215.4909667969</ele>
        <time>2017-02-26T06:39:48Z</time>
      </trkpt>
      <trkpt lat="45.29948" lon="6.22987">
        <ele>1215.4909667969</ele>
        <time>2017-02-26T06:39:53Z</time>
      </trkpt>
      <trkpt lat="45.29954" lon="6.2299">
        <ele>1216.4909667969</ele>
        <time>2017-02-26T06:40:01Z</time>
      </trkpt>
      <trkpt lat="45.29959" lon="6.2299">
        <ele>1214.4909667969</ele>
        <time>2017-02-26T06:40:05Z</time>
      </trkpt>
      <trkpt lat="45.29963" lon="6.22994">
        <ele>1216.4909667969</ele>
        <time>2017-02-26T06:40:09Z</time>
      </trkpt>
      <trkpt lat="45.29967" lon="6.22997">
        <ele>1221.4909667969</ele>
        <time>2017-02-26T06:40:18Z</time>
      </trkpt>
      <trkpt lat="45.29972" lon="6.23001">
        <ele>1222.4909667969</ele>
        <time>2017-02-26T06:40:26Z</time>
      </trkpt>
      <trkpt lat="45.29979" lon="6.23004">
        <ele>1220.4909667969</ele>
        <time>2017-02-26T06:40:28Z</time>
      </trkpt>
      <trkpt lat="45.29979" lon="6.2301">
        <ele>1221.4909667969</ele>
        <time>2017-02-26T06:40:30Z</time>
      </trkpt>
      <trkpt lat="45.29981" lon="6.23018">
        <ele>1222.4909667969</ele>
        <time>2017-02-26T06:40:33Z</time>
      </trkpt>
      <trkpt lat="45.29984" lon="6.23024">
        <ele>1219.4909667969</ele>
        <time>2017-02-26T06:40:38Z</time>
      </trkpt>
      <trkpt lat="45.29982" lon="6.23029">
        <ele>1221.4909667969</ele>
        <time>2017-02-26T06:40:42Z</time>
      </trkpt>
      <trkpt lat="45.2998" lon="6.23037">
        <ele>1222.4909667969</ele>
        <time>2017-02-26T06:40:46Z</time>
      </trkpt>
      <trkpt lat="45.29978" lon="6.23044">
        <ele>1224.4909667969</ele>
        <time>2017-02-26T06:40:48Z</time>
      </trkpt>
      <trkpt lat="45.2998" lon="6.2305">
        <ele>1224.4909667969</ele>
        <time>2017-02-26T06:40:51Z</time>
      </trkpt>
      <trkpt lat="45.29978" lon="6.23056">
        <ele>1225.4909667969</ele>
        <time>2017-02-26T06:40:54Z</time>
      </trkpt>
      <trkpt lat="45.29977" lon="6.23064">
        <ele>1227.4909667969</ele>
        <time>2017-02-26T06:40:58Z</time>
      </trkpt>
      <trkpt lat="45.29977" lon="6.23071">
        <ele>1227.4909667969</ele>
        <time>2017-02-26T06:41:01Z</time>
      </trkpt>
      <trkpt lat="45.29976" lon="6.23078">
        <ele>1228.4909667969</ele>
        <time>2017-02-26T06:41:05Z</time>
      </trkpt>
      <trkpt lat="45.29977" lon="6.23085">
        <ele>1227.4909667969</ele>
        <time>2017-02-26T06:41:11Z</time>
      </trkpt>
      <trkpt lat="45.29978" lon="6.23091">
        <ele>1227.4909667969</ele>
        <time>2017-02-26T06:41:16Z</time>
      </trkpt>
      <trkpt lat="45.29983" lon="6.23098">
        <ele>1229.4909667969</ele>
        <time>2017-02-26T06:41:23Z</time>
      </trkpt>
      <trkpt lat="45.29986" lon="6.23103">
        <ele>1230.4909667969</ele>
        <time>2017-02-26T06:41:27Z</time>
      </trkpt>
      <trkpt lat="45.29989" lon="6.23108">
        <ele>1230.4909667969</ele>
        <time>2017-02-26T06:41:31Z</time>
      </trkpt>
      <trkpt lat="45.29993" lon="6.23112">
        <ele>1230.4909667969</ele>
        <time>2017-02-26T06:41:35Z</time>
      </trkpt>
      <trkpt lat="45.29995" lon="6.23117">
        <ele>1231.4909667969</ele>
        <time>2017-02-26T06:41:39Z</time>
      </trkpt>
      <trkpt lat="45.29999" lon="6.23123">
        <ele>1232.4909667969</ele>
        <time>2017-02-26T06:41:43Z</time>
      </trkpt>
      <trkpt lat="45.30004" lon="6.23127">
        <ele>1230.4909667969</ele>
        <time>2017-02-26T06:41:47Z</time>
      </trkpt>
      <trkpt lat="45.30008" lon="6.23133">
        <ele>1231.4909667969</ele>
        <time>2017-02-26T06:41:52Z</time>
      </trkpt>
      <trkpt lat="45.30012" lon="6.23138">
        <ele>1229.4909667969</ele>
        <time>2017-02-26T06:41:57Z</time>
      </trkpt>
      <trkpt lat="45.30013" lon="6.23145">
        <ele>1229.4909667969</ele>
        <time>2017-02-26T06:42:02Z</time>
      </trkpt>
      <trkpt lat="45.30017" lon="6.2315">
        <ele>1232.4909667969</ele>
        <time>2017-02-26T06:42:08Z</time>
      </trkpt>
      <trkpt lat="45.30019" lon="6.23156">
        <ele>1231.4909667969</ele>
        <time>2017-02-26T06:42:13Z</time>
      </trkpt>
      <trkpt lat="45.3002" lon="6.23163">
        <ele>1232.4909667969</ele>
        <time>2017-02-26T06:42:18Z</time>
      </trkpt>
      <trkpt lat="45.30022" lon="6.23168">
        <ele>1234.4909667969</ele>
        <time>2017-02-26T06:42:22Z</time>
      </trkpt>
      <trkpt lat="45.30025" lon="6.23176">
        <ele>1231.4909667969</ele>
        <time>2017-02-26T06:42:27Z</time>
      </trkpt>
      <trkpt lat="45.30029" lon="6.23181">
        <ele>1231.4909667969</ele>
        <time>2017-02-26T06:42:31Z</time>
      </trkpt>
      <trkpt lat="45.30032" lon="6.23186">
        <ele>1230.4909667969</ele>
        <time>2017-02-26T06:42:35Z</time>
      </trkpt>
      <trkpt lat="45.30037" lon="6.23192">
        <ele>1234.4909667969</ele>
        <time>2017-02-26T06:42:39Z</time>
      </trkpt>
      <trkpt lat="45.30042" lon="6.23196">
        <ele>1233.4909667969</ele>
        <time>2017-02-26T06:42:42Z</time>
      </trkpt>
      <trkpt lat="45.30046" lon="6.232">
        <ele>1237.4909667969</ele>
        <time>2017-02-26T06:42:47Z</time>
      </trkpt>
      <trkpt lat="45.30051" lon="6.23201">
        <ele>1239.4909667969</ele>
        <time>2017-02-26T06:42:52Z</time>
      </trkpt>
      <trkpt lat="45.30057" lon="6.232">
        <ele>1238.4909667969</ele>
        <time>2017-02-26T06:42:55Z</time>
      </trkpt>
      <trkpt lat="45.30062" lon="6.23205">
        <ele>1239.4909667969</ele>
        <time>2017-02-26T06:43:01Z</time>
      </trkpt>
      <trkpt lat="45.30067" lon="6.23206">
        <ele>1240.4909667969</ele>
        <time>2017-02-26T06:43:05Z</time>
      </trkpt>
      <trkpt lat="45.30074" lon="6.23202">
        <ele>1239.4909667969</ele>
        <time>2017-02-26T06:43:09Z</time>
      </trkpt>
      <trkpt lat="45.30079" lon="6.23201">
        <ele>1240.4909667969</ele>
        <time>2017-02-26T06:43:13Z</time>
      </trkpt>
      <trkpt lat="45.30085" lon="6.23201">
        <ele>1240.4909667969</ele>
        <time>2017-02-26T06:43:16Z</time>
      </trkpt>
      <trkpt lat="45.30091" lon="6.23203">
        <ele>1241.4909667969</ele>
        <time>2017-02-26T06:43:21Z</time>
      </trkpt>
      <trkpt lat="45.30095" lon="6.23205">
        <ele>1242.4919433594</ele>
        <time>2017-02-26T06:43:28Z</time>
      </trkpt>
      <trkpt lat="45.301" lon="6.23207">
        <ele>1244.4919433594</ele>
        <time>2017-02-26T06:43:32Z</time>
      </trkpt>
      <trkpt lat="45.30105" lon="6.23211">
        <ele>1243.4919433594</ele>
        <time>2017-02-26T06:43:36Z</time>
      </trkpt>
      <trkpt lat="45.30109" lon="6.23215">
        <ele>1244.4919433594</ele>
        <time>2017-02-26T06:43:39Z</time>
      </trkpt>
      <trkpt lat="45.30114" lon="6.23219">
        <ele>1246.4919433594</ele>
        <time>2017-02-26T06:43:44Z</time>
      </trkpt>
      <trkpt lat="45.3012" lon="6.2322">
        <ele>1246.4919433594</ele>
        <time>2017-02-26T06:43:48Z</time>
      </trkpt>
      <trkpt lat="45.30123" lon="6.23225">
        <ele>1249.4919433594</ele>
        <time>2017-02-26T06:43:52Z</time>
      </trkpt>
      <trkpt lat="45.30126" lon="6.2323">
        <ele>1249.4919433594</ele>
        <time>2017-02-26T06:43:57Z</time>
      </trkpt>
      <trkpt lat="45.30129" lon="6.23236">
        <ele>1250.4919433594</ele>
        <time>2017-02-26T06:44:02Z</time>
      </trkpt>
      <trkpt lat="45.30133" lon="6.2324">
        <ele>1250.4919433594</ele>
        <time>2017-02-26T06:44:05Z</time>
      </trkpt>
      <trkpt lat="45.30139" lon="6.23244">
        <ele>1251.4919433594</ele>
        <time>2017-02-26T06:44:15Z</time>
      </trkpt>
      <trkpt lat="45.30145" lon="6.23246">
        <ele>1247.4919433594</ele>
        <time>2017-02-26T06:44:19Z</time>
      </trkpt>
      <trkpt lat="45.30151" lon="6.23246">
        <ele>1249.4919433594</ele>
        <time>2017-02-26T06:44:23Z</time>
      </trkpt>
      <trkpt lat="45.30155" lon="6.23243">
        <ele>1250.4919433594</ele>
        <time>2017-02-26T06:44:26Z</time>
      </trkpt>
      <trkpt lat="45.30156" lon="6.23236">
        <ele>1251.4919433594</ele>
        <time>2017-02-26T06:44:31Z</time>
      </trkpt>
      <trkpt lat="45.30155" lon="6.2323">
        <ele>1250.4919433594</ele>
        <time>2017-02-26T06:44:35Z</time>
      </trkpt>
      <trkpt lat="45.30154" lon="6.23223">
        <ele>1250.4919433594</ele>
        <time>2017-02-26T06:44:39Z</time>
      </trkpt>
      <trkpt lat="45.30149" lon="6.23214">
        <ele>1251.4919433594</ele>
        <time>2017-02-26T06:44:46Z</time>
      </trkpt>
      <trkpt lat="45.30145" lon="6.23209">
        <ele>1252.4919433594</ele>
        <time>2017-02-26T06:44:51Z</time>
      </trkpt>
      <trkpt lat="45.30143" lon="6.23202">
        <ele>1250.4919433594</ele>
        <time>2017-02-26T06:44:55Z</time>
      </trkpt>
      <trkpt lat="45.30138" lon="6.23198">
        <ele>1252.4919433594</ele>
        <time>2017-02-26T06:45:00Z</time>
      </trkpt>
      <trkpt lat="45.30135" lon="6.23194">
        <ele>1256.4919433594</ele>
        <time>2017-02-26T06:45:05Z</time>
      </trkpt>
      <trkpt lat="45.30131" lon="6.23189">
        <ele>1254.4919433594</ele>
        <time>2017-02-26T06:45:10Z</time>
      </trkpt>
      <trkpt lat="45.30127" lon="6.23185">
        <ele>1256.4919433594</ele>
        <time>2017-02-26T06:45:14Z</time>
      </trkpt>
      <trkpt lat="45.30124" lon="6.2318">
        <ele>1257.4919433594</ele>
        <time>2017-02-26T06:45:17Z</time>
      </trkpt>
      <trkpt lat="45.30119" lon="6.23178">
        <ele>1259.4919433594</ele>
        <time>2017-02-26T06:45:22Z</time>
      </trkpt>
      <trkpt lat="45.30116" lon="6.23172">
        <ele>1260.4919433594</ele>
        <time>2017-02-26T06:45:27Z</time>
      </trkpt>
      <trkpt lat="45.30111" lon="6.23171">
        <ele>1260.4909667969</ele>
        <time>2017-02-26T06:45:30Z</time>
      </trkpt>
      <trkpt lat="45.30103" lon="6.23171">
        <ele>1263.4909667969</ele>
        <time>2017-02-26T06:45:35Z</time>
      </trkpt>
      <trkpt lat="45.30097" lon="6.2317">
        <ele>1266.4909667969</ele>
        <time>2017-02-26T06:45:39Z</time>
      </trkpt>
      <trkpt lat="45.30091" lon="6.2317">
        <ele>1265.4909667969</ele>
        <time>2017-02-26T06:45:46Z</time>
      </trkpt>
      <trkpt lat="45.30086" lon="6.23169">
        <ele>1264.4909667969</ele>
        <time>2017-02-26T06:45:50Z</time>
      </trkpt>
      <trkpt lat="45.30081" lon="6.23165">
        <ele>1264.4909667969</ele>
        <time>2017-02-26T06:45:56Z</time>
      </trkpt>
      <trkpt lat="45.30076" lon="6.23163">
        <ele>1264.4909667969</ele>
        <time>2017-02-26T06:46:00Z</time>
      </trkpt>
      <trkpt lat="45.30071" lon="6.23158">
        <ele>1265.4909667969</ele>
        <time>2017-02-26T06:46:05Z</time>
      </trkpt>
      <trkpt lat="45.30067" lon="6.23151">
        <ele>1265.4909667969</ele>
        <time>2017-02-26T06:46:11Z</time>
      </trkpt>
      <trkpt lat="45.30064" lon="6.23146">
        <ele>1266.4909667969</ele>
        <time>2017-02-26T06:46:15Z</time>
      </trkpt>
      <trkpt lat="45.30062" lon="6.23139">
        <ele>1266.4909667969</ele>
        <time>2017-02-26T06:46:17Z</time>
      </trkpt>
      <trkpt lat="45.30065" lon="6.23134">
        <ele>1267.4909667969</ele>
        <time>2017-02-26T06:46:21Z</time>
      </trkpt>
      <trkpt lat="45.30063" lon="6.23127">
        <ele>1267.4909667969</ele>
        <time>2017-02-26T06:46:25Z</time>
      </trkpt>
      <trkpt lat="45.30061" lon="6.23121">
        <ele>1267.4909667969</ele>
        <time>2017-02-26T06:46:29Z</time>
      </trkpt>
      <trkpt lat="45.3006" lon="6.23114">
        <ele>1267.4909667969</ele>
        <time>2017-02-26T06:46:32Z</time>
      </trkpt>
      <trkpt lat="45.30059" lon="6.23108">
        <ele>1268.4909667969</ele>
        <time>2017-02-26T06:46:39Z</time>
      </trkpt>
      <trkpt lat="45.30056" lon="6.231">
        <ele>1268.4909667969</ele>
        <time>2017-02-26T06:46:43Z</time>
      </trkpt>
      <trkpt lat="45.30058" lon="6.23094">
        <ele>1269.4909667969</ele>
        <time>2017-02-26T06:46:48Z</time>
      </trkpt>
      <trkpt lat="45.30058" lon="6.23087">
        <ele>1269.4909667969</ele>
        <time>2017-02-26T06:46:52Z</time>
      </trkpt>
      <trkpt lat="45.30058" lon="6.23079">
        <ele>1267.4909667969</ele>
        <time>2017-02-26T06:46:56Z</time>
      </trkpt>
      <trkpt lat="45.30058" lon="6.23072">
        <ele>1268.4909667969</ele>
        <time>2017-02-26T06:47:02Z</time>
      </trkpt>
      <trkpt lat="45.30059" lon="6.23065">
        <ele>1270.4909667969</ele>
        <time>2017-02-26T06:47:05Z</time>
      </trkpt>
      <trkpt lat="45.3006" lon="6.23057">
        <ele>1271.4909667969</ele>
        <time>2017-02-26T06:47:09Z</time>
      </trkpt>
      <trkpt lat="45.30061" lon="6.2305">
        <ele>1274.4909667969</ele>
        <time>2017-02-26T06:47:14Z</time>
      </trkpt>
      <trkpt lat="45.30062" lon="6.23043">
        <ele>1275.4909667969</ele>
        <time>2017-02-26T06:47:18Z</time>
      </trkpt>
      <trkpt lat="45.30063" lon="6.23035">
        <ele>1274.4909667969</ele>
        <time>2017-02-26T06:47:22Z</time>
      </trkpt>
      <trkpt lat="45.30065" lon="6.23029">
        <ele>1274.4909667969</ele>
        <time>2017-02-26T06:47:25Z</time>
      </trkpt>
      <trkpt lat="45.30066" lon="6.23022">
        <ele>1276.4909667969</ele>
        <time>2017-02-26T06:47:30Z</time>
      </trkpt>
      <trkpt lat="45.30068" lon="6.23016">
        <ele>1276.4909667969</ele>
        <time>2017-02-26T06:47:33Z</time>
      </trkpt>
      <trkpt lat="45.30069" lon="6.23009">
        <ele>1277.4909667969</ele>
        <time>2017-02-26T06:47:37Z</time>
      </trkpt>
      <trkpt lat="45.30072" lon="6.23003">
        <ele>1278.4909667969</ele>
        <time>2017-02-26T06:47:42Z</time>
      </trkpt>
      <trkpt lat="45.30074" lon="6.22996">
        <ele>1279.4909667969</ele>
        <time>2017-02-26T06:47:47Z</time>
      </trkpt>
      <trkpt lat="45.30074" lon="6.22989">
        <ele>1282.4909667969</ele>
        <time>2017-02-26T06:47:51Z</time>
      </trkpt>
      <trkpt lat="45.30077" lon="6.22983">
        <ele>1281.4909667969</ele>
        <time>2017-02-26T06:47:55Z</time>
      </trkpt>
      <trkpt lat="45.30078" lon="6.22975">
        <ele>1284.4909667969</ele>
        <time>2017-02-26T06:48:09Z</time>
      </trkpt>
      <trkpt lat="45.30076" lon="6.22967">
        <ele>1285.4909667969</ele>
        <time>2017-02-26T06:48:12Z</time>
      </trkpt>
      <trkpt lat="45.30077" lon="6.22958">
        <ele>1288.4909667969</ele>
        <time>2017-02-26T06:48:15Z</time>
      </trkpt>
      <trkpt lat="45.30081" lon="6.22953">
        <ele>1288.4909667969</ele>
        <time>2017-02-26T06:48:24Z</time>
      </trkpt>
      <trkpt lat="45.30075" lon="6.22947">
        <ele>1289.4909667969</ele>
        <time>2017-02-26T06:49:03Z</time>
      </trkpt>
      <trkpt lat="45.3007" lon="6.22945">
        <ele>1290.4909667969</ele>
        <time>2017-02-26T06:49:06Z</time>
      </trkpt>
      <trkpt lat="45.30064" lon="6.2294">
        <ele>1288.4909667969</ele>
        <time>2017-02-26T06:49:10Z</time>
      </trkpt>
      <trkpt lat="45.30059" lon="6.22936">
        <ele>1287.4909667969</ele>
        <time>2017-02-26T06:49:16Z</time>
      </trkpt>
      <trkpt lat="45.30054" lon="6.22934">
        <ele>1290.4909667969</ele>
        <time>2017-02-26T06:49:19Z</time>
      </trkpt>
      <trkpt lat="45.3005" lon="6.22931">
        <ele>1291.4909667969</ele>
        <time>2017-02-26T06:49:24Z</time>
      </trkpt>
      <trkpt lat="45.30047" lon="6.22926">
        <ele>1290.4909667969</ele>
        <time>2017-02-26T06:49:27Z</time>
      </trkpt>
      <trkpt lat="45.30042" lon="6.22923">
        <ele>1290.4909667969</ele>
        <time>2017-02-26T06:49:30Z</time>
      </trkpt>
      <trkpt lat="45.3004" lon="6.22916">
        <ele>1289.4909667969</ele>
        <time>2017-02-26T06:49:36Z</time>
      </trkpt>
      <trkpt lat="45.30037" lon="6.2291">
        <ele>1289.4909667969</ele>
        <time>2017-02-26T06:49:45Z</time>
      </trkpt>
      <trkpt lat="45.30033" lon="6.22903">
        <ele>1291.4909667969</ele>
        <time>2017-02-26T06:49:49Z</time>
      </trkpt>
      <trkpt lat="45.30034" lon="6.22896">
        <ele>1287.4909667969</ele>
        <time>2017-02-26T06:49:52Z</time>
      </trkpt>
      <trkpt lat="45.30033" lon="6.22887">
        <ele>1288.4909667969</ele>
        <time>2017-02-26T06:49:56Z</time>
      </trkpt>
      <trkpt lat="45.30032" lon="6.2288">
        <ele>1289.4909667969</ele>
        <time>2017-02-26T06:50:00Z</time>
      </trkpt>
      <trkpt lat="45.30032" lon="6.22872">
        <ele>1290.4909667969</ele>
        <time>2017-02-26T06:50:03Z</time>
      </trkpt>
      <trkpt lat="45.30033" lon="6.22865">
        <ele>1292.4909667969</ele>
        <time>2017-02-26T06:50:06Z</time>
      </trkpt>
      <trkpt lat="45.30033" lon="6.22858">
        <ele>1290.4909667969</ele>
        <time>2017-02-26T06:50:10Z</time>
      </trkpt>
      <trkpt lat="45.30031" lon="6.22851">
        <ele>1291.4909667969</ele>
        <time>2017-02-26T06:50:14Z</time>
      </trkpt>
      <trkpt lat="45.30028" lon="6.22845">
        <ele>1291.4909667969</ele>
        <time>2017-02-26T06:50:19Z</time>
      </trkpt>
      <trkpt lat="45.30027" lon="6.22837">
        <ele>1293.4909667969</ele>
        <time>2017-02-26T06:50:22Z</time>
      </trkpt>
      <trkpt lat="45.30026" lon="6.2283">
        <ele>1293.4909667969</ele>
        <time>2017-02-26T06:50:26Z</time>
      </trkpt>
      <trkpt lat="45.30022" lon="6.22822">
        <ele>1294.4909667969</ele>
        <time>2017-02-26T06:50:31Z</time>
      </trkpt>
      <trkpt lat="45.30025" lon="6.22816">
        <ele>1294.4909667969</ele>
        <time>2017-02-26T06:50:33Z</time>
      </trkpt>
      <trkpt lat="45.30027" lon="6.22809">
        <ele>1291.4909667969</ele>
        <time>2017-02-26T06:50:39Z</time>
      </trkpt>
      <trkpt lat="45.30025" lon="6.22799">
        <ele>1291.4909667969</ele>
        <time>2017-02-26T06:50:44Z</time>
      </trkpt>
      <trkpt lat="45.30023" lon="6.22793">
        <ele>1291.4909667969</ele>
        <time>2017-02-26T06:50:46Z</time>
      </trkpt>
      <trkpt lat="45.30023" lon="6.22786">
        <ele>1290.4909667969</ele>
        <time>2017-02-26T06:50:52Z</time>
      </trkpt>
      <trkpt lat="45.30026" lon="6.2278">
        <ele>1289.4909667969</ele>
        <time>2017-02-26T06:50:56Z</time>
      </trkpt>
      <trkpt lat="45.30025" lon="6.22773">
        <ele>1294.4909667969</ele>
        <time>2017-02-26T06:51:00Z</time>
      </trkpt>
      <trkpt lat="45.30022" lon="6.22765">
        <ele>1295.4909667969</ele>
        <time>2017-02-26T06:51:05Z</time>
      </trkpt>
      <trkpt lat="45.30021" lon="6.22757">
        <ele>1298.4909667969</ele>
        <time>2017-02-26T06:51:09Z</time>
      </trkpt>
      <trkpt lat="45.30019" lon="6.22751">
        <ele>1299.4909667969</ele>
        <time>2017-02-26T06:51:14Z</time>
      </trkpt>
      <trkpt lat="45.30016" lon="6.22745">
        <ele>1300.4909667969</ele>
        <time>2017-02-26T06:51:17Z</time>
      </trkpt>
      <trkpt lat="45.30016" lon="6.22738">
        <ele>1301.4909667969</ele>
        <time>2017-02-26T06:51:21Z</time>
      </trkpt>
      <trkpt lat="45.30015" lon="6.22732">
        <ele>1299.4909667969</ele>
        <time>2017-02-26T06:51:26Z</time>
      </trkpt>
      <trkpt lat="45.30013" lon="6.22726">
        <ele>1298.4909667969</ele>
        <time>2017-02-26T06:51:30Z</time>
      </trkpt>
      <trkpt lat="45.30012" lon="6.22719">
        <ele>1301.4909667969</ele>
        <time>2017-02-26T06:51:33Z</time>
      </trkpt>
      <trkpt lat="45.30014" lon="6.22711">
        <ele>1304.4909667969</ele>
        <time>2017-02-26T06:51:37Z</time>
      </trkpt>
      <trkpt lat="45.30013" lon="6.22704">
        <ele>1303.4909667969</ele>
        <time>2017-02-26T06:51:42Z</time>
      </trkpt>
      <trkpt lat="45.30014" lon="6.22697">
        <ele>1303.4909667969</ele>
        <time>2017-02-26T06:51:46Z</time>
      </trkpt>
      <trkpt lat="45.30014" lon="6.22689">
        <ele>1303.4909667969</ele>
        <time>2017-02-26T06:51:51Z</time>
      </trkpt>
      <trkpt lat="45.30011" lon="6.22682">
        <ele>1304.4909667969</ele>
        <time>2017-02-26T06:51:56Z</time>
      </trkpt>
      <trkpt lat="45.30009" lon="6.22675">
        <ele>1306.4909667969</ele>
        <time>2017-02-26T06:52:00Z</time>
      </trkpt>
      <trkpt lat="45.30007" lon="6.22667">
        <ele>1307.4909667969</ele>
        <time>2017-02-26T06:52:04Z</time>
      </trkpt>
      <trkpt lat="45.30006" lon="6.2266">
        <ele>1309.4909667969</ele>
        <time>2017-02-26T06:52:07Z</time>
      </trkpt>
      <trkpt lat="45.30005" lon="6.22653">
        <ele>1310.4909667969</ele>
        <time>2017-02-26T06:52:11Z</time>
      </trkpt>
      <trkpt lat="45.30003" lon="6.22645">
        <ele>1313.4909667969</ele>
        <time>2017-02-26T06:52:16Z</time>
      </trkpt>
      <trkpt lat="45.30001" lon="6.22639">
        <ele>1314.4909667969</ele>
        <time>2017-02-26T06:52:19Z</time>
      </trkpt>
      <trkpt lat="45.29998" lon="6.22631">
        <ele>1315.4909667969</ele>
        <time>2017-02-26T06:52:23Z</time>
      </trkpt>
      <trkpt lat="45.29997" lon="6.22624">
        <ele>1314.4909667969</ele>
        <time>2017-02-26T06:52:28Z</time>
      </trkpt>
      <trkpt lat="45.29994" lon="6.22617">
        <ele>1315.4909667969</ele>
        <time>2017-02-26T06:52:32Z</time>
      </trkpt>
      <trkpt lat="45.29993" lon="6.22609">
        <ele>1315.4909667969</ele>
        <time>2017-02-26T06:52:37Z</time>
      </trkpt>
      <trkpt lat="45.29992" lon="6.22603">
        <ele>1316.4899902344</ele>
        <time>2017-02-26T06:52:43Z</time>
      </trkpt>
      <trkpt lat="45.29988" lon="6.22598">
        <ele>1316.4899902344</ele>
        <time>2017-02-26T06:52:48Z</time>
      </trkpt>
      <trkpt lat="45.29984" lon="6.2259">
        <ele>1322.4899902344</ele>
        <time>2017-02-26T06:52:52Z</time>
      </trkpt>
      <trkpt lat="45.29982" lon="6.22582">
        <ele>1323.4899902344</ele>
        <time>2017-02-26T06:53:04Z</time>
      </trkpt>
      <trkpt lat="45.29982" lon="6.22575">
        <ele>1322.4899902344</ele>
        <time>2017-02-26T06:53:06Z</time>
      </trkpt>
      <trkpt lat="45.29983" lon="6.22568">
        <ele>1321.4899902344</ele>
        <time>2017-02-26T06:53:09Z</time>
      </trkpt>
      <trkpt lat="45.29981" lon="6.22561">
        <ele>1323.4899902344</ele>
        <time>2017-02-26T06:53:13Z</time>
      </trkpt>
      <trkpt lat="45.29979" lon="6.22552">
        <ele>1325.4899902344</ele>
        <time>2017-02-26T06:53:17Z</time>
      </trkpt>
      <trkpt lat="45.29976" lon="6.22545">
        <ele>1327.4899902344</ele>
        <time>2017-02-26T06:53:20Z</time>
      </trkpt>
      <trkpt lat="45.29973" lon="6.2254">
        <ele>1326.4899902344</ele>
        <time>2017-02-26T06:53:24Z</time>
      </trkpt>
      <trkpt lat="45.29963" lon="6.22538">
        <ele>1330.4899902344</ele>
        <time>2017-02-26T06:53:29Z</time>
      </trkpt>
      <trkpt lat="45.29959" lon="6.22535">
        <ele>1329.4899902344</ele>
        <time>2017-02-26T06:53:34Z</time>
      </trkpt>
      <trkpt lat="45.29956" lon="6.22528">
        <ele>1329.4899902344</ele>
        <time>2017-02-26T06:53:39Z</time>
      </trkpt>
      <trkpt lat="45.29952" lon="6.22524">
        <ele>1329.4899902344</ele>
        <time>2017-02-26T06:53:42Z</time>
      </trkpt>
      <trkpt lat="45.29948" lon="6.22519">
        <ele>1329.4899902344</ele>
        <time>2017-02-26T06:53:48Z</time>
      </trkpt>
      <trkpt lat="45.29948" lon="6.2251">
        <ele>1328.4899902344</ele>
        <time>2017-02-26T06:53:52Z</time>
      </trkpt>
      <trkpt lat="45.29946" lon="6.22504">
        <ele>1326.4899902344</ele>
        <time>2017-02-26T06:53:56Z</time>
      </trkpt>
      <trkpt lat="45.29943" lon="6.22498">
        <ele>1327.4899902344</ele>
        <time>2017-02-26T06:54:00Z</time>
      </trkpt>
      <trkpt lat="45.2994" lon="6.22492">
        <ele>1327.4899902344</ele>
        <time>2017-02-26T06:54:06Z</time>
      </trkpt>
      <trkpt lat="45.29936" lon="6.22486">
        <ele>1326.4899902344</ele>
        <time>2017-02-26T06:54:10Z</time>
      </trkpt>
      <trkpt lat="45.29935" lon="6.22478">
        <ele>1325.4899902344</ele>
        <time>2017-02-26T06:54:15Z</time>
      </trkpt>
      <trkpt lat="45.2993" lon="6.22474">
        <ele>1328.4899902344</ele>
        <time>2017-02-26T06:54:20Z</time>
      </trkpt>
      <trkpt lat="45.29927" lon="6.22469">
        <ele>1329.4899902344</ele>
        <time>2017-02-26T06:54:23Z</time>
      </trkpt>
      <trkpt lat="45.29923" lon="6.22465">
        <ele>1333.4899902344</ele>
        <time>2017-02-26T06:54:26Z</time>
      </trkpt>
      <trkpt lat="45.29919" lon="6.22463">
        <ele>1334.4899902344</ele>
        <time>2017-02-26T06:54:28Z</time>
      </trkpt>
      <trkpt lat="45.29919" lon="6.22455">
        <ele>1332.4899902344</ele>
        <time>2017-02-26T06:54:32Z</time>
      </trkpt>
      <trkpt lat="45.29915" lon="6.22449">
        <ele>1333.4899902344</ele>
        <time>2017-02-26T06:54:35Z</time>
      </trkpt>
      <trkpt lat="45.29913" lon="6.22443">
        <ele>1333.4899902344</ele>
        <time>2017-02-26T06:54:38Z</time>
      </trkpt>
      <trkpt lat="45.2991" lon="6.22435">
        <ele>1334.4899902344</ele>
        <time>2017-02-26T06:54:42Z</time>
      </trkpt>
      <trkpt lat="45.29908" lon="6.22427">
        <ele>1334.4899902344</ele>
        <time>2017-02-26T06:54:45Z</time>
      </trkpt>
      <trkpt lat="45.29907" lon="6.2242">
        <ele>1335.4899902344</ele>
        <time>2017-02-26T06:54:48Z</time>
      </trkpt>
      <trkpt lat="45.29905" lon="6.22412">
        <ele>1334.4899902344</ele>
        <time>2017-02-26T06:54:52Z</time>
      </trkpt>
      <trkpt lat="45.29901" lon="6.22408">
        <ele>1332.4899902344</ele>
        <time>2017-02-26T06:54:56Z</time>
      </trkpt>
      <trkpt lat="45.29898" lon="6.22403">
        <ele>1332.4899902344</ele>
        <time>2017-02-26T06:55:01Z</time>
      </trkpt>
      <trkpt lat="45.29895" lon="6.22397">
        <ele>1334.4899902344</ele>
        <time>2017-02-26T06:55:06Z</time>
      </trkpt>
      <trkpt lat="45.29893" lon="6.2239">
        <ele>1334.4899902344</ele>
        <time>2017-02-26T06:55:11Z</time>
      </trkpt>
      <trkpt lat="45.29889" lon="6.22384">
        <ele>1336.4899902344</ele>
        <time>2017-02-26T06:55:15Z</time>
      </trkpt>
      <trkpt lat="45.29886" lon="6.22379">
        <ele>1339.4899902344</ele>
        <time>2017-02-26T06:55:20Z</time>
      </trkpt>
      <trkpt lat="45.29886" lon="6.22372">
        <ele>1338.4899902344</ele>
        <time>2017-02-26T06:55:23Z</time>
      </trkpt>
      <trkpt lat="45.29884" lon="6.22365">
        <ele>1340.4899902344</ele>
        <time>2017-02-26T06:55:29Z</time>
      </trkpt>
      <trkpt lat="45.29889" lon="6.22363">
        <ele>1343.4899902344</ele>
        <time>2017-02-26T06:55:37Z</time>
      </trkpt>
      <trkpt lat="45.29894" lon="6.22363">
        <ele>1342.4899902344</ele>
        <time>2017-02-26T06:55:40Z</time>
      </trkpt>
      <trkpt lat="45.29899" lon="6.22364">
        <ele>1340.4899902344</ele>
        <time>2017-02-26T06:55:43Z</time>
      </trkpt>
      <trkpt lat="45.29903" lon="6.22368">
        <ele>1341.4899902344</ele>
        <time>2017-02-26T06:55:47Z</time>
      </trkpt>
      <trkpt lat="45.29907" lon="6.22373">
        <ele>1342.4899902344</ele>
        <time>2017-02-26T06:55:51Z</time>
      </trkpt>
      <trkpt lat="45.29911" lon="6.22378">
        <ele>1341.4899902344</ele>
        <time>2017-02-26T06:55:55Z</time>
      </trkpt>
      <trkpt lat="45.29913" lon="6.22384">
        <ele>1342.4899902344</ele>
        <time>2017-02-26T06:56:01Z</time>
      </trkpt>
      <trkpt lat="45.29916" lon="6.22388">
        <ele>1342.4899902344</ele>
        <time>2017-02-26T06:56:04Z</time>
      </trkpt>
      <trkpt lat="45.2992" lon="6.22393">
        <ele>1344.4899902344</ele>
        <time>2017-02-26T06:56:08Z</time>
      </trkpt>
      <trkpt lat="45.29924" lon="6.22399">
        <ele>1345.4899902344</ele>
        <time>2017-02-26T06:56:12Z</time>
      </trkpt>
      <trkpt lat="45.29929" lon="6.22402">
        <ele>1344.4899902344</ele>
        <time>2017-02-26T06:56:14Z</time>
      </trkpt>
      <trkpt lat="45.29932" lon="6.22408">
        <ele>1347.4899902344</ele>
        <time>2017-02-26T06:56:18Z</time>
      </trkpt>
      <trkpt lat="45.29935" lon="6.22414">
        <ele>1347.4899902344</ele>
        <time>2017-02-26T06:56:22Z</time>
      </trkpt>
      <trkpt lat="45.29936" lon="6.22422">
        <ele>1348.4899902344</ele>
        <time>2017-02-26T06:56:27Z</time>
      </trkpt>
      <trkpt lat="45.29938" lon="6.22429">
        <ele>1350.4899902344</ele>
        <time>2017-02-26T06:56:32Z</time>
      </trkpt>
      <trkpt lat="45.29941" lon="6.22434">
        <ele>1348.4899902344</ele>
        <time>2017-02-26T06:56:37Z</time>
      </trkpt>
      <trkpt lat="45.29942" lon="6.22441">
        <ele>1349.4899902344</ele>
        <time>2017-02-26T06:56:41Z</time>
      </trkpt>
      <trkpt lat="45.29946" lon="6.22445">
        <ele>1349.4899902344</ele>
        <time>2017-02-26T06:56:45Z</time>
      </trkpt>
      <trkpt lat="45.29949" lon="6.2245">
        <ele>1349.4899902344</ele>
        <time>2017-02-26T06:56:51Z</time>
      </trkpt>
      <trkpt lat="45.29953" lon="6.22454">
        <ele>1350.4899902344</ele>
        <time>2017-02-26T06:56:57Z</time>
      </trkpt>
      <trkpt lat="45.29959" lon="6.22457">
        <ele>1350.4899902344</ele>
        <time>2017-02-26T06:57:07Z</time>
      </trkpt>
      <trkpt lat="45.29963" lon="6.2246">
        <ele>1348.4899902344</ele>
        <time>2017-02-26T06:57:09Z</time>
      </trkpt>
      <trkpt lat="45.29967" lon="6.22464">
        <ele>1349.4899902344</ele>
        <time>2017-02-26T06:57:11Z</time>
      </trkpt>
      <trkpt lat="45.29971" lon="6.22467">
        <ele>1347.4899902344</ele>
        <time>2017-02-26T06:57:15Z</time>
      </trkpt>
      <trkpt lat="45.29976" lon="6.22469">
        <ele>1347.4899902344</ele>
        <time>2017-02-26T06:57:18Z</time>
      </trkpt>
      <trkpt lat="45.2998" lon="6.2247">
        <ele>1346.4899902344</ele>
        <time>2017-02-26T06:57:23Z</time>
      </trkpt>
      <trkpt lat="45.29987" lon="6.22472">
        <ele>1346.4899902344</ele>
        <time>2017-02-26T06:57:26Z</time>
      </trkpt>
      <trkpt lat="45.29991" lon="6.22474">
        <ele>1348.4899902344</ele>
        <time>2017-02-26T06:57:31Z</time>
      </trkpt>
      <trkpt lat="45.29996" lon="6.22476">
        <ele>1350.4899902344</ele>
        <time>2017-02-26T06:57:36Z</time>
      </trkpt>
      <trkpt lat="45.30001" lon="6.22479">
        <ele>1347.4899902344</ele>
        <time>2017-02-26T06:57:39Z</time>
      </trkpt>
      <trkpt lat="45.30005" lon="6.22481">
        <ele>1350.4899902344</ele>
        <time>2017-02-26T06:57:44Z</time>
      </trkpt>
      <trkpt lat="45.3001" lon="6.22482">
        <ele>1349.4899902344</ele>
        <time>2017-02-26T06:57:47Z</time>
      </trkpt>
      <trkpt lat="45.30015" lon="6.22486">
        <ele>1348.4899902344</ele>
        <time>2017-02-26T06:57:51Z</time>
      </trkpt>
      <trkpt lat="45.30019" lon="6.22489">
        <ele>1348.4899902344</ele>
        <time>2017-02-26T06:57:54Z</time>
      </trkpt>
      <trkpt lat="45.30022" lon="6.22495">
        <ele>1352.4899902344</ele>
        <time>2017-02-26T06:57:59Z</time>
      </trkpt>
      <trkpt lat="45.30025" lon="6.22501">
        <ele>1355.4899902344</ele>
        <time>2017-02-26T06:58:03Z</time>
      </trkpt>
      <trkpt lat="45.30028" lon="6.22507">
        <ele>1354.4899902344</ele>
        <time>2017-02-26T06:58:07Z</time>
      </trkpt>
      <trkpt lat="45.30029" lon="6.22515">
        <ele>1354.4899902344</ele>
        <time>2017-02-26T06:58:11Z</time>
      </trkpt>
      <trkpt lat="45.30034" lon="6.22519">
        <ele>1352.4899902344</ele>
        <time>2017-02-26T06:58:16Z</time>
      </trkpt>
      <trkpt lat="45.30033" lon="6.22526">
        <ele>1354.4899902344</ele>
        <time>2017-02-26T06:58:20Z</time>
      </trkpt>
      <trkpt lat="45.30034" lon="6.22533">
        <ele>1356.4899902344</ele>
        <time>2017-02-26T06:58:24Z</time>
      </trkpt>
      <trkpt lat="45.30035" lon="6.22541">
        <ele>1357.4899902344</ele>
        <time>2017-02-26T06:58:30Z</time>
      </trkpt>
      <trkpt lat="45.30036" lon="6.2255">
        <ele>1355.4909667969</ele>
        <time>2017-02-26T06:58:34Z</time>
      </trkpt>
      <trkpt lat="45.3004" lon="6.22555">
        <ele>1355.4909667969</ele>
        <time>2017-02-26T06:58:39Z</time>
      </trkpt>
      <trkpt lat="45.30044" lon="6.22559">
        <ele>1355.4909667969</ele>
        <time>2017-02-26T06:58:42Z</time>
      </trkpt>
      <trkpt lat="45.30048" lon="6.22563">
        <ele>1352.4909667969</ele>
        <time>2017-02-26T06:58:47Z</time>
      </trkpt>
      <trkpt lat="45.3005" lon="6.22572">
        <ele>1356.4909667969</ele>
        <time>2017-02-26T06:58:54Z</time>
      </trkpt>
      <trkpt lat="45.30052" lon="6.22579">
        <ele>1357.4909667969</ele>
        <time>2017-02-26T06:58:58Z</time>
      </trkpt>
      <trkpt lat="45.30053" lon="6.22586">
        <ele>1361.4909667969</ele>
        <time>2017-02-26T06:59:03Z</time>
      </trkpt>
      <trkpt lat="45.30057" lon="6.22592">
        <ele>1361.4909667969</ele>
        <time>2017-02-26T06:59:07Z</time>
      </trkpt>
      <trkpt lat="45.30058" lon="6.22598">
        <ele>1363.4909667969</ele>
        <time>2017-02-26T06:59:11Z</time>
      </trkpt>
      <trkpt lat="45.30064" lon="6.22604">
        <ele>1358.4909667969</ele>
        <time>2017-02-26T06:59:16Z</time>
      </trkpt>
      <trkpt lat="45.30069" lon="6.22611">
        <ele>1356.4909667969</ele>
        <time>2017-02-26T06:59:19Z</time>
      </trkpt>
      <trkpt lat="45.30072" lon="6.22617">
        <ele>1355.4909667969</ele>
        <time>2017-02-26T06:59:23Z</time>
      </trkpt>
      <trkpt lat="45.30072" lon="6.22624">
        <ele>1356.4909667969</ele>
        <time>2017-02-26T06:59:27Z</time>
      </trkpt>
      <trkpt lat="45.30076" lon="6.2263">
        <ele>1354.4909667969</ele>
        <time>2017-02-26T06:59:31Z</time>
      </trkpt>
      <trkpt lat="45.3008" lon="6.22635">
        <ele>1356.4909667969</ele>
        <time>2017-02-26T06:59:35Z</time>
      </trkpt>
      <trkpt lat="45.30081" lon="6.22642">
        <ele>1359.4909667969</ele>
        <time>2017-02-26T06:59:39Z</time>
      </trkpt>
      <trkpt lat="45.30085" lon="6.22646">
        <ele>1362.4909667969</ele>
        <time>2017-02-26T06:59:43Z</time>
      </trkpt>
      <trkpt lat="45.30089" lon="6.22644">
        <ele>1362.4909667969</ele>
        <time>2017-02-26T06:59:47Z</time>
      </trkpt>
      <trkpt lat="45.30093" lon="6.22639">
        <ele>1364.4909667969</ele>
        <time>2017-02-26T06:59:51Z</time>
      </trkpt>
      <trkpt lat="45.30094" lon="6.22632">
        <ele>1365.4909667969</ele>
        <time>2017-02-26T06:59:55Z</time>
      </trkpt>
      <trkpt lat="45.30092" lon="6.22625">
        <ele>1367.4909667969</ele>
        <time>2017-02-26T07:00:01Z</time>
      </trkpt>
      <trkpt lat="45.30089" lon="6.2262">
        <ele>1368.4909667969</ele>
        <time>2017-02-26T07:00:05Z</time>
      </trkpt>
      <trkpt lat="45.30086" lon="6.22614">
        <ele>1370.4909667969</ele>
        <time>2017-02-26T07:00:10Z</time>
      </trkpt>
      <trkpt lat="45.30087" lon="6.22608">
        <ele>1369.4909667969</ele>
        <time>2017-02-26T07:00:12Z</time>
      </trkpt>
      <trkpt lat="45.30083" lon="6.22605">
        <ele>1370.4909667969</ele>
        <time>2017-02-26T07:00:17Z</time>
      </trkpt>
      <trkpt lat="45.30079" lon="6.226">
        <ele>1373.4909667969</ele>
        <time>2017-02-26T07:00:21Z</time>
      </trkpt>
      <trkpt lat="45.30078" lon="6.22592">
        <ele>1372.4909667969</ele>
        <time>2017-02-26T07:00:25Z</time>
      </trkpt>
      <trkpt lat="45.30077" lon="6.22586">
        <ele>1374.4909667969</ele>
        <time>2017-02-26T07:00:30Z</time>
      </trkpt>
      <trkpt lat="45.30071" lon="6.22582">
        <ele>1377.4909667969</ele>
        <time>2017-02-26T07:00:35Z</time>
      </trkpt>
      <trkpt lat="45.30071" lon="6.22574">
        <ele>1377.4909667969</ele>
        <time>2017-02-26T07:00:39Z</time>
      </trkpt>
      <trkpt lat="45.30069" lon="6.22566">
        <ele>1378.4909667969</ele>
        <time>2017-02-26T07:00:43Z</time>
      </trkpt>
      <trkpt lat="45.30067" lon="6.22559">
        <ele>1378.4909667969</ele>
        <time>2017-02-26T07:00:50Z</time>
      </trkpt>
      <trkpt lat="45.30062" lon="6.22557">
        <ele>1380.4909667969</ele>
        <time>2017-02-26T07:00:53Z</time>
      </trkpt>
      <trkpt lat="45.30062" lon="6.22549">
        <ele>1378.4909667969</ele>
        <time>2017-02-26T07:00:58Z</time>
      </trkpt>
      <trkpt lat="45.30063" lon="6.22542">
        <ele>1379.4909667969</ele>
        <time>2017-02-26T07:01:03Z</time>
      </trkpt>
      <trkpt lat="45.30062" lon="6.22535">
        <ele>1382.4909667969</ele>
        <time>2017-02-26T07:01:07Z</time>
      </trkpt>
      <trkpt lat="45.30062" lon="6.22527">
        <ele>1381.4909667969</ele>
        <time>2017-02-26T07:01:11Z</time>
      </trkpt>
      <trkpt lat="45.30062" lon="6.2252">
        <ele>1382.4909667969</ele>
        <time>2017-02-26T07:01:15Z</time>
      </trkpt>
      <trkpt lat="45.30062" lon="6.22514">
        <ele>1383.4909667969</ele>
        <time>2017-02-26T07:01:18Z</time>
      </trkpt>
      <trkpt lat="45.30062" lon="6.22506">
        <ele>1385.4909667969</ele>
        <time>2017-02-26T07:01:24Z</time>
      </trkpt>
      <trkpt lat="45.30063" lon="6.22499">
        <ele>1386.4899902344</ele>
        <time>2017-02-26T07:01:29Z</time>
      </trkpt>
      <trkpt lat="45.30063" lon="6.22491">
        <ele>1385.4899902344</ele>
        <time>2017-02-26T07:01:33Z</time>
      </trkpt>
      <trkpt lat="45.30065" lon="6.22486">
        <ele>1383.4899902344</ele>
        <time>2017-02-26T07:01:36Z</time>
      </trkpt>
      <trkpt lat="45.30062" lon="6.22479">
        <ele>1384.4899902344</ele>
        <time>2017-02-26T07:01:39Z</time>
      </trkpt>
      <trkpt lat="45.30061" lon="6.22472">
        <ele>1387.4899902344</ele>
        <time>2017-02-26T07:01:43Z</time>
      </trkpt>
      <trkpt lat="45.30063" lon="6.22466">
        <ele>1383.4899902344</ele>
        <time>2017-02-26T07:01:48Z</time>
      </trkpt>
      <trkpt lat="45.30062" lon="6.22459">
        <ele>1384.4899902344</ele>
        <time>2017-02-26T07:01:52Z</time>
      </trkpt>
      <trkpt lat="45.30058" lon="6.22455">
        <ele>1385.4899902344</ele>
        <time>2017-02-26T07:01:57Z</time>
      </trkpt>
      <trkpt lat="45.30055" lon="6.22449">
        <ele>1383.4899902344</ele>
        <time>2017-02-26T07:02:03Z</time>
      </trkpt>
      <trkpt lat="45.30051" lon="6.22446">
        <ele>1385.4899902344</ele>
        <time>2017-02-26T07:02:08Z</time>
      </trkpt>
      <trkpt lat="45.30046" lon="6.22443">
        <ele>1388.4899902344</ele>
        <time>2017-02-26T07:02:15Z</time>
      </trkpt>
      <trkpt lat="45.30042" lon="6.22436">
        <ele>1390.4899902344</ele>
        <time>2017-02-26T07:02:26Z</time>
      </trkpt>
      <trkpt lat="45.30043" lon="6.22429">
        <ele>1388.4899902344</ele>
        <time>2017-02-26T07:02:29Z</time>
      </trkpt>
      <trkpt lat="45.30041" lon="6.22421">
        <ele>1387.4899902344</ele>
        <time>2017-02-26T07:02:32Z</time>
      </trkpt>
      <trkpt lat="45.30042" lon="6.22413">
        <ele>1388.4899902344</ele>
        <time>2017-02-26T07:02:37Z</time>
      </trkpt>
      <trkpt lat="45.30036" lon="6.22408">
        <ele>1388.4899902344</ele>
        <time>2017-02-26T07:02:41Z</time>
      </trkpt>
      <trkpt lat="45.30034" lon="6.22402">
        <ele>1389.4899902344</ele>
        <time>2017-02-26T07:02:44Z</time>
      </trkpt>
      <trkpt lat="45.30032" lon="6.22396">
        <ele>1390.4899902344</ele>
        <time>2017-02-26T07:02:47Z</time>
      </trkpt>
      <trkpt lat="45.30029" lon="6.22389">
        <ele>1388.4899902344</ele>
        <time>2017-02-26T07:02:52Z</time>
      </trkpt>
      <trkpt lat="45.30029" lon="6.22382">
        <ele>1390.4899902344</ele>
        <time>2017-02-26T07:02:57Z</time>
      </trkpt>
      <trkpt lat="45.30027" lon="6.22375">
        <ele>1391.4899902344</ele>
        <time>2017-02-26T07:03:02Z</time>
      </trkpt>
      <trkpt lat="45.30032" lon="6.22377">
        <ele>1394.4899902344</ele>
        <time>2017-02-26T07:03:17Z</time>
      </trkpt>
      <trkpt lat="45.30036" lon="6.22382">
        <ele>1392.4899902344</ele>
        <time>2017-02-26T07:03:52Z</time>
      </trkpt>
      <trkpt lat="45.30041" lon="6.22387">
        <ele>1391.4899902344</ele>
        <time>2017-02-26T07:03:55Z</time>
      </trkpt>
      <trkpt lat="45.30045" lon="6.22392">
        <ele>1393.4899902344</ele>
        <time>2017-02-26T07:03:58Z</time>
      </trkpt>
      <trkpt lat="45.30044" lon="6.22398">
        <ele>1395.4899902344</ele>
        <time>2017-02-26T07:04:01Z</time>
      </trkpt>
      <trkpt lat="45.30046" lon="6.22405">
        <ele>1396.4899902344</ele>
        <time>2017-02-26T07:04:04Z</time>
      </trkpt>
      <trkpt lat="45.3005" lon="6.22408">
        <ele>1400.4899902344</ele>
        <time>2017-02-26T07:04:11Z</time>
      </trkpt>
      <trkpt lat="45.30054" lon="6.22413">
        <ele>1399.4899902344</ele>
        <time>2017-02-26T07:04:20Z</time>
      </trkpt>
      <trkpt lat="45.30058" lon="6.22417">
        <ele>1399.4899902344</ele>
        <time>2017-02-26T07:04:24Z</time>
      </trkpt>
      <trkpt lat="45.30061" lon="6.22422">
        <ele>1400.4899902344</ele>
        <time>2017-02-26T07:04:36Z</time>
      </trkpt>
      <trkpt lat="45.30066" lon="6.22425">
        <ele>1398.4899902344</ele>
        <time>2017-02-26T07:04:40Z</time>
      </trkpt>
      <trkpt lat="45.3007" lon="6.22429">
        <ele>1398.4899902344</ele>
        <time>2017-02-26T07:04:42Z</time>
      </trkpt>
      <trkpt lat="45.30074" lon="6.22435">
        <ele>1398.4899902344</ele>
        <time>2017-02-26T07:04:47Z</time>
      </trkpt>
      <trkpt lat="45.30078" lon="6.22439">
        <ele>1398.4899902344</ele>
        <time>2017-02-26T07:04:49Z</time>
      </trkpt>
      <trkpt lat="45.30081" lon="6.22446">
        <ele>1400.4899902344</ele>
        <time>2017-02-26T07:04:52Z</time>
      </trkpt>
      <trkpt lat="45.30084" lon="6.22452">
        <ele>1400.4899902344</ele>
        <time>2017-02-26T07:04:56Z</time>
      </trkpt>
      <trkpt lat="45.30087" lon="6.22457">
        <ele>1400.4899902344</ele>
        <time>2017-02-26T07:04:59Z</time>
      </trkpt>
      <trkpt lat="45.30089" lon="6.22465">
        <ele>1401.4899902344</ele>
        <time>2017-02-26T07:05:02Z</time>
      </trkpt>
      <trkpt lat="45.30089" lon="6.22471">
        <ele>1400.4909667969</ele>
        <time>2017-02-26T07:05:06Z</time>
      </trkpt>
      <trkpt lat="45.30091" lon="6.22478">
        <ele>1401.4909667969</ele>
        <time>2017-02-26T07:05:11Z</time>
      </trkpt>
      <trkpt lat="45.30092" lon="6.22484">
        <ele>1405.4909667969</ele>
        <time>2017-02-26T07:05:14Z</time>
      </trkpt>
      <trkpt lat="45.30094" lon="6.22491">
        <ele>1403.4909667969</ele>
        <time>2017-02-26T07:05:18Z</time>
      </trkpt>
      <trkpt lat="45.30095" lon="6.22498">
        <ele>1404.4909667969</ele>
        <time>2017-02-26T07:05:22Z</time>
      </trkpt>
      <trkpt lat="45.30098" lon="6.22505">
        <ele>1403.4909667969</ele>
        <time>2017-02-26T07:05:26Z</time>
      </trkpt>
      <trkpt lat="45.30101" lon="6.22511">
        <ele>1403.4909667969</ele>
        <time>2017-02-26T07:05:30Z</time>
      </trkpt>
      <trkpt lat="45.30105" lon="6.22518">
        <ele>1402.4909667969</ele>
        <time>2017-02-26T07:05:33Z</time>
      </trkpt>
      <trkpt lat="45.30107" lon="6.22524">
        <ele>1403.4909667969</ele>
        <time>2017-02-26T07:05:37Z</time>
      </trkpt>
      <trkpt lat="45.3011" lon="6.22529">
        <ele>1402.4909667969</ele>
        <time>2017-02-26T07:05:40Z</time>
      </trkpt>
      <trkpt lat="45.30112" lon="6.22536">
        <ele>1402.4909667969</ele>
        <time>2017-02-26T07:05:45Z</time>
      </trkpt>
      <trkpt lat="45.30117" lon="6.22539">
        <ele>1402.4909667969</ele>
        <time>2017-02-26T07:05:50Z</time>
      </trkpt>
      <trkpt lat="45.3012" lon="6.22545">
        <ele>1402.4909667969</ele>
        <time>2017-02-26T07:05:52Z</time>
      </trkpt>
      <trkpt lat="45.30123" lon="6.22551">
        <ele>1402.4909667969</ele>
        <time>2017-02-26T07:05:56Z</time>
      </trkpt>
      <trkpt lat="45.30127" lon="6.22553">
        <ele>1402.4909667969</ele>
        <time>2017-02-26T07:05:59Z</time>
      </trkpt>
      <trkpt lat="45.30129" lon="6.22559">
        <ele>1404.4909667969</ele>
        <time>2017-02-26T07:06:03Z</time>
      </trkpt>
      <trkpt lat="45.30134" lon="6.22563">
        <ele>1404.4909667969</ele>
        <time>2017-02-26T07:06:08Z</time>
      </trkpt>
      <trkpt lat="45.30139" lon="6.22568">
        <ele>1405.4909667969</ele>
        <time>2017-02-26T07:06:12Z</time>
      </trkpt>
      <trkpt lat="45.30141" lon="6.22574">
        <ele>1404.4909667969</ele>
        <time>2017-02-26T07:06:16Z</time>
      </trkpt>
      <trkpt lat="45.30147" lon="6.22577">
        <ele>1405.4909667969</ele>
        <time>2017-02-26T07:06:19Z</time>
      </trkpt>
      <trkpt lat="45.30149" lon="6.22585">
        <ele>1409.4909667969</ele>
        <time>2017-02-26T07:06:24Z</time>
      </trkpt>
      <trkpt lat="45.30153" lon="6.22589">
        <ele>1408.4909667969</ele>
        <time>2017-02-26T07:06:28Z</time>
      </trkpt>
      <trkpt lat="45.30154" lon="6.22596">
        <ele>1411.4909667969</ele>
        <time>2017-02-26T07:06:32Z</time>
      </trkpt>
      <trkpt lat="45.30159" lon="6.226">
        <ele>1410.4909667969</ele>
        <time>2017-02-26T07:06:36Z</time>
      </trkpt>
      <trkpt lat="45.30161" lon="6.22606">
        <ele>1411.4909667969</ele>
        <time>2017-02-26T07:06:41Z</time>
      </trkpt>
      <trkpt lat="45.30164" lon="6.22613">
        <ele>1416.4909667969</ele>
        <time>2017-02-26T07:06:46Z</time>
      </trkpt>
      <trkpt lat="45.30168" lon="6.22618">
        <ele>1414.4909667969</ele>
        <time>2017-02-26T07:06:51Z</time>
      </trkpt>
      <trkpt lat="45.30171" lon="6.22612">
        <ele>1413.4909667969</ele>
        <time>2017-02-26T07:07:26Z</time>
      </trkpt>
      <trkpt lat="45.30171" lon="6.22619">
        <ele>1417.4909667969</ele>
        <time>2017-02-26T07:12:38Z</time>
      </trkpt>
      <trkpt lat="45.30172" lon="6.22626">
        <ele>1422.4909667969</ele>
        <time>2017-02-26T07:12:51Z</time>
      </trkpt>
      <trkpt lat="45.30176" lon="6.22632">
        <ele>1422.4909667969</ele>
        <time>2017-02-26T07:12:54Z</time>
      </trkpt>
      <trkpt lat="45.30179" lon="6.22637">
        <ele>1424.4909667969</ele>
        <time>2017-02-26T07:13:00Z</time>
      </trkpt>
      <trkpt lat="45.30183" lon="6.22642">
        <ele>1425.4909667969</ele>
        <time>2017-02-26T07:13:09Z</time>
      </trkpt>
      <trkpt lat="45.30186" lon="6.22648">
        <ele>1423.4909667969</ele>
        <time>2017-02-26T07:13:12Z</time>
      </trkpt>
      <trkpt lat="45.30187" lon="6.22656">
        <ele>1425.4909667969</ele>
        <time>2017-02-26T07:13:16Z</time>
      </trkpt>
      <trkpt lat="45.3019" lon="6.22661">
        <ele>1425.4909667969</ele>
        <time>2017-02-26T07:13:21Z</time>
      </trkpt>
      <trkpt lat="45.30195" lon="6.22666">
        <ele>1427.4909667969</ele>
        <time>2017-02-26T07:13:25Z</time>
      </trkpt>
      <trkpt lat="45.302" lon="6.22671">
        <ele>1428.4909667969</ele>
        <time>2017-02-26T07:13:29Z</time>
      </trkpt>
      <trkpt lat="45.30205" lon="6.22676">
        <ele>1429.4909667969</ele>
        <time>2017-02-26T07:13:34Z</time>
      </trkpt>
      <trkpt lat="45.30207" lon="6.22682">
        <ele>1430.4909667969</ele>
        <time>2017-02-26T07:13:38Z</time>
      </trkpt>
      <trkpt lat="45.3021" lon="6.22687">
        <ele>1429.4909667969</ele>
        <time>2017-02-26T07:13:40Z</time>
      </trkpt>
      <trkpt lat="45.30214" lon="6.22693">
        <ele>1429.4909667969</ele>
        <time>2017-02-26T07:13:45Z</time>
      </trkpt>
      <trkpt lat="45.30216" lon="6.22698">
        <ele>1427.4909667969</ele>
        <time>2017-02-26T07:13:48Z</time>
      </trkpt>
      <trkpt lat="45.30221" lon="6.22702">
        <ele>1425.4909667969</ele>
        <time>2017-02-26T07:13:57Z</time>
      </trkpt>
      <trkpt lat="45.30224" lon="6.22707">
        <ele>1428.4909667969</ele>
        <time>2017-02-26T07:14:02Z</time>
      </trkpt>
      <trkpt lat="45.30227" lon="6.22711">
        <ele>1428.4909667969</ele>
        <time>2017-02-26T07:14:06Z</time>
      </trkpt>
      <trkpt lat="45.30231" lon="6.22715">
        <ele>1427.4909667969</ele>
        <time>2017-02-26T07:14:09Z</time>
      </trkpt>
      <trkpt lat="45.30235" lon="6.2272">
        <ele>1425.4909667969</ele>
        <time>2017-02-26T07:14:12Z</time>
      </trkpt>
      <trkpt lat="45.30239" lon="6.22727">
        <ele>1424.4909667969</ele>
        <time>2017-02-26T07:14:16Z</time>
      </trkpt>
      <trkpt lat="45.30243" lon="6.2273">
        <ele>1424.4909667969</ele>
        <time>2017-02-26T07:14:18Z</time>
      </trkpt>
      <trkpt lat="45.30245" lon="6.22736">
        <ele>1424.4909667969</ele>
        <time>2017-02-26T07:14:25Z</time>
      </trkpt>
      <trkpt lat="45.3025" lon="6.22741">
        <ele>1422.4909667969</ele>
        <time>2017-02-26T07:14:31Z</time>
      </trkpt>
      <trkpt lat="45.30253" lon="6.22746">
        <ele>1419.4909667969</ele>
        <time>2017-02-26T07:14:34Z</time>
      </trkpt>
      <trkpt lat="45.30255" lon="6.22753">
        <ele>1421.4909667969</ele>
        <time>2017-02-26T07:14:39Z</time>
      </trkpt>
      <trkpt lat="45.3026" lon="6.22757">
        <ele>1420.4909667969</ele>
        <time>2017-02-26T07:14:43Z</time>
      </trkpt>
      <trkpt lat="45.30262" lon="6.22764">
        <ele>1422.4909667969</ele>
        <time>2017-02-26T07:14:48Z</time>
      </trkpt>
      <trkpt lat="45.30267" lon="6.22765">
        <ele>1426.4909667969</ele>
        <time>2017-02-26T07:14:51Z</time>
      </trkpt>
      <trkpt lat="45.3027" lon="6.22772">
        <ele>1425.4909667969</ele>
        <time>2017-02-26T07:14:56Z</time>
      </trkpt>
      <trkpt lat="45.30274" lon="6.22777">
        <ele>1424.4909667969</ele>
        <time>2017-02-26T07:15:05Z</time>
      </trkpt>
      <trkpt lat="45.30279" lon="6.2278">
        <ele>1423.4909667969</ele>
        <time>2017-02-26T07:15:08Z</time>
      </trkpt>
      <trkpt lat="45.30281" lon="6.22786">
        <ele>1422.4909667969</ele>
        <time>2017-02-26T07:15:11Z</time>
      </trkpt>
      <trkpt lat="45.30283" lon="6.22792">
        <ele>1425.4909667969</ele>
        <time>2017-02-26T07:15:19Z</time>
      </trkpt>
      <trkpt lat="45.30288" lon="6.22789">
        <ele>1421.4909667969</ele>
        <time>2017-02-26T07:15:25Z</time>
      </trkpt>
      <trkpt lat="45.30283" lon="6.22789">
        <ele>1417.4909667969</ele>
        <time>2017-02-26T07:15:55Z</time>
      </trkpt>
      <trkpt lat="45.30278" lon="6.22788">
        <ele>1420.4909667969</ele>
        <time>2017-02-26T07:15:59Z</time>
      </trkpt>
      <trkpt lat="45.30275" lon="6.22782">
        <ele>1421.4909667969</ele>
        <time>2017-02-26T07:16:08Z</time>
      </trkpt>
      <trkpt lat="45.3027" lon="6.22779">
        <ele>1424.4909667969</ele>
        <time>2017-02-26T07:16:11Z</time>
      </trkpt>
      <trkpt lat="45.30266" lon="6.22777">
        <ele>1426.4909667969</ele>
        <time>2017-02-26T07:16:13Z</time>
      </trkpt>
      <trkpt lat="45.30262" lon="6.22773">
        <ele>1427.4909667969</ele>
        <time>2017-02-26T07:16:16Z</time>
      </trkpt>
      <trkpt lat="45.30261" lon="6.22766">
        <ele>1426.4909667969</ele>
        <time>2017-02-26T07:16:22Z</time>
      </trkpt>
      <trkpt lat="45.30255" lon="6.22763">
        <ele>1429.4909667969</ele>
        <time>2017-02-26T07:16:27Z</time>
      </trkpt>
      <trkpt lat="45.30252" lon="6.22757">
        <ele>1429.4909667969</ele>
        <time>2017-02-26T07:16:32Z</time>
      </trkpt>
      <trkpt lat="45.3025" lon="6.22751">
        <ele>1427.4909667969</ele>
        <time>2017-02-26T07:16:36Z</time>
      </trkpt>
      <trkpt lat="45.30249" lon="6.22743">
        <ele>1427.4909667969</ele>
        <time>2017-02-26T07:16:41Z</time>
      </trkpt>
      <trkpt lat="45.30243" lon="6.22738">
        <ele>1428.4909667969</ele>
        <time>2017-02-26T07:16:46Z</time>
      </trkpt>
      <trkpt lat="45.30245" lon="6.22731">
        <ele>1423.4909667969</ele>
        <time>2017-02-26T07:16:53Z</time>
      </trkpt>
      <trkpt lat="45.30242" lon="6.22737">
        <ele>1424.4909667969</ele>
        <time>2017-02-26T07:17:01Z</time>
      </trkpt>
      <trkpt lat="45.30239" lon="6.22742">
        <ele>1426.4909667969</ele>
        <time>2017-02-26T07:17:33Z</time>
      </trkpt>
      <trkpt lat="45.30242" lon="6.22738">
        <ele>1426.4909667969</ele>
        <time>2017-02-26T07:17:37Z</time>
      </trkpt>
      <trkpt lat="45.30244" lon="6.22731">
        <ele>1426.4909667969</ele>
        <time>2017-02-26T07:20:14Z</time>
      </trkpt>
      <trkpt lat="45.30247" lon="6.22727">
        <ele>1425.4909667969</ele>
        <time>2017-02-26T07:20:21Z</time>
      </trkpt>
      <trkpt lat="45.30243" lon="6.22726">
        <ele>1425.4909667969</ele>
        <time>2017-02-26T07:21:39Z</time>
      </trkpt>
      <trkpt lat="45.30239" lon="6.22721">
        <ele>1427.4909667969</ele>
        <time>2017-02-26T07:21:44Z</time>
      </trkpt>
      <trkpt lat="45.30235" lon="6.22719">
        <ele>1425.4909667969</ele>
        <time>2017-02-26T07:21:49Z</time>
      </trkpt>
      <trkpt lat="45.30232" lon="6.22713">
        <ele>1424.4909667969</ele>
        <time>2017-02-26T07:21:53Z</time>
      </trkpt>
      <trkpt lat="45.30228" lon="6.22706">
        <ele>1423.4909667969</ele>
        <time>2017-02-26T07:21:58Z</time>
      </trkpt>
      <trkpt lat="45.30225" lon="6.22701">
        <ele>1423.4909667969</ele>
        <time>2017-02-26T07:22:01Z</time>
      </trkpt>
      <trkpt lat="45.30222" lon="6.22698">
        <ele>1424.4909667969</ele>
        <time>2017-02-26T07:22:03Z</time>
      </trkpt>
      <trkpt lat="45.3022" lon="6.22692">
        <ele>1421.4909667969</ele>
        <time>2017-02-26T07:22:07Z</time>
      </trkpt>
      <trkpt lat="45.30216" lon="6.22688">
        <ele>1422.4909667969</ele>
        <time>2017-02-26T07:22:11Z</time>
      </trkpt>
      <trkpt lat="45.30212" lon="6.22683">
        <ele>1421.4909667969</ele>
        <time>2017-02-26T07:22:15Z</time>
      </trkpt>
      <trkpt lat="45.3021" lon="6.22677">
        <ele>1420.4909667969</ele>
        <time>2017-02-26T07:22:19Z</time>
      </trkpt>
      <trkpt lat="45.30207" lon="6.22673">
        <ele>1419.4909667969</ele>
        <time>2017-02-26T07:22:23Z</time>
      </trkpt>
      <trkpt lat="45.30202" lon="6.22668">
        <ele>1420.4909667969</ele>
        <time>2017-02-26T07:22:32Z</time>
      </trkpt>
      <trkpt lat="45.30198" lon="6.22664">
        <ele>1419.4909667969</ele>
        <time>2017-02-26T07:22:37Z</time>
      </trkpt>
      <trkpt lat="45.30193" lon="6.2266">
        <ele>1421.4909667969</ele>
        <time>2017-02-26T07:22:42Z</time>
      </trkpt>
      <trkpt lat="45.30191" lon="6.22654">
        <ele>1421.4909667969</ele>
        <time>2017-02-26T07:22:47Z</time>
      </trkpt>
      <trkpt lat="45.30189" lon="6.22647">
        <ele>1417.4909667969</ele>
        <time>2017-02-26T07:23:39Z</time>
      </trkpt>
      <trkpt lat="45.30184" lon="6.22646">
        <ele>1420.4909667969</ele>
        <time>2017-02-26T07:23:46Z</time>
      </trkpt>
      <trkpt lat="45.3019" lon="6.22643">
        <ele>1417.4909667969</ele>
        <time>2017-02-26T07:28:48Z</time>
      </trkpt>
      <trkpt lat="45.30195" lon="6.22648">
        <ele>1419.4909667969</ele>
        <time>2017-02-26T07:28:53Z</time>
      </trkpt>
      <trkpt lat="45.302" lon="6.22653">
        <ele>1420.4909667969</ele>
        <time>2017-02-26T07:28:55Z</time>
      </trkpt>
      <trkpt lat="45.30206" lon="6.22656">
        <ele>1421.4909667969</ele>
        <time>2017-02-26T07:28:58Z</time>
      </trkpt>
      <trkpt lat="45.30208" lon="6.22664">
        <ele>1424.4909667969</ele>
        <time>2017-02-26T07:29:01Z</time>
      </trkpt>
      <trkpt lat="45.30214" lon="6.22667">
        <ele>1421.4909667969</ele>
        <time>2017-02-26T07:29:04Z</time>
      </trkpt>
      <trkpt lat="45.30216" lon="6.22673">
        <ele>1421.4909667969</ele>
        <time>2017-02-26T07:29:06Z</time>
      </trkpt>
      <trkpt lat="45.30221" lon="6.22678">
        <ele>1416.4909667969</ele>
        <time>2017-02-26T07:29:10Z</time>
      </trkpt>
      <trkpt lat="45.30223" lon="6.22686">
        <ele>1417.4909667969</ele>
        <time>2017-02-26T07:29:14Z</time>
      </trkpt>
      <trkpt lat="45.30227" lon="6.2269">
        <ele>1414.4909667969</ele>
        <time>2017-02-26T07:29:16Z</time>
      </trkpt>
      <trkpt lat="45.3023" lon="6.22695">
        <ele>1410.4909667969</ele>
        <time>2017-02-26T07:29:18Z</time>
      </trkpt>
      <trkpt lat="45.30234" lon="6.22703">
        <ele>1413.4909667969</ele>
        <time>2017-02-26T07:29:21Z</time>
      </trkpt>
      <trkpt lat="45.30234" lon="6.2271">
        <ele>1414.4909667969</ele>
        <time>2017-02-26T07:29:24Z</time>
      </trkpt>
      <trkpt lat="45.30237" lon="6.22716">
        <ele>1414.4909667969</ele>
        <time>2017-02-26T07:29:27Z</time>
      </trkpt>
      <trkpt lat="45.3024" lon="6.22724">
        <ele>1416.4909667969</ele>
        <time>2017-02-26T07:29:29Z</time>
      </trkpt>
      <trkpt lat="45.30243" lon="6.22732">
        <ele>1421.4909667969</ele>
        <time>2017-02-26T07:29:32Z</time>
      </trkpt>
      <trkpt lat="45.30248" lon="6.22737">
        <ele>1420.4909667969</ele>
        <time>2017-02-26T07:29:34Z</time>
      </trkpt>
      <trkpt lat="45.30254" lon="6.22742">
        <ele>1421.4909667969</ele>
        <time>2017-02-26T07:29:37Z</time>
      </trkpt>
      <trkpt lat="45.30257" lon="6.22748">
        <ele>1422.4909667969</ele>
        <time>2017-02-26T07:29:40Z</time>
      </trkpt>
      <trkpt lat="45.3026" lon="6.22754">
        <ele>1421.4909667969</ele>
        <time>2017-02-26T07:29:43Z</time>
      </trkpt>
      <trkpt lat="45.30263" lon="6.22761">
        <ele>1421.4909667969</ele>
        <time>2017-02-26T07:29:47Z</time>
      </trkpt>
      <trkpt lat="45.30266" lon="6.22766">
        <ele>1423.4909667969</ele>
        <time>2017-02-26T07:29:50Z</time>
      </trkpt>
      <trkpt lat="45.3027" lon="6.22771">
        <ele>1424.4909667969</ele>
        <time>2017-02-26T07:29:53Z</time>
      </trkpt>
      <trkpt lat="45.30274" lon="6.22775">
        <ele>1423.4909667969</ele>
        <time>2017-02-26T07:29:55Z</time>
      </trkpt>
      <trkpt lat="45.30277" lon="6.2278">
        <ele>1424.4909667969</ele>
        <time>2017-02-26T07:29:58Z</time>
      </trkpt>
      <trkpt lat="45.30281" lon="6.22788">
        <ele>1425.4909667969</ele>
        <time>2017-02-26T07:30:02Z</time>
      </trkpt>
      <trkpt lat="45.30287" lon="6.22793">
        <ele>1424.4909667969</ele>
        <time>2017-02-26T07:30:05Z</time>
      </trkpt>
      <trkpt lat="45.30292" lon="6.22799">
        <ele>1425.4909667969</ele>
        <time>2017-02-26T07:30:07Z</time>
      </trkpt>
      <trkpt lat="45.30297" lon="6.22804">
        <ele>1426.4909667969</ele>
        <time>2017-02-26T07:30:10Z</time>
      </trkpt>
      <trkpt lat="45.30302" lon="6.22807">
        <ele>1428.4909667969</ele>
        <time>2017-02-26T07:30:13Z</time>
      </trkpt>
      <trkpt lat="45.30307" lon="6.22811">
        <ele>1428.4909667969</ele>
        <time>2017-02-26T07:30:15Z</time>
      </trkpt>
      <trkpt lat="45.30313" lon="6.22815">
        <ele>1430.4909667969</ele>
        <time>2017-02-26T07:30:20Z</time>
      </trkpt>
      <trkpt lat="45.3032" lon="6.2282">
        <ele>1426.4909667969</ele>
        <time>2017-02-26T07:30:24Z</time>
      </trkpt>
      <trkpt lat="45.30325" lon="6.22823">
        <ele>1427.4909667969</ele>
        <time>2017-02-26T07:30:29Z</time>
      </trkpt>
      <trkpt lat="45.3033" lon="6.22824">
        <ele>1429.4909667969</ele>
        <time>2017-02-26T07:30:37Z</time>
      </trkpt>
      <trkpt lat="45.30334" lon="6.2283">
        <ele>1431.4909667969</ele>
        <time>2017-02-26T07:30:46Z</time>
      </trkpt>
      <trkpt lat="45.30341" lon="6.2283">
        <ele>1431.4909667969</ele>
        <time>2017-02-26T07:31:16Z</time>
      </trkpt>
      <trkpt lat="45.30346" lon="6.22829">
        <ele>1436.4909667969</ele>
        <time>2017-02-26T07:31:24Z</time>
      </trkpt>
      <trkpt lat="45.3035" lon="6.22823">
        <ele>1435.4909667969</ele>
        <time>2017-02-26T07:31:30Z</time>
      </trkpt>
      <trkpt lat="45.30355" lon="6.22821">
        <ele>1436.4909667969</ele>
        <time>2017-02-26T07:31:33Z</time>
      </trkpt>
      <trkpt lat="45.3036" lon="6.2282">
        <ele>1435.4909667969</ele>
        <time>2017-02-26T07:31:36Z</time>
      </trkpt>
      <trkpt lat="45.30365" lon="6.2282">
        <ele>1439.4909667969</ele>
        <time>2017-02-26T07:31:40Z</time>
      </trkpt>
      <trkpt lat="45.30371" lon="6.22819">
        <ele>1440.4919433594</ele>
        <time>2017-02-26T07:31:44Z</time>
      </trkpt>
      <trkpt lat="45.30376" lon="6.22816">
        <ele>1438.4919433594</ele>
        <time>2017-02-26T07:31:46Z</time>
      </trkpt>
      <trkpt lat="45.3038" lon="6.22813">
        <ele>1435.4919433594</ele>
        <time>2017-02-26T07:31:50Z</time>
      </trkpt>
      <trkpt lat="45.30386" lon="6.22809">
        <ele>1434.4919433594</ele>
        <time>2017-02-26T07:31:55Z</time>
      </trkpt>
      <trkpt lat="45.30391" lon="6.22808">
        <ele>1438.4919433594</ele>
        <time>2017-02-26T07:32:01Z</time>
      </trkpt>
      <trkpt lat="45.30396" lon="6.22804">
        <ele>1437.4919433594</ele>
        <time>2017-02-26T07:32:05Z</time>
      </trkpt>
      <trkpt lat="45.304" lon="6.22798">
        <ele>1438.4919433594</ele>
        <time>2017-02-26T07:32:09Z</time>
      </trkpt>
      <trkpt lat="45.30404" lon="6.22793">
        <ele>1440.4919433594</ele>
        <time>2017-02-26T07:32:13Z</time>
      </trkpt>
      <trkpt lat="45.30406" lon="6.22787">
        <ele>1442.4919433594</ele>
        <time>2017-02-26T07:32:17Z</time>
      </trkpt>
      <trkpt lat="45.30407" lon="6.2278">
        <ele>1443.4919433594</ele>
        <time>2017-02-26T07:32:21Z</time>
      </trkpt>
      <trkpt lat="45.30413" lon="6.22779">
        <ele>1443.4919433594</ele>
        <time>2017-02-26T07:32:23Z</time>
      </trkpt>
      <trkpt lat="45.30418" lon="6.22779">
        <ele>1443.4919433594</ele>
        <time>2017-02-26T07:32:25Z</time>
      </trkpt>
      <trkpt lat="45.30424" lon="6.2278">
        <ele>1445.4919433594</ele>
        <time>2017-02-26T07:32:29Z</time>
      </trkpt>
      <trkpt lat="45.30429" lon="6.2278">
        <ele>1449.4919433594</ele>
        <time>2017-02-26T07:32:41Z</time>
      </trkpt>
      <trkpt lat="45.30433" lon="6.22777">
        <ele>1452.4919433594</ele>
        <time>2017-02-26T07:32:47Z</time>
      </trkpt>
      <trkpt lat="45.30438" lon="6.22774">
        <ele>1450.4919433594</ele>
        <time>2017-02-26T07:32:49Z</time>
      </trkpt>
      <trkpt lat="45.30442" lon="6.2277">
        <ele>1447.4919433594</ele>
        <time>2017-02-26T07:32:52Z</time>
      </trkpt>
      <trkpt lat="45.30447" lon="6.22766">
        <ele>1448.4919433594</ele>
        <time>2017-02-26T07:32:54Z</time>
      </trkpt>
      <trkpt lat="45.3045" lon="6.2276">
        <ele>1448.4919433594</ele>
        <time>2017-02-26T07:32:59Z</time>
      </trkpt>
      <trkpt lat="45.30456" lon="6.2276">
        <ele>1452.4919433594</ele>
        <time>2017-02-26T07:33:02Z</time>
      </trkpt>
      <trkpt lat="45.30461" lon="6.22759">
        <ele>1452.4919433594</ele>
        <time>2017-02-26T07:33:04Z</time>
      </trkpt>
      <trkpt lat="45.30466" lon="6.22758">
        <ele>1454.4919433594</ele>
        <time>2017-02-26T07:33:07Z</time>
      </trkpt>
      <trkpt lat="45.30471" lon="6.22758">
        <ele>1457.4919433594</ele>
        <time>2017-02-26T07:33:11Z</time>
      </trkpt>
      <trkpt lat="45.30475" lon="6.22755">
        <ele>1457.4919433594</ele>
        <time>2017-02-26T07:33:14Z</time>
      </trkpt>
      <trkpt lat="45.30479" lon="6.22753">
        <ele>1457.4919433594</ele>
        <time>2017-02-26T07:33:16Z</time>
      </trkpt>
      <trkpt lat="45.30484" lon="6.22751">
        <ele>1455.4919433594</ele>
        <time>2017-02-26T07:33:20Z</time>
      </trkpt>
      <trkpt lat="45.30487" lon="6.22745">
        <ele>1456.4919433594</ele>
        <time>2017-02-26T07:33:24Z</time>
      </trkpt>
      <trkpt lat="45.30492" lon="6.22742">
        <ele>1458.4919433594</ele>
        <time>2017-02-26T07:33:28Z</time>
      </trkpt>
      <trkpt lat="45.30495" lon="6.22737">
        <ele>1458.4919433594</ele>
        <time>2017-02-26T07:33:30Z</time>
      </trkpt>
      <trkpt lat="45.30499" lon="6.22733">
        <ele>1458.4919433594</ele>
        <time>2017-02-26T07:33:33Z</time>
      </trkpt>
      <trkpt lat="45.30506" lon="6.22732">
        <ele>1459.4919433594</ele>
        <time>2017-02-26T07:33:39Z</time>
      </trkpt>
      <trkpt lat="45.30511" lon="6.2273">
        <ele>1458.4919433594</ele>
        <time>2017-02-26T07:33:42Z</time>
      </trkpt>
      <trkpt lat="45.30516" lon="6.22726">
        <ele>1458.4919433594</ele>
        <time>2017-02-26T07:33:45Z</time>
      </trkpt>
      <trkpt lat="45.30521" lon="6.22725">
        <ele>1457.4919433594</ele>
        <time>2017-02-26T07:33:48Z</time>
      </trkpt>
      <trkpt lat="45.30527" lon="6.22726">
        <ele>1459.4919433594</ele>
        <time>2017-02-26T07:33:52Z</time>
      </trkpt>
      <trkpt lat="45.30523" lon="6.22728">
        <ele>1464.4919433594</ele>
        <time>2017-02-26T07:34:31Z</time>
      </trkpt>
      <trkpt lat="45.30527" lon="6.22727">
        <ele>1464.4919433594</ele>
        <time>2017-02-26T07:34:34Z</time>
      </trkpt>
      <trkpt lat="45.30532" lon="6.22723">
        <ele>1464.4919433594</ele>
        <time>2017-02-26T07:34:39Z</time>
      </trkpt>
      <trkpt lat="45.30537" lon="6.22723">
        <ele>1465.4919433594</ele>
        <time>2017-02-26T07:34:42Z</time>
      </trkpt>
      <trkpt lat="45.30541" lon="6.2272">
        <ele>1465.4919433594</ele>
        <time>2017-02-26T07:34:46Z</time>
      </trkpt>
      <trkpt lat="45.30547" lon="6.22718">
        <ele>1466.4919433594</ele>
        <time>2017-02-26T07:34:49Z</time>
      </trkpt>
      <trkpt lat="45.30551" lon="6.22714">
        <ele>1468.4919433594</ele>
        <time>2017-02-26T07:34:52Z</time>
      </trkpt>
      <trkpt lat="45.30555" lon="6.22712">
        <ele>1469.4919433594</ele>
        <time>2017-02-26T07:34:55Z</time>
      </trkpt>
      <trkpt lat="45.30561" lon="6.22707">
        <ele>1465.4919433594</ele>
        <time>2017-02-26T07:34:57Z</time>
      </trkpt>
      <trkpt lat="45.30566" lon="6.22705">
        <ele>1464.4919433594</ele>
        <time>2017-02-26T07:35:04Z</time>
      </trkpt>
      <trkpt lat="45.30566" lon="6.22712">
        <ele>1468.4919433594</ele>
        <time>2017-02-26T07:35:22Z</time>
      </trkpt>
      <trkpt lat="45.30567" lon="6.2272">
        <ele>1469.4919433594</ele>
        <time>2017-02-26T07:35:27Z</time>
      </trkpt>
      <trkpt lat="45.30567" lon="6.22727">
        <ele>1471.4919433594</ele>
        <time>2017-02-26T07:35:31Z</time>
      </trkpt>
      <trkpt lat="45.30571" lon="6.22734">
        <ele>1469.4919433594</ele>
        <time>2017-02-26T07:35:36Z</time>
      </trkpt>
      <trkpt lat="45.30575" lon="6.22739">
        <ele>1470.4919433594</ele>
        <time>2017-02-26T07:35:39Z</time>
      </trkpt>
      <trkpt lat="45.3058" lon="6.2274">
        <ele>1471.4919433594</ele>
        <time>2017-02-26T07:35:43Z</time>
      </trkpt>
      <trkpt lat="45.30585" lon="6.22736">
        <ele>1469.4919433594</ele>
        <time>2017-02-26T07:35:46Z</time>
      </trkpt>
      <trkpt lat="45.3059" lon="6.22729">
        <ele>1467.4919433594</ele>
        <time>2017-02-26T07:35:50Z</time>
      </trkpt>
      <trkpt lat="45.30596" lon="6.22724">
        <ele>1469.4919433594</ele>
        <time>2017-02-26T07:35:54Z</time>
      </trkpt>
      <trkpt lat="45.30602" lon="6.22719">
        <ele>1471.4919433594</ele>
        <time>2017-02-26T07:35:57Z</time>
      </trkpt>
      <trkpt lat="45.30608" lon="6.22717">
        <ele>1472.4919433594</ele>
        <time>2017-02-26T07:36:02Z</time>
      </trkpt>
      <trkpt lat="45.30613" lon="6.22719">
        <ele>1473.4919433594</ele>
        <time>2017-02-26T07:36:07Z</time>
      </trkpt>
      <trkpt lat="45.30617" lon="6.22723">
        <ele>1475.4919433594</ele>
        <time>2017-02-26T07:36:11Z</time>
      </trkpt>
      <trkpt lat="45.30622" lon="6.22722">
        <ele>1471.4919433594</ele>
        <time>2017-02-26T07:36:14Z</time>
      </trkpt>
      <trkpt lat="45.30627" lon="6.22717">
        <ele>1466.4919433594</ele>
        <time>2017-02-26T07:36:16Z</time>
      </trkpt>
      <trkpt lat="45.3063" lon="6.22713">
        <ele>1468.4919433594</ele>
        <time>2017-02-26T07:36:20Z</time>
      </trkpt>
      <trkpt lat="45.30635" lon="6.22708">
        <ele>1463.4919433594</ele>
        <time>2017-02-26T07:36:22Z</time>
      </trkpt>
      <trkpt lat="45.30641" lon="6.22708">
        <ele>1463.4919433594</ele>
        <time>2017-02-26T07:36:29Z</time>
      </trkpt>
      <trkpt lat="45.30646" lon="6.22707">
        <ele>1464.4919433594</ele>
        <time>2017-02-26T07:36:32Z</time>
      </trkpt>
      <trkpt lat="45.30651" lon="6.22703">
        <ele>1465.4919433594</ele>
        <time>2017-02-26T07:36:36Z</time>
      </trkpt>
      <trkpt lat="45.30657" lon="6.227">
        <ele>1464.4919433594</ele>
        <time>2017-02-26T07:36:38Z</time>
      </trkpt>
      <trkpt lat="45.30661" lon="6.22697">
        <ele>1465.4919433594</ele>
        <time>2017-02-26T07:36:42Z</time>
      </trkpt>
      <trkpt lat="45.30665" lon="6.22693">
        <ele>1461.4919433594</ele>
        <time>2017-02-26T07:36:44Z</time>
      </trkpt>
      <trkpt lat="45.30669" lon="6.22687">
        <ele>1461.4919433594</ele>
        <time>2017-02-26T07:36:46Z</time>
      </trkpt>
      <trkpt lat="45.30674" lon="6.22686">
        <ele>1459.4919433594</ele>
        <time>2017-02-26T07:36:50Z</time>
      </trkpt>
      <trkpt lat="45.3068" lon="6.22681">
        <ele>1458.4919433594</ele>
        <time>2017-02-26T07:36:56Z</time>
      </trkpt>
      <trkpt lat="45.30684" lon="6.22678">
        <ele>1461.4919433594</ele>
        <time>2017-02-26T07:37:00Z</time>
      </trkpt>
      <trkpt lat="45.30688" lon="6.22673">
        <ele>1463.4919433594</ele>
        <time>2017-02-26T07:37:06Z</time>
      </trkpt>
      <trkpt lat="45.30695" lon="6.22669">
        <ele>1462.4919433594</ele>
        <time>2017-02-26T07:37:10Z</time>
      </trkpt>
      <trkpt lat="45.30702" lon="6.22669">
        <ele>1464.4919433594</ele>
        <time>2017-02-26T07:37:12Z</time>
      </trkpt>
      <trkpt lat="45.30707" lon="6.22668">
        <ele>1465.4919433594</ele>
        <time>2017-02-26T07:37:14Z</time>
      </trkpt>
      <trkpt lat="45.30712" lon="6.22667">
        <ele>1469.4919433594</ele>
        <time>2017-02-26T07:37:17Z</time>
      </trkpt>
      <trkpt lat="45.30719" lon="6.22663">
        <ele>1470.4919433594</ele>
        <time>2017-02-26T07:37:20Z</time>
      </trkpt>
      <trkpt lat="45.30722" lon="6.22658">
        <ele>1468.4919433594</ele>
        <time>2017-02-26T07:37:21Z</time>
      </trkpt>
      <trkpt lat="45.30725" lon="6.22654">
        <ele>1469.4919433594</ele>
        <time>2017-02-26T07:37:23Z</time>
      </trkpt>
      <trkpt lat="45.30728" lon="6.22647">
        <ele>1471.4919433594</ele>
        <time>2017-02-26T07:37:26Z</time>
      </trkpt>
      <trkpt lat="45.30732" lon="6.22643">
        <ele>1469.4919433594</ele>
        <time>2017-02-26T07:37:32Z</time>
      </trkpt>
      <trkpt lat="45.30737" lon="6.22643">
        <ele>1468.4919433594</ele>
        <time>2017-02-26T07:37:38Z</time>
      </trkpt>
      <trkpt lat="45.30742" lon="6.22643">
        <ele>1469.4919433594</ele>
        <time>2017-02-26T07:37:41Z</time>
      </trkpt>
      <trkpt lat="45.30748" lon="6.22644">
        <ele>1476.4919433594</ele>
        <time>2017-02-26T07:37:46Z</time>
      </trkpt>
      <trkpt lat="45.30753" lon="6.22644">
        <ele>1476.4919433594</ele>
        <time>2017-02-26T07:37:50Z</time>
      </trkpt>
      <trkpt lat="45.30758" lon="6.22648">
        <ele>1479.4919433594</ele>
        <time>2017-02-26T07:37:54Z</time>
      </trkpt>
      <trkpt lat="45.30758" lon="6.22641">
        <ele>1487.4919433594</ele>
        <time>2017-02-26T07:38:09Z</time>
      </trkpt>
      <trkpt lat="45.30761" lon="6.22635">
        <ele>1487.4919433594</ele>
        <time>2017-02-26T07:38:19Z</time>
      </trkpt>
      <trkpt lat="45.30765" lon="6.22638">
        <ele>1489.4919433594</ele>
        <time>2017-02-26T07:38:28Z</time>
      </trkpt>
      <trkpt lat="45.30761" lon="6.22635">
        <ele>1493.4919433594</ele>
        <time>2017-02-26T07:38:44Z</time>
      </trkpt>
      <trkpt lat="45.30756" lon="6.22627">
        <ele>1493.4919433594</ele>
        <time>2017-02-26T07:38:50Z</time>
      </trkpt>
      <trkpt lat="45.30755" lon="6.22621">
        <ele>1490.4919433594</ele>
        <time>2017-02-26T07:38:57Z</time>
      </trkpt>
      <trkpt lat="45.30751" lon="6.22617">
        <ele>1490.4919433594</ele>
        <time>2017-02-26T07:39:01Z</time>
      </trkpt>
      <trkpt lat="45.30745" lon="6.22612">
        <ele>1490.4919433594</ele>
        <time>2017-02-26T07:39:04Z</time>
      </trkpt>
      <trkpt lat="45.3074" lon="6.22615">
        <ele>1492.4919433594</ele>
        <time>2017-02-26T07:39:10Z</time>
      </trkpt>
      <trkpt lat="45.30738" lon="6.22621">
        <ele>1499.4919433594</ele>
        <time>2017-02-26T07:39:23Z</time>
      </trkpt>
      <trkpt lat="45.30733" lon="6.2262">
        <ele>1502.4919433594</ele>
        <time>2017-02-26T07:39:33Z</time>
      </trkpt>
      <trkpt lat="45.30728" lon="6.2262">
        <ele>1502.4919433594</ele>
        <time>2017-02-26T07:40:09Z</time>
      </trkpt>
      <trkpt lat="45.30722" lon="6.22618">
        <ele>1504.4919433594</ele>
        <time>2017-02-26T07:40:11Z</time>
      </trkpt>
      <trkpt lat="45.30717" lon="6.22621">
        <ele>1506.4919433594</ele>
        <time>2017-02-26T07:40:14Z</time>
      </trkpt>
      <trkpt lat="45.3071" lon="6.22623">
        <ele>1509.4919433594</ele>
        <time>2017-02-26T07:40:18Z</time>
      </trkpt>
      <trkpt lat="45.30705" lon="6.22624">
        <ele>1512.4919433594</ele>
        <time>2017-02-26T07:40:21Z</time>
      </trkpt>
      <trkpt lat="45.30701" lon="6.22623">
        <ele>1509.4919433594</ele>
        <time>2017-02-26T07:40:24Z</time>
      </trkpt>
      <trkpt lat="45.30696" lon="6.22626">
        <ele>1507.4919433594</ele>
        <time>2017-02-26T07:40:31Z</time>
      </trkpt>
      <trkpt lat="45.30691" lon="6.22628">
        <ele>1509.4919433594</ele>
        <time>2017-02-26T07:40:33Z</time>
      </trkpt>
      <trkpt lat="45.30687" lon="6.2263">
        <ele>1510.4919433594</ele>
        <time>2017-02-26T07:40:36Z</time>
      </trkpt>
      <trkpt lat="45.30685" lon="6.22637">
        <ele>1512.4919433594</ele>
        <time>2017-02-26T07:40:39Z</time>
      </trkpt>
      <trkpt lat="45.3068" lon="6.22642">
        <ele>1515.4919433594</ele>
        <time>2017-02-26T07:40:42Z</time>
      </trkpt>
      <trkpt lat="45.30682" lon="6.22635">
        <ele>1511.4919433594</ele>
        <time>2017-02-26T07:40:45Z</time>
      </trkpt>
      <trkpt lat="45.3068" lon="6.2264">
        <ele>1511.4919433594</ele>
        <time>2017-02-26T07:40:54Z</time>
      </trkpt>
      <trkpt lat="45.30672" lon="6.22636">
        <ele>1510.4919433594</ele>
        <time>2017-02-26T07:41:14Z</time>
      </trkpt>
      <trkpt lat="45.30664" lon="6.22632">
        <ele>1510.4919433594</ele>
        <time>2017-02-26T07:41:17Z</time>
      </trkpt>
      <trkpt lat="45.30658" lon="6.22632">
        <ele>1512.4919433594</ele>
        <time>2017-02-26T07:41:19Z</time>
      </trkpt>
      <trkpt lat="45.30652" lon="6.22632">
        <ele>1514.4919433594</ele>
        <time>2017-02-26T07:41:21Z</time>
      </trkpt>
      <trkpt lat="45.30655" lon="6.22625">
        <ele>1512.4919433594</ele>
        <time>2017-02-26T07:41:29Z</time>
      </trkpt>
      <trkpt lat="45.30658" lon="6.22618">
        <ele>1511.4919433594</ele>
        <time>2017-02-26T07:41:34Z</time>
      </trkpt>
      <trkpt lat="45.30663" lon="6.22614">
        <ele>1506.4919433594</ele>
        <time>2017-02-26T07:41:38Z</time>
      </trkpt>
      <trkpt lat="45.30668" lon="6.22612">
        <ele>1510.4919433594</ele>
        <time>2017-02-26T07:42:03Z</time>
      </trkpt>
      <trkpt lat="45.30673" lon="6.22614">
        <ele>1518.4919433594</ele>
        <time>2017-02-26T07:42:10Z</time>
      </trkpt>
      <trkpt lat="45.30677" lon="6.22609">
        <ele>1519.4919433594</ele>
        <time>2017-02-26T07:43:33Z</time>
      </trkpt>
      <trkpt lat="45.3068" lon="6.22601">
        <ele>1519.4919433594</ele>
        <time>2017-02-26T07:43:35Z</time>
      </trkpt>
      <trkpt lat="45.30684" lon="6.22597">
        <ele>1521.4919433594</ele>
        <time>2017-02-26T07:43:38Z</time>
      </trkpt>
      <trkpt lat="45.30689" lon="6.22593">
        <ele>1523.4919433594</ele>
        <time>2017-02-26T07:43:42Z</time>
      </trkpt>
      <trkpt lat="45.30693" lon="6.22591">
        <ele>1524.4919433594</ele>
        <time>2017-02-26T07:43:44Z</time>
      </trkpt>
      <trkpt lat="45.30695" lon="6.22585">
        <ele>1529.4919433594</ele>
        <time>2017-02-26T07:43:49Z</time>
      </trkpt>
      <trkpt lat="45.30701" lon="6.22586">
        <ele>1532.4919433594</ele>
        <time>2017-02-26T07:43:52Z</time>
      </trkpt>
      <trkpt lat="45.30705" lon="6.22582">
        <ele>1529.4919433594</ele>
        <time>2017-02-26T07:43:54Z</time>
      </trkpt>
      <trkpt lat="45.30709" lon="6.22577">
        <ele>1531.4919433594</ele>
        <time>2017-02-26T07:43:57Z</time>
      </trkpt>
      <trkpt lat="45.30712" lon="6.22567">
        <ele>1530.4919433594</ele>
        <time>2017-02-26T07:44:02Z</time>
      </trkpt>
      <trkpt lat="45.30717" lon="6.22561">
        <ele>1528.4919433594</ele>
        <time>2017-02-26T07:44:08Z</time>
      </trkpt>
      <trkpt lat="45.30718" lon="6.22554">
        <ele>1528.4919433594</ele>
        <time>2017-02-26T07:44:11Z</time>
      </trkpt>
      <trkpt lat="45.30721" lon="6.22548">
        <ele>1527.4919433594</ele>
        <time>2017-02-26T07:44:15Z</time>
      </trkpt>
      <trkpt lat="45.30726" lon="6.22547">
        <ele>1529.4919433594</ele>
        <time>2017-02-26T07:44:18Z</time>
      </trkpt>
      <trkpt lat="45.30729" lon="6.22543">
        <ele>1529.4919433594</ele>
        <time>2017-02-26T07:44:20Z</time>
      </trkpt>
      <trkpt lat="45.30735" lon="6.22539">
        <ele>1533.4919433594</ele>
        <time>2017-02-26T07:44:26Z</time>
      </trkpt>
      <trkpt lat="45.30739" lon="6.22542">
        <ele>1535.4919433594</ele>
        <time>2017-02-26T07:44:28Z</time>
      </trkpt>
      <trkpt lat="45.30744" lon="6.22545">
        <ele>1537.4919433594</ele>
        <time>2017-02-26T07:44:33Z</time>
      </trkpt>
      <trkpt lat="45.30747" lon="6.2254">
        <ele>1539.4919433594</ele>
        <time>2017-02-26T07:44:39Z</time>
      </trkpt>
      <trkpt lat="45.30752" lon="6.22542">
        <ele>1541.4919433594</ele>
        <time>2017-02-26T07:44:42Z</time>
      </trkpt>
      <trkpt lat="45.30757" lon="6.22539">
        <ele>1540.4919433594</ele>
        <time>2017-02-26T07:44:47Z</time>
      </trkpt>
      <trkpt lat="45.30762" lon="6.22538">
        <ele>1544.4919433594</ele>
        <time>2017-02-26T07:44:53Z</time>
      </trkpt>
      <trkpt lat="45.30758" lon="6.22531">
        <ele>1547.4919433594</ele>
        <time>2017-02-26T07:45:00Z</time>
      </trkpt>
      <trkpt lat="45.30754" lon="6.22528">
        <ele>1547.4919433594</ele>
        <time>2017-02-26T07:45:06Z</time>
      </trkpt>
      <trkpt lat="45.30748" lon="6.22529">
        <ele>1547.4919433594</ele>
        <time>2017-02-26T07:45:10Z</time>
      </trkpt>
      <trkpt lat="45.30742" lon="6.22528">
        <ele>1547.4919433594</ele>
        <time>2017-02-26T07:45:18Z</time>
      </trkpt>
      <trkpt lat="45.30738" lon="6.22521">
        <ele>1545.4919433594</ele>
        <time>2017-02-26T07:45:22Z</time>
      </trkpt>
      <trkpt lat="45.30733" lon="6.2252">
        <ele>1547.4919433594</ele>
        <time>2017-02-26T07:45:25Z</time>
      </trkpt>
      <trkpt lat="45.30728" lon="6.22519">
        <ele>1549.4919433594</ele>
        <time>2017-02-26T07:45:28Z</time>
      </trkpt>
      <trkpt lat="45.30722" lon="6.22519">
        <ele>1552.4919433594</ele>
        <time>2017-02-26T07:45:34Z</time>
      </trkpt>
      <trkpt lat="45.30717" lon="6.2252">
        <ele>1553.4919433594</ele>
        <time>2017-02-26T07:45:37Z</time>
      </trkpt>
      <trkpt lat="45.30711" lon="6.22524">
        <ele>1554.4919433594</ele>
        <time>2017-02-26T07:45:42Z</time>
      </trkpt>
      <trkpt lat="45.30705" lon="6.22523">
        <ele>1555.4919433594</ele>
        <time>2017-02-26T07:45:47Z</time>
      </trkpt>
      <trkpt lat="45.307" lon="6.22524">
        <ele>1556.4919433594</ele>
        <time>2017-02-26T07:45:52Z</time>
      </trkpt>
      <trkpt lat="45.30696" lon="6.22522">
        <ele>1557.4919433594</ele>
        <time>2017-02-26T07:45:56Z</time>
      </trkpt>
      <trkpt lat="45.30694" lon="6.22516">
        <ele>1558.4919433594</ele>
        <time>2017-02-26T07:45:59Z</time>
      </trkpt>
      <trkpt lat="45.30696" lon="6.2251">
        <ele>1559.4919433594</ele>
        <time>2017-02-26T07:46:07Z</time>
      </trkpt>
      <trkpt lat="45.30693" lon="6.22505">
        <ele>1563.4919433594</ele>
        <time>2017-02-26T07:46:24Z</time>
      </trkpt>
      <trkpt lat="45.30695" lon="6.22499">
        <ele>1562.4919433594</ele>
        <time>2017-02-26T07:46:38Z</time>
      </trkpt>
      <trkpt lat="45.30699" lon="6.22495">
        <ele>1565.4919433594</ele>
        <time>2017-02-26T07:46:44Z</time>
      </trkpt>
      <trkpt lat="45.307" lon="6.22487">
        <ele>1569.4919433594</ele>
        <time>2017-02-26T07:46:48Z</time>
      </trkpt>
      <trkpt lat="45.30701" lon="6.2248">
        <ele>1568.4919433594</ele>
        <time>2017-02-26T07:46:51Z</time>
      </trkpt>
      <trkpt lat="45.30705" lon="6.22475">
        <ele>1569.4919433594</ele>
        <time>2017-02-26T07:46:56Z</time>
      </trkpt>
      <trkpt lat="45.30707" lon="6.2247">
        <ele>1570.4919433594</ele>
        <time>2017-02-26T07:47:01Z</time>
      </trkpt>
      <trkpt lat="45.30712" lon="6.2247">
        <ele>1571.4919433594</ele>
        <time>2017-02-26T07:47:07Z</time>
      </trkpt>
      <trkpt lat="45.30716" lon="6.22471">
        <ele>1573.4919433594</ele>
        <time>2017-02-26T07:47:13Z</time>
      </trkpt>
      <trkpt lat="45.3072" lon="6.22465">
        <ele>1576.4919433594</ele>
        <time>2017-02-26T07:47:22Z</time>
      </trkpt>
      <trkpt lat="45.30724" lon="6.22462">
        <ele>1577.4919433594</ele>
        <time>2017-02-26T07:47:29Z</time>
      </trkpt>
      <trkpt lat="45.30729" lon="6.2246">
        <ele>1574.4919433594</ele>
        <time>2017-02-26T07:47:36Z</time>
      </trkpt>
      <trkpt lat="45.30733" lon="6.22456">
        <ele>1583.4919433594</ele>
        <time>2017-02-26T07:47:41Z</time>
      </trkpt>
      <trkpt lat="45.30738" lon="6.22451">
        <ele>1585.4919433594</ele>
        <time>2017-02-26T07:47:51Z</time>
      </trkpt>
      <trkpt lat="45.30741" lon="6.22446">
        <ele>1589.4919433594</ele>
        <time>2017-02-26T07:48:03Z</time>
      </trkpt>
      <trkpt lat="45.30745" lon="6.22443">
        <ele>1589.4919433594</ele>
        <time>2017-02-26T07:48:08Z</time>
      </trkpt>
      <trkpt lat="45.30748" lon="6.22438">
        <ele>1592.4919433594</ele>
        <time>2017-02-26T07:48:16Z</time>
      </trkpt>
      <trkpt lat="45.30751" lon="6.22433">
        <ele>1595.4919433594</ele>
        <time>2017-02-26T07:48:24Z</time>
      </trkpt>
      <trkpt lat="45.30754" lon="6.22428">
        <ele>1593.4919433594</ele>
        <time>2017-02-26T07:48:32Z</time>
      </trkpt>
      <trkpt lat="45.30758" lon="6.22423">
        <ele>1598.4919433594</ele>
        <time>2017-02-26T07:48:40Z</time>
      </trkpt>
      <trkpt lat="45.30763" lon="6.22421">
        <ele>1598.4919433594</ele>
        <time>2017-02-26T07:48:47Z</time>
      </trkpt>
      <trkpt lat="45.30768" lon="6.22417">
        <ele>1599.4919433594</ele>
        <time>2017-02-26T07:48:58Z</time>
      </trkpt>
      <trkpt lat="45.30772" lon="6.22415">
        <ele>1601.4919433594</ele>
        <time>2017-02-26T07:49:06Z</time>
      </trkpt>
      <trkpt lat="45.30777" lon="6.22412">
        <ele>1604.4919433594</ele>
        <time>2017-02-26T07:49:13Z</time>
      </trkpt>
      <trkpt lat="45.30781" lon="6.22408">
        <ele>1612.4919433594</ele>
        <time>2017-02-26T07:49:25Z</time>
      </trkpt>
      <trkpt lat="45.30785" lon="6.22403">
        <ele>1612.4919433594</ele>
        <time>2017-02-26T07:49:33Z</time>
      </trkpt>
      <trkpt lat="45.30789" lon="6.22399">
        <ele>1617.4919433594</ele>
        <time>2017-02-26T07:49:46Z</time>
      </trkpt>
      <trkpt lat="45.30793" lon="6.22396">
        <ele>1620.4919433594</ele>
        <time>2017-02-26T07:49:55Z</time>
      </trkpt>
      <trkpt lat="45.30795" lon="6.2239">
        <ele>1621.4919433594</ele>
        <time>2017-02-26T07:50:03Z</time>
      </trkpt>
      <trkpt lat="45.30799" lon="6.22386">
        <ele>1622.4919433594</ele>
        <time>2017-02-26T07:50:08Z</time>
      </trkpt>
      <trkpt lat="45.30804" lon="6.22381">
        <ele>1625.4919433594</ele>
        <time>2017-02-26T07:50:21Z</time>
      </trkpt>
      <trkpt lat="45.30809" lon="6.22379">
        <ele>1630.4919433594</ele>
        <time>2017-02-26T07:50:31Z</time>
      </trkpt>
      <trkpt lat="45.30813" lon="6.22378">
        <ele>1630.4919433594</ele>
        <time>2017-02-26T07:50:34Z</time>
      </trkpt>
      <trkpt lat="45.30818" lon="6.22376">
        <ele>1633.4919433594</ele>
        <time>2017-02-26T07:50:47Z</time>
      </trkpt>
      <trkpt lat="45.30823" lon="6.22375">
        <ele>1636.4919433594</ele>
        <time>2017-02-26T07:50:57Z</time>
      </trkpt>
      <trkpt lat="45.30826" lon="6.2237">
        <ele>1640.4919433594</ele>
        <time>2017-02-26T07:51:04Z</time>
      </trkpt>
      <trkpt lat="45.3083" lon="6.22367">
        <ele>1643.4919433594</ele>
        <time>2017-02-26T07:51:15Z</time>
      </trkpt>
      <trkpt lat="45.30835" lon="6.22363">
        <ele>1646.4919433594</ele>
        <time>2017-02-26T07:51:27Z</time>
      </trkpt>
      <trkpt lat="45.30837" lon="6.22356">
        <ele>1648.4919433594</ele>
        <time>2017-02-26T07:51:38Z</time>
      </trkpt>
      <trkpt lat="45.30842" lon="6.22355">
        <ele>1650.4919433594</ele>
        <time>2017-02-26T07:51:47Z</time>
      </trkpt>
      <trkpt lat="45.30847" lon="6.22357">
        <ele>1654.4919433594</ele>
        <time>2017-02-26T07:51:56Z</time>
      </trkpt>
      <trkpt lat="45.30851" lon="6.22357">
        <ele>1657.4919433594</ele>
        <time>2017-02-26T07:52:05Z</time>
      </trkpt>
      <trkpt lat="45.30856" lon="6.22354">
        <ele>1660.4919433594</ele>
        <time>2017-02-26T07:52:12Z</time>
      </trkpt>
      <trkpt lat="45.30858" lon="6.22349">
        <ele>1665.4919433594</ele>
        <time>2017-02-26T07:52:24Z</time>
      </trkpt>
      <trkpt lat="45.30862" lon="6.22345">
        <ele>1664.4919433594</ele>
        <time>2017-02-26T07:52:30Z</time>
      </trkpt>
      <trkpt lat="45.30863" lon="6.22338">
        <ele>1664.4919433594</ele>
        <time>2017-02-26T07:52:45Z</time>
      </trkpt>
      <trkpt lat="45.30866" lon="6.22331">
        <ele>1667.4919433594</ele>
        <time>2017-02-26T07:53:05Z</time>
      </trkpt>
      <trkpt lat="45.30869" lon="6.22325">
        <ele>1665.4919433594</ele>
        <time>2017-02-26T07:53:11Z</time>
      </trkpt>
      <trkpt lat="45.30873" lon="6.22322">
        <ele>1672.4919433594</ele>
        <time>2017-02-26T07:53:24Z</time>
      </trkpt>
      <trkpt lat="45.30878" lon="6.22319">
        <ele>1674.4919433594</ele>
        <time>2017-02-26T07:53:30Z</time>
      </trkpt>
      <trkpt lat="45.30881" lon="6.22313">
        <ele>1680.4919433594</ele>
        <time>2017-02-26T07:53:42Z</time>
      </trkpt>
      <trkpt lat="45.30884" lon="6.22308">
        <ele>1680.4919433594</ele>
        <time>2017-02-26T07:53:52Z</time>
      </trkpt>
      <trkpt lat="45.30889" lon="6.22306">
        <ele>1681.4919433594</ele>
        <time>2017-02-26T07:53:57Z</time>
      </trkpt>
      <trkpt lat="45.30893" lon="6.22302">
        <ele>1682.4919433594</ele>
        <time>2017-02-26T07:54:24Z</time>
      </trkpt>
      <trkpt lat="45.30896" lon="6.22296">
        <ele>1685.4919433594</ele>
        <time>2017-02-26T07:55:10Z</time>
      </trkpt>
      <trkpt lat="45.30899" lon="6.22291">
        <ele>1688.4919433594</ele>
        <time>2017-02-26T07:55:16Z</time>
      </trkpt>
      <trkpt lat="45.30902" lon="6.22285">
        <ele>1691.4919433594</ele>
        <time>2017-02-26T07:55:20Z</time>
      </trkpt>
      <trkpt lat="45.30907" lon="6.22283">
        <ele>1693.4919433594</ele>
        <time>2017-02-26T07:55:24Z</time>
      </trkpt>
      <trkpt lat="45.30913" lon="6.22282">
        <ele>1691.4919433594</ele>
        <time>2017-02-26T07:55:31Z</time>
      </trkpt>
      <trkpt lat="45.30915" lon="6.22276">
        <ele>1693.4919433594</ele>
        <time>2017-02-26T07:55:35Z</time>
      </trkpt>
      <trkpt lat="45.3092" lon="6.22272">
        <ele>1693.4919433594</ele>
        <time>2017-02-26T07:55:38Z</time>
      </trkpt>
      <trkpt lat="45.30923" lon="6.22266">
        <ele>1692.4919433594</ele>
        <time>2017-02-26T07:55:42Z</time>
      </trkpt>
      <trkpt lat="45.30927" lon="6.22263">
        <ele>1691.4919433594</ele>
        <time>2017-02-26T07:55:47Z</time>
      </trkpt>
      <trkpt lat="45.30931" lon="6.22259">
        <ele>1693.4919433594</ele>
        <time>2017-02-26T07:55:51Z</time>
      </trkpt>
      <trkpt lat="45.30933" lon="6.22252">
        <ele>1691.4919433594</ele>
        <time>2017-02-26T07:55:55Z</time>
      </trkpt>
      <trkpt lat="45.30938" lon="6.22248">
        <ele>1695.4919433594</ele>
        <time>2017-02-26T07:56:01Z</time>
      </trkpt>
      <trkpt lat="45.30943" lon="6.22246">
        <ele>1699.4919433594</ele>
        <time>2017-02-26T07:56:05Z</time>
      </trkpt>
      <trkpt lat="45.30946" lon="6.22242">
        <ele>1700.4919433594</ele>
        <time>2017-02-26T07:56:11Z</time>
      </trkpt>
      <trkpt lat="45.30947" lon="6.22235">
        <ele>1697.4919433594</ele>
        <time>2017-02-26T07:56:17Z</time>
      </trkpt>
      <trkpt lat="45.30949" lon="6.22228">
        <ele>1701.4919433594</ele>
        <time>2017-02-26T07:56:39Z</time>
      </trkpt>
      <trkpt lat="45.30952" lon="6.22223">
        <ele>1705.4919433594</ele>
        <time>2017-02-26T07:56:48Z</time>
      </trkpt>
      <trkpt lat="45.30956" lon="6.22218">
        <ele>1706.4919433594</ele>
        <time>2017-02-26T07:56:52Z</time>
      </trkpt>
      <trkpt lat="45.30961" lon="6.22214">
        <ele>1710.4919433594</ele>
        <time>2017-02-26T07:57:08Z</time>
      </trkpt>
      <trkpt lat="45.30958" lon="6.22209">
        <ele>1715.4919433594</ele>
        <time>2017-02-26T07:57:24Z</time>
      </trkpt>
      <trkpt lat="45.30953" lon="6.22206">
        <ele>1714.4919433594</ele>
        <time>2017-02-26T07:57:53Z</time>
      </trkpt>
      <trkpt lat="45.30951" lon="6.222">
        <ele>1714.4919433594</ele>
        <time>2017-02-26T07:57:58Z</time>
      </trkpt>
      <trkpt lat="45.30953" lon="6.22193">
        <ele>1716.4919433594</ele>
        <time>2017-02-26T07:58:04Z</time>
      </trkpt>
      <trkpt lat="45.30953" lon="6.22185">
        <ele>1719.4919433594</ele>
        <time>2017-02-26T07:58:10Z</time>
      </trkpt>
      <trkpt lat="45.30953" lon="6.22177">
        <ele>1717.4919433594</ele>
        <time>2017-02-26T07:58:16Z</time>
      </trkpt>
      <trkpt lat="45.30952" lon="6.2217">
        <ele>1720.4919433594</ele>
        <time>2017-02-26T07:58:24Z</time>
      </trkpt>
      <trkpt lat="45.30949" lon="6.22165">
        <ele>1722.4919433594</ele>
        <time>2017-02-26T07:58:29Z</time>
      </trkpt>
      <trkpt lat="45.30951" lon="6.22158">
        <ele>1727.4919433594</ele>
        <time>2017-02-26T07:58:41Z</time>
      </trkpt>
      <trkpt lat="45.30949" lon="6.2215">
        <ele>1730.4919433594</ele>
        <time>2017-02-26T07:58:55Z</time>
      </trkpt>
      <trkpt lat="45.30947" lon="6.22144">
        <ele>1731.4919433594</ele>
        <time>2017-02-26T07:59:02Z</time>
      </trkpt>
      <trkpt lat="45.30945" lon="6.22137">
        <ele>1733.4919433594</ele>
        <time>2017-02-26T07:59:07Z</time>
      </trkpt>
      <trkpt lat="45.3094" lon="6.2213">
        <ele>1737.4919433594</ele>
        <time>2017-02-26T07:59:14Z</time>
      </trkpt>
      <trkpt lat="45.30941" lon="6.22123">
        <ele>1735.4919433594</ele>
        <time>2017-02-26T07:59:17Z</time>
      </trkpt>
      <trkpt lat="45.30941" lon="6.22117">
        <ele>1736.4919433594</ele>
        <time>2017-02-26T07:59:23Z</time>
      </trkpt>
      <trkpt lat="45.30942" lon="6.2211">
        <ele>1737.4919433594</ele>
        <time>2017-02-26T07:59:27Z</time>
      </trkpt>
      <trkpt lat="45.30941" lon="6.22103">
        <ele>1738.4919433594</ele>
        <time>2017-02-26T07:59:32Z</time>
      </trkpt>
      <trkpt lat="45.30941" lon="6.22097">
        <ele>1742.4919433594</ele>
        <time>2017-02-26T07:59:36Z</time>
      </trkpt>
      <trkpt lat="45.30939" lon="6.22091">
        <ele>1743.4919433594</ele>
        <time>2017-02-26T07:59:41Z</time>
      </trkpt>
      <trkpt lat="45.30939" lon="6.22083">
        <ele>1745.4919433594</ele>
        <time>2017-02-26T07:59:49Z</time>
      </trkpt>
      <trkpt lat="45.30941" lon="6.22075">
        <ele>1745.4919433594</ele>
        <time>2017-02-26T07:59:54Z</time>
      </trkpt>
      <trkpt lat="45.30941" lon="6.22069">
        <ele>1748.4919433594</ele>
        <time>2017-02-26T08:00:00Z</time>
      </trkpt>
      <trkpt lat="45.30943" lon="6.22063">
        <ele>1749.4919433594</ele>
        <time>2017-02-26T08:00:04Z</time>
      </trkpt>
      <trkpt lat="45.30943" lon="6.22055">
        <ele>1752.4919433594</ele>
        <time>2017-02-26T08:00:11Z</time>
      </trkpt>
      <trkpt lat="45.3094" lon="6.22048">
        <ele>1753.4919433594</ele>
        <time>2017-02-26T08:00:15Z</time>
      </trkpt>
      <trkpt lat="45.30936" lon="6.22042">
        <ele>1756.4919433594</ele>
        <time>2017-02-26T08:00:20Z</time>
      </trkpt>
      <trkpt lat="45.30934" lon="6.22036">
        <ele>1757.4919433594</ele>
        <time>2017-02-26T08:00:23Z</time>
      </trkpt>
      <trkpt lat="45.30933" lon="6.2203">
        <ele>1760.4919433594</ele>
        <time>2017-02-26T08:00:32Z</time>
      </trkpt>
      <trkpt lat="45.3093" lon="6.22024">
        <ele>1761.4909667969</ele>
        <time>2017-02-26T08:00:39Z</time>
      </trkpt>
      <trkpt lat="45.30927" lon="6.2202">
        <ele>1760.4909667969</ele>
        <time>2017-02-26T08:00:43Z</time>
      </trkpt>
      <trkpt lat="45.30929" lon="6.22014">
        <ele>1761.4909667969</ele>
        <time>2017-02-26T08:00:50Z</time>
      </trkpt>
      <trkpt lat="45.30926" lon="6.22008">
        <ele>1765.4909667969</ele>
        <time>2017-02-26T08:01:02Z</time>
      </trkpt>
      <trkpt lat="45.30922" lon="6.22003">
        <ele>1766.4909667969</ele>
        <time>2017-02-26T08:01:08Z</time>
      </trkpt>
      <trkpt lat="45.30923" lon="6.21996">
        <ele>1772.4909667969</ele>
        <time>2017-02-26T08:01:23Z</time>
      </trkpt>
      <trkpt lat="45.30928" lon="6.21994">
        <ele>1772.4909667969</ele>
        <time>2017-02-26T08:01:26Z</time>
      </trkpt>
      <trkpt lat="45.3093" lon="6.21988">
        <ele>1773.4909667969</ele>
        <time>2017-02-26T08:01:30Z</time>
      </trkpt>
      <trkpt lat="45.30935" lon="6.21987">
        <ele>1774.4909667969</ele>
        <time>2017-02-26T08:01:33Z</time>
      </trkpt>
      <trkpt lat="45.30939" lon="6.21982">
        <ele>1777.4909667969</ele>
        <time>2017-02-26T08:01:38Z</time>
      </trkpt>
      <trkpt lat="45.30935" lon="6.21977">
        <ele>1779.4909667969</ele>
        <time>2017-02-26T08:01:48Z</time>
      </trkpt>
      <trkpt lat="45.30931" lon="6.21973">
        <ele>1782.4909667969</ele>
        <time>2017-02-26T08:01:52Z</time>
      </trkpt>
      <trkpt lat="45.30927" lon="6.2197">
        <ele>1785.4909667969</ele>
        <time>2017-02-26T08:01:59Z</time>
      </trkpt>
      <trkpt lat="45.30922" lon="6.21967">
        <ele>1784.4909667969</ele>
        <time>2017-02-26T08:02:05Z</time>
      </trkpt>
      <trkpt lat="45.30917" lon="6.21967">
        <ele>1782.4909667969</ele>
        <time>2017-02-26T08:02:10Z</time>
      </trkpt>
      <trkpt lat="45.30913" lon="6.21963">
        <ele>1784.4909667969</ele>
        <time>2017-02-26T08:02:15Z</time>
      </trkpt>
      <trkpt lat="45.30909" lon="6.21956">
        <ele>1780.4909667969</ele>
        <time>2017-02-26T08:02:20Z</time>
      </trkpt>
      <trkpt lat="45.30906" lon="6.21952">
        <ele>1781.4909667969</ele>
        <time>2017-02-26T08:02:25Z</time>
      </trkpt>
      <trkpt lat="45.30903" lon="6.21946">
        <ele>1784.4909667969</ele>
        <time>2017-02-26T08:02:29Z</time>
      </trkpt>
      <trkpt lat="45.30902" lon="6.21939">
        <ele>1783.4909667969</ele>
        <time>2017-02-26T08:02:33Z</time>
      </trkpt>
      <trkpt lat="45.30898" lon="6.21936">
        <ele>1785.4909667969</ele>
        <time>2017-02-26T08:02:35Z</time>
      </trkpt>
      <trkpt lat="45.30895" lon="6.2193">
        <ele>1789.4909667969</ele>
        <time>2017-02-26T08:02:38Z</time>
      </trkpt>
      <trkpt lat="45.3089" lon="6.21927">
        <ele>1788.4909667969</ele>
        <time>2017-02-26T08:02:41Z</time>
      </trkpt>
      <trkpt lat="45.30886" lon="6.21923">
        <ele>1787.4909667969</ele>
        <time>2017-02-26T08:02:44Z</time>
      </trkpt>
      <trkpt lat="45.30881" lon="6.21921">
        <ele>1787.4909667969</ele>
        <time>2017-02-26T08:02:47Z</time>
      </trkpt>
      <trkpt lat="45.30874" lon="6.21918">
        <ele>1788.4909667969</ele>
        <time>2017-02-26T08:02:50Z</time>
      </trkpt>
      <trkpt lat="45.30869" lon="6.21914">
        <ele>1790.4909667969</ele>
        <time>2017-02-26T08:02:53Z</time>
      </trkpt>
      <trkpt lat="45.30864" lon="6.2191">
        <ele>1792.4909667969</ele>
        <time>2017-02-26T08:02:57Z</time>
      </trkpt>
      <trkpt lat="45.3086" lon="6.2191">
        <ele>1793.4909667969</ele>
        <time>2017-02-26T08:02:59Z</time>
      </trkpt>
      <trkpt lat="45.30855" lon="6.21909">
        <ele>1792.4909667969</ele>
        <time>2017-02-26T08:03:03Z</time>
      </trkpt>
      <trkpt lat="45.30849" lon="6.2191">
        <ele>1793.4909667969</ele>
        <time>2017-02-26T08:03:06Z</time>
      </trkpt>
      <trkpt lat="45.30843" lon="6.21911">
        <ele>1795.4909667969</ele>
        <time>2017-02-26T08:03:08Z</time>
      </trkpt>
      <trkpt lat="45.30838" lon="6.21912">
        <ele>1793.4909667969</ele>
        <time>2017-02-26T08:03:10Z</time>
      </trkpt>
      <trkpt lat="45.30833" lon="6.21913">
        <ele>1791.4909667969</ele>
        <time>2017-02-26T08:03:13Z</time>
      </trkpt>
      <trkpt lat="45.30829" lon="6.21916">
        <ele>1789.4909667969</ele>
        <time>2017-02-26T08:03:16Z</time>
      </trkpt>
      <trkpt lat="45.30824" lon="6.21922">
        <ele>1788.4909667969</ele>
        <time>2017-02-26T08:03:20Z</time>
      </trkpt>
      <trkpt lat="45.30819" lon="6.21925">
        <ele>1785.4909667969</ele>
        <time>2017-02-26T08:03:25Z</time>
      </trkpt>
      <trkpt lat="45.30814" lon="6.21928">
        <ele>1787.4909667969</ele>
        <time>2017-02-26T08:03:28Z</time>
      </trkpt>
      <trkpt lat="45.30809" lon="6.2193">
        <ele>1786.4909667969</ele>
        <time>2017-02-26T08:03:30Z</time>
      </trkpt>
      <trkpt lat="45.30803" lon="6.21931">
        <ele>1788.4909667969</ele>
        <time>2017-02-26T08:03:35Z</time>
      </trkpt>
      <trkpt lat="45.30799" lon="6.21932">
        <ele>1788.4909667969</ele>
        <time>2017-02-26T08:03:38Z</time>
      </trkpt>
      <trkpt lat="45.30793" lon="6.21932">
        <ele>1787.4909667969</ele>
        <time>2017-02-26T08:03:41Z</time>
      </trkpt>
      <trkpt lat="45.30787" lon="6.21932">
        <ele>1788.4909667969</ele>
        <time>2017-02-26T08:03:44Z</time>
      </trkpt>
      <trkpt lat="45.30782" lon="6.21933">
        <ele>1786.4909667969</ele>
        <time>2017-02-26T08:03:47Z</time>
      </trkpt>
      <trkpt lat="45.30777" lon="6.21933">
        <ele>1785.4909667969</ele>
        <time>2017-02-26T08:03:50Z</time>
      </trkpt>
      <trkpt lat="45.3077" lon="6.21935">
        <ele>1789.4909667969</ele>
        <time>2017-02-26T08:03:53Z</time>
      </trkpt>
      <trkpt lat="45.30765" lon="6.21936">
        <ele>1785.4909667969</ele>
        <time>2017-02-26T08:03:56Z</time>
      </trkpt>
      <trkpt lat="45.3076" lon="6.21937">
        <ele>1786.4909667969</ele>
        <time>2017-02-26T08:03:58Z</time>
      </trkpt>
      <trkpt lat="45.30755" lon="6.21938">
        <ele>1787.4909667969</ele>
        <time>2017-02-26T08:04:00Z</time>
      </trkpt>
      <trkpt lat="45.3075" lon="6.2194">
        <ele>1785.4909667969</ele>
        <time>2017-02-26T08:04:02Z</time>
      </trkpt>
      <trkpt lat="45.30745" lon="6.21941">
        <ele>1787.4909667969</ele>
        <time>2017-02-26T08:04:05Z</time>
      </trkpt>
      <trkpt lat="45.30741" lon="6.21943">
        <ele>1789.4909667969</ele>
        <time>2017-02-26T08:04:09Z</time>
      </trkpt>
      <trkpt lat="45.30735" lon="6.21944">
        <ele>1790.4909667969</ele>
        <time>2017-02-26T08:04:16Z</time>
      </trkpt>
      <trkpt lat="45.30729" lon="6.21946">
        <ele>1793.4909667969</ele>
        <time>2017-02-26T08:04:20Z</time>
      </trkpt>
      <trkpt lat="45.30723" lon="6.21948">
        <ele>1791.4909667969</ele>
        <time>2017-02-26T08:04:24Z</time>
      </trkpt>
      <trkpt lat="45.30719" lon="6.21953">
        <ele>1792.4909667969</ele>
        <time>2017-02-26T08:04:27Z</time>
      </trkpt>
      <trkpt lat="45.30715" lon="6.21957">
        <ele>1792.4909667969</ele>
        <time>2017-02-26T08:04:30Z</time>
      </trkpt>
      <trkpt lat="45.30709" lon="6.21956">
        <ele>1793.4909667969</ele>
        <time>2017-02-26T08:04:37Z</time>
      </trkpt>
      <trkpt lat="45.30705" lon="6.21954">
        <ele>1793.4909667969</ele>
        <time>2017-02-26T08:04:46Z</time>
      </trkpt>
      <trkpt lat="45.307" lon="6.21955">
        <ele>1796.4909667969</ele>
        <time>2017-02-26T08:04:54Z</time>
      </trkpt>
      <trkpt lat="45.30702" lon="6.21949">
        <ele>1797.4909667969</ele>
        <time>2017-02-26T08:05:01Z</time>
      </trkpt>
      <trkpt lat="45.30699" lon="6.21944">
        <ele>1800.4909667969</ele>
        <time>2017-02-26T08:05:46Z</time>
      </trkpt>
      <trkpt lat="45.30697" lon="6.21937">
        <ele>1801.4909667969</ele>
        <time>2017-02-26T08:05:54Z</time>
      </trkpt>
      <trkpt lat="45.30693" lon="6.21935">
        <ele>1803.4909667969</ele>
        <time>2017-02-26T08:06:10Z</time>
      </trkpt>
      <trkpt lat="45.30688" lon="6.21936">
        <ele>1805.4909667969</ele>
        <time>2017-02-26T08:06:14Z</time>
      </trkpt>
      <trkpt lat="45.30683" lon="6.21935">
        <ele>1803.4909667969</ele>
        <time>2017-02-26T08:06:20Z</time>
      </trkpt>
      <trkpt lat="45.30677" lon="6.21936">
        <ele>1808.4909667969</ele>
        <time>2017-02-26T08:06:23Z</time>
      </trkpt>
      <trkpt lat="45.30671" lon="6.21933">
        <ele>1806.4909667969</ele>
        <time>2017-02-26T08:06:28Z</time>
      </trkpt>
      <trkpt lat="45.30666" lon="6.21931">
        <ele>1806.4909667969</ele>
        <time>2017-02-26T08:06:32Z</time>
      </trkpt>
      <trkpt lat="45.30661" lon="6.2193">
        <ele>1810.4909667969</ele>
        <time>2017-02-26T08:06:36Z</time>
      </trkpt>
      <trkpt lat="45.30656" lon="6.2193">
        <ele>1812.4909667969</ele>
        <time>2017-02-26T08:06:41Z</time>
      </trkpt>
      <trkpt lat="45.3065" lon="6.2193">
        <ele>1816.4909667969</ele>
        <time>2017-02-26T08:06:47Z</time>
      </trkpt>
      <trkpt lat="45.30645" lon="6.21931">
        <ele>1817.4909667969</ele>
        <time>2017-02-26T08:06:51Z</time>
      </trkpt>
      <trkpt lat="45.30641" lon="6.2193">
        <ele>1819.4909667969</ele>
        <time>2017-02-26T08:06:56Z</time>
      </trkpt>
      <trkpt lat="45.30636" lon="6.21927">
        <ele>1818.4909667969</ele>
        <time>2017-02-26T08:06:59Z</time>
      </trkpt>
      <trkpt lat="45.30631" lon="6.21924">
        <ele>1817.4909667969</ele>
        <time>2017-02-26T08:07:03Z</time>
      </trkpt>
      <trkpt lat="45.30628" lon="6.21919">
        <ele>1817.4909667969</ele>
        <time>2017-02-26T08:07:14Z</time>
      </trkpt>
      <trkpt lat="45.3063" lon="6.21912">
        <ele>1818.4909667969</ele>
        <time>2017-02-26T08:07:19Z</time>
      </trkpt>
      <trkpt lat="45.30628" lon="6.21906">
        <ele>1828.4909667969</ele>
        <time>2017-02-26T08:07:40Z</time>
      </trkpt>
      <trkpt lat="45.3063" lon="6.21898">
        <ele>1825.4909667969</ele>
        <time>2017-02-26T08:07:46Z</time>
      </trkpt>
      <trkpt lat="45.30634" lon="6.21892">
        <ele>1826.4909667969</ele>
        <time>2017-02-26T08:07:50Z</time>
      </trkpt>
      <trkpt lat="45.30639" lon="6.21888">
        <ele>1828.4909667969</ele>
        <time>2017-02-26T08:07:54Z</time>
      </trkpt>
      <trkpt lat="45.30643" lon="6.21883">
        <ele>1830.4909667969</ele>
        <time>2017-02-26T08:07:58Z</time>
      </trkpt>
      <trkpt lat="45.30638" lon="6.2188">
        <ele>1834.4909667969</ele>
        <time>2017-02-26T08:08:04Z</time>
      </trkpt>
      <trkpt lat="45.30633" lon="6.21881">
        <ele>1836.4909667969</ele>
        <time>2017-02-26T08:08:07Z</time>
      </trkpt>
      <trkpt lat="45.30627" lon="6.21884">
        <ele>1838.4909667969</ele>
        <time>2017-02-26T08:08:11Z</time>
      </trkpt>
      <trkpt lat="45.30622" lon="6.21885">
        <ele>1838.4909667969</ele>
        <time>2017-02-26T08:08:14Z</time>
      </trkpt>
      <trkpt lat="45.30617" lon="6.21887">
        <ele>1839.4909667969</ele>
        <time>2017-02-26T08:08:17Z</time>
      </trkpt>
      <trkpt lat="45.30612" lon="6.21887">
        <ele>1839.4909667969</ele>
        <time>2017-02-26T08:08:23Z</time>
      </trkpt>
      <trkpt lat="45.30613" lon="6.21879">
        <ele>1841.4909667969</ele>
        <time>2017-02-26T08:08:36Z</time>
      </trkpt>
      <trkpt lat="45.30613" lon="6.21872">
        <ele>1839.4909667969</ele>
        <time>2017-02-26T08:08:44Z</time>
      </trkpt>
      <trkpt lat="45.30608" lon="6.21869">
        <ele>1840.4909667969</ele>
        <time>2017-02-26T08:08:50Z</time>
      </trkpt>
      <trkpt lat="45.30611" lon="6.21864">
        <ele>1843.4909667969</ele>
        <time>2017-02-26T08:08:57Z</time>
      </trkpt>
      <trkpt lat="45.30616" lon="6.2186">
        <ele>1842.4909667969</ele>
        <time>2017-02-26T08:09:03Z</time>
      </trkpt>
      <trkpt lat="45.30619" lon="6.21855">
        <ele>1844.4909667969</ele>
        <time>2017-02-26T08:09:08Z</time>
      </trkpt>
      <trkpt lat="45.30615" lon="6.21852">
        <ele>1845.4909667969</ele>
        <time>2017-02-26T08:09:14Z</time>
      </trkpt>
      <trkpt lat="45.30613" lon="6.21844">
        <ele>1847.4909667969</ele>
        <time>2017-02-26T08:09:19Z</time>
      </trkpt>
      <trkpt lat="45.30608" lon="6.21843">
        <ele>1849.4909667969</ele>
        <time>2017-02-26T08:09:24Z</time>
      </trkpt>
      <trkpt lat="45.30603" lon="6.21841">
        <ele>1849.4909667969</ele>
        <time>2017-02-26T08:09:29Z</time>
      </trkpt>
      <trkpt lat="45.30608" lon="6.21838">
        <ele>1851.4909667969</ele>
        <time>2017-02-26T08:09:44Z</time>
      </trkpt>
      <trkpt lat="45.30605" lon="6.21832">
        <ele>1856.4909667969</ele>
        <time>2017-02-26T08:09:55Z</time>
      </trkpt>
      <trkpt lat="45.30602" lon="6.21826">
        <ele>1855.4909667969</ele>
        <time>2017-02-26T08:10:00Z</time>
      </trkpt>
      <trkpt lat="45.30597" lon="6.21827">
        <ele>1857.4909667969</ele>
        <time>2017-02-26T08:10:07Z</time>
      </trkpt>
      <trkpt lat="45.30595" lon="6.21821">
        <ele>1859.4909667969</ele>
        <time>2017-02-26T08:10:26Z</time>
      </trkpt>
      <trkpt lat="45.30597" lon="6.21813">
        <ele>1860.4909667969</ele>
        <time>2017-02-26T08:10:30Z</time>
      </trkpt>
      <trkpt lat="45.306" lon="6.21807">
        <ele>1860.4909667969</ele>
        <time>2017-02-26T08:10:36Z</time>
      </trkpt>
      <trkpt lat="45.30595" lon="6.21805">
        <ele>1863.4909667969</ele>
        <time>2017-02-26T08:10:45Z</time>
      </trkpt>
      <trkpt lat="45.3059" lon="6.21805">
        <ele>1868.4909667969</ele>
        <time>2017-02-26T08:10:49Z</time>
      </trkpt>
      <trkpt lat="45.30584" lon="6.21808">
        <ele>1870.4909667969</ele>
        <time>2017-02-26T08:10:58Z</time>
      </trkpt>
      <trkpt lat="45.30585" lon="6.21801">
        <ele>1869.4909667969</ele>
        <time>2017-02-26T08:11:06Z</time>
      </trkpt>
      <trkpt lat="45.30587" lon="6.21794">
        <ele>1871.4909667969</ele>
        <time>2017-02-26T08:11:14Z</time>
      </trkpt>
      <trkpt lat="45.30589" lon="6.21788">
        <ele>1871.4909667969</ele>
        <time>2017-02-26T08:11:20Z</time>
      </trkpt>
      <trkpt lat="45.30594" lon="6.21787">
        <ele>1880.4909667969</ele>
        <time>2017-02-26T08:11:26Z</time>
      </trkpt>
      <trkpt lat="45.30589" lon="6.21785">
        <ele>1879.4909667969</ele>
        <time>2017-02-26T08:11:34Z</time>
      </trkpt>
      <trkpt lat="45.30584" lon="6.21781">
        <ele>1878.4909667969</ele>
        <time>2017-02-26T08:11:39Z</time>
      </trkpt>
      <trkpt lat="45.30579" lon="6.21779">
        <ele>1881.4899902344</ele>
        <time>2017-02-26T08:11:45Z</time>
      </trkpt>
      <trkpt lat="45.30574" lon="6.2178">
        <ele>1883.4899902344</ele>
        <time>2017-02-26T08:11:48Z</time>
      </trkpt>
      <trkpt lat="45.30569" lon="6.21778">
        <ele>1884.4899902344</ele>
        <time>2017-02-26T08:11:53Z</time>
      </trkpt>
      <trkpt lat="45.30565" lon="6.21774">
        <ele>1886.4899902344</ele>
        <time>2017-02-26T08:12:02Z</time>
      </trkpt>
      <trkpt lat="45.30562" lon="6.21767">
        <ele>1884.4899902344</ele>
        <time>2017-02-26T08:12:08Z</time>
      </trkpt>
      <trkpt lat="45.30563" lon="6.2176">
        <ele>1885.4899902344</ele>
        <time>2017-02-26T08:12:12Z</time>
      </trkpt>
      <trkpt lat="45.30568" lon="6.21757">
        <ele>1886.4899902344</ele>
        <time>2017-02-26T08:12:20Z</time>
      </trkpt>
      <trkpt lat="45.30572" lon="6.21754">
        <ele>1892.4899902344</ele>
        <time>2017-02-26T08:12:29Z</time>
      </trkpt>
      <trkpt lat="45.3057" lon="6.21747">
        <ele>1890.4899902344</ele>
        <time>2017-02-26T08:12:41Z</time>
      </trkpt>
      <trkpt lat="45.30565" lon="6.21743">
        <ele>1894.4899902344</ele>
        <time>2017-02-26T08:12:46Z</time>
      </trkpt>
      <trkpt lat="45.30562" lon="6.21738">
        <ele>1896.4899902344</ele>
        <time>2017-02-26T08:12:52Z</time>
      </trkpt>
      <trkpt lat="45.30567" lon="6.21734">
        <ele>1899.4899902344</ele>
        <time>2017-02-26T08:13:03Z</time>
      </trkpt>
      <trkpt lat="45.3057" lon="6.2173">
        <ele>1899.4899902344</ele>
        <time>2017-02-26T08:13:09Z</time>
      </trkpt>
      <trkpt lat="45.30567" lon="6.21723">
        <ele>1901.4899902344</ele>
        <time>2017-02-26T08:13:16Z</time>
      </trkpt>
      <trkpt lat="45.30565" lon="6.21717">
        <ele>1901.4899902344</ele>
        <time>2017-02-26T08:13:22Z</time>
      </trkpt>
      <trkpt lat="45.30559" lon="6.21714">
        <ele>1902.4899902344</ele>
        <time>2017-02-26T08:13:26Z</time>
      </trkpt>
      <trkpt lat="45.30555" lon="6.2171">
        <ele>1905.4899902344</ele>
        <time>2017-02-26T08:13:31Z</time>
      </trkpt>
      <trkpt lat="45.30558" lon="6.21704">
        <ele>1904.4899902344</ele>
        <time>2017-02-26T08:13:38Z</time>
      </trkpt>
      <trkpt lat="45.30563" lon="6.21703">
        <ele>1906.4899902344</ele>
        <time>2017-02-26T08:13:45Z</time>
      </trkpt>
      <trkpt lat="45.3056" lon="6.21697">
        <ele>1906.4899902344</ele>
        <time>2017-02-26T08:13:55Z</time>
      </trkpt>
      <trkpt lat="45.30556" lon="6.21695">
        <ele>1909.4899902344</ele>
        <time>2017-02-26T08:13:59Z</time>
      </trkpt>
      <trkpt lat="45.30554" lon="6.21689">
        <ele>1912.4899902344</ele>
        <time>2017-02-26T08:14:07Z</time>
      </trkpt>
      <trkpt lat="45.3055" lon="6.21684">
        <ele>1917.4899902344</ele>
        <time>2017-02-26T08:14:20Z</time>
      </trkpt>
      <trkpt lat="45.30546" lon="6.21681">
        <ele>1919.4899902344</ele>
        <time>2017-02-26T08:14:26Z</time>
      </trkpt>
      <trkpt lat="45.30548" lon="6.21675">
        <ele>1922.4899902344</ele>
        <time>2017-02-26T08:14:34Z</time>
      </trkpt>
      <trkpt lat="45.30552" lon="6.21672">
        <ele>1923.4899902344</ele>
        <time>2017-02-26T08:14:43Z</time>
      </trkpt>
      <trkpt lat="45.30557" lon="6.21672">
        <ele>1926.4899902344</ele>
        <time>2017-02-26T08:14:52Z</time>
      </trkpt>
      <trkpt lat="45.30562" lon="6.2167">
        <ele>1926.4899902344</ele>
        <time>2017-02-26T08:14:57Z</time>
      </trkpt>
      <trkpt lat="45.3056" lon="6.21664">
        <ele>1928.4899902344</ele>
        <time>2017-02-26T08:15:06Z</time>
      </trkpt>
      <trkpt lat="45.30556" lon="6.2166">
        <ele>1928.4899902344</ele>
        <time>2017-02-26T08:15:13Z</time>
      </trkpt>
      <trkpt lat="45.30553" lon="6.21654">
        <ele>1932.4899902344</ele>
        <time>2017-02-26T08:15:20Z</time>
      </trkpt>
      <trkpt lat="45.30552" lon="6.21646">
        <ele>1932.4899902344</ele>
        <time>2017-02-26T08:15:26Z</time>
      </trkpt>
      <trkpt lat="45.30549" lon="6.21641">
        <ele>1933.4899902344</ele>
        <time>2017-02-26T08:15:32Z</time>
      </trkpt>
      <trkpt lat="45.30548" lon="6.21633">
        <ele>1934.4899902344</ele>
        <time>2017-02-26T08:15:37Z</time>
      </trkpt>
      <trkpt lat="45.30544" lon="6.21627">
        <ele>1937.4899902344</ele>
        <time>2017-02-26T08:15:42Z</time>
      </trkpt>
      <trkpt lat="45.30546" lon="6.21621">
        <ele>1941.4899902344</ele>
        <time>2017-02-26T08:16:03Z</time>
      </trkpt>
      <trkpt lat="45.30543" lon="6.21615">
        <ele>1943.4899902344</ele>
        <time>2017-02-26T08:16:09Z</time>
      </trkpt>
      <trkpt lat="45.3054" lon="6.21608">
        <ele>1943.4899902344</ele>
        <time>2017-02-26T08:16:13Z</time>
      </trkpt>
      <trkpt lat="45.30538" lon="6.21601">
        <ele>1941.4899902344</ele>
        <time>2017-02-26T08:16:20Z</time>
      </trkpt>
      <trkpt lat="45.3054" lon="6.21593">
        <ele>1939.4899902344</ele>
        <time>2017-02-26T08:16:25Z</time>
      </trkpt>
      <trkpt lat="45.30541" lon="6.21587">
        <ele>1940.4899902344</ele>
        <time>2017-02-26T08:16:29Z</time>
      </trkpt>
      <trkpt lat="45.30546" lon="6.2159">
        <ele>1943.4899902344</ele>
        <time>2017-02-26T08:16:39Z</time>
      </trkpt>
      <trkpt lat="45.3055" lon="6.21595">
        <ele>1946.4899902344</ele>
        <time>2017-02-26T08:16:46Z</time>
      </trkpt>
      <trkpt lat="45.30552" lon="6.21601">
        <ele>1946.4899902344</ele>
        <time>2017-02-26T08:16:52Z</time>
      </trkpt>
      <trkpt lat="45.30556" lon="6.21605">
        <ele>1949.4899902344</ele>
        <time>2017-02-26T08:17:04Z</time>
      </trkpt>
      <trkpt lat="45.30562" lon="6.21609">
        <ele>1953.4899902344</ele>
        <time>2017-02-26T08:17:15Z</time>
      </trkpt>
      <trkpt lat="45.30567" lon="6.21611">
        <ele>1956.4899902344</ele>
        <time>2017-02-26T08:17:23Z</time>
      </trkpt>
      <trkpt lat="45.30569" lon="6.21604">
        <ele>1958.4899902344</ele>
        <time>2017-02-26T08:17:36Z</time>
      </trkpt>
      <trkpt lat="45.30568" lon="6.21597">
        <ele>1963.4899902344</ele>
        <time>2017-02-26T08:17:42Z</time>
      </trkpt>
      <trkpt lat="45.30573" lon="6.21595">
        <ele>1963.4899902344</ele>
        <time>2017-02-26T08:17:46Z</time>
      </trkpt>
      <trkpt lat="45.30578" lon="6.21596">
        <ele>1965.4899902344</ele>
        <time>2017-02-26T08:17:52Z</time>
      </trkpt>
      <trkpt lat="45.30582" lon="6.21595">
        <ele>1964.4899902344</ele>
        <time>2017-02-26T08:17:56Z</time>
      </trkpt>
      <trkpt lat="45.30587" lon="6.21593">
        <ele>1966.4899902344</ele>
        <time>2017-02-26T08:18:02Z</time>
      </trkpt>
      <trkpt lat="45.30591" lon="6.21595">
        <ele>1970.4899902344</ele>
        <time>2017-02-26T08:18:08Z</time>
      </trkpt>
      <trkpt lat="45.30596" lon="6.21597">
        <ele>1972.4899902344</ele>
        <time>2017-02-26T08:18:14Z</time>
      </trkpt>
      <trkpt lat="45.306" lon="6.21599">
        <ele>1974.4899902344</ele>
        <time>2017-02-26T08:18:19Z</time>
      </trkpt>
      <trkpt lat="45.30605" lon="6.21599">
        <ele>1976.4899902344</ele>
        <time>2017-02-26T08:18:23Z</time>
      </trkpt>
      <trkpt lat="45.30611" lon="6.21599">
        <ele>1976.4899902344</ele>
        <time>2017-02-26T08:18:29Z</time>
      </trkpt>
      <trkpt lat="45.30616" lon="6.216">
        <ele>1979.4899902344</ele>
        <time>2017-02-26T08:18:33Z</time>
      </trkpt>
      <trkpt lat="45.30622" lon="6.21602">
        <ele>1980.4899902344</ele>
        <time>2017-02-26T08:18:41Z</time>
      </trkpt>
      <trkpt lat="45.30628" lon="6.21603">
        <ele>1981.4899902344</ele>
        <time>2017-02-26T08:18:50Z</time>
      </trkpt>
      <trkpt lat="45.30633" lon="6.21604">
        <ele>1979.4899902344</ele>
        <time>2017-02-26T08:18:56Z</time>
      </trkpt>
      <trkpt lat="45.30635" lon="6.21597">
        <ele>1983.4899902344</ele>
        <time>2017-02-26T08:19:03Z</time>
      </trkpt>
      <trkpt lat="45.30641" lon="6.21598">
        <ele>1989.4899902344</ele>
        <time>2017-02-26T08:19:18Z</time>
      </trkpt>
      <trkpt lat="45.30645" lon="6.21596">
        <ele>1993.4899902344</ele>
        <time>2017-02-26T08:19:23Z</time>
      </trkpt>
      <trkpt lat="45.3065" lon="6.21595">
        <ele>1992.4899902344</ele>
        <time>2017-02-26T08:19:30Z</time>
      </trkpt>
      <trkpt lat="45.30655" lon="6.2159">
        <ele>1992.4899902344</ele>
        <time>2017-02-26T08:19:36Z</time>
      </trkpt>
      <trkpt lat="45.30655" lon="6.21583">
        <ele>1991.4899902344</ele>
        <time>2017-02-26T08:19:46Z</time>
      </trkpt>
      <trkpt lat="45.30653" lon="6.21577">
        <ele>1993.4899902344</ele>
        <time>2017-02-26T08:19:54Z</time>
      </trkpt>
      <trkpt lat="45.30651" lon="6.21572">
        <ele>1995.4899902344</ele>
        <time>2017-02-26T08:20:04Z</time>
      </trkpt>
      <trkpt lat="45.3065" lon="6.21564">
        <ele>1998.4899902344</ele>
        <time>2017-02-26T08:20:11Z</time>
      </trkpt>
      <trkpt lat="45.30653" lon="6.21559">
        <ele>2002.4899902344</ele>
        <time>2017-02-26T08:20:28Z</time>
      </trkpt>
      <trkpt lat="45.30653" lon="6.21552">
        <ele>2006.4899902344</ele>
        <time>2017-02-26T08:20:42Z</time>
      </trkpt>
      <trkpt lat="45.30651" lon="6.21545">
        <ele>2007.4899902344</ele>
        <time>2017-02-26T08:20:48Z</time>
      </trkpt>
      <trkpt lat="45.30649" lon="6.21539">
        <ele>2008.4899902344</ele>
        <time>2017-02-26T08:20:56Z</time>
      </trkpt>
      <trkpt lat="45.30644" lon="6.21534">
        <ele>2008.4899902344</ele>
        <time>2017-02-26T08:21:02Z</time>
      </trkpt>
      <trkpt lat="45.30641" lon="6.21529">
        <ele>2012.4899902344</ele>
        <time>2017-02-26T08:21:07Z</time>
      </trkpt>
      <trkpt lat="45.30644" lon="6.21525">
        <ele>2015.4899902344</ele>
        <time>2017-02-26T08:21:16Z</time>
      </trkpt>
      <trkpt lat="45.30647" lon="6.21518">
        <ele>2019.4899902344</ele>
        <time>2017-02-26T08:21:25Z</time>
      </trkpt>
      <trkpt lat="45.30648" lon="6.21511">
        <ele>2019.4899902344</ele>
        <time>2017-02-26T08:21:31Z</time>
      </trkpt>
      <trkpt lat="45.30648" lon="6.21503">
        <ele>2021.4899902344</ele>
        <time>2017-02-26T08:21:39Z</time>
      </trkpt>
      <trkpt lat="45.30647" lon="6.21497">
        <ele>2025.4899902344</ele>
        <time>2017-02-26T08:21:48Z</time>
      </trkpt>
      <trkpt lat="45.30647" lon="6.21489">
        <ele>2027.4899902344</ele>
        <time>2017-02-26T08:21:55Z</time>
      </trkpt>
      <trkpt lat="45.30648" lon="6.21482">
        <ele>2026.4899902344</ele>
        <time>2017-02-26T08:22:00Z</time>
      </trkpt>
      <trkpt lat="45.30648" lon="6.21475">
        <ele>2028.4899902344</ele>
        <time>2017-02-26T08:22:06Z</time>
      </trkpt>
      <trkpt lat="45.30648" lon="6.21468">
        <ele>2032.4899902344</ele>
        <time>2017-02-26T08:22:11Z</time>
      </trkpt>
      <trkpt lat="45.30646" lon="6.21461">
        <ele>2033.4899902344</ele>
        <time>2017-02-26T08:22:15Z</time>
      </trkpt>
      <trkpt lat="45.30648" lon="6.21454">
        <ele>2034.4899902344</ele>
        <time>2017-02-26T08:22:23Z</time>
      </trkpt>
      <trkpt lat="45.30652" lon="6.21449">
        <ele>2036.4899902344</ele>
        <time>2017-02-26T08:22:30Z</time>
      </trkpt>
      <trkpt lat="45.30657" lon="6.21446">
        <ele>2036.4899902344</ele>
        <time>2017-02-26T08:22:35Z</time>
      </trkpt>
      <trkpt lat="45.30661" lon="6.21448">
        <ele>2039.4899902344</ele>
        <time>2017-02-26T08:22:41Z</time>
      </trkpt>
      <trkpt lat="45.30667" lon="6.21447">
        <ele>2040.4899902344</ele>
        <time>2017-02-26T08:22:46Z</time>
      </trkpt>
      <trkpt lat="45.30673" lon="6.21445">
        <ele>2044.4899902344</ele>
        <time>2017-02-26T08:22:51Z</time>
      </trkpt>
      <trkpt lat="45.30679" lon="6.21444">
        <ele>2043.4899902344</ele>
        <time>2017-02-26T08:22:56Z</time>
      </trkpt>
      <trkpt lat="45.30684" lon="6.2144">
        <ele>2043.4899902344</ele>
        <time>2017-02-26T08:23:03Z</time>
      </trkpt>
      <trkpt lat="45.30689" lon="6.21441">
        <ele>2044.4899902344</ele>
        <time>2017-02-26T08:23:10Z</time>
      </trkpt>
      <trkpt lat="45.30694" lon="6.21442">
        <ele>2046.4899902344</ele>
        <time>2017-02-26T08:23:16Z</time>
      </trkpt>
      <trkpt lat="45.30698" lon="6.21441">
        <ele>2044.4899902344</ele>
        <time>2017-02-26T08:23:21Z</time>
      </trkpt>
      <trkpt lat="45.30702" lon="6.21444">
        <ele>2043.4899902344</ele>
        <time>2017-02-26T08:23:29Z</time>
      </trkpt>
      <trkpt lat="45.30706" lon="6.21447">
        <ele>2046.4899902344</ele>
        <time>2017-02-26T08:23:33Z</time>
      </trkpt>
      <trkpt lat="45.30712" lon="6.2145">
        <ele>2050.4899902344</ele>
        <time>2017-02-26T08:23:39Z</time>
      </trkpt>
      <trkpt lat="45.30717" lon="6.21455">
        <ele>2052.4899902344</ele>
        <time>2017-02-26T08:23:53Z</time>
      </trkpt>
      <trkpt lat="45.30721" lon="6.21458">
        <ele>2053.4899902344</ele>
        <time>2017-02-26T08:23:55Z</time>
      </trkpt>
      <trkpt lat="45.30726" lon="6.21462">
        <ele>2052.4899902344</ele>
        <time>2017-02-26T08:23:57Z</time>
      </trkpt>
      <trkpt lat="45.30731" lon="6.21464">
        <ele>2053.4899902344</ele>
        <time>2017-02-26T08:23:59Z</time>
      </trkpt>
      <trkpt lat="45.30735" lon="6.21466">
        <ele>2051.4899902344</ele>
        <time>2017-02-26T08:24:02Z</time>
      </trkpt>
      <trkpt lat="45.30743" lon="6.2147">
        <ele>2053.4899902344</ele>
        <time>2017-02-26T08:24:06Z</time>
      </trkpt>
      <trkpt lat="45.30749" lon="6.21471">
        <ele>2054.4899902344</ele>
        <time>2017-02-26T08:24:09Z</time>
      </trkpt>
      <trkpt lat="45.30754" lon="6.21472">
        <ele>2054.4899902344</ele>
        <time>2017-02-26T08:24:11Z</time>
      </trkpt>
      <trkpt lat="45.30759" lon="6.21473">
        <ele>2052.4899902344</ele>
        <time>2017-02-26T08:24:13Z</time>
      </trkpt>
      <trkpt lat="45.30765" lon="6.21473">
        <ele>2051.4899902344</ele>
        <time>2017-02-26T08:24:15Z</time>
      </trkpt>
      <trkpt lat="45.30776" lon="6.21475">
        <ele>2050.4899902344</ele>
        <time>2017-02-26T08:24:17Z</time>
      </trkpt>
      <trkpt lat="45.30787" lon="6.2148">
        <ele>2049.4899902344</ele>
        <time>2017-02-26T08:24:19Z</time>
      </trkpt>
      <trkpt lat="45.30794" lon="6.21482">
        <ele>2051.4909667969</ele>
        <time>2017-02-26T08:24:21Z</time>
      </trkpt>
      <trkpt lat="45.308" lon="6.21479">
        <ele>2047.4909667969</ele>
        <time>2017-02-26T08:25:30Z</time>
      </trkpt>
      <trkpt lat="45.30805" lon="6.21478">
        <ele>2045.4909667969</ele>
        <time>2017-02-26T08:25:32Z</time>
      </trkpt>
      <trkpt lat="45.30812" lon="6.21477">
        <ele>2045.4909667969</ele>
        <time>2017-02-26T08:25:34Z</time>
      </trkpt>
      <trkpt lat="45.3082" lon="6.21472">
        <ele>2042.4909667969</ele>
        <time>2017-02-26T08:25:36Z</time>
      </trkpt>
      <trkpt lat="45.30834" lon="6.21465">
        <ele>2040.4909667969</ele>
        <time>2017-02-26T08:25:39Z</time>
      </trkpt>
      <trkpt lat="45.30845" lon="6.21458">
        <ele>2039.4909667969</ele>
        <time>2017-02-26T08:25:41Z</time>
      </trkpt>
      <trkpt lat="45.30849" lon="6.21453">
        <ele>2038.4909667969</ele>
        <time>2017-02-26T08:25:42Z</time>
      </trkpt>
      <trkpt lat="45.30858" lon="6.21446">
        <ele>2035.4909667969</ele>
        <time>2017-02-26T08:25:45Z</time>
      </trkpt>
      <trkpt lat="45.30863" lon="6.21441">
        <ele>2032.4909667969</ele>
        <time>2017-02-26T08:25:46Z</time>
      </trkpt>
      <trkpt lat="45.30874" lon="6.21435">
        <ele>2031.4909667969</ele>
        <time>2017-02-26T08:25:48Z</time>
      </trkpt>
      <trkpt lat="45.30889" lon="6.21433">
        <ele>2029.4909667969</ele>
        <time>2017-02-26T08:25:51Z</time>
      </trkpt>
      <trkpt lat="45.30899" lon="6.21431">
        <ele>2028.4909667969</ele>
        <time>2017-02-26T08:25:53Z</time>
      </trkpt>
      <trkpt lat="45.3091" lon="6.21434">
        <ele>2026.4909667969</ele>
        <time>2017-02-26T08:25:56Z</time>
      </trkpt>
      <trkpt lat="45.30911" lon="6.21441">
        <ele>2019.4909667969</ele>
        <time>2017-02-26T08:25:58Z</time>
      </trkpt>
      <trkpt lat="45.30915" lon="6.21443">
        <ele>2018.4909667969</ele>
        <time>2017-02-26T08:25:59Z</time>
      </trkpt>
      <trkpt lat="45.30923" lon="6.21446">
        <ele>2018.4909667969</ele>
        <time>2017-02-26T08:26:01Z</time>
      </trkpt>
      <trkpt lat="45.30928" lon="6.21445">
        <ele>2015.4909667969</ele>
        <time>2017-02-26T08:26:02Z</time>
      </trkpt>
      <trkpt lat="45.30936" lon="6.21444">
        <ele>2014.4909667969</ele>
        <time>2017-02-26T08:26:04Z</time>
      </trkpt>
      <trkpt lat="45.30941" lon="6.21443">
        <ele>2011.4909667969</ele>
        <time>2017-02-26T08:26:05Z</time>
      </trkpt>
      <trkpt lat="45.30948" lon="6.21439">
        <ele>2008.4909667969</ele>
        <time>2017-02-26T08:26:07Z</time>
      </trkpt>
      <trkpt lat="45.30958" lon="6.21437">
        <ele>2007.4909667969</ele>
        <time>2017-02-26T08:26:10Z</time>
      </trkpt>
      <trkpt lat="45.30966" lon="6.21436">
        <ele>2004.4909667969</ele>
        <time>2017-02-26T08:26:12Z</time>
      </trkpt>
      <trkpt lat="45.30974" lon="6.21436">
        <ele>2001.4909667969</ele>
        <time>2017-02-26T08:26:14Z</time>
      </trkpt>
      <trkpt lat="45.30985" lon="6.21431">
        <ele>2001.4909667969</ele>
        <time>2017-02-26T08:26:16Z</time>
      </trkpt>
      <trkpt lat="45.30994" lon="6.21429">
        <ele>2002.4909667969</ele>
        <time>2017-02-26T08:26:17Z</time>
      </trkpt>
      <trkpt lat="45.31" lon="6.21426">
        <ele>2001.4909667969</ele>
        <time>2017-02-26T08:26:18Z</time>
      </trkpt>
      <trkpt lat="45.31013" lon="6.21422">
        <ele>1996.4909667969</ele>
        <time>2017-02-26T08:26:20Z</time>
      </trkpt>
      <trkpt lat="45.31027" lon="6.21416">
        <ele>1992.4909667969</ele>
        <time>2017-02-26T08:26:22Z</time>
      </trkpt>
      <trkpt lat="45.31035" lon="6.21415">
        <ele>1989.4909667969</ele>
        <time>2017-02-26T08:26:23Z</time>
      </trkpt>
      <trkpt lat="45.31049" lon="6.21415">
        <ele>1986.4909667969</ele>
        <time>2017-02-26T08:26:25Z</time>
      </trkpt>
      <trkpt lat="45.31063" lon="6.21413">
        <ele>1983.4909667969</ele>
        <time>2017-02-26T08:26:27Z</time>
      </trkpt>
      <trkpt lat="45.31078" lon="6.21411">
        <ele>1980.4909667969</ele>
        <time>2017-02-26T08:26:29Z</time>
      </trkpt>
      <trkpt lat="45.31096" lon="6.2141">
        <ele>1978.4909667969</ele>
        <time>2017-02-26T08:26:31Z</time>
      </trkpt>
      <trkpt lat="45.31112" lon="6.21409">
        <ele>1973.4909667969</ele>
        <time>2017-02-26T08:26:33Z</time>
      </trkpt>
      <trkpt lat="45.3113" lon="6.21406">
        <ele>1970.4909667969</ele>
        <time>2017-02-26T08:26:35Z</time>
      </trkpt>
      <trkpt lat="45.31149" lon="6.21404">
        <ele>1968.4909667969</ele>
        <time>2017-02-26T08:26:37Z</time>
      </trkpt>
      <trkpt lat="45.31165" lon="6.21402">
        <ele>1966.4909667969</ele>
        <time>2017-02-26T08:26:39Z</time>
      </trkpt>
      <trkpt lat="45.31167" lon="6.21394">
        <ele>1964.4909667969</ele>
        <time>2017-02-26T08:26:43Z</time>
      </trkpt>
      <trkpt lat="45.31172" lon="6.21394">
        <ele>1966.4909667969</ele>
        <time>2017-02-26T08:28:37Z</time>
      </trkpt>
      <trkpt lat="45.31177" lon="6.21392">
        <ele>1966.4909667969</ele>
        <time>2017-02-26T08:28:40Z</time>
      </trkpt>
      <trkpt lat="45.31182" lon="6.2139">
        <ele>1967.4909667969</ele>
        <time>2017-02-26T08:28:45Z</time>
      </trkpt>
      <trkpt lat="45.31187" lon="6.2139">
        <ele>1969.4909667969</ele>
        <time>2017-02-26T08:28:48Z</time>
      </trkpt>
      <trkpt lat="45.31191" lon="6.21388">
        <ele>1971.4909667969</ele>
        <time>2017-02-26T08:28:51Z</time>
      </trkpt>
      <trkpt lat="45.31197" lon="6.21384">
        <ele>1970.4909667969</ele>
        <time>2017-02-26T08:28:58Z</time>
      </trkpt>
      <trkpt lat="45.31202" lon="6.21381">
        <ele>1972.4909667969</ele>
        <time>2017-02-26T08:29:01Z</time>
      </trkpt>
      <trkpt lat="45.31206" lon="6.21375">
        <ele>1971.4909667969</ele>
        <time>2017-02-26T08:29:07Z</time>
      </trkpt>
      <trkpt lat="45.31211" lon="6.21372">
        <ele>1970.4909667969</ele>
        <time>2017-02-26T08:29:12Z</time>
      </trkpt>
      <trkpt lat="45.31215" lon="6.21368">
        <ele>1970.4909667969</ele>
        <time>2017-02-26T08:29:15Z</time>
      </trkpt>
      <trkpt lat="45.31221" lon="6.21365">
        <ele>1971.4909667969</ele>
        <time>2017-02-26T08:29:22Z</time>
      </trkpt>
      <trkpt lat="45.31225" lon="6.21362">
        <ele>1975.4909667969</ele>
        <time>2017-02-26T08:29:29Z</time>
      </trkpt>
      <trkpt lat="45.31231" lon="6.21363">
        <ele>1976.4909667969</ele>
        <time>2017-02-26T08:29:38Z</time>
      </trkpt>
      <trkpt lat="45.31238" lon="6.21362">
        <ele>1980.4909667969</ele>
        <time>2017-02-26T08:29:44Z</time>
      </trkpt>
      <trkpt lat="45.31243" lon="6.21363">
        <ele>1980.4909667969</ele>
        <time>2017-02-26T08:29:49Z</time>
      </trkpt>
      <trkpt lat="45.31246" lon="6.21369">
        <ele>1983.4909667969</ele>
        <time>2017-02-26T08:29:57Z</time>
      </trkpt>
      <trkpt lat="45.31251" lon="6.2137">
        <ele>1986.4909667969</ele>
        <time>2017-02-26T08:30:01Z</time>
      </trkpt>
      <trkpt lat="45.31255" lon="6.21372">
        <ele>1986.4909667969</ele>
        <time>2017-02-26T08:30:04Z</time>
      </trkpt>
      <trkpt lat="45.3126" lon="6.21375">
        <ele>1987.4909667969</ele>
        <time>2017-02-26T08:30:11Z</time>
      </trkpt>
      <trkpt lat="45.31264" lon="6.21378">
        <ele>1987.4909667969</ele>
        <time>2017-02-26T08:30:17Z</time>
      </trkpt>
      <trkpt lat="45.31269" lon="6.2138">
        <ele>1991.4909667969</ele>
        <time>2017-02-26T08:30:25Z</time>
      </trkpt>
      <trkpt lat="45.31274" lon="6.21382">
        <ele>1992.4909667969</ele>
        <time>2017-02-26T08:30:32Z</time>
      </trkpt>
      <trkpt lat="45.31278" lon="6.21387">
        <ele>1997.4909667969</ele>
        <time>2017-02-26T08:30:43Z</time>
      </trkpt>
      <trkpt lat="45.31282" lon="6.21389">
        <ele>1999.4909667969</ele>
        <time>2017-02-26T08:30:46Z</time>
      </trkpt>
      <trkpt lat="45.31285" lon="6.21396">
        <ele>2002.4909667969</ele>
        <time>2017-02-26T08:30:50Z</time>
      </trkpt>
      <trkpt lat="45.3129" lon="6.21397">
        <ele>2000.4909667969</ele>
        <time>2017-02-26T08:30:56Z</time>
      </trkpt>
      <trkpt lat="45.3129" lon="6.21391">
        <ele>2003.4909667969</ele>
        <time>2017-02-26T08:31:00Z</time>
      </trkpt>
      <trkpt lat="45.31292" lon="6.21385">
        <ele>2004.4909667969</ele>
        <time>2017-02-26T08:31:07Z</time>
      </trkpt>
      <trkpt lat="45.31291" lon="6.21377">
        <ele>2003.4909667969</ele>
        <time>2017-02-26T08:31:15Z</time>
      </trkpt>
      <trkpt lat="45.31292" lon="6.2137">
        <ele>2005.4909667969</ele>
        <time>2017-02-26T08:31:19Z</time>
      </trkpt>
      <trkpt lat="45.31293" lon="6.21363">
        <ele>2005.4909667969</ele>
        <time>2017-02-26T08:31:24Z</time>
      </trkpt>
      <trkpt lat="45.31295" lon="6.21356">
        <ele>2005.4909667969</ele>
        <time>2017-02-26T08:31:30Z</time>
      </trkpt>
      <trkpt lat="45.31294" lon="6.21349">
        <ele>2005.4909667969</ele>
        <time>2017-02-26T08:31:33Z</time>
      </trkpt>
      <trkpt lat="45.31293" lon="6.21341">
        <ele>2009.4909667969</ele>
        <time>2017-02-26T08:31:39Z</time>
      </trkpt>
      <trkpt lat="45.31291" lon="6.21334">
        <ele>2011.4909667969</ele>
        <time>2017-02-26T08:31:44Z</time>
      </trkpt>
      <trkpt lat="45.31291" lon="6.21327">
        <ele>2011.4909667969</ele>
        <time>2017-02-26T08:31:47Z</time>
      </trkpt>
      <trkpt lat="45.31289" lon="6.2132">
        <ele>2013.4909667969</ele>
        <time>2017-02-26T08:31:53Z</time>
      </trkpt>
      <trkpt lat="45.31287" lon="6.21313">
        <ele>2015.4909667969</ele>
        <time>2017-02-26T08:31:58Z</time>
      </trkpt>
      <trkpt lat="45.31286" lon="6.21306">
        <ele>2017.4909667969</ele>
        <time>2017-02-26T08:32:03Z</time>
      </trkpt>
      <trkpt lat="45.31287" lon="6.21299">
        <ele>2016.4909667969</ele>
        <time>2017-02-26T08:32:09Z</time>
      </trkpt>
      <trkpt lat="45.31286" lon="6.21293">
        <ele>2020.4909667969</ele>
        <time>2017-02-26T08:32:14Z</time>
      </trkpt>
      <trkpt lat="45.31285" lon="6.21285">
        <ele>2021.4909667969</ele>
        <time>2017-02-26T08:32:20Z</time>
      </trkpt>
      <trkpt lat="45.31282" lon="6.21279">
        <ele>2023.4909667969</ele>
        <time>2017-02-26T08:32:25Z</time>
      </trkpt>
      <trkpt lat="45.31281" lon="6.21272">
        <ele>2022.4909667969</ele>
        <time>2017-02-26T08:32:32Z</time>
      </trkpt>
      <trkpt lat="45.31281" lon="6.21266">
        <ele>2022.4909667969</ele>
        <time>2017-02-26T08:32:39Z</time>
      </trkpt>
      <trkpt lat="45.3128" lon="6.21259">
        <ele>2027.4909667969</ele>
        <time>2017-02-26T08:32:50Z</time>
      </trkpt>
      <trkpt lat="45.31283" lon="6.21253">
        <ele>2025.4909667969</ele>
        <time>2017-02-26T08:32:55Z</time>
      </trkpt>
      <trkpt lat="45.31284" lon="6.21247">
        <ele>2031.4909667969</ele>
        <time>2017-02-26T08:33:02Z</time>
      </trkpt>
      <trkpt lat="45.31287" lon="6.21241">
        <ele>2033.4909667969</ele>
        <time>2017-02-26T08:33:08Z</time>
      </trkpt>
      <trkpt lat="45.31289" lon="6.21233">
        <ele>2034.4909667969</ele>
        <time>2017-02-26T08:33:16Z</time>
      </trkpt>
      <trkpt lat="45.31291" lon="6.21227">
        <ele>2042.4909667969</ele>
        <time>2017-02-26T08:33:25Z</time>
      </trkpt>
      <trkpt lat="45.31293" lon="6.21222">
        <ele>2043.4909667969</ele>
        <time>2017-02-26T08:33:36Z</time>
      </trkpt>
      <trkpt lat="45.31298" lon="6.21219">
        <ele>2042.4909667969</ele>
        <time>2017-02-26T08:33:41Z</time>
      </trkpt>
      <trkpt lat="45.31301" lon="6.21213">
        <ele>2042.4909667969</ele>
        <time>2017-02-26T08:33:48Z</time>
      </trkpt>
      <trkpt lat="45.31305" lon="6.21208">
        <ele>2044.4909667969</ele>
        <time>2017-02-26T08:33:56Z</time>
      </trkpt>
      <trkpt lat="45.31307" lon="6.21201">
        <ele>2049.4909667969</ele>
        <time>2017-02-26T08:34:05Z</time>
      </trkpt>
      <trkpt lat="45.31309" lon="6.21195">
        <ele>2043.4909667969</ele>
        <time>2017-02-26T08:34:09Z</time>
      </trkpt>
      <trkpt lat="45.31311" lon="6.21189">
        <ele>2042.4909667969</ele>
        <time>2017-02-26T08:34:14Z</time>
      </trkpt>
      <trkpt lat="45.31313" lon="6.21182">
        <ele>2043.4909667969</ele>
        <time>2017-02-26T08:34:18Z</time>
      </trkpt>
      <trkpt lat="45.31312" lon="6.21176">
        <ele>2041.4909667969</ele>
        <time>2017-02-26T08:34:23Z</time>
      </trkpt>
      <trkpt lat="45.31312" lon="6.21169">
        <ele>2046.4909667969</ele>
        <time>2017-02-26T08:34:28Z</time>
      </trkpt>
      <trkpt lat="45.31313" lon="6.21161">
        <ele>2048.4909667969</ele>
        <time>2017-02-26T08:34:34Z</time>
      </trkpt>
      <trkpt lat="45.31312" lon="6.21154">
        <ele>2050.4909667969</ele>
        <time>2017-02-26T08:34:40Z</time>
      </trkpt>
      <trkpt lat="45.31314" lon="6.21148">
        <ele>2055.4909667969</ele>
        <time>2017-02-26T08:34:48Z</time>
      </trkpt>
      <trkpt lat="45.31313" lon="6.21141">
        <ele>2057.4909667969</ele>
        <time>2017-02-26T08:34:53Z</time>
      </trkpt>
      <trkpt lat="45.31313" lon="6.21134">
        <ele>2058.4909667969</ele>
        <time>2017-02-26T08:35:04Z</time>
      </trkpt>
      <trkpt lat="45.31313" lon="6.21128">
        <ele>2059.4909667969</ele>
        <time>2017-02-26T08:35:12Z</time>
      </trkpt>
      <trkpt lat="45.31312" lon="6.21121">
        <ele>2061.4909667969</ele>
        <time>2017-02-26T08:35:19Z</time>
      </trkpt>
      <trkpt lat="45.31311" lon="6.21115">
        <ele>2064.4909667969</ele>
        <time>2017-02-26T08:35:28Z</time>
      </trkpt>
      <trkpt lat="45.31311" lon="6.21108">
        <ele>2065.4909667969</ele>
        <time>2017-02-26T08:35:38Z</time>
      </trkpt>
      <trkpt lat="45.31309" lon="6.21102">
        <ele>2068.4909667969</ele>
        <time>2017-02-26T08:35:44Z</time>
      </trkpt>
      <trkpt lat="45.31309" lon="6.21094">
        <ele>2069.4909667969</ele>
        <time>2017-02-26T08:35:48Z</time>
      </trkpt>
      <trkpt lat="45.31306" lon="6.21087">
        <ele>2072.4909667969</ele>
        <time>2017-02-26T08:35:56Z</time>
      </trkpt>
      <trkpt lat="45.31305" lon="6.2108">
        <ele>2072.4909667969</ele>
        <time>2017-02-26T08:36:01Z</time>
      </trkpt>
      <trkpt lat="45.31301" lon="6.21075">
        <ele>2072.4909667969</ele>
        <time>2017-02-26T08:36:05Z</time>
      </trkpt>
      <trkpt lat="45.31301" lon="6.21068">
        <ele>2070.4909667969</ele>
        <time>2017-02-26T08:36:09Z</time>
      </trkpt>
      <trkpt lat="45.31299" lon="6.2106">
        <ele>2073.4909667969</ele>
        <time>2017-02-26T08:36:14Z</time>
      </trkpt>
      <trkpt lat="45.31298" lon="6.21054">
        <ele>2074.4909667969</ele>
        <time>2017-02-26T08:36:18Z</time>
      </trkpt>
      <trkpt lat="45.31295" lon="6.21048">
        <ele>2074.4909667969</ele>
        <time>2017-02-26T08:36:26Z</time>
      </trkpt>
      <trkpt lat="45.31291" lon="6.21042">
        <ele>2075.4909667969</ele>
        <time>2017-02-26T08:36:29Z</time>
      </trkpt>
      <trkpt lat="45.31291" lon="6.21035">
        <ele>2075.4909667969</ele>
        <time>2017-02-26T08:36:33Z</time>
      </trkpt>
      <trkpt lat="45.31292" lon="6.21027">
        <ele>2078.4909667969</ele>
        <time>2017-02-26T08:36:38Z</time>
      </trkpt>
      <trkpt lat="45.31294" lon="6.2102">
        <ele>2081.4909667969</ele>
        <time>2017-02-26T08:36:42Z</time>
      </trkpt>
      <trkpt lat="45.31294" lon="6.21013">
        <ele>2082.4909667969</ele>
        <time>2017-02-26T08:36:49Z</time>
      </trkpt>
      <trkpt lat="45.31293" lon="6.21006">
        <ele>2083.4909667969</ele>
        <time>2017-02-26T08:36:54Z</time>
      </trkpt>
      <trkpt lat="45.31295" lon="6.20998">
        <ele>2085.4909667969</ele>
        <time>2017-02-26T08:37:01Z</time>
      </trkpt>
      <trkpt lat="45.31297" lon="6.20992">
        <ele>2082.4909667969</ele>
        <time>2017-02-26T08:37:06Z</time>
      </trkpt>
      <trkpt lat="45.31299" lon="6.20984">
        <ele>2082.4909667969</ele>
        <time>2017-02-26T08:37:12Z</time>
      </trkpt>
      <trkpt lat="45.31303" lon="6.20978">
        <ele>2083.4909667969</ele>
        <time>2017-02-26T08:37:18Z</time>
      </trkpt>
      <trkpt lat="45.31303" lon="6.20971">
        <ele>2086.4909667969</ele>
        <time>2017-02-26T08:37:26Z</time>
      </trkpt>
      <trkpt lat="45.31303" lon="6.20965">
        <ele>2085.4909667969</ele>
        <time>2017-02-26T08:37:30Z</time>
      </trkpt>
      <trkpt lat="45.31301" lon="6.20958">
        <ele>2091.4909667969</ele>
        <time>2017-02-26T08:37:38Z</time>
      </trkpt>
      <trkpt lat="45.313" lon="6.20951">
        <ele>2084.4909667969</ele>
        <time>2017-02-26T08:37:47Z</time>
      </trkpt>
      <trkpt lat="45.313" lon="6.20944">
        <ele>2087.4909667969</ele>
        <time>2017-02-26T08:37:57Z</time>
      </trkpt>
      <trkpt lat="45.31301" lon="6.20938">
        <ele>2086.4909667969</ele>
        <time>2017-02-26T08:38:04Z</time>
      </trkpt>
      <trkpt lat="45.313" lon="6.20931">
        <ele>2090.4909667969</ele>
        <time>2017-02-26T08:38:13Z</time>
      </trkpt>
      <trkpt lat="45.31301" lon="6.20923">
        <ele>2092.4909667969</ele>
        <time>2017-02-26T08:38:39Z</time>
      </trkpt>
      <trkpt lat="45.313" lon="6.20915">
        <ele>2095.4909667969</ele>
        <time>2017-02-26T08:38:43Z</time>
      </trkpt>
      <trkpt lat="45.31302" lon="6.20909">
        <ele>2095.4909667969</ele>
        <time>2017-02-26T08:38:51Z</time>
      </trkpt>
      <trkpt lat="45.31303" lon="6.20902">
        <ele>2096.4909667969</ele>
        <time>2017-02-26T08:38:56Z</time>
      </trkpt>
      <trkpt lat="45.31304" lon="6.20896">
        <ele>2099.4909667969</ele>
        <time>2017-02-26T08:39:01Z</time>
      </trkpt>
      <trkpt lat="45.31306" lon="6.2089">
        <ele>2103.4909667969</ele>
        <time>2017-02-26T08:39:08Z</time>
      </trkpt>
      <trkpt lat="45.31306" lon="6.20881">
        <ele>2106.4909667969</ele>
        <time>2017-02-26T08:39:48Z</time>
      </trkpt>
      <trkpt lat="45.31306" lon="6.20873">
        <ele>2108.4909667969</ele>
        <time>2017-02-26T08:39:55Z</time>
      </trkpt>
      <trkpt lat="45.31305" lon="6.20866">
        <ele>2115.4909667969</ele>
        <time>2017-02-26T08:40:05Z</time>
      </trkpt>
      <trkpt lat="45.31306" lon="6.2086">
        <ele>2116.4909667969</ele>
        <time>2017-02-26T08:40:10Z</time>
      </trkpt>
      <trkpt lat="45.31303" lon="6.20854">
        <ele>2122.4909667969</ele>
        <time>2017-02-26T08:40:22Z</time>
      </trkpt>
      <trkpt lat="45.313" lon="6.20848">
        <ele>2125.4909667969</ele>
        <time>2017-02-26T08:40:35Z</time>
      </trkpt>
      <trkpt lat="45.31302" lon="6.20841">
        <ele>2126.4909667969</ele>
        <time>2017-02-26T08:40:45Z</time>
      </trkpt>
      <trkpt lat="45.313" lon="6.20835">
        <ele>2125.4909667969</ele>
        <time>2017-02-26T08:40:52Z</time>
      </trkpt>
      <trkpt lat="45.31298" lon="6.20829">
        <ele>2127.4909667969</ele>
        <time>2017-02-26T08:41:14Z</time>
      </trkpt>
      <trkpt lat="45.31302" lon="6.20832">
        <ele>2133.4909667969</ele>
        <time>2017-02-26T08:41:35Z</time>
      </trkpt>
      <trkpt lat="45.31307" lon="6.20827">
        <ele>2130.4909667969</ele>
        <time>2017-02-26T08:41:41Z</time>
      </trkpt>
      <trkpt lat="45.31313" lon="6.20827">
        <ele>2131.4909667969</ele>
        <time>2017-02-26T08:41:47Z</time>
      </trkpt>
      <trkpt lat="45.31318" lon="6.20826">
        <ele>2133.4909667969</ele>
        <time>2017-02-26T08:42:00Z</time>
      </trkpt>
      <trkpt lat="45.31322" lon="6.20825">
        <ele>2128.4909667969</ele>
        <time>2017-02-26T08:42:05Z</time>
      </trkpt>
      <trkpt lat="45.31328" lon="6.20826">
        <ele>2128.4909667969</ele>
        <time>2017-02-26T08:42:09Z</time>
      </trkpt>
      <trkpt lat="45.31327" lon="6.20817">
        <ele>2132.4909667969</ele>
        <time>2017-02-26T08:42:29Z</time>
      </trkpt>
      <trkpt lat="45.31324" lon="6.20813">
        <ele>2133.4909667969</ele>
        <time>2017-02-26T08:42:35Z</time>
      </trkpt>
      <trkpt lat="45.31324" lon="6.20806">
        <ele>2137.4909667969</ele>
        <time>2017-02-26T08:42:41Z</time>
      </trkpt>
      <trkpt lat="45.31319" lon="6.20799">
        <ele>2137.4909667969</ele>
        <time>2017-02-26T08:42:46Z</time>
      </trkpt>
      <trkpt lat="45.31318" lon="6.20792">
        <ele>2139.4909667969</ele>
        <time>2017-02-26T08:42:50Z</time>
      </trkpt>
      <trkpt lat="45.31318" lon="6.20786">
        <ele>2143.4909667969</ele>
        <time>2017-02-26T08:42:56Z</time>
      </trkpt>
      <trkpt lat="45.31316" lon="6.20779">
        <ele>2141.4909667969</ele>
        <time>2017-02-26T08:43:06Z</time>
      </trkpt>
      <trkpt lat="45.31313" lon="6.20772">
        <ele>2146.4909667969</ele>
        <time>2017-02-26T08:43:11Z</time>
      </trkpt>
      <trkpt lat="45.31318" lon="6.20769">
        <ele>2150.4909667969</ele>
        <time>2017-02-26T08:43:20Z</time>
      </trkpt>
      <trkpt lat="45.31323" lon="6.2077">
        <ele>2152.4909667969</ele>
        <time>2017-02-26T08:43:24Z</time>
      </trkpt>
      <trkpt lat="45.31327" lon="6.20768">
        <ele>2151.4909667969</ele>
        <time>2017-02-26T08:43:30Z</time>
      </trkpt>
      <trkpt lat="45.31332" lon="6.20767">
        <ele>2155.4909667969</ele>
        <time>2017-02-26T08:43:37Z</time>
      </trkpt>
      <trkpt lat="45.31337" lon="6.20766">
        <ele>2156.4909667969</ele>
        <time>2017-02-26T08:43:43Z</time>
      </trkpt>
      <trkpt lat="45.31342" lon="6.20769">
        <ele>2161.4909667969</ele>
        <time>2017-02-26T08:43:53Z</time>
      </trkpt>
      <trkpt lat="45.31348" lon="6.20767">
        <ele>2161.4909667969</ele>
        <time>2017-02-26T08:43:58Z</time>
      </trkpt>
      <trkpt lat="45.31352" lon="6.20767">
        <ele>2160.4909667969</ele>
        <time>2017-02-26T08:44:02Z</time>
      </trkpt>
      <trkpt lat="45.31353" lon="6.20761">
        <ele>2163.4909667969</ele>
        <time>2017-02-26T08:44:17Z</time>
      </trkpt>
      <trkpt lat="45.3135" lon="6.20755">
        <ele>2163.4909667969</ele>
        <time>2017-02-26T08:44:22Z</time>
      </trkpt>
      <trkpt lat="45.31347" lon="6.20749">
        <ele>2162.4909667969</ele>
        <time>2017-02-26T08:44:28Z</time>
      </trkpt>
      <trkpt lat="45.31345" lon="6.20743">
        <ele>2163.4909667969</ele>
        <time>2017-02-26T08:44:32Z</time>
      </trkpt>
      <trkpt lat="45.31342" lon="6.20737">
        <ele>2165.4909667969</ele>
        <time>2017-02-26T08:44:37Z</time>
      </trkpt>
      <trkpt lat="45.31342" lon="6.20729">
        <ele>2167.4909667969</ele>
        <time>2017-02-26T08:44:43Z</time>
      </trkpt>
      <trkpt lat="45.31341" lon="6.20721">
        <ele>2169.4909667969</ele>
        <time>2017-02-26T08:44:49Z</time>
      </trkpt>
      <trkpt lat="45.31339" lon="6.20715">
        <ele>2170.4909667969</ele>
        <time>2017-02-26T08:44:55Z</time>
      </trkpt>
      <trkpt lat="45.31335" lon="6.2071">
        <ele>2173.4899902344</ele>
        <time>2017-02-26T08:45:02Z</time>
      </trkpt>
      <trkpt lat="45.31331" lon="6.20706">
        <ele>2175.4899902344</ele>
        <time>2017-02-26T08:45:08Z</time>
      </trkpt>
      <trkpt lat="45.31334" lon="6.20701">
        <ele>2177.4899902344</ele>
        <time>2017-02-26T08:45:21Z</time>
      </trkpt>
      <trkpt lat="45.31337" lon="6.20696">
        <ele>2178.4899902344</ele>
        <time>2017-02-26T08:45:26Z</time>
      </trkpt>
      <trkpt lat="45.31332" lon="6.20693">
        <ele>2177.4899902344</ele>
        <time>2017-02-26T08:45:34Z</time>
      </trkpt>
      <trkpt lat="45.31327" lon="6.20691">
        <ele>2176.4899902344</ele>
        <time>2017-02-26T08:45:38Z</time>
      </trkpt>
      <trkpt lat="45.31322" lon="6.20692">
        <ele>2182.4899902344</ele>
        <time>2017-02-26T08:45:42Z</time>
      </trkpt>
      <trkpt lat="45.31317" lon="6.20691">
        <ele>2183.4899902344</ele>
        <time>2017-02-26T08:45:49Z</time>
      </trkpt>
      <trkpt lat="45.31314" lon="6.20686">
        <ele>2184.4899902344</ele>
        <time>2017-02-26T08:46:02Z</time>
      </trkpt>
      <trkpt lat="45.31305" lon="6.20687">
        <ele>2188.4899902344</ele>
        <time>2017-02-26T08:46:07Z</time>
      </trkpt>
      <trkpt lat="45.313" lon="6.20684">
        <ele>2185.4899902344</ele>
        <time>2017-02-26T08:46:11Z</time>
      </trkpt>
      <trkpt lat="45.31295" lon="6.20684">
        <ele>2189.4899902344</ele>
        <time>2017-02-26T08:46:17Z</time>
      </trkpt>
      <trkpt lat="45.31291" lon="6.2068">
        <ele>2188.4899902344</ele>
        <time>2017-02-26T08:46:31Z</time>
      </trkpt>
      <trkpt lat="45.31291" lon="6.20673">
        <ele>2193.4899902344</ele>
        <time>2017-02-26T08:46:43Z</time>
      </trkpt>
      <trkpt lat="45.31293" lon="6.20665">
        <ele>2195.4899902344</ele>
        <time>2017-02-26T08:46:49Z</time>
      </trkpt>
      <trkpt lat="45.31294" lon="6.20658">
        <ele>2199.4899902344</ele>
        <time>2017-02-26T08:46:55Z</time>
      </trkpt>
      <trkpt lat="45.31295" lon="6.2065">
        <ele>2200.4899902344</ele>
        <time>2017-02-26T08:47:03Z</time>
      </trkpt>
      <trkpt lat="45.31296" lon="6.20643">
        <ele>2198.4899902344</ele>
        <time>2017-02-26T08:47:10Z</time>
      </trkpt>
      <trkpt lat="45.31295" lon="6.20636">
        <ele>2197.4899902344</ele>
        <time>2017-02-26T08:47:15Z</time>
      </trkpt>
      <trkpt lat="45.31295" lon="6.20626">
        <ele>2202.4899902344</ele>
        <time>2017-02-26T08:47:26Z</time>
      </trkpt>
      <trkpt lat="45.31297" lon="6.20618">
        <ele>2203.4899902344</ele>
        <time>2017-02-26T08:47:31Z</time>
      </trkpt>
      <trkpt lat="45.31294" lon="6.20612">
        <ele>2203.4899902344</ele>
        <time>2017-02-26T08:47:40Z</time>
      </trkpt>
      <trkpt lat="45.31295" lon="6.20604">
        <ele>2211.4899902344</ele>
        <time>2017-02-26T08:47:51Z</time>
      </trkpt>
      <trkpt lat="45.31296" lon="6.20597">
        <ele>2211.4899902344</ele>
        <time>2017-02-26T08:48:01Z</time>
      </trkpt>
      <trkpt lat="45.31298" lon="6.20589">
        <ele>2211.4899902344</ele>
        <time>2017-02-26T08:48:07Z</time>
      </trkpt>
      <trkpt lat="45.31301" lon="6.20584">
        <ele>2212.4899902344</ele>
        <time>2017-02-26T08:48:13Z</time>
      </trkpt>
      <trkpt lat="45.31303" lon="6.20578">
        <ele>2207.4899902344</ele>
        <time>2017-02-26T08:48:19Z</time>
      </trkpt>
      <trkpt lat="45.31306" lon="6.20572">
        <ele>2207.4899902344</ele>
        <time>2017-02-26T08:48:26Z</time>
      </trkpt>
      <trkpt lat="45.3131" lon="6.20574">
        <ele>2212.4899902344</ele>
        <time>2017-02-26T08:48:47Z</time>
      </trkpt>
      <trkpt lat="45.31315" lon="6.20576">
        <ele>2219.4899902344</ele>
        <time>2017-02-26T08:48:58Z</time>
      </trkpt>
      <trkpt lat="45.31318" lon="6.20581">
        <ele>2220.4899902344</ele>
        <time>2017-02-26T08:49:03Z</time>
      </trkpt>
      <trkpt lat="45.31323" lon="6.20582">
        <ele>2222.4899902344</ele>
        <time>2017-02-26T08:49:07Z</time>
      </trkpt>
      <trkpt lat="45.31327" lon="6.20579">
        <ele>2229.4899902344</ele>
        <time>2017-02-26T08:49:37Z</time>
      </trkpt>
      <trkpt lat="45.31332" lon="6.20577">
        <ele>2228.4899902344</ele>
        <time>2017-02-26T08:49:43Z</time>
      </trkpt>
      <trkpt lat="45.31338" lon="6.20575">
        <ele>2226.4899902344</ele>
        <time>2017-02-26T08:49:47Z</time>
      </trkpt>
      <trkpt lat="45.31343" lon="6.20573">
        <ele>2226.4899902344</ele>
        <time>2017-02-26T08:49:51Z</time>
      </trkpt>
      <trkpt lat="45.31348" lon="6.20573">
        <ele>2229.4899902344</ele>
        <time>2017-02-26T08:49:56Z</time>
      </trkpt>
      <trkpt lat="45.31353" lon="6.20573">
        <ele>2228.4899902344</ele>
        <time>2017-02-26T08:50:01Z</time>
      </trkpt>
      <trkpt lat="45.31358" lon="6.20574">
        <ele>2229.4899902344</ele>
        <time>2017-02-26T08:50:04Z</time>
      </trkpt>
      <trkpt lat="45.31363" lon="6.20574">
        <ele>2232.4899902344</ele>
        <time>2017-02-26T08:50:19Z</time>
      </trkpt>
      <trkpt lat="45.31368" lon="6.20576">
        <ele>2234.4899902344</ele>
        <time>2017-02-26T08:50:26Z</time>
      </trkpt>
      <trkpt lat="45.31371" lon="6.20582">
        <ele>2234.4899902344</ele>
        <time>2017-02-26T08:50:32Z</time>
      </trkpt>
      <trkpt lat="45.31376" lon="6.20584">
        <ele>2233.4899902344</ele>
        <time>2017-02-26T08:50:37Z</time>
      </trkpt>
      <trkpt lat="45.31381" lon="6.20586">
        <ele>2234.4899902344</ele>
        <time>2017-02-26T08:50:42Z</time>
      </trkpt>
      <trkpt lat="45.31386" lon="6.20586">
        <ele>2236.4899902344</ele>
        <time>2017-02-26T08:50:46Z</time>
      </trkpt>
      <trkpt lat="45.31391" lon="6.20587">
        <ele>2238.4899902344</ele>
        <time>2017-02-26T08:50:51Z</time>
      </trkpt>
      <trkpt lat="45.31395" lon="6.20585">
        <ele>2240.4899902344</ele>
        <time>2017-02-26T08:51:00Z</time>
      </trkpt>
      <trkpt lat="45.31396" lon="6.20577">
        <ele>2240.4899902344</ele>
        <time>2017-02-26T08:51:12Z</time>
      </trkpt>
      <trkpt lat="45.31399" lon="6.20572">
        <ele>2243.4899902344</ele>
        <time>2017-02-26T08:51:37Z</time>
      </trkpt>
      <trkpt lat="45.31403" lon="6.20574">
        <ele>2244.4899902344</ele>
        <time>2017-02-26T08:51:41Z</time>
      </trkpt>
      <trkpt lat="45.31408" lon="6.20577">
        <ele>2245.4899902344</ele>
        <time>2017-02-26T08:51:47Z</time>
      </trkpt>
      <trkpt lat="45.31411" lon="6.20582">
        <ele>2247.4899902344</ele>
        <time>2017-02-26T08:51:52Z</time>
      </trkpt>
      <trkpt lat="45.31415" lon="6.20586">
        <ele>2247.4899902344</ele>
        <time>2017-02-26T08:51:57Z</time>
      </trkpt>
      <trkpt lat="45.31419" lon="6.20589">
        <ele>2248.4899902344</ele>
        <time>2017-02-26T08:52:05Z</time>
      </trkpt>
      <trkpt lat="45.31415" lon="6.20585">
        <ele>2255.4899902344</ele>
        <time>2017-02-26T08:52:24Z</time>
      </trkpt>
      <trkpt lat="45.31415" lon="6.20577">
        <ele>2255.4899902344</ele>
        <time>2017-02-26T08:52:34Z</time>
      </trkpt>
      <trkpt lat="45.31419" lon="6.20581">
        <ele>2258.4899902344</ele>
        <time>2017-02-26T08:52:43Z</time>
      </trkpt>
      <trkpt lat="45.31424" lon="6.20581">
        <ele>2257.4899902344</ele>
        <time>2017-02-26T08:52:47Z</time>
      </trkpt>
      <trkpt lat="45.31429" lon="6.20582">
        <ele>2259.4899902344</ele>
        <time>2017-02-26T08:52:55Z</time>
      </trkpt>
      <trkpt lat="45.31434" lon="6.2058">
        <ele>2260.4909667969</ele>
        <time>2017-02-26T08:53:05Z</time>
      </trkpt>
      <trkpt lat="45.31439" lon="6.20583">
        <ele>2263.4909667969</ele>
        <time>2017-02-26T08:53:10Z</time>
      </trkpt>
      <trkpt lat="45.31442" lon="6.20588">
        <ele>2266.4909667969</ele>
        <time>2017-02-26T08:53:16Z</time>
      </trkpt>
      <trkpt lat="45.31446" lon="6.20593">
        <ele>2269.4909667969</ele>
        <time>2017-02-26T08:53:23Z</time>
      </trkpt>
      <trkpt lat="45.3145" lon="6.20596">
        <ele>2270.4909667969</ele>
        <time>2017-02-26T08:53:28Z</time>
      </trkpt>
      <trkpt lat="45.31454" lon="6.20599">
        <ele>2271.4909667969</ele>
        <time>2017-02-26T08:53:32Z</time>
      </trkpt>
      <trkpt lat="45.31457" lon="6.20605">
        <ele>2273.4909667969</ele>
        <time>2017-02-26T08:53:39Z</time>
      </trkpt>
      <trkpt lat="45.31461" lon="6.20609">
        <ele>2275.4909667969</ele>
        <time>2017-02-26T08:53:45Z</time>
      </trkpt>
      <trkpt lat="45.31465" lon="6.20614">
        <ele>2277.4909667969</ele>
        <time>2017-02-26T08:53:52Z</time>
      </trkpt>
      <trkpt lat="45.31465" lon="6.20608">
        <ele>2280.4909667969</ele>
        <time>2017-02-26T08:54:14Z</time>
      </trkpt>
      <trkpt lat="45.31463" lon="6.20601">
        <ele>2280.4909667969</ele>
        <time>2017-02-26T08:54:20Z</time>
      </trkpt>
      <trkpt lat="45.31461" lon="6.20594">
        <ele>2280.4909667969</ele>
        <time>2017-02-26T08:54:25Z</time>
      </trkpt>
      <trkpt lat="45.31461" lon="6.20587">
        <ele>2287.4909667969</ele>
        <time>2017-02-26T08:54:32Z</time>
      </trkpt>
      <trkpt lat="45.31466" lon="6.20586">
        <ele>2289.4909667969</ele>
        <time>2017-02-26T08:54:52Z</time>
      </trkpt>
      <trkpt lat="45.3147" lon="6.2059">
        <ele>2290.4909667969</ele>
        <time>2017-02-26T08:55:00Z</time>
      </trkpt>
      <trkpt lat="45.31475" lon="6.20591">
        <ele>2294.4909667969</ele>
        <time>2017-02-26T08:55:05Z</time>
      </trkpt>
      <trkpt lat="45.31475" lon="6.20584">
        <ele>2299.4909667969</ele>
        <time>2017-02-26T08:55:23Z</time>
      </trkpt>
      <trkpt lat="45.3148" lon="6.20581">
        <ele>2302.4909667969</ele>
        <time>2017-02-26T08:55:35Z</time>
      </trkpt>
      <trkpt lat="45.31484" lon="6.2058">
        <ele>2304.4909667969</ele>
        <time>2017-02-26T08:55:39Z</time>
      </trkpt>
      <trkpt lat="45.31489" lon="6.20579">
        <ele>2303.4909667969</ele>
        <time>2017-02-26T08:55:42Z</time>
      </trkpt>
      <trkpt lat="45.31493" lon="6.20576">
        <ele>2303.4909667969</ele>
        <time>2017-02-26T08:55:46Z</time>
      </trkpt>
      <trkpt lat="45.31494" lon="6.20569">
        <ele>2307.4909667969</ele>
        <time>2017-02-26T08:55:54Z</time>
      </trkpt>
      <trkpt lat="45.31491" lon="6.20564">
        <ele>2308.4909667969</ele>
        <time>2017-02-26T08:56:06Z</time>
      </trkpt>
      <trkpt lat="45.3149" lon="6.20555">
        <ele>2307.4909667969</ele>
        <time>2017-02-26T08:56:22Z</time>
      </trkpt>
      <trkpt lat="45.31493" lon="6.20549">
        <ele>2304.4909667969</ele>
        <time>2017-02-26T08:56:35Z</time>
      </trkpt>
      <trkpt lat="45.31497" lon="6.20546">
        <ele>2305.4909667969</ele>
        <time>2017-02-26T08:56:39Z</time>
      </trkpt>
      <trkpt lat="45.31502" lon="6.20545">
        <ele>2310.4909667969</ele>
        <time>2017-02-26T08:56:47Z</time>
      </trkpt>
      <trkpt lat="45.31507" lon="6.20548">
        <ele>2315.4909667969</ele>
        <time>2017-02-26T08:56:55Z</time>
      </trkpt>
      <trkpt lat="45.31511" lon="6.20545">
        <ele>2314.4909667969</ele>
        <time>2017-02-26T08:56:59Z</time>
      </trkpt>
      <trkpt lat="45.31515" lon="6.20539">
        <ele>2313.4909667969</ele>
        <time>2017-02-26T08:57:07Z</time>
      </trkpt>
      <trkpt lat="45.31519" lon="6.20534">
        <ele>2313.4909667969</ele>
        <time>2017-02-26T08:57:13Z</time>
      </trkpt>
      <trkpt lat="45.31521" lon="6.20528">
        <ele>2311.4909667969</ele>
        <time>2017-02-26T08:57:18Z</time>
      </trkpt>
      <trkpt lat="45.31525" lon="6.20522">
        <ele>2311.4909667969</ele>
        <time>2017-02-26T08:57:23Z</time>
      </trkpt>
      <trkpt lat="45.31527" lon="6.20515">
        <ele>2311.4909667969</ele>
        <time>2017-02-26T08:57:28Z</time>
      </trkpt>
      <trkpt lat="45.31529" lon="6.20508">
        <ele>2309.4909667969</ele>
        <time>2017-02-26T08:57:34Z</time>
      </trkpt>
      <trkpt lat="45.31532" lon="6.20503">
        <ele>2309.4909667969</ele>
        <time>2017-02-26T08:57:39Z</time>
      </trkpt>
      <trkpt lat="45.31535" lon="6.20497">
        <ele>2311.4909667969</ele>
        <time>2017-02-26T08:57:44Z</time>
      </trkpt>
      <trkpt lat="45.31539" lon="6.2049">
        <ele>2314.4909667969</ele>
        <time>2017-02-26T08:57:49Z</time>
      </trkpt>
      <trkpt lat="45.31543" lon="6.20486">
        <ele>2315.4909667969</ele>
        <time>2017-02-26T08:57:53Z</time>
      </trkpt>
      <trkpt lat="45.31548" lon="6.20482">
        <ele>2315.4909667969</ele>
        <time>2017-02-26T08:57:58Z</time>
      </trkpt>
      <trkpt lat="45.31551" lon="6.20478">
        <ele>2317.4909667969</ele>
        <time>2017-02-26T08:58:06Z</time>
      </trkpt>
      <trkpt lat="45.31555" lon="6.20474">
        <ele>2319.4909667969</ele>
        <time>2017-02-26T08:58:11Z</time>
      </trkpt>
      <trkpt lat="45.31559" lon="6.2047">
        <ele>2319.4909667969</ele>
        <time>2017-02-26T08:58:14Z</time>
      </trkpt>
      <trkpt lat="45.31565" lon="6.20468">
        <ele>2322.4909667969</ele>
        <time>2017-02-26T08:58:17Z</time>
      </trkpt>
      <trkpt lat="45.31569" lon="6.20468">
        <ele>2325.4909667969</ele>
        <time>2017-02-26T08:58:19Z</time>
      </trkpt>
      <trkpt lat="45.31574" lon="6.20465">
        <ele>2324.4909667969</ele>
        <time>2017-02-26T08:58:23Z</time>
      </trkpt>
      <trkpt lat="45.3158" lon="6.20461">
        <ele>2323.4909667969</ele>
        <time>2017-02-26T08:58:26Z</time>
      </trkpt>
      <trkpt lat="45.31586" lon="6.20459">
        <ele>2322.4909667969</ele>
        <time>2017-02-26T08:58:30Z</time>
      </trkpt>
      <trkpt lat="45.31591" lon="6.2046">
        <ele>2326.4909667969</ele>
        <time>2017-02-26T08:58:37Z</time>
      </trkpt>
      <trkpt lat="45.31597" lon="6.20461">
        <ele>2330.4909667969</ele>
        <time>2017-02-26T08:58:42Z</time>
      </trkpt>
      <trkpt lat="45.31602" lon="6.20461">
        <ele>2329.4909667969</ele>
        <time>2017-02-26T08:58:46Z</time>
      </trkpt>
      <trkpt lat="45.31606" lon="6.20463">
        <ele>2329.4909667969</ele>
        <time>2017-02-26T08:58:51Z</time>
      </trkpt>
      <trkpt lat="45.31612" lon="6.20465">
        <ele>2330.4909667969</ele>
        <time>2017-02-26T08:58:54Z</time>
      </trkpt>
      <trkpt lat="45.31616" lon="6.2047">
        <ele>2332.4909667969</ele>
        <time>2017-02-26T08:59:01Z</time>
      </trkpt>
      <trkpt lat="45.31614" lon="6.20476">
        <ele>2333.4909667969</ele>
        <time>2017-02-26T08:59:05Z</time>
      </trkpt>
      <trkpt lat="45.31618" lon="6.20479">
        <ele>2335.4909667969</ele>
        <time>2017-02-26T08:59:08Z</time>
      </trkpt>
      <trkpt lat="45.31623" lon="6.20483">
        <ele>2337.4909667969</ele>
        <time>2017-02-26T08:59:13Z</time>
      </trkpt>
      <trkpt lat="45.31628" lon="6.20485">
        <ele>2337.4909667969</ele>
        <time>2017-02-26T08:59:17Z</time>
      </trkpt>
      <trkpt lat="45.31633" lon="6.20487">
        <ele>2337.4909667969</ele>
        <time>2017-02-26T08:59:21Z</time>
      </trkpt>
      <trkpt lat="45.31638" lon="6.2049">
        <ele>2335.4909667969</ele>
        <time>2017-02-26T08:59:25Z</time>
      </trkpt>
      <trkpt lat="45.31642" lon="6.20497">
        <ele>2337.4909667969</ele>
        <time>2017-02-26T08:59:29Z</time>
      </trkpt>
      <trkpt lat="45.31646" lon="6.205">
        <ele>2338.4909667969</ele>
        <time>2017-02-26T08:59:33Z</time>
      </trkpt>
      <trkpt lat="45.31651" lon="6.20502">
        <ele>2339.4909667969</ele>
        <time>2017-02-26T08:59:37Z</time>
      </trkpt>
      <trkpt lat="45.31653" lon="6.20508">
        <ele>2342.4909667969</ele>
        <time>2017-02-26T08:59:42Z</time>
      </trkpt>
      <trkpt lat="45.31658" lon="6.2051">
        <ele>2341.4909667969</ele>
        <time>2017-02-26T08:59:46Z</time>
      </trkpt>
      <trkpt lat="45.31661" lon="6.20516">
        <ele>2340.4909667969</ele>
        <time>2017-02-26T08:59:51Z</time>
      </trkpt>
      <trkpt lat="45.31664" lon="6.20522">
        <ele>2341.4909667969</ele>
        <time>2017-02-26T08:59:55Z</time>
      </trkpt>
      <trkpt lat="45.31669" lon="6.20525">
        <ele>2343.4909667969</ele>
        <time>2017-02-26T08:59:59Z</time>
      </trkpt>
      <trkpt lat="45.31671" lon="6.20532">
        <ele>2343.4909667969</ele>
        <time>2017-02-26T09:00:04Z</time>
      </trkpt>
      <trkpt lat="45.31672" lon="6.20539">
        <ele>2343.4909667969</ele>
        <time>2017-02-26T09:00:09Z</time>
      </trkpt>
      <trkpt lat="45.31676" lon="6.20544">
        <ele>2343.4909667969</ele>
        <time>2017-02-26T09:00:13Z</time>
      </trkpt>
      <trkpt lat="45.31676" lon="6.20551">
        <ele>2344.4909667969</ele>
        <time>2017-02-26T09:00:18Z</time>
      </trkpt>
      <trkpt lat="45.31678" lon="6.20556">
        <ele>2341.4909667969</ele>
        <time>2017-02-26T09:00:22Z</time>
      </trkpt>
      <trkpt lat="45.31681" lon="6.20562">
        <ele>2338.4909667969</ele>
        <time>2017-02-26T09:00:26Z</time>
      </trkpt>
      <trkpt lat="45.31683" lon="6.20569">
        <ele>2340.4909667969</ele>
        <time>2017-02-26T09:00:33Z</time>
      </trkpt>
      <trkpt lat="45.31684" lon="6.20577">
        <ele>2342.4909667969</ele>
        <time>2017-02-26T09:00:38Z</time>
      </trkpt>
      <trkpt lat="45.31685" lon="6.20584">
        <ele>2344.4909667969</ele>
        <time>2017-02-26T09:00:44Z</time>
      </trkpt>
      <trkpt lat="45.31683" lon="6.2059">
        <ele>2345.4909667969</ele>
        <time>2017-02-26T09:00:49Z</time>
      </trkpt>
      <trkpt lat="45.31684" lon="6.20598">
        <ele>2350.4909667969</ele>
        <time>2017-02-26T09:00:56Z</time>
      </trkpt>
      <trkpt lat="45.31685" lon="6.20604">
        <ele>2353.4909667969</ele>
        <time>2017-02-26T09:01:02Z</time>
      </trkpt>
      <trkpt lat="45.31684" lon="6.20611">
        <ele>2352.4909667969</ele>
        <time>2017-02-26T09:01:10Z</time>
      </trkpt>
      <trkpt lat="45.31686" lon="6.20616">
        <ele>2351.4909667969</ele>
        <time>2017-02-26T09:01:15Z</time>
      </trkpt>
      <trkpt lat="45.31687" lon="6.20623">
        <ele>2351.4909667969</ele>
        <time>2017-02-26T09:01:21Z</time>
      </trkpt>
      <trkpt lat="45.31687" lon="6.20631">
        <ele>2354.4909667969</ele>
        <time>2017-02-26T09:01:26Z</time>
      </trkpt>
      <trkpt lat="45.31688" lon="6.20638">
        <ele>2353.4909667969</ele>
        <time>2017-02-26T09:01:30Z</time>
      </trkpt>
      <trkpt lat="45.31688" lon="6.20644">
        <ele>2352.4909667969</ele>
        <time>2017-02-26T09:01:37Z</time>
      </trkpt>
      <trkpt lat="45.31688" lon="6.20651">
        <ele>2357.4909667969</ele>
        <time>2017-02-26T09:02:35Z</time>
      </trkpt>
      <trkpt lat="45.31688" lon="6.20658">
        <ele>2361.4909667969</ele>
        <time>2017-02-26T09:02:44Z</time>
      </trkpt>
      <trkpt lat="45.31687" lon="6.20665">
        <ele>2368.4909667969</ele>
        <time>2017-02-26T09:02:54Z</time>
      </trkpt>
      <trkpt lat="45.31689" lon="6.20671">
        <ele>2368.4909667969</ele>
        <time>2017-02-26T09:03:30Z</time>
      </trkpt>
      <trkpt lat="45.3169" lon="6.20678">
        <ele>2371.4909667969</ele>
        <time>2017-02-26T09:03:47Z</time>
      </trkpt>
      <trkpt lat="45.31691" lon="6.20684">
        <ele>2375.4909667969</ele>
        <time>2017-02-26T09:04:22Z</time>
      </trkpt>
      <trkpt lat="45.31692" lon="6.20691">
        <ele>2385.4909667969</ele>
        <time>2017-02-26T09:04:49Z</time>
      </trkpt>
      <trkpt lat="45.3169" lon="6.20698">
        <ele>2388.4909667969</ele>
        <time>2017-02-26T09:04:58Z</time>
      </trkpt>
      <trkpt lat="45.31688" lon="6.20705">
        <ele>2389.4909667969</ele>
        <time>2017-02-26T09:05:11Z</time>
      </trkpt>
      <trkpt lat="45.31689" lon="6.20711">
        <ele>2393.4909667969</ele>
        <time>2017-02-26T09:07:06Z</time>
      </trkpt>
      <trkpt lat="45.31694" lon="6.20716">
        <ele>2391.4909667969</ele>
        <time>2017-02-26T09:07:10Z</time>
      </trkpt>
      <trkpt lat="45.31699" lon="6.20713">
        <ele>2388.4909667969</ele>
        <time>2017-02-26T09:07:17Z</time>
      </trkpt>
      <trkpt lat="45.31705" lon="6.20716">
        <ele>2381.4909667969</ele>
        <time>2017-02-26T09:07:27Z</time>
      </trkpt>
      <trkpt lat="45.31711" lon="6.20715">
        <ele>2378.4909667969</ele>
        <time>2017-02-26T09:07:29Z</time>
      </trkpt>
      <trkpt lat="45.31716" lon="6.20726">
        <ele>2374.4909667969</ele>
        <time>2017-02-26T09:07:31Z</time>
      </trkpt>
      <trkpt lat="45.31724" lon="6.20734">
        <ele>2372.4909667969</ele>
        <time>2017-02-26T09:07:33Z</time>
      </trkpt>
      <trkpt lat="45.3174" lon="6.20734">
        <ele>2366.4909667969</ele>
        <time>2017-02-26T09:07:36Z</time>
      </trkpt>
      <trkpt lat="45.31745" lon="6.20737">
        <ele>2364.4909667969</ele>
        <time>2017-02-26T09:07:37Z</time>
      </trkpt>
      <trkpt lat="45.31751" lon="6.2075">
        <ele>2353.4909667969</ele>
        <time>2017-02-26T09:07:42Z</time>
      </trkpt>
      <trkpt lat="45.31757" lon="6.20759">
        <ele>2347.4909667969</ele>
        <time>2017-02-26T09:07:45Z</time>
      </trkpt>
      <trkpt lat="45.31761" lon="6.20767">
        <ele>2345.4909667969</ele>
        <time>2017-02-26T09:07:47Z</time>
      </trkpt>
      <trkpt lat="45.31765" lon="6.2076">
        <ele>2342.4909667969</ele>
        <time>2017-02-26T09:07:49Z</time>
      </trkpt>
      <trkpt lat="45.3177" lon="6.20766">
        <ele>2337.4909667969</ele>
        <time>2017-02-26T09:07:51Z</time>
      </trkpt>
      <trkpt lat="45.31774" lon="6.20767">
        <ele>2334.4909667969</ele>
        <time>2017-02-26T09:07:54Z</time>
      </trkpt>
      <trkpt lat="45.31779" lon="6.20758">
        <ele>2330.4909667969</ele>
        <time>2017-02-26T09:07:56Z</time>
      </trkpt>
      <trkpt lat="45.31784" lon="6.20756">
        <ele>2325.4909667969</ele>
        <time>2017-02-26T09:07:59Z</time>
      </trkpt>
      <trkpt lat="45.31785" lon="6.20763">
        <ele>2319.4909667969</ele>
        <time>2017-02-26T09:08:02Z</time>
      </trkpt>
      <trkpt lat="45.31788" lon="6.20768">
        <ele>2317.4909667969</ele>
        <time>2017-02-26T09:08:04Z</time>
      </trkpt>
      <trkpt lat="45.31792" lon="6.2076">
        <ele>2316.4909667969</ele>
        <time>2017-02-26T09:08:05Z</time>
      </trkpt>
      <trkpt lat="45.31797" lon="6.2076">
        <ele>2315.4909667969</ele>
        <time>2017-02-26T09:08:06Z</time>
      </trkpt>
      <trkpt lat="45.31806" lon="6.20773">
        <ele>2307.4909667969</ele>
        <time>2017-02-26T09:08:09Z</time>
      </trkpt>
      <trkpt lat="45.31804" lon="6.20783">
        <ele>2305.4909667969</ele>
        <time>2017-02-26T09:08:11Z</time>
      </trkpt>
      <trkpt lat="45.31808" lon="6.2079">
        <ele>2303.4909667969</ele>
        <time>2017-02-26T09:08:13Z</time>
      </trkpt>
      <trkpt lat="45.31817" lon="6.20781">
        <ele>2302.4909667969</ele>
        <time>2017-02-26T09:08:15Z</time>
      </trkpt>
      <trkpt lat="45.31824" lon="6.20778">
        <ele>2295.4919433594</ele>
        <time>2017-02-26T09:08:17Z</time>
      </trkpt>
      <trkpt lat="45.31831" lon="6.20789">
        <ele>2291.4919433594</ele>
        <time>2017-02-26T09:08:19Z</time>
      </trkpt>
      <trkpt lat="45.31831" lon="6.20802">
        <ele>2290.4919433594</ele>
        <time>2017-02-26T09:08:21Z</time>
      </trkpt>
      <trkpt lat="45.31842" lon="6.208">
        <ele>2287.4919433594</ele>
        <time>2017-02-26T09:08:23Z</time>
      </trkpt>
      <trkpt lat="45.31847" lon="6.208">
        <ele>2275.4919433594</ele>
        <time>2017-02-26T09:08:27Z</time>
      </trkpt>
      <trkpt lat="45.31851" lon="6.20815">
        <ele>2272.4919433594</ele>
        <time>2017-02-26T09:08:29Z</time>
      </trkpt>
      <trkpt lat="45.31854" lon="6.2082">
        <ele>2270.4919433594</ele>
        <time>2017-02-26T09:08:31Z</time>
      </trkpt>
      <trkpt lat="45.31861" lon="6.20805">
        <ele>2271.4919433594</ele>
        <time>2017-02-26T09:08:34Z</time>
      </trkpt>
      <trkpt lat="45.31866" lon="6.20801">
        <ele>2269.4919433594</ele>
        <time>2017-02-26T09:08:36Z</time>
      </trkpt>
      <trkpt lat="45.31876" lon="6.20798">
        <ele>2266.4919433594</ele>
        <time>2017-02-26T09:08:38Z</time>
      </trkpt>
      <trkpt lat="45.31884" lon="6.20793">
        <ele>2262.4919433594</ele>
        <time>2017-02-26T09:08:39Z</time>
      </trkpt>
      <trkpt lat="45.31896" lon="6.20786">
        <ele>2255.4919433594</ele>
        <time>2017-02-26T09:08:41Z</time>
      </trkpt>
      <trkpt lat="45.31901" lon="6.20782">
        <ele>2251.4919433594</ele>
        <time>2017-02-26T09:08:42Z</time>
      </trkpt>
      <trkpt lat="45.31913" lon="6.20776">
        <ele>2246.4919433594</ele>
        <time>2017-02-26T09:08:44Z</time>
      </trkpt>
      <trkpt lat="45.31925" lon="6.20769">
        <ele>2242.4919433594</ele>
        <time>2017-02-26T09:08:46Z</time>
      </trkpt>
      <trkpt lat="45.31935" lon="6.20763">
        <ele>2237.4919433594</ele>
        <time>2017-02-26T09:08:48Z</time>
      </trkpt>
      <trkpt lat="45.31944" lon="6.2076">
        <ele>2233.4919433594</ele>
        <time>2017-02-26T09:08:50Z</time>
      </trkpt>
      <trkpt lat="45.31954" lon="6.20766">
        <ele>2231.4919433594</ele>
        <time>2017-02-26T09:08:52Z</time>
      </trkpt>
      <trkpt lat="45.31966" lon="6.20765">
        <ele>2230.4919433594</ele>
        <time>2017-02-26T09:08:54Z</time>
      </trkpt>
      <trkpt lat="45.31974" lon="6.20765">
        <ele>2226.4919433594</ele>
        <time>2017-02-26T09:08:56Z</time>
      </trkpt>
      <trkpt lat="45.31978" lon="6.20784">
        <ele>2221.4919433594</ele>
        <time>2017-02-26T09:08:58Z</time>
      </trkpt>
      <trkpt lat="45.31984" lon="6.20794">
        <ele>2216.4919433594</ele>
        <time>2017-02-26T09:09:00Z</time>
      </trkpt>
      <trkpt lat="45.31998" lon="6.20791">
        <ele>2211.4919433594</ele>
        <time>2017-02-26T09:09:02Z</time>
      </trkpt>
      <trkpt lat="45.32005" lon="6.20801">
        <ele>2206.4919433594</ele>
        <time>2017-02-26T09:09:04Z</time>
      </trkpt>
      <trkpt lat="45.32012" lon="6.20802">
        <ele>2203.4919433594</ele>
        <time>2017-02-26T09:09:05Z</time>
      </trkpt>
      <trkpt lat="45.32019" lon="6.20809">
        <ele>2197.4919433594</ele>
        <time>2017-02-26T09:09:07Z</time>
      </trkpt>
      <trkpt lat="45.32026" lon="6.20812">
        <ele>2192.4919433594</ele>
        <time>2017-02-26T09:09:09Z</time>
      </trkpt>
      <trkpt lat="45.32038" lon="6.2082">
        <ele>2187.4919433594</ele>
        <time>2017-02-26T09:09:12Z</time>
      </trkpt>
      <trkpt lat="45.32042" lon="6.20815">
        <ele>2179.4919433594</ele>
        <time>2017-02-26T09:09:18Z</time>
      </trkpt>
      <trkpt lat="45.32051" lon="6.20809">
        <ele>2172.4919433594</ele>
        <time>2017-02-26T09:09:20Z</time>
      </trkpt>
      <trkpt lat="45.32056" lon="6.20805">
        <ele>2170.4919433594</ele>
        <time>2017-02-26T09:09:21Z</time>
      </trkpt>
      <trkpt lat="45.32067" lon="6.20805">
        <ele>2164.4919433594</ele>
        <time>2017-02-26T09:09:23Z</time>
      </trkpt>
      <trkpt lat="45.32076" lon="6.20817">
        <ele>2160.4919433594</ele>
        <time>2017-02-26T09:09:25Z</time>
      </trkpt>
      <trkpt lat="45.32079" lon="6.20822">
        <ele>2160.4919433594</ele>
        <time>2017-02-26T09:09:26Z</time>
      </trkpt>
      <trkpt lat="45.32088" lon="6.2083">
        <ele>2157.4919433594</ele>
        <time>2017-02-26T09:09:27Z</time>
      </trkpt>
      <trkpt lat="45.32095" lon="6.20843">
        <ele>2149.4919433594</ele>
        <time>2017-02-26T09:09:29Z</time>
      </trkpt>
      <trkpt lat="45.32109" lon="6.20839">
        <ele>2142.4919433594</ele>
        <time>2017-02-26T09:09:31Z</time>
      </trkpt>
      <trkpt lat="45.3212" lon="6.20831">
        <ele>2138.4919433594</ele>
        <time>2017-02-26T09:09:33Z</time>
      </trkpt>
      <trkpt lat="45.3213" lon="6.20837">
        <ele>2135.4919433594</ele>
        <time>2017-02-26T09:09:35Z</time>
      </trkpt>
      <trkpt lat="45.32132" lon="6.20847">
        <ele>2126.4919433594</ele>
        <time>2017-02-26T09:09:37Z</time>
      </trkpt>
      <trkpt lat="45.32138" lon="6.2086">
        <ele>2121.4919433594</ele>
        <time>2017-02-26T09:09:39Z</time>
      </trkpt>
      <trkpt lat="45.32145" lon="6.20852">
        <ele>2118.4919433594</ele>
        <time>2017-02-26T09:09:41Z</time>
      </trkpt>
      <trkpt lat="45.32149" lon="6.2084">
        <ele>2115.4919433594</ele>
        <time>2017-02-26T09:09:43Z</time>
      </trkpt>
      <trkpt lat="45.32154" lon="6.20844">
        <ele>2106.4919433594</ele>
        <time>2017-02-26T09:09:48Z</time>
      </trkpt>
      <trkpt lat="45.3216" lon="6.20858">
        <ele>2099.4919433594</ele>
        <time>2017-02-26T09:09:50Z</time>
      </trkpt>
      <trkpt lat="45.3216" lon="6.20875">
        <ele>2091.4919433594</ele>
        <time>2017-02-26T09:09:53Z</time>
      </trkpt>
      <trkpt lat="45.32165" lon="6.20879">
        <ele>2086.4919433594</ele>
        <time>2017-02-26T09:09:54Z</time>
      </trkpt>
      <trkpt lat="45.32176" lon="6.20886">
        <ele>2082.4919433594</ele>
        <time>2017-02-26T09:09:56Z</time>
      </trkpt>
      <trkpt lat="45.32187" lon="6.2089">
        <ele>2077.4919433594</ele>
        <time>2017-02-26T09:09:58Z</time>
      </trkpt>
      <trkpt lat="45.3219" lon="6.20883">
        <ele>2073.4919433594</ele>
        <time>2017-02-26T09:10:01Z</time>
      </trkpt>
      <trkpt lat="45.32196" lon="6.20878">
        <ele>2069.4919433594</ele>
        <time>2017-02-26T09:10:04Z</time>
      </trkpt>
      <trkpt lat="45.32201" lon="6.20882">
        <ele>2068.4919433594</ele>
        <time>2017-02-26T09:10:06Z</time>
      </trkpt>
      <trkpt lat="45.32212" lon="6.20885">
        <ele>2062.4919433594</ele>
        <time>2017-02-26T09:10:08Z</time>
      </trkpt>
      <trkpt lat="45.32222" lon="6.2089">
        <ele>2058.4919433594</ele>
        <time>2017-02-26T09:10:10Z</time>
      </trkpt>
      <trkpt lat="45.32228" lon="6.20899">
        <ele>2057.4919433594</ele>
        <time>2017-02-26T09:10:11Z</time>
      </trkpt>
      <trkpt lat="45.32237" lon="6.20893">
        <ele>2053.4919433594</ele>
        <time>2017-02-26T09:10:13Z</time>
      </trkpt>
      <trkpt lat="45.32248" lon="6.20893">
        <ele>2049.4919433594</ele>
        <time>2017-02-26T09:10:15Z</time>
      </trkpt>
      <trkpt lat="45.32257" lon="6.20905">
        <ele>2046.4930419922</ele>
        <time>2017-02-26T09:10:17Z</time>
      </trkpt>
      <trkpt lat="45.32258" lon="6.20916">
        <ele>2038.4930419922</ele>
        <time>2017-02-26T09:10:19Z</time>
      </trkpt>
      <trkpt lat="45.32261" lon="6.20926">
        <ele>2033.4930419922</ele>
        <time>2017-02-26T09:10:22Z</time>
      </trkpt>
      <trkpt lat="45.32268" lon="6.20932">
        <ele>2029.4930419922</ele>
        <time>2017-02-26T09:10:24Z</time>
      </trkpt>
      <trkpt lat="45.32278" lon="6.20939">
        <ele>2025.4930419922</ele>
        <time>2017-02-26T09:10:26Z</time>
      </trkpt>
      <trkpt lat="45.32286" lon="6.20939">
        <ele>2026.4930419922</ele>
        <time>2017-02-26T09:10:27Z</time>
      </trkpt>
      <trkpt lat="45.32298" lon="6.20943">
        <ele>2021.4930419922</ele>
        <time>2017-02-26T09:10:29Z</time>
      </trkpt>
      <trkpt lat="45.32309" lon="6.20949">
        <ele>2016.4930419922</ele>
        <time>2017-02-26T09:10:31Z</time>
      </trkpt>
      <trkpt lat="45.32323" lon="6.20951">
        <ele>2009.4930419922</ele>
        <time>2017-02-26T09:10:33Z</time>
      </trkpt>
      <trkpt lat="45.32336" lon="6.20958">
        <ele>2003.4930419922</ele>
        <time>2017-02-26T09:10:35Z</time>
      </trkpt>
      <trkpt lat="45.32347" lon="6.20957">
        <ele>1999.4930419922</ele>
        <time>2017-02-26T09:10:37Z</time>
      </trkpt>
      <trkpt lat="45.32356" lon="6.20955">
        <ele>1990.4930419922</ele>
        <time>2017-02-26T09:10:42Z</time>
      </trkpt>
      <trkpt lat="45.32361" lon="6.20954">
        <ele>1987.4930419922</ele>
        <time>2017-02-26T09:11:01Z</time>
      </trkpt>
      <trkpt lat="45.32367" lon="6.20945">
        <ele>1981.4930419922</ele>
        <time>2017-02-26T09:11:04Z</time>
      </trkpt>
      <trkpt lat="45.32372" lon="6.20939">
        <ele>1980.4930419922</ele>
        <time>2017-02-26T09:11:05Z</time>
      </trkpt>
      <trkpt lat="45.32386" lon="6.20937">
        <ele>1974.4930419922</ele>
        <time>2017-02-26T09:11:07Z</time>
      </trkpt>
      <trkpt lat="45.32396" lon="6.20946">
        <ele>1970.4930419922</ele>
        <time>2017-02-26T09:11:09Z</time>
      </trkpt>
      <trkpt lat="45.32403" lon="6.20949">
        <ele>1967.4930419922</ele>
        <time>2017-02-26T09:11:11Z</time>
      </trkpt>
      <trkpt lat="45.32408" lon="6.20949">
        <ele>1965.4930419922</ele>
        <time>2017-02-26T09:11:12Z</time>
      </trkpt>
      <trkpt lat="45.32415" lon="6.20951">
        <ele>1963.4930419922</ele>
        <time>2017-02-26T09:11:13Z</time>
      </trkpt>
      <trkpt lat="45.32422" lon="6.20956">
        <ele>1958.4930419922</ele>
        <time>2017-02-26T09:11:15Z</time>
      </trkpt>
      <trkpt lat="45.32425" lon="6.20962">
        <ele>1955.4930419922</ele>
        <time>2017-02-26T09:11:16Z</time>
      </trkpt>
      <trkpt lat="45.32437" lon="6.2096">
        <ele>1948.4930419922</ele>
        <time>2017-02-26T09:11:18Z</time>
      </trkpt>
      <trkpt lat="45.32443" lon="6.2096">
        <ele>1945.4930419922</ele>
        <time>2017-02-26T09:11:19Z</time>
      </trkpt>
      <trkpt lat="45.32457" lon="6.20967">
        <ele>1942.4930419922</ele>
        <time>2017-02-26T09:11:21Z</time>
      </trkpt>
      <trkpt lat="45.32466" lon="6.20958">
        <ele>1935.4930419922</ele>
        <time>2017-02-26T09:11:24Z</time>
      </trkpt>
      <trkpt lat="45.32482" lon="6.20951">
        <ele>1929.4930419922</ele>
        <time>2017-02-26T09:11:27Z</time>
      </trkpt>
      <trkpt lat="45.32492" lon="6.20935">
        <ele>1927.4930419922</ele>
        <time>2017-02-26T09:11:29Z</time>
      </trkpt>
      <trkpt lat="45.325" lon="6.20917">
        <ele>1925.4930419922</ele>
        <time>2017-02-26T09:11:31Z</time>
      </trkpt>
      <trkpt lat="45.32508" lon="6.20896">
        <ele>1923.4930419922</ele>
        <time>2017-02-26T09:11:33Z</time>
      </trkpt>
      <trkpt lat="45.32516" lon="6.20874">
        <ele>1921.4930419922</ele>
        <time>2017-02-26T09:11:35Z</time>
      </trkpt>
      <trkpt lat="45.32527" lon="6.20852">
        <ele>1920.4930419922</ele>
        <time>2017-02-26T09:11:37Z</time>
      </trkpt>
      <trkpt lat="45.32532" lon="6.20829">
        <ele>1916.4930419922</ele>
        <time>2017-02-26T09:11:39Z</time>
      </trkpt>
      <trkpt lat="45.3254" lon="6.20813">
        <ele>1913.4930419922</ele>
        <time>2017-02-26T09:11:41Z</time>
      </trkpt>
      <trkpt lat="45.32556" lon="6.20812">
        <ele>1905.4930419922</ele>
        <time>2017-02-26T09:11:43Z</time>
      </trkpt>
      <trkpt lat="45.32573" lon="6.20809">
        <ele>1900.4930419922</ele>
        <time>2017-02-26T09:11:45Z</time>
      </trkpt>
      <trkpt lat="45.32589" lon="6.20807">
        <ele>1897.4930419922</ele>
        <time>2017-02-26T09:11:47Z</time>
      </trkpt>
      <trkpt lat="45.32595" lon="6.20804">
        <ele>1896.4930419922</ele>
        <time>2017-02-26T09:11:48Z</time>
      </trkpt>
      <trkpt lat="45.32603" lon="6.20795">
        <ele>1894.4930419922</ele>
        <time>2017-02-26T09:11:50Z</time>
      </trkpt>
      <trkpt lat="45.32606" lon="6.20787">
        <ele>1892.4930419922</ele>
        <time>2017-02-26T09:11:52Z</time>
      </trkpt>
      <trkpt lat="45.32609" lon="6.20781">
        <ele>1881.4930419922</ele>
        <time>2017-02-26T09:13:56Z</time>
      </trkpt>
      <trkpt lat="45.3261" lon="6.20774">
        <ele>1878.4930419922</ele>
        <time>2017-02-26T09:14:05Z</time>
      </trkpt>
      <trkpt lat="45.3261" lon="6.20766">
        <ele>1877.4930419922</ele>
        <time>2017-02-26T09:14:30Z</time>
      </trkpt>
      <trkpt lat="45.32611" lon="6.20759">
        <ele>1877.4930419922</ele>
        <time>2017-02-26T09:14:35Z</time>
      </trkpt>
      <trkpt lat="45.32612" lon="6.20752">
        <ele>1876.4930419922</ele>
        <time>2017-02-26T09:14:39Z</time>
      </trkpt>
      <trkpt lat="45.32614" lon="6.20746">
        <ele>1877.4930419922</ele>
        <time>2017-02-26T09:14:43Z</time>
      </trkpt>
      <trkpt lat="45.32616" lon="6.20738">
        <ele>1878.4930419922</ele>
        <time>2017-02-26T09:14:48Z</time>
      </trkpt>
      <trkpt lat="45.32617" lon="6.20731">
        <ele>1880.4930419922</ele>
        <time>2017-02-26T09:14:54Z</time>
      </trkpt>
      <trkpt lat="45.32617" lon="6.20723">
        <ele>1883.4930419922</ele>
        <time>2017-02-26T09:15:00Z</time>
      </trkpt>
      <trkpt lat="45.32616" lon="6.20716">
        <ele>1882.4930419922</ele>
        <time>2017-02-26T09:15:04Z</time>
      </trkpt>
      <trkpt lat="45.32618" lon="6.20709">
        <ele>1883.4930419922</ele>
        <time>2017-02-26T09:15:11Z</time>
      </trkpt>
      <trkpt lat="45.32622" lon="6.20704">
        <ele>1884.4930419922</ele>
        <time>2017-02-26T09:15:15Z</time>
      </trkpt>
      <trkpt lat="45.32624" lon="6.20698">
        <ele>1889.4930419922</ele>
        <time>2017-02-26T09:15:19Z</time>
      </trkpt>
      <trkpt lat="45.32627" lon="6.20691">
        <ele>1887.4930419922</ele>
        <time>2017-02-26T09:15:24Z</time>
      </trkpt>
      <trkpt lat="45.32629" lon="6.20686">
        <ele>1889.4930419922</ele>
        <time>2017-02-26T09:15:30Z</time>
      </trkpt>
      <trkpt lat="45.3263" lon="6.20678">
        <ele>1888.4930419922</ele>
        <time>2017-02-26T09:15:35Z</time>
      </trkpt>
      <trkpt lat="45.3263" lon="6.20672">
        <ele>1887.4930419922</ele>
        <time>2017-02-26T09:15:44Z</time>
      </trkpt>
      <trkpt lat="45.32631" lon="6.20665">
        <ele>1887.4930419922</ele>
        <time>2017-02-26T09:15:53Z</time>
      </trkpt>
      <trkpt lat="45.32631" lon="6.20659">
        <ele>1885.4930419922</ele>
        <time>2017-02-26T09:15:59Z</time>
      </trkpt>
      <trkpt lat="45.32632" lon="6.20651">
        <ele>1886.4930419922</ele>
        <time>2017-02-26T09:16:04Z</time>
      </trkpt>
      <trkpt lat="45.32632" lon="6.20645">
        <ele>1886.4930419922</ele>
        <time>2017-02-26T09:16:09Z</time>
      </trkpt>
      <trkpt lat="45.32633" lon="6.20636">
        <ele>1885.4930419922</ele>
        <time>2017-02-26T09:16:14Z</time>
      </trkpt>
      <trkpt lat="45.32633" lon="6.20628">
        <ele>1882.4930419922</ele>
        <time>2017-02-26T09:16:19Z</time>
      </trkpt>
      <trkpt lat="45.32631" lon="6.20621">
        <ele>1879.4930419922</ele>
        <time>2017-02-26T09:16:21Z</time>
      </trkpt>
      <trkpt lat="45.32631" lon="6.20615">
        <ele>1877.4930419922</ele>
        <time>2017-02-26T09:16:27Z</time>
      </trkpt>
      <trkpt lat="45.32632" lon="6.20608">
        <ele>1878.4930419922</ele>
        <time>2017-02-26T09:16:31Z</time>
      </trkpt>
      <trkpt lat="45.32632" lon="6.206">
        <ele>1881.4930419922</ele>
        <time>2017-02-26T09:16:38Z</time>
      </trkpt>
      <trkpt lat="45.32637" lon="6.20596">
        <ele>1884.4930419922</ele>
        <time>2017-02-26T09:16:46Z</time>
      </trkpt>
      <trkpt lat="45.32639" lon="6.20589">
        <ele>1885.4930419922</ele>
        <time>2017-02-26T09:16:50Z</time>
      </trkpt>
      <trkpt lat="45.3264" lon="6.20581">
        <ele>1887.4930419922</ele>
        <time>2017-02-26T09:16:53Z</time>
      </trkpt>
      <trkpt lat="45.32641" lon="6.20574">
        <ele>1890.4930419922</ele>
        <time>2017-02-26T09:16:57Z</time>
      </trkpt>
      <trkpt lat="45.32643" lon="6.20566">
        <ele>1889.4930419922</ele>
        <time>2017-02-26T09:17:01Z</time>
      </trkpt>
      <trkpt lat="45.32646" lon="6.20559">
        <ele>1888.4930419922</ele>
        <time>2017-02-26T09:17:05Z</time>
      </trkpt>
      <trkpt lat="45.32647" lon="6.20552">
        <ele>1891.4930419922</ele>
        <time>2017-02-26T09:17:10Z</time>
      </trkpt>
      <trkpt lat="45.32648" lon="6.20544">
        <ele>1891.4930419922</ele>
        <time>2017-02-26T09:17:14Z</time>
      </trkpt>
      <trkpt lat="45.32649" lon="6.20538">
        <ele>1893.4930419922</ele>
        <time>2017-02-26T09:17:17Z</time>
      </trkpt>
      <trkpt lat="45.3265" lon="6.20529">
        <ele>1893.4930419922</ele>
        <time>2017-02-26T09:17:21Z</time>
      </trkpt>
      <trkpt lat="45.32651" lon="6.20522">
        <ele>1894.4930419922</ele>
        <time>2017-02-26T09:17:24Z</time>
      </trkpt>
      <trkpt lat="45.32653" lon="6.20515">
        <ele>1894.4930419922</ele>
        <time>2017-02-26T09:17:27Z</time>
      </trkpt>
      <trkpt lat="45.32655" lon="6.20509">
        <ele>1893.4930419922</ele>
        <time>2017-02-26T09:17:30Z</time>
      </trkpt>
      <trkpt lat="45.32656" lon="6.20501">
        <ele>1894.4930419922</ele>
        <time>2017-02-26T09:17:33Z</time>
      </trkpt>
      <trkpt lat="45.32657" lon="6.20494">
        <ele>1892.4930419922</ele>
        <time>2017-02-26T09:17:36Z</time>
      </trkpt>
      <trkpt lat="45.32658" lon="6.20487">
        <ele>1893.4930419922</ele>
        <time>2017-02-26T09:17:39Z</time>
      </trkpt>
      <trkpt lat="45.3266" lon="6.2048">
        <ele>1893.4930419922</ele>
        <time>2017-02-26T09:17:42Z</time>
      </trkpt>
      <trkpt lat="45.3266" lon="6.20474">
        <ele>1892.4930419922</ele>
        <time>2017-02-26T09:17:45Z</time>
      </trkpt>
      <trkpt lat="45.32663" lon="6.20466">
        <ele>1892.4930419922</ele>
        <time>2017-02-26T09:17:48Z</time>
      </trkpt>
      <trkpt lat="45.32664" lon="6.20459">
        <ele>1894.4930419922</ele>
        <time>2017-02-26T09:17:52Z</time>
      </trkpt>
      <trkpt lat="45.32667" lon="6.20453">
        <ele>1896.4930419922</ele>
        <time>2017-02-26T09:17:56Z</time>
      </trkpt>
      <trkpt lat="45.32667" lon="6.20444">
        <ele>1895.4930419922</ele>
        <time>2017-02-26T09:18:00Z</time>
      </trkpt>
      <trkpt lat="45.32668" lon="6.20438">
        <ele>1895.4930419922</ele>
        <time>2017-02-26T09:18:03Z</time>
      </trkpt>
      <trkpt lat="45.3267" lon="6.20431">
        <ele>1895.4930419922</ele>
        <time>2017-02-26T09:18:06Z</time>
      </trkpt>
      <trkpt lat="45.32672" lon="6.20425">
        <ele>1896.4930419922</ele>
        <time>2017-02-26T09:18:09Z</time>
      </trkpt>
      <trkpt lat="45.32674" lon="6.20417">
        <ele>1898.4930419922</ele>
        <time>2017-02-26T09:18:13Z</time>
      </trkpt>
      <trkpt lat="45.32676" lon="6.2041">
        <ele>1898.4930419922</ele>
        <time>2017-02-26T09:18:16Z</time>
      </trkpt>
      <trkpt lat="45.32676" lon="6.20404">
        <ele>1897.4930419922</ele>
        <time>2017-02-26T09:18:19Z</time>
      </trkpt>
      <trkpt lat="45.32677" lon="6.20396">
        <ele>1896.4930419922</ele>
        <time>2017-02-26T09:18:23Z</time>
      </trkpt>
      <trkpt lat="45.32678" lon="6.2039">
        <ele>1895.4930419922</ele>
        <time>2017-02-26T09:18:26Z</time>
      </trkpt>
      <trkpt lat="45.3268" lon="6.20383">
        <ele>1900.4930419922</ele>
        <time>2017-02-26T09:18:29Z</time>
      </trkpt>
      <trkpt lat="45.32681" lon="6.20376">
        <ele>1900.4930419922</ele>
        <time>2017-02-26T09:18:33Z</time>
      </trkpt>
      <trkpt lat="45.32683" lon="6.20368">
        <ele>1903.4930419922</ele>
        <time>2017-02-26T09:18:36Z</time>
      </trkpt>
      <trkpt lat="45.32682" lon="6.20361">
        <ele>1904.4930419922</ele>
        <time>2017-02-26T09:18:39Z</time>
      </trkpt>
      <trkpt lat="45.32684" lon="6.20356">
        <ele>1903.4930419922</ele>
        <time>2017-02-26T09:18:43Z</time>
      </trkpt>
      <trkpt lat="45.32687" lon="6.20351">
        <ele>1905.4930419922</ele>
        <time>2017-02-26T09:18:46Z</time>
      </trkpt>
      <trkpt lat="45.32691" lon="6.20345">
        <ele>1904.4930419922</ele>
        <time>2017-02-26T09:18:49Z</time>
      </trkpt>
      <trkpt lat="45.32694" lon="6.20339">
        <ele>1903.4930419922</ele>
        <time>2017-02-26T09:18:52Z</time>
      </trkpt>
      <trkpt lat="45.32698" lon="6.20335">
        <ele>1908.4930419922</ele>
        <time>2017-02-26T09:18:57Z</time>
      </trkpt>
      <trkpt lat="45.327" lon="6.20328">
        <ele>1908.4930419922</ele>
        <time>2017-02-26T09:19:02Z</time>
      </trkpt>
      <trkpt lat="45.32701" lon="6.20319">
        <ele>1908.4930419922</ele>
        <time>2017-02-26T09:19:06Z</time>
      </trkpt>
      <trkpt lat="45.32703" lon="6.20312">
        <ele>1909.4930419922</ele>
        <time>2017-02-26T09:19:09Z</time>
      </trkpt>
      <trkpt lat="45.32705" lon="6.20304">
        <ele>1909.4930419922</ele>
        <time>2017-02-26T09:19:12Z</time>
      </trkpt>
      <trkpt lat="45.32708" lon="6.20298">
        <ele>1913.4930419922</ele>
        <time>2017-02-26T09:19:17Z</time>
      </trkpt>
      <trkpt lat="45.3271" lon="6.2029">
        <ele>1913.4930419922</ele>
        <time>2017-02-26T09:19:21Z</time>
      </trkpt>
      <trkpt lat="45.32712" lon="6.20283">
        <ele>1915.4930419922</ele>
        <time>2017-02-26T09:19:24Z</time>
      </trkpt>
      <trkpt lat="45.32713" lon="6.20277">
        <ele>1915.4930419922</ele>
        <time>2017-02-26T09:19:27Z</time>
      </trkpt>
      <trkpt lat="45.32715" lon="6.20268">
        <ele>1915.4930419922</ele>
        <time>2017-02-26T09:19:30Z</time>
      </trkpt>
      <trkpt lat="45.32716" lon="6.20258">
        <ele>1914.4930419922</ele>
        <time>2017-02-26T09:19:33Z</time>
      </trkpt>
      <trkpt lat="45.32719" lon="6.20249">
        <ele>1914.4919433594</ele>
        <time>2017-02-26T09:19:36Z</time>
      </trkpt>
      <trkpt lat="45.3272" lon="6.2024">
        <ele>1914.4919433594</ele>
        <time>2017-02-26T09:19:39Z</time>
      </trkpt>
      <trkpt lat="45.32722" lon="6.20231">
        <ele>1915.4919433594</ele>
        <time>2017-02-26T09:19:42Z</time>
      </trkpt>
      <trkpt lat="45.32723" lon="6.20224">
        <ele>1914.4919433594</ele>
        <time>2017-02-26T09:19:45Z</time>
      </trkpt>
      <trkpt lat="45.32724" lon="6.20217">
        <ele>1914.4919433594</ele>
        <time>2017-02-26T09:19:47Z</time>
      </trkpt>
      <trkpt lat="45.32725" lon="6.20211">
        <ele>1918.4919433594</ele>
        <time>2017-02-26T09:19:50Z</time>
      </trkpt>
      <trkpt lat="45.32728" lon="6.20202">
        <ele>1916.4919433594</ele>
        <time>2017-02-26T09:19:53Z</time>
      </trkpt>
      <trkpt lat="45.32729" lon="6.20193">
        <ele>1918.4919433594</ele>
        <time>2017-02-26T09:19:56Z</time>
      </trkpt>
      <trkpt lat="45.32728" lon="6.20185">
        <ele>1916.4919433594</ele>
        <time>2017-02-26T09:19:59Z</time>
      </trkpt>
      <trkpt lat="45.32729" lon="6.20177">
        <ele>1916.4919433594</ele>
        <time>2017-02-26T09:20:02Z</time>
      </trkpt>
      <trkpt lat="45.32731" lon="6.20169">
        <ele>1916.4919433594</ele>
        <time>2017-02-26T09:20:05Z</time>
      </trkpt>
      <trkpt lat="45.32731" lon="6.2016">
        <ele>1915.4919433594</ele>
        <time>2017-02-26T09:20:09Z</time>
      </trkpt>
      <trkpt lat="45.32733" lon="6.20152">
        <ele>1915.4919433594</ele>
        <time>2017-02-26T09:20:13Z</time>
      </trkpt>
      <trkpt lat="45.32734" lon="6.20145">
        <ele>1913.4919433594</ele>
        <time>2017-02-26T09:20:17Z</time>
      </trkpt>
      <trkpt lat="45.32736" lon="6.20138">
        <ele>1911.4919433594</ele>
        <time>2017-02-26T09:20:21Z</time>
      </trkpt>
      <trkpt lat="45.32738" lon="6.20131">
        <ele>1913.4919433594</ele>
        <time>2017-02-26T09:20:26Z</time>
      </trkpt>
      <trkpt lat="45.32737" lon="6.20124">
        <ele>1914.4919433594</ele>
        <time>2017-02-26T09:20:31Z</time>
      </trkpt>
      <trkpt lat="45.32741" lon="6.20118">
        <ele>1920.4919433594</ele>
        <time>2017-02-26T09:20:37Z</time>
      </trkpt>
      <trkpt lat="45.32745" lon="6.20115">
        <ele>1926.4919433594</ele>
        <time>2017-02-26T09:20:41Z</time>
      </trkpt>
      <trkpt lat="45.32745" lon="6.20108">
        <ele>1926.4919433594</ele>
        <time>2017-02-26T09:20:44Z</time>
      </trkpt>
      <trkpt lat="45.32751" lon="6.20101">
        <ele>1926.4919433594</ele>
        <time>2017-02-26T09:20:47Z</time>
      </trkpt>
      <trkpt lat="45.3275" lon="6.20094">
        <ele>1925.4919433594</ele>
        <time>2017-02-26T09:20:51Z</time>
      </trkpt>
      <trkpt lat="45.3275" lon="6.20088">
        <ele>1926.4919433594</ele>
        <time>2017-02-26T09:20:54Z</time>
      </trkpt>
      <trkpt lat="45.32751" lon="6.2008">
        <ele>1926.4919433594</ele>
        <time>2017-02-26T09:20:57Z</time>
      </trkpt>
      <trkpt lat="45.32751" lon="6.20072">
        <ele>1924.4919433594</ele>
        <time>2017-02-26T09:21:01Z</time>
      </trkpt>
      <trkpt lat="45.32751" lon="6.20064">
        <ele>1926.4919433594</ele>
        <time>2017-02-26T09:21:05Z</time>
      </trkpt>
      <trkpt lat="45.32752" lon="6.20057">
        <ele>1926.4919433594</ele>
        <time>2017-02-26T09:21:09Z</time>
      </trkpt>
      <trkpt lat="45.32752" lon="6.2005">
        <ele>1925.4919433594</ele>
        <time>2017-02-26T09:21:12Z</time>
      </trkpt>
      <trkpt lat="45.32754" lon="6.20042">
        <ele>1926.4919433594</ele>
        <time>2017-02-26T09:21:16Z</time>
      </trkpt>
      <trkpt lat="45.32754" lon="6.20036">
        <ele>1924.4919433594</ele>
        <time>2017-02-26T09:21:20Z</time>
      </trkpt>
      <trkpt lat="45.32756" lon="6.20028">
        <ele>1923.4919433594</ele>
        <time>2017-02-26T09:21:24Z</time>
      </trkpt>
      <trkpt lat="45.32757" lon="6.20022">
        <ele>1924.4919433594</ele>
        <time>2017-02-26T09:21:28Z</time>
      </trkpt>
      <trkpt lat="45.32758" lon="6.20013">
        <ele>1923.4919433594</ele>
        <time>2017-02-26T09:21:33Z</time>
      </trkpt>
      <trkpt lat="45.32759" lon="6.20007">
        <ele>1923.4919433594</ele>
        <time>2017-02-26T09:21:37Z</time>
      </trkpt>
      <trkpt lat="45.32761" lon="6.20001">
        <ele>1927.4919433594</ele>
        <time>2017-02-26T09:21:42Z</time>
      </trkpt>
      <trkpt lat="45.32762" lon="6.19994">
        <ele>1929.4919433594</ele>
        <time>2017-02-26T09:21:47Z</time>
      </trkpt>
      <trkpt lat="45.32765" lon="6.19986">
        <ele>1929.4919433594</ele>
        <time>2017-02-26T09:21:51Z</time>
      </trkpt>
      <trkpt lat="45.32768" lon="6.19981">
        <ele>1933.4919433594</ele>
        <time>2017-02-26T09:22:00Z</time>
      </trkpt>
      <trkpt lat="45.3277" lon="6.19973">
        <ele>1932.4919433594</ele>
        <time>2017-02-26T09:22:04Z</time>
      </trkpt>
      <trkpt lat="45.32771" lon="6.19965">
        <ele>1933.4919433594</ele>
        <time>2017-02-26T09:22:08Z</time>
      </trkpt>
      <trkpt lat="45.32772" lon="6.19958">
        <ele>1934.4919433594</ele>
        <time>2017-02-26T09:22:12Z</time>
      </trkpt>
      <trkpt lat="45.32773" lon="6.1995">
        <ele>1935.4919433594</ele>
        <time>2017-02-26T09:22:16Z</time>
      </trkpt>
      <trkpt lat="45.32773" lon="6.19942">
        <ele>1930.4919433594</ele>
        <time>2017-02-26T09:22:20Z</time>
      </trkpt>
      <trkpt lat="45.32773" lon="6.19935">
        <ele>1929.4919433594</ele>
        <time>2017-02-26T09:22:24Z</time>
      </trkpt>
      <trkpt lat="45.32773" lon="6.19927">
        <ele>1929.4919433594</ele>
        <time>2017-02-26T09:22:28Z</time>
      </trkpt>
      <trkpt lat="45.32775" lon="6.1992">
        <ele>1931.4919433594</ele>
        <time>2017-02-26T09:22:31Z</time>
      </trkpt>
      <trkpt lat="45.32775" lon="6.19913">
        <ele>1932.4919433594</ele>
        <time>2017-02-26T09:22:35Z</time>
      </trkpt>
      <trkpt lat="45.32774" lon="6.19906">
        <ele>1931.4919433594</ele>
        <time>2017-02-26T09:22:39Z</time>
      </trkpt>
      <trkpt lat="45.32774" lon="6.19899">
        <ele>1932.4919433594</ele>
        <time>2017-02-26T09:22:43Z</time>
      </trkpt>
      <trkpt lat="45.32774" lon="6.19892">
        <ele>1933.4919433594</ele>
        <time>2017-02-26T09:22:47Z</time>
      </trkpt>
      <trkpt lat="45.32774" lon="6.19885">
        <ele>1928.4919433594</ele>
        <time>2017-02-26T09:22:51Z</time>
      </trkpt>
      <trkpt lat="45.32775" lon="6.19877">
        <ele>1932.4919433594</ele>
        <time>2017-02-26T09:23:00Z</time>
      </trkpt>
      <trkpt lat="45.32774" lon="6.19869">
        <ele>1933.4919433594</ele>
        <time>2017-02-26T09:23:05Z</time>
      </trkpt>
      <trkpt lat="45.32777" lon="6.19863">
        <ele>1937.4919433594</ele>
        <time>2017-02-26T09:23:10Z</time>
      </trkpt>
      <trkpt lat="45.32779" lon="6.19858">
        <ele>1942.4919433594</ele>
        <time>2017-02-26T09:23:15Z</time>
      </trkpt>
      <trkpt lat="45.32782" lon="6.19851">
        <ele>1943.4919433594</ele>
        <time>2017-02-26T09:23:35Z</time>
      </trkpt>
      <trkpt lat="45.32783" lon="6.19845">
        <ele>1946.4919433594</ele>
        <time>2017-02-26T09:23:38Z</time>
      </trkpt>
      <trkpt lat="45.32781" lon="6.19839">
        <ele>1944.4919433594</ele>
        <time>2017-02-26T09:23:43Z</time>
      </trkpt>
      <trkpt lat="45.32782" lon="6.19831">
        <ele>1945.4919433594</ele>
        <time>2017-02-26T09:23:48Z</time>
      </trkpt>
      <trkpt lat="45.32783" lon="6.19825">
        <ele>1941.4919433594</ele>
        <time>2017-02-26T09:23:53Z</time>
      </trkpt>
      <trkpt lat="45.32786" lon="6.1982">
        <ele>1945.4919433594</ele>
        <time>2017-02-26T09:23:58Z</time>
      </trkpt>
      <trkpt lat="45.3279" lon="6.19813">
        <ele>1947.4919433594</ele>
        <time>2017-02-26T09:24:02Z</time>
      </trkpt>
      <trkpt lat="45.32791" lon="6.19806">
        <ele>1947.4919433594</ele>
        <time>2017-02-26T09:24:07Z</time>
      </trkpt>
      <trkpt lat="45.32793" lon="6.19798">
        <ele>1949.4919433594</ele>
        <time>2017-02-26T09:24:12Z</time>
      </trkpt>
      <trkpt lat="45.32797" lon="6.19793">
        <ele>1952.4919433594</ele>
        <time>2017-02-26T09:24:18Z</time>
      </trkpt>
      <trkpt lat="45.32798" lon="6.19786">
        <ele>1956.4919433594</ele>
        <time>2017-02-26T09:24:22Z</time>
      </trkpt>
      <trkpt lat="45.32799" lon="6.1978">
        <ele>1956.4919433594</ele>
        <time>2017-02-26T09:24:25Z</time>
      </trkpt>
      <trkpt lat="45.328" lon="6.19772">
        <ele>1956.4919433594</ele>
        <time>2017-02-26T09:24:31Z</time>
      </trkpt>
      <trkpt lat="45.32801" lon="6.19765">
        <ele>1956.4919433594</ele>
        <time>2017-02-26T09:24:35Z</time>
      </trkpt>
      <trkpt lat="45.32804" lon="6.19759">
        <ele>1956.4919433594</ele>
        <time>2017-02-26T09:24:39Z</time>
      </trkpt>
      <trkpt lat="45.32805" lon="6.19752">
        <ele>1954.4919433594</ele>
        <time>2017-02-26T09:24:43Z</time>
      </trkpt>
      <trkpt lat="45.32806" lon="6.19746">
        <ele>1954.4919433594</ele>
        <time>2017-02-26T09:24:48Z</time>
      </trkpt>
      <trkpt lat="45.32808" lon="6.1974">
        <ele>1957.4919433594</ele>
        <time>2017-02-26T09:24:51Z</time>
      </trkpt>
      <trkpt lat="45.32807" lon="6.19733">
        <ele>1957.4919433594</ele>
        <time>2017-02-26T09:24:54Z</time>
      </trkpt>
      <trkpt lat="45.32807" lon="6.19726">
        <ele>1958.4919433594</ele>
        <time>2017-02-26T09:24:58Z</time>
      </trkpt>
      <trkpt lat="45.32808" lon="6.19719">
        <ele>1960.4919433594</ele>
        <time>2017-02-26T09:25:04Z</time>
      </trkpt>
      <trkpt lat="45.32808" lon="6.19711">
        <ele>1963.4919433594</ele>
        <time>2017-02-26T09:25:08Z</time>
      </trkpt>
      <trkpt lat="45.32807" lon="6.19703">
        <ele>1961.4919433594</ele>
        <time>2017-02-26T09:25:15Z</time>
      </trkpt>
      <trkpt lat="45.32805" lon="6.19696">
        <ele>1963.4919433594</ele>
        <time>2017-02-26T09:25:21Z</time>
      </trkpt>
      <trkpt lat="45.32804" lon="6.19689">
        <ele>1962.4919433594</ele>
        <time>2017-02-26T09:25:26Z</time>
      </trkpt>
      <trkpt lat="45.32801" lon="6.19683">
        <ele>1958.4919433594</ele>
        <time>2017-02-26T09:26:20Z</time>
      </trkpt>
      <trkpt lat="45.32799" lon="6.19676">
        <ele>1962.4919433594</ele>
        <time>2017-02-26T09:26:25Z</time>
      </trkpt>
      <trkpt lat="45.32796" lon="6.1967">
        <ele>1959.4919433594</ele>
        <time>2017-02-26T09:26:31Z</time>
      </trkpt>
      <trkpt lat="45.32795" lon="6.19664">
        <ele>1960.4919433594</ele>
        <time>2017-02-26T09:26:34Z</time>
      </trkpt>
      <trkpt lat="45.32793" lon="6.19657">
        <ele>1963.4919433594</ele>
        <time>2017-02-26T09:26:39Z</time>
      </trkpt>
      <trkpt lat="45.32793" lon="6.19649">
        <ele>1966.4919433594</ele>
        <time>2017-02-26T09:26:45Z</time>
      </trkpt>
      <trkpt lat="45.32796" lon="6.19644">
        <ele>1974.4919433594</ele>
        <time>2017-02-26T09:26:50Z</time>
      </trkpt>
      <trkpt lat="45.328" lon="6.19639">
        <ele>1974.4919433594</ele>
        <time>2017-02-26T09:26:54Z</time>
      </trkpt>
      <trkpt lat="45.32803" lon="6.19634">
        <ele>1974.4919433594</ele>
        <time>2017-02-26T09:26:58Z</time>
      </trkpt>
      <trkpt lat="45.32807" lon="6.19629">
        <ele>1974.4919433594</ele>
        <time>2017-02-26T09:27:03Z</time>
      </trkpt>
      <trkpt lat="45.32811" lon="6.19623">
        <ele>1974.4919433594</ele>
        <time>2017-02-26T09:27:07Z</time>
      </trkpt>
      <trkpt lat="45.32816" lon="6.1962">
        <ele>1976.4919433594</ele>
        <time>2017-02-26T09:27:10Z</time>
      </trkpt>
      <trkpt lat="45.3282" lon="6.19618">
        <ele>1976.4919433594</ele>
        <time>2017-02-26T09:27:14Z</time>
      </trkpt>
      <trkpt lat="45.32826" lon="6.19617">
        <ele>1974.4919433594</ele>
        <time>2017-02-26T09:27:19Z</time>
      </trkpt>
      <trkpt lat="45.3283" lon="6.19617">
        <ele>1975.4919433594</ele>
        <time>2017-02-26T09:27:22Z</time>
      </trkpt>
      <trkpt lat="45.32836" lon="6.19618">
        <ele>1977.4919433594</ele>
        <time>2017-02-26T09:27:26Z</time>
      </trkpt>
      <trkpt lat="45.3284" lon="6.19621">
        <ele>1976.4919433594</ele>
        <time>2017-02-26T09:27:32Z</time>
      </trkpt>
      <trkpt lat="45.32844" lon="6.19624">
        <ele>1978.4919433594</ele>
        <time>2017-02-26T09:27:35Z</time>
      </trkpt>
      <trkpt lat="45.32849" lon="6.19627">
        <ele>1979.4919433594</ele>
        <time>2017-02-26T09:27:40Z</time>
      </trkpt>
      <trkpt lat="45.32854" lon="6.19632">
        <ele>1977.4919433594</ele>
        <time>2017-02-26T09:27:46Z</time>
      </trkpt>
      <trkpt lat="45.32858" lon="6.19638">
        <ele>1976.4919433594</ele>
        <time>2017-02-26T09:27:53Z</time>
      </trkpt>
      <trkpt lat="45.32862" lon="6.19642">
        <ele>1975.4919433594</ele>
        <time>2017-02-26T09:27:58Z</time>
      </trkpt>
      <trkpt lat="45.32866" lon="6.19646">
        <ele>1974.4919433594</ele>
        <time>2017-02-26T09:28:03Z</time>
      </trkpt>
      <trkpt lat="45.3287" lon="6.1965">
        <ele>1979.4919433594</ele>
        <time>2017-02-26T09:28:13Z</time>
      </trkpt>
      <trkpt lat="45.32875" lon="6.19654">
        <ele>1982.4919433594</ele>
        <time>2017-02-26T09:28:18Z</time>
      </trkpt>
      <trkpt lat="45.32879" lon="6.19657">
        <ele>1983.4919433594</ele>
        <time>2017-02-26T09:28:24Z</time>
      </trkpt>
      <trkpt lat="45.32884" lon="6.19657">
        <ele>1985.4919433594</ele>
        <time>2017-02-26T09:28:29Z</time>
      </trkpt>
      <trkpt lat="45.32888" lon="6.19653">
        <ele>1987.4919433594</ele>
        <time>2017-02-26T09:28:36Z</time>
      </trkpt>
      <trkpt lat="45.32892" lon="6.19647">
        <ele>1990.4919433594</ele>
        <time>2017-02-26T09:28:43Z</time>
      </trkpt>
      <trkpt lat="45.32895" lon="6.19642">
        <ele>1992.4919433594</ele>
        <time>2017-02-26T09:28:49Z</time>
      </trkpt>
      <trkpt lat="45.329" lon="6.1964">
        <ele>1993.4919433594</ele>
        <time>2017-02-26T09:28:53Z</time>
      </trkpt>
      <trkpt lat="45.32905" lon="6.19636">
        <ele>2000.4919433594</ele>
        <time>2017-02-26T09:29:03Z</time>
      </trkpt>
      <trkpt lat="45.32911" lon="6.19633">
        <ele>2001.4919433594</ele>
        <time>2017-02-26T09:29:08Z</time>
      </trkpt>
      <trkpt lat="45.32916" lon="6.19631">
        <ele>2002.4919433594</ele>
        <time>2017-02-26T09:29:12Z</time>
      </trkpt>
      <trkpt lat="45.32921" lon="6.19629">
        <ele>2004.4919433594</ele>
        <time>2017-02-26T09:29:16Z</time>
      </trkpt>
      <trkpt lat="45.32925" lon="6.19627">
        <ele>2004.4919433594</ele>
        <time>2017-02-26T09:29:20Z</time>
      </trkpt>
      <trkpt lat="45.3293" lon="6.19625">
        <ele>2008.4919433594</ele>
        <time>2017-02-26T09:29:23Z</time>
      </trkpt>
      <trkpt lat="45.32934" lon="6.19621">
        <ele>2008.4919433594</ele>
        <time>2017-02-26T09:29:26Z</time>
      </trkpt>
      <trkpt lat="45.32938" lon="6.19615">
        <ele>2006.4919433594</ele>
        <time>2017-02-26T09:29:32Z</time>
      </trkpt>
      <trkpt lat="45.32941" lon="6.1961">
        <ele>2007.4919433594</ele>
        <time>2017-02-26T09:29:36Z</time>
      </trkpt>
      <trkpt lat="45.32944" lon="6.19605">
        <ele>2007.4919433594</ele>
        <time>2017-02-26T09:29:40Z</time>
      </trkpt>
      <trkpt lat="45.32948" lon="6.19602">
        <ele>2005.4919433594</ele>
        <time>2017-02-26T09:29:44Z</time>
      </trkpt>
      <trkpt lat="45.32952" lon="6.19598">
        <ele>2005.4919433594</ele>
        <time>2017-02-26T09:29:48Z</time>
      </trkpt>
      <trkpt lat="45.32955" lon="6.19594">
        <ele>2006.4919433594</ele>
        <time>2017-02-26T09:29:52Z</time>
      </trkpt>
      <trkpt lat="45.3296" lon="6.1959">
        <ele>2007.4919433594</ele>
        <time>2017-02-26T09:29:58Z</time>
      </trkpt>
      <trkpt lat="45.32965" lon="6.19591">
        <ele>2007.4919433594</ele>
        <time>2017-02-26T09:30:04Z</time>
      </trkpt>
      <trkpt lat="45.32967" lon="6.19585">
        <ele>2011.4919433594</ele>
        <time>2017-02-26T09:30:14Z</time>
      </trkpt>
      <trkpt lat="45.32967" lon="6.19578">
        <ele>2014.4919433594</ele>
        <time>2017-02-26T09:30:22Z</time>
      </trkpt>
      <trkpt lat="45.32968" lon="6.19572">
        <ele>2013.4919433594</ele>
        <time>2017-02-26T09:30:27Z</time>
      </trkpt>
      <trkpt lat="45.3297" lon="6.19565">
        <ele>2020.4919433594</ele>
        <time>2017-02-26T09:30:34Z</time>
      </trkpt>
      <trkpt lat="45.32972" lon="6.19558">
        <ele>2018.4919433594</ele>
        <time>2017-02-26T09:30:40Z</time>
      </trkpt>
      <trkpt lat="45.32973" lon="6.19551">
        <ele>2022.4919433594</ele>
        <time>2017-02-26T09:30:46Z</time>
      </trkpt>
      <trkpt lat="45.32974" lon="6.19544">
        <ele>2022.4919433594</ele>
        <time>2017-02-26T09:30:53Z</time>
      </trkpt>
      <trkpt lat="45.32973" lon="6.19537">
        <ele>2026.4919433594</ele>
        <time>2017-02-26T09:31:01Z</time>
      </trkpt>
      <trkpt lat="45.32972" lon="6.19531">
        <ele>2033.4919433594</ele>
        <time>2017-02-26T09:31:10Z</time>
      </trkpt>
      <trkpt lat="45.32974" lon="6.19525">
        <ele>2033.4919433594</ele>
        <time>2017-02-26T09:31:15Z</time>
      </trkpt>
      <trkpt lat="45.32979" lon="6.19525">
        <ele>2030.4919433594</ele>
        <time>2017-02-26T09:31:24Z</time>
      </trkpt>
      <trkpt lat="45.32985" lon="6.19523">
        <ele>2033.4919433594</ele>
        <time>2017-02-26T09:31:29Z</time>
      </trkpt>
      <trkpt lat="45.32989" lon="6.19521">
        <ele>2037.4919433594</ele>
        <time>2017-02-26T09:31:37Z</time>
      </trkpt>
      <trkpt lat="45.32994" lon="6.1952">
        <ele>2033.4919433594</ele>
        <time>2017-02-26T09:31:44Z</time>
      </trkpt>
      <trkpt lat="45.32999" lon="6.19518">
        <ele>2036.4919433594</ele>
        <time>2017-02-26T09:31:50Z</time>
      </trkpt>
      <trkpt lat="45.33004" lon="6.19516">
        <ele>2040.4919433594</ele>
        <time>2017-02-26T09:31:56Z</time>
      </trkpt>
      <trkpt lat="45.33009" lon="6.19515">
        <ele>2041.4919433594</ele>
        <time>2017-02-26T09:32:03Z</time>
      </trkpt>
      <trkpt lat="45.33012" lon="6.19509">
        <ele>2044.4919433594</ele>
        <time>2017-02-26T09:32:11Z</time>
      </trkpt>
      <trkpt lat="45.33011" lon="6.19503">
        <ele>2045.4919433594</ele>
        <time>2017-02-26T09:32:17Z</time>
      </trkpt>
      <trkpt lat="45.3301" lon="6.19496">
        <ele>2045.4919433594</ele>
        <time>2017-02-26T09:32:22Z</time>
      </trkpt>
      <trkpt lat="45.33008" lon="6.1949">
        <ele>2048.4919433594</ele>
        <time>2017-02-26T09:32:27Z</time>
      </trkpt>
      <trkpt lat="45.33007" lon="6.19484">
        <ele>2050.4919433594</ele>
        <time>2017-02-26T09:32:33Z</time>
      </trkpt>
      <trkpt lat="45.33008" lon="6.19477">
        <ele>2051.4919433594</ele>
        <time>2017-02-26T09:32:41Z</time>
      </trkpt>
      <trkpt lat="45.33012" lon="6.19477">
        <ele>2051.4919433594</ele>
        <time>2017-02-26T09:32:46Z</time>
      </trkpt>
      <trkpt lat="45.33017" lon="6.19476">
        <ele>2051.4919433594</ele>
        <time>2017-02-26T09:32:51Z</time>
      </trkpt>
      <trkpt lat="45.33022" lon="6.19475">
        <ele>2051.4919433594</ele>
        <time>2017-02-26T09:32:56Z</time>
      </trkpt>
      <trkpt lat="45.33027" lon="6.19472">
        <ele>2054.4919433594</ele>
        <time>2017-02-26T09:33:02Z</time>
      </trkpt>
      <trkpt lat="45.33031" lon="6.19469">
        <ele>2055.4919433594</ele>
        <time>2017-02-26T09:33:07Z</time>
      </trkpt>
      <trkpt lat="45.33037" lon="6.19468">
        <ele>2055.4919433594</ele>
        <time>2017-02-26T09:33:12Z</time>
      </trkpt>
      <trkpt lat="45.33041" lon="6.19466">
        <ele>2056.4919433594</ele>
        <time>2017-02-26T09:33:16Z</time>
      </trkpt>
      <trkpt lat="45.33046" lon="6.19465">
        <ele>2058.4919433594</ele>
        <time>2017-02-26T09:33:20Z</time>
      </trkpt>
      <trkpt lat="45.33051" lon="6.19464">
        <ele>2059.4919433594</ele>
        <time>2017-02-26T09:33:27Z</time>
      </trkpt>
      <trkpt lat="45.33056" lon="6.19463">
        <ele>2056.4919433594</ele>
        <time>2017-02-26T09:33:31Z</time>
      </trkpt>
      <trkpt lat="45.3306" lon="6.19462">
        <ele>2056.4919433594</ele>
        <time>2017-02-26T09:33:35Z</time>
      </trkpt>
      <trkpt lat="45.33065" lon="6.19459">
        <ele>2054.4919433594</ele>
        <time>2017-02-26T09:33:42Z</time>
      </trkpt>
      <trkpt lat="45.33069" lon="6.19456">
        <ele>2059.4919433594</ele>
        <time>2017-02-26T09:33:47Z</time>
      </trkpt>
      <trkpt lat="45.33073" lon="6.19453">
        <ele>2058.4919433594</ele>
        <time>2017-02-26T09:33:52Z</time>
      </trkpt>
      <trkpt lat="45.33077" lon="6.19449">
        <ele>2062.4919433594</ele>
        <time>2017-02-26T09:33:59Z</time>
      </trkpt>
      <trkpt lat="45.33082" lon="6.19446">
        <ele>2065.4919433594</ele>
        <time>2017-02-26T09:34:03Z</time>
      </trkpt>
      <trkpt lat="45.33086" lon="6.19442">
        <ele>2067.4919433594</ele>
        <time>2017-02-26T09:34:10Z</time>
      </trkpt>
      <trkpt lat="45.33089" lon="6.19438">
        <ele>2066.4919433594</ele>
        <time>2017-02-26T09:34:14Z</time>
      </trkpt>
      <trkpt lat="45.33093" lon="6.19433">
        <ele>2069.4919433594</ele>
        <time>2017-02-26T09:34:19Z</time>
      </trkpt>
      <trkpt lat="45.33097" lon="6.19429">
        <ele>2071.4919433594</ele>
        <time>2017-02-26T09:34:24Z</time>
      </trkpt>
      <trkpt lat="45.33101" lon="6.19424">
        <ele>2072.4919433594</ele>
        <time>2017-02-26T09:34:31Z</time>
      </trkpt>
      <trkpt lat="45.33105" lon="6.1942">
        <ele>2073.4919433594</ele>
        <time>2017-02-26T09:34:36Z</time>
      </trkpt>
      <trkpt lat="45.33108" lon="6.19414">
        <ele>2074.4919433594</ele>
        <time>2017-02-26T09:34:42Z</time>
      </trkpt>
      <trkpt lat="45.33111" lon="6.19409">
        <ele>2077.4919433594</ele>
        <time>2017-02-26T09:34:47Z</time>
      </trkpt>
      <trkpt lat="45.33115" lon="6.19405">
        <ele>2079.4919433594</ele>
        <time>2017-02-26T09:34:52Z</time>
      </trkpt>
      <trkpt lat="45.33119" lon="6.194">
        <ele>2081.4919433594</ele>
        <time>2017-02-26T09:34:58Z</time>
      </trkpt>
      <trkpt lat="45.33124" lon="6.19398">
        <ele>2082.4919433594</ele>
        <time>2017-02-26T09:35:04Z</time>
      </trkpt>
      <trkpt lat="45.33128" lon="6.19394">
        <ele>2081.4919433594</ele>
        <time>2017-02-26T09:35:09Z</time>
      </trkpt>
      <trkpt lat="45.33133" lon="6.19392">
        <ele>2081.4919433594</ele>
        <time>2017-02-26T09:35:17Z</time>
      </trkpt>
      <trkpt lat="45.33139" lon="6.1939">
        <ele>2083.4919433594</ele>
        <time>2017-02-26T09:35:22Z</time>
      </trkpt>
      <trkpt lat="45.33142" lon="6.19386">
        <ele>2088.4919433594</ele>
        <time>2017-02-26T09:35:27Z</time>
      </trkpt>
      <trkpt lat="45.33142" lon="6.1938">
        <ele>2091.4919433594</ele>
        <time>2017-02-26T09:35:35Z</time>
      </trkpt>
      <trkpt lat="45.33139" lon="6.19374">
        <ele>2093.4919433594</ele>
        <time>2017-02-26T09:35:40Z</time>
      </trkpt>
      <trkpt lat="45.33135" lon="6.19367">
        <ele>2094.4919433594</ele>
        <time>2017-02-26T09:35:46Z</time>
      </trkpt>
      <trkpt lat="45.33132" lon="6.19361">
        <ele>2098.4919433594</ele>
        <time>2017-02-26T09:35:51Z</time>
      </trkpt>
      <trkpt lat="45.3313" lon="6.19355">
        <ele>2101.4919433594</ele>
        <time>2017-02-26T09:35:55Z</time>
      </trkpt>
      <trkpt lat="45.33131" lon="6.19347">
        <ele>2103.4919433594</ele>
        <time>2017-02-26T09:36:01Z</time>
      </trkpt>
      <trkpt lat="45.33127" lon="6.19343">
        <ele>2101.4919433594</ele>
        <time>2017-02-26T09:36:10Z</time>
      </trkpt>
      <trkpt lat="45.33126" lon="6.19336">
        <ele>2102.4919433594</ele>
        <time>2017-02-26T09:36:16Z</time>
      </trkpt>
      <trkpt lat="45.33125" lon="6.19328">
        <ele>2102.4919433594</ele>
        <time>2017-02-26T09:36:22Z</time>
      </trkpt>
      <trkpt lat="45.33122" lon="6.19322">
        <ele>2101.4919433594</ele>
        <time>2017-02-26T09:36:26Z</time>
      </trkpt>
      <trkpt lat="45.33121" lon="6.19316">
        <ele>2100.4919433594</ele>
        <time>2017-02-26T09:36:33Z</time>
      </trkpt>
      <trkpt lat="45.33117" lon="6.19312">
        <ele>2102.4919433594</ele>
        <time>2017-02-26T09:36:38Z</time>
      </trkpt>
      <trkpt lat="45.33114" lon="6.19306">
        <ele>2105.4919433594</ele>
        <time>2017-02-26T09:36:41Z</time>
      </trkpt>
      <trkpt lat="45.33112" lon="6.193">
        <ele>2104.4919433594</ele>
        <time>2017-02-26T09:36:45Z</time>
      </trkpt>
      <trkpt lat="45.3311" lon="6.19292">
        <ele>2104.4919433594</ele>
        <time>2017-02-26T09:36:49Z</time>
      </trkpt>
      <trkpt lat="45.33108" lon="6.19285">
        <ele>2105.4919433594</ele>
        <time>2017-02-26T09:36:52Z</time>
      </trkpt>
      <trkpt lat="45.33107" lon="6.19279">
        <ele>2106.4919433594</ele>
        <time>2017-02-26T09:36:55Z</time>
      </trkpt>
      <trkpt lat="45.33105" lon="6.19272">
        <ele>2105.4919433594</ele>
        <time>2017-02-26T09:36:58Z</time>
      </trkpt>
      <trkpt lat="45.33105" lon="6.19265">
        <ele>2103.4919433594</ele>
        <time>2017-02-26T09:37:02Z</time>
      </trkpt>
      <trkpt lat="45.33104" lon="6.19256">
        <ele>2102.4919433594</ele>
        <time>2017-02-26T09:37:08Z</time>
      </trkpt>
      <trkpt lat="45.33104" lon="6.19248">
        <ele>2103.4919433594</ele>
        <time>2017-02-26T09:37:12Z</time>
      </trkpt>
      <trkpt lat="45.33101" lon="6.19242">
        <ele>2102.4919433594</ele>
        <time>2017-02-26T09:37:17Z</time>
      </trkpt>
      <trkpt lat="45.33099" lon="6.19236">
        <ele>2103.4919433594</ele>
        <time>2017-02-26T09:37:23Z</time>
      </trkpt>
      <trkpt lat="45.33097" lon="6.19229">
        <ele>2104.4919433594</ele>
        <time>2017-02-26T09:37:26Z</time>
      </trkpt>
      <trkpt lat="45.33093" lon="6.19224">
        <ele>2104.4919433594</ele>
        <time>2017-02-26T09:37:34Z</time>
      </trkpt>
      <trkpt lat="45.3309" lon="6.19218">
        <ele>2108.4919433594</ele>
        <time>2017-02-26T09:37:37Z</time>
      </trkpt>
      <trkpt lat="45.33086" lon="6.19212">
        <ele>2110.4919433594</ele>
        <time>2017-02-26T09:37:40Z</time>
      </trkpt>
      <trkpt lat="45.33081" lon="6.19211">
        <ele>2110.4919433594</ele>
        <time>2017-02-26T09:37:43Z</time>
      </trkpt>
      <trkpt lat="45.33077" lon="6.19206">
        <ele>2115.4919433594</ele>
        <time>2017-02-26T09:37:49Z</time>
      </trkpt>
      <trkpt lat="45.33073" lon="6.19201">
        <ele>2114.4919433594</ele>
        <time>2017-02-26T09:37:53Z</time>
      </trkpt>
      <trkpt lat="45.3307" lon="6.19196">
        <ele>2114.4919433594</ele>
        <time>2017-02-26T09:37:57Z</time>
      </trkpt>
      <trkpt lat="45.33066" lon="6.19192">
        <ele>2116.4919433594</ele>
        <time>2017-02-26T09:38:01Z</time>
      </trkpt>
      <trkpt lat="45.33061" lon="6.1919">
        <ele>2117.4919433594</ele>
        <time>2017-02-26T09:38:05Z</time>
      </trkpt>
      <trkpt lat="45.33055" lon="6.1919">
        <ele>2116.4919433594</ele>
        <time>2017-02-26T09:38:09Z</time>
      </trkpt>
      <trkpt lat="45.33049" lon="6.1919">
        <ele>2114.4919433594</ele>
        <time>2017-02-26T09:38:13Z</time>
      </trkpt>
      <trkpt lat="45.33044" lon="6.1919">
        <ele>2110.4919433594</ele>
        <time>2017-02-26T09:38:17Z</time>
      </trkpt>
      <trkpt lat="45.33038" lon="6.19192">
        <ele>2109.4919433594</ele>
        <time>2017-02-26T09:38:21Z</time>
      </trkpt>
      <trkpt lat="45.33033" lon="6.19192">
        <ele>2110.4919433594</ele>
        <time>2017-02-26T09:38:26Z</time>
      </trkpt>
      <trkpt lat="45.33029" lon="6.19195">
        <ele>2113.4919433594</ele>
        <time>2017-02-26T09:38:31Z</time>
      </trkpt>
      <trkpt lat="45.33025" lon="6.19198">
        <ele>2110.4919433594</ele>
        <time>2017-02-26T09:38:35Z</time>
      </trkpt>
      <trkpt lat="45.3302" lon="6.19201">
        <ele>2112.4919433594</ele>
        <time>2017-02-26T09:38:39Z</time>
      </trkpt>
      <trkpt lat="45.33014" lon="6.19204">
        <ele>2113.4919433594</ele>
        <time>2017-02-26T09:38:45Z</time>
      </trkpt>
      <trkpt lat="45.3301" lon="6.19205">
        <ele>2125.4919433594</ele>
        <time>2017-02-26T09:38:54Z</time>
      </trkpt>
      <trkpt lat="45.33005" lon="6.19206">
        <ele>2127.4919433594</ele>
        <time>2017-02-26T09:39:00Z</time>
      </trkpt>
      <trkpt lat="45.33002" lon="6.19199">
        <ele>2127.4919433594</ele>
        <time>2017-02-26T09:39:08Z</time>
      </trkpt>
      <trkpt lat="45.33003" lon="6.19192">
        <ele>2129.4919433594</ele>
        <time>2017-02-26T09:39:14Z</time>
      </trkpt>
      <trkpt lat="45.33001" lon="6.19186">
        <ele>2129.4919433594</ele>
        <time>2017-02-26T09:39:19Z</time>
      </trkpt>
      <trkpt lat="45.33001" lon="6.19178">
        <ele>2130.4919433594</ele>
        <time>2017-02-26T09:39:25Z</time>
      </trkpt>
      <trkpt lat="45.33001" lon="6.19171">
        <ele>2127.4919433594</ele>
        <time>2017-02-26T09:39:33Z</time>
      </trkpt>
      <trkpt lat="45.33002" lon="6.19163">
        <ele>2129.4919433594</ele>
        <time>2017-02-26T09:39:40Z</time>
      </trkpt>
      <trkpt lat="45.33" lon="6.19157">
        <ele>2130.4919433594</ele>
        <time>2017-02-26T09:39:45Z</time>
      </trkpt>
      <trkpt lat="45.33" lon="6.19151">
        <ele>2134.4919433594</ele>
        <time>2017-02-26T09:39:51Z</time>
      </trkpt>
      <trkpt lat="45.32996" lon="6.19147">
        <ele>2137.4919433594</ele>
        <time>2017-02-26T09:40:02Z</time>
      </trkpt>
      <trkpt lat="45.32992" lon="6.19152">
        <ele>2140.4919433594</ele>
        <time>2017-02-26T09:40:07Z</time>
      </trkpt>
      <trkpt lat="45.32988" lon="6.19155">
        <ele>2142.4919433594</ele>
        <time>2017-02-26T09:40:13Z</time>
      </trkpt>
      <trkpt lat="45.32982" lon="6.19155">
        <ele>2146.4919433594</ele>
        <time>2017-02-26T09:40:22Z</time>
      </trkpt>
      <trkpt lat="45.32976" lon="6.19157">
        <ele>2144.4919433594</ele>
        <time>2017-02-26T09:40:27Z</time>
      </trkpt>
      <trkpt lat="45.32971" lon="6.19159">
        <ele>2145.4919433594</ele>
        <time>2017-02-26T09:40:32Z</time>
      </trkpt>
      <trkpt lat="45.32967" lon="6.19161">
        <ele>2147.4919433594</ele>
        <time>2017-02-26T09:40:38Z</time>
      </trkpt>
      <trkpt lat="45.32964" lon="6.19156">
        <ele>2147.4919433594</ele>
        <time>2017-02-26T09:40:47Z</time>
      </trkpt>
      <trkpt lat="45.3296" lon="6.19151">
        <ele>2145.4909667969</ele>
        <time>2017-02-26T09:40:53Z</time>
      </trkpt>
      <trkpt lat="45.32957" lon="6.19146">
        <ele>2147.4909667969</ele>
        <time>2017-02-26T09:41:02Z</time>
      </trkpt>
      <trkpt lat="45.32953" lon="6.19143">
        <ele>2146.4909667969</ele>
        <time>2017-02-26T09:41:06Z</time>
      </trkpt>
      <trkpt lat="45.32949" lon="6.19136">
        <ele>2151.4909667969</ele>
        <time>2017-02-26T09:41:11Z</time>
      </trkpt>
      <trkpt lat="45.32946" lon="6.19131">
        <ele>2154.4909667969</ele>
        <time>2017-02-26T09:41:16Z</time>
      </trkpt>
      <trkpt lat="45.32941" lon="6.19131">
        <ele>2154.4909667969</ele>
        <time>2017-02-26T09:41:20Z</time>
      </trkpt>
      <trkpt lat="45.32937" lon="6.19133">
        <ele>2157.4909667969</ele>
        <time>2017-02-26T09:41:32Z</time>
      </trkpt>
      <trkpt lat="45.32933" lon="6.1913">
        <ele>2157.4909667969</ele>
        <time>2017-02-26T09:41:43Z</time>
      </trkpt>
      <trkpt lat="45.32932" lon="6.19123">
        <ele>2159.4909667969</ele>
        <time>2017-02-26T09:41:48Z</time>
      </trkpt>
      <trkpt lat="45.32934" lon="6.19117">
        <ele>2161.4909667969</ele>
        <time>2017-02-26T09:41:52Z</time>
      </trkpt>
      <trkpt lat="45.32935" lon="6.1911">
        <ele>2163.4909667969</ele>
        <time>2017-02-26T09:41:59Z</time>
      </trkpt>
      <trkpt lat="45.32937" lon="6.19103">
        <ele>2162.4909667969</ele>
        <time>2017-02-26T09:42:06Z</time>
      </trkpt>
      <trkpt lat="45.32939" lon="6.19097">
        <ele>2164.4909667969</ele>
        <time>2017-02-26T09:42:11Z</time>
      </trkpt>
      <trkpt lat="45.32942" lon="6.1909">
        <ele>2168.4909667969</ele>
        <time>2017-02-26T09:42:16Z</time>
      </trkpt>
      <trkpt lat="45.32946" lon="6.19084">
        <ele>2171.4909667969</ele>
        <time>2017-02-26T09:42:25Z</time>
      </trkpt>
      <trkpt lat="45.32948" lon="6.19078">
        <ele>2175.4909667969</ele>
        <time>2017-02-26T09:42:30Z</time>
      </trkpt>
      <trkpt lat="45.32945" lon="6.19073">
        <ele>2171.4909667969</ele>
        <time>2017-02-26T09:42:38Z</time>
      </trkpt>
      <trkpt lat="45.3294" lon="6.19072">
        <ele>2172.4909667969</ele>
        <time>2017-02-26T09:42:50Z</time>
      </trkpt>
      <trkpt lat="45.32935" lon="6.19069">
        <ele>2175.4909667969</ele>
        <time>2017-02-26T09:42:56Z</time>
      </trkpt>
      <trkpt lat="45.32932" lon="6.19064">
        <ele>2176.4909667969</ele>
        <time>2017-02-26T09:43:00Z</time>
      </trkpt>
      <trkpt lat="45.32927" lon="6.19059">
        <ele>2174.4909667969</ele>
        <time>2017-02-26T09:43:05Z</time>
      </trkpt>
      <trkpt lat="45.32922" lon="6.19058">
        <ele>2178.4909667969</ele>
        <time>2017-02-26T09:43:13Z</time>
      </trkpt>
      <trkpt lat="45.32918" lon="6.19055">
        <ele>2178.4909667969</ele>
        <time>2017-02-26T09:43:19Z</time>
      </trkpt>
      <trkpt lat="45.32913" lon="6.19051">
        <ele>2180.4909667969</ele>
        <time>2017-02-26T09:43:34Z</time>
      </trkpt>
      <trkpt lat="45.32912" lon="6.19045">
        <ele>2180.4909667969</ele>
        <time>2017-02-26T09:43:40Z</time>
      </trkpt>
      <trkpt lat="45.32912" lon="6.19039">
        <ele>2183.4909667969</ele>
        <time>2017-02-26T09:43:45Z</time>
      </trkpt>
      <trkpt lat="45.32915" lon="6.19032">
        <ele>2184.4909667969</ele>
        <time>2017-02-26T09:43:52Z</time>
      </trkpt>
      <trkpt lat="45.32917" lon="6.19027">
        <ele>2187.4909667969</ele>
        <time>2017-02-26T09:43:58Z</time>
      </trkpt>
      <trkpt lat="45.32919" lon="6.1902">
        <ele>2189.4909667969</ele>
        <time>2017-02-26T09:44:04Z</time>
      </trkpt>
      <trkpt lat="45.32923" lon="6.19014">
        <ele>2190.4909667969</ele>
        <time>2017-02-26T09:44:09Z</time>
      </trkpt>
      <trkpt lat="45.32921" lon="6.19009">
        <ele>2192.4909667969</ele>
        <time>2017-02-26T09:44:28Z</time>
      </trkpt>
      <trkpt lat="45.32916" lon="6.19011">
        <ele>2194.4909667969</ele>
        <time>2017-02-26T09:44:33Z</time>
      </trkpt>
      <trkpt lat="45.32911" lon="6.19013">
        <ele>2197.4909667969</ele>
        <time>2017-02-26T09:44:42Z</time>
      </trkpt>
      <trkpt lat="45.32913" lon="6.19007">
        <ele>2200.4909667969</ele>
        <time>2017-02-26T09:44:49Z</time>
      </trkpt>
      <trkpt lat="45.32913" lon="6.19">
        <ele>2201.4909667969</ele>
        <time>2017-02-26T09:44:54Z</time>
      </trkpt>
      <trkpt lat="45.32915" lon="6.18994">
        <ele>2202.4909667969</ele>
        <time>2017-02-26T09:45:01Z</time>
      </trkpt>
      <trkpt lat="45.32918" lon="6.18987">
        <ele>2202.4909667969</ele>
        <time>2017-02-26T09:45:09Z</time>
      </trkpt>
      <trkpt lat="45.32918" lon="6.18981">
        <ele>2201.4909667969</ele>
        <time>2017-02-26T09:45:14Z</time>
      </trkpt>
      <trkpt lat="45.32914" lon="6.18976">
        <ele>2198.4909667969</ele>
        <time>2017-02-26T09:45:20Z</time>
      </trkpt>
      <trkpt lat="45.3291" lon="6.18976">
        <ele>2200.4909667969</ele>
        <time>2017-02-26T09:45:23Z</time>
      </trkpt>
      <trkpt lat="45.32906" lon="6.18973">
        <ele>2199.4909667969</ele>
        <time>2017-02-26T09:45:27Z</time>
      </trkpt>
      <trkpt lat="45.329" lon="6.18974">
        <ele>2204.4909667969</ele>
        <time>2017-02-26T09:45:33Z</time>
      </trkpt>
      <trkpt lat="45.32895" lon="6.18972">
        <ele>2210.4909667969</ele>
        <time>2017-02-26T09:45:45Z</time>
      </trkpt>
      <trkpt lat="45.32892" lon="6.18967">
        <ele>2211.4909667969</ele>
        <time>2017-02-26T09:45:59Z</time>
      </trkpt>
      <trkpt lat="45.32891" lon="6.18961">
        <ele>2209.4909667969</ele>
        <time>2017-02-26T09:46:05Z</time>
      </trkpt>
      <trkpt lat="45.32893" lon="6.18954">
        <ele>2213.4909667969</ele>
        <time>2017-02-26T09:46:10Z</time>
      </trkpt>
      <trkpt lat="45.32895" lon="6.18947">
        <ele>2214.4909667969</ele>
        <time>2017-02-26T09:46:12Z</time>
      </trkpt>
      <trkpt lat="45.32898" lon="6.1894">
        <ele>2214.4909667969</ele>
        <time>2017-02-26T09:46:17Z</time>
      </trkpt>
      <trkpt lat="45.329" lon="6.18932">
        <ele>2215.4909667969</ele>
        <time>2017-02-26T09:46:23Z</time>
      </trkpt>
      <trkpt lat="45.32903" lon="6.18925">
        <ele>2218.4909667969</ele>
        <time>2017-02-26T09:46:28Z</time>
      </trkpt>
      <trkpt lat="45.32905" lon="6.18918">
        <ele>2219.4909667969</ele>
        <time>2017-02-26T09:46:34Z</time>
      </trkpt>
      <trkpt lat="45.32908" lon="6.18912">
        <ele>2218.4909667969</ele>
        <time>2017-02-26T09:46:40Z</time>
      </trkpt>
      <trkpt lat="45.32911" lon="6.18907">
        <ele>2220.4909667969</ele>
        <time>2017-02-26T09:46:45Z</time>
      </trkpt>
      <trkpt lat="45.32913" lon="6.18901">
        <ele>2220.4909667969</ele>
        <time>2017-02-26T09:46:49Z</time>
      </trkpt>
      <trkpt lat="45.32914" lon="6.18893">
        <ele>2220.4909667969</ele>
        <time>2017-02-26T09:46:53Z</time>
      </trkpt>
      <trkpt lat="45.32918" lon="6.18887">
        <ele>2223.4909667969</ele>
        <time>2017-02-26T09:46:59Z</time>
      </trkpt>
      <trkpt lat="45.3292" lon="6.18881">
        <ele>2223.4909667969</ele>
        <time>2017-02-26T09:47:05Z</time>
      </trkpt>
      <trkpt lat="45.32923" lon="6.18875">
        <ele>2223.4909667969</ele>
        <time>2017-02-26T09:47:09Z</time>
      </trkpt>
      <trkpt lat="45.32926" lon="6.18868">
        <ele>2224.4909667969</ele>
        <time>2017-02-26T09:47:15Z</time>
      </trkpt>
      <trkpt lat="45.32929" lon="6.18862">
        <ele>2227.4909667969</ele>
        <time>2017-02-26T09:47:20Z</time>
      </trkpt>
      <trkpt lat="45.32933" lon="6.18856">
        <ele>2227.4909667969</ele>
        <time>2017-02-26T09:47:26Z</time>
      </trkpt>
      <trkpt lat="45.32936" lon="6.18851">
        <ele>2228.4909667969</ele>
        <time>2017-02-26T09:47:32Z</time>
      </trkpt>
      <trkpt lat="45.3294" lon="6.18846">
        <ele>2229.4909667969</ele>
        <time>2017-02-26T09:47:37Z</time>
      </trkpt>
      <trkpt lat="45.32943" lon="6.1884">
        <ele>2231.4909667969</ele>
        <time>2017-02-26T09:47:45Z</time>
      </trkpt>
      <trkpt lat="45.32946" lon="6.18834">
        <ele>2234.4909667969</ele>
        <time>2017-02-26T09:47:52Z</time>
      </trkpt>
      <trkpt lat="45.3295" lon="6.1883">
        <ele>2235.4909667969</ele>
        <time>2017-02-26T09:47:56Z</time>
      </trkpt>
      <trkpt lat="45.32952" lon="6.18823">
        <ele>2237.4909667969</ele>
        <time>2017-02-26T09:48:02Z</time>
      </trkpt>
      <trkpt lat="45.32956" lon="6.1882">
        <ele>2237.4909667969</ele>
        <time>2017-02-26T09:48:08Z</time>
      </trkpt>
      <trkpt lat="45.32958" lon="6.18813">
        <ele>2237.4909667969</ele>
        <time>2017-02-26T09:48:13Z</time>
      </trkpt>
      <trkpt lat="45.32957" lon="6.18806">
        <ele>2238.4909667969</ele>
        <time>2017-02-26T09:48:18Z</time>
      </trkpt>
      <trkpt lat="45.32953" lon="6.18802">
        <ele>2238.4909667969</ele>
        <time>2017-02-26T09:48:24Z</time>
      </trkpt>
      <trkpt lat="45.32948" lon="6.18801">
        <ele>2239.4909667969</ele>
        <time>2017-02-26T09:48:29Z</time>
      </trkpt>
      <trkpt lat="45.32944" lon="6.18797">
        <ele>2240.4909667969</ele>
        <time>2017-02-26T09:48:34Z</time>
      </trkpt>
      <trkpt lat="45.32939" lon="6.18795">
        <ele>2239.4909667969</ele>
        <time>2017-02-26T09:48:38Z</time>
      </trkpt>
      <trkpt lat="45.32935" lon="6.18791">
        <ele>2243.4909667969</ele>
        <time>2017-02-26T09:48:48Z</time>
      </trkpt>
      <trkpt lat="45.32931" lon="6.18789">
        <ele>2241.4909667969</ele>
        <time>2017-02-26T09:48:53Z</time>
      </trkpt>
      <trkpt lat="45.32925" lon="6.18787">
        <ele>2249.4909667969</ele>
        <time>2017-02-26T09:49:06Z</time>
      </trkpt>
      <trkpt lat="45.32924" lon="6.18781">
        <ele>2249.4909667969</ele>
        <time>2017-02-26T09:49:11Z</time>
      </trkpt>
      <trkpt lat="45.32927" lon="6.18775">
        <ele>2250.4909667969</ele>
        <time>2017-02-26T09:49:15Z</time>
      </trkpt>
      <trkpt lat="45.32931" lon="6.1877">
        <ele>2252.4909667969</ele>
        <time>2017-02-26T09:49:20Z</time>
      </trkpt>
      <trkpt lat="45.32933" lon="6.18764">
        <ele>2253.4909667969</ele>
        <time>2017-02-26T09:49:26Z</time>
      </trkpt>
      <trkpt lat="45.32935" lon="6.18758">
        <ele>2253.4909667969</ele>
        <time>2017-02-26T09:49:31Z</time>
      </trkpt>
      <trkpt lat="45.32938" lon="6.18753">
        <ele>2253.4909667969</ele>
        <time>2017-02-26T09:49:36Z</time>
      </trkpt>
      <trkpt lat="45.3294" lon="6.18746">
        <ele>2252.4909667969</ele>
        <time>2017-02-26T09:49:41Z</time>
      </trkpt>
      <trkpt lat="45.32942" lon="6.1874">
        <ele>2253.4909667969</ele>
        <time>2017-02-26T09:49:47Z</time>
      </trkpt>
      <trkpt lat="45.32944" lon="6.18733">
        <ele>2254.4909667969</ele>
        <time>2017-02-26T09:49:54Z</time>
      </trkpt>
      <trkpt lat="45.32945" lon="6.18727">
        <ele>2256.4909667969</ele>
        <time>2017-02-26T09:50:01Z</time>
      </trkpt>
      <trkpt lat="45.32943" lon="6.18721">
        <ele>2256.4909667969</ele>
        <time>2017-02-26T09:50:05Z</time>
      </trkpt>
      <trkpt lat="45.32944" lon="6.18714">
        <ele>2256.4909667969</ele>
        <time>2017-02-26T09:50:11Z</time>
      </trkpt>
      <trkpt lat="45.32947" lon="6.18707">
        <ele>2258.4909667969</ele>
        <time>2017-02-26T09:50:16Z</time>
      </trkpt>
      <trkpt lat="45.3295" lon="6.18702">
        <ele>2259.4909667969</ele>
        <time>2017-02-26T09:50:22Z</time>
      </trkpt>
      <trkpt lat="45.32949" lon="6.18694">
        <ele>2259.4909667969</ele>
        <time>2017-02-26T09:50:27Z</time>
      </trkpt>
      <trkpt lat="45.32945" lon="6.18691">
        <ele>2257.4909667969</ele>
        <time>2017-02-26T09:50:32Z</time>
      </trkpt>
      <trkpt lat="45.32941" lon="6.18689">
        <ele>2259.4909667969</ele>
        <time>2017-02-26T09:50:39Z</time>
      </trkpt>
      <trkpt lat="45.32936" lon="6.18689">
        <ele>2261.4909667969</ele>
        <time>2017-02-26T09:50:44Z</time>
      </trkpt>
      <trkpt lat="45.32932" lon="6.18689">
        <ele>2263.4909667969</ele>
        <time>2017-02-26T09:50:50Z</time>
      </trkpt>
      <trkpt lat="45.32927" lon="6.1869">
        <ele>2267.4909667969</ele>
        <time>2017-02-26T09:50:57Z</time>
      </trkpt>
      <trkpt lat="45.32922" lon="6.18692">
        <ele>2270.4909667969</ele>
        <time>2017-02-26T09:51:03Z</time>
      </trkpt>
      <trkpt lat="45.32917" lon="6.18689">
        <ele>2273.4909667969</ele>
        <time>2017-02-26T09:51:13Z</time>
      </trkpt>
      <trkpt lat="45.32919" lon="6.18681">
        <ele>2273.4909667969</ele>
        <time>2017-02-26T09:51:19Z</time>
      </trkpt>
      <trkpt lat="45.32919" lon="6.18674">
        <ele>2273.4909667969</ele>
        <time>2017-02-26T09:51:24Z</time>
      </trkpt>
      <trkpt lat="45.32923" lon="6.18669">
        <ele>2277.4909667969</ele>
        <time>2017-02-26T09:51:29Z</time>
      </trkpt>
      <trkpt lat="45.3292" lon="6.18664">
        <ele>2279.4909667969</ele>
        <time>2017-02-26T09:51:37Z</time>
      </trkpt>
      <trkpt lat="45.32915" lon="6.18664">
        <ele>2279.4909667969</ele>
        <time>2017-02-26T09:51:43Z</time>
      </trkpt>
      <trkpt lat="45.3291" lon="6.18665">
        <ele>2283.4909667969</ele>
        <time>2017-02-26T09:51:48Z</time>
      </trkpt>
      <trkpt lat="45.32906" lon="6.18669">
        <ele>2286.4909667969</ele>
        <time>2017-02-26T09:51:57Z</time>
      </trkpt>
      <trkpt lat="45.32905" lon="6.18663">
        <ele>2289.4909667969</ele>
        <time>2017-02-26T09:52:11Z</time>
      </trkpt>
      <trkpt lat="45.32908" lon="6.18657">
        <ele>2290.4909667969</ele>
        <time>2017-02-26T09:52:19Z</time>
      </trkpt>
      <trkpt lat="45.32903" lon="6.18653">
        <ele>2292.4909667969</ele>
        <time>2017-02-26T09:52:28Z</time>
      </trkpt>
      <trkpt lat="45.32899" lon="6.18657">
        <ele>2294.4909667969</ele>
        <time>2017-02-26T09:52:37Z</time>
      </trkpt>
      <trkpt lat="45.32896" lon="6.18661">
        <ele>2296.4909667969</ele>
        <time>2017-02-26T09:52:44Z</time>
      </trkpt>
      <trkpt lat="45.32892" lon="6.18666">
        <ele>2299.4909667969</ele>
        <time>2017-02-26T09:52:57Z</time>
      </trkpt>
      <trkpt lat="45.32888" lon="6.1867">
        <ele>2300.4909667969</ele>
        <time>2017-02-26T09:53:14Z</time>
      </trkpt>
      <trkpt lat="45.32886" lon="6.18663">
        <ele>2300.4909667969</ele>
        <time>2017-02-26T09:53:36Z</time>
      </trkpt>
      <trkpt lat="45.32882" lon="6.18668">
        <ele>2304.4909667969</ele>
        <time>2017-02-26T09:53:44Z</time>
      </trkpt>
      <trkpt lat="45.32878" lon="6.18664">
        <ele>2300.4909667969</ele>
        <time>2017-02-26T09:54:48Z</time>
      </trkpt>
      <trkpt lat="45.32875" lon="6.18659">
        <ele>2300.4909667969</ele>
        <time>2017-02-26T09:55:18Z</time>
      </trkpt>
      <trkpt lat="45.32873" lon="6.18652">
        <ele>2302.4909667969</ele>
        <time>2017-02-26T09:55:44Z</time>
      </trkpt>
      <trkpt lat="45.32873" lon="6.18646">
        <ele>2303.4909667969</ele>
        <time>2017-02-26T09:56:03Z</time>
      </trkpt>
      <trkpt lat="45.3287" lon="6.18641">
        <ele>2311.4909667969</ele>
        <time>2017-02-26T09:56:27Z</time>
      </trkpt>
      <trkpt lat="45.32867" lon="6.18635">
        <ele>2314.4909667969</ele>
        <time>2017-02-26T09:56:46Z</time>
      </trkpt>
      <trkpt lat="45.32864" lon="6.1863">
        <ele>2315.4909667969</ele>
        <time>2017-02-26T09:57:06Z</time>
      </trkpt>
      <trkpt lat="45.3286" lon="6.18626">
        <ele>2322.4909667969</ele>
        <time>2017-02-26T09:57:39Z</time>
      </trkpt>
      <trkpt lat="45.32859" lon="6.18619">
        <ele>2327.4909667969</ele>
        <time>2017-02-26T09:58:13Z</time>
      </trkpt>
      <trkpt lat="45.3286" lon="6.18612">
        <ele>2332.4909667969</ele>
        <time>2017-02-26T09:58:39Z</time>
      </trkpt>
      <trkpt lat="45.3286" lon="6.18605">
        <ele>2335.4909667969</ele>
        <time>2017-02-26T09:58:50Z</time>
      </trkpt>
      <trkpt lat="45.32856" lon="6.18603">
        <ele>2341.4909667969</ele>
        <time>2017-02-26T09:59:18Z</time>
      </trkpt>
      <trkpt lat="45.32856" lon="6.18596">
        <ele>2342.4909667969</ele>
        <time>2017-02-26T09:59:48Z</time>
      </trkpt>
      <trkpt lat="45.32858" lon="6.18589">
        <ele>2347.4909667969</ele>
        <time>2017-02-26T10:00:13Z</time>
      </trkpt>
      <trkpt lat="45.32856" lon="6.18583">
        <ele>2347.4909667969</ele>
        <time>2017-02-26T10:00:29Z</time>
      </trkpt>
      <trkpt lat="45.32859" lon="6.18578">
        <ele>2359.4909667969</ele>
        <time>2017-02-26T10:00:45Z</time>
      </trkpt>
      <trkpt lat="45.32857" lon="6.18571">
        <ele>2356.4909667969</ele>
        <time>2017-02-26T10:01:05Z</time>
      </trkpt>
      <trkpt lat="45.32855" lon="6.18566">
        <ele>2358.4909667969</ele>
        <time>2017-02-26T10:01:16Z</time>
      </trkpt>
      <trkpt lat="45.3285" lon="6.18561">
        <ele>2357.4899902344</ele>
        <time>2017-02-26T10:01:23Z</time>
      </trkpt>
      <trkpt lat="45.32846" lon="6.18556">
        <ele>2364.4899902344</ele>
        <time>2017-02-26T10:01:50Z</time>
      </trkpt>
      <trkpt lat="45.32842" lon="6.18554">
        <ele>2363.4899902344</ele>
        <time>2017-02-26T10:01:54Z</time>
      </trkpt>
      <trkpt lat="45.32836" lon="6.18553">
        <ele>2366.4899902344</ele>
        <time>2017-02-26T10:02:03Z</time>
      </trkpt>
      <trkpt lat="45.32831" lon="6.18551">
        <ele>2375.4899902344</ele>
        <time>2017-02-26T10:02:18Z</time>
      </trkpt>
      <trkpt lat="45.32826" lon="6.18551">
        <ele>2377.4899902344</ele>
        <time>2017-02-26T10:02:27Z</time>
      </trkpt>
      <trkpt lat="45.32821" lon="6.18549">
        <ele>2384.4899902344</ele>
        <time>2017-02-26T10:02:55Z</time>
      </trkpt>
      <trkpt lat="45.32818" lon="6.18545">
        <ele>2389.4899902344</ele>
        <time>2017-02-26T10:03:12Z</time>
      </trkpt>
      <trkpt lat="45.32814" lon="6.18541">
        <ele>2387.4899902344</ele>
        <time>2017-02-26T10:03:33Z</time>
      </trkpt>
      <trkpt lat="45.32814" lon="6.18534">
        <ele>2393.4899902344</ele>
        <time>2017-02-26T10:04:05Z</time>
      </trkpt>
      <trkpt lat="45.32812" lon="6.18528">
        <ele>2400.4899902344</ele>
        <time>2017-02-26T10:04:31Z</time>
      </trkpt>
      <trkpt lat="45.32811" lon="6.18521">
        <ele>2400.4899902344</ele>
        <time>2017-02-26T10:04:44Z</time>
      </trkpt>
      <trkpt lat="45.32808" lon="6.18516">
        <ele>2407.4899902344</ele>
        <time>2017-02-26T10:05:08Z</time>
      </trkpt>
      <trkpt lat="45.32803" lon="6.18511">
        <ele>2410.4899902344</ele>
        <time>2017-02-26T10:05:29Z</time>
      </trkpt>
      <trkpt lat="45.328" lon="6.18508">
        <ele>2420.4899902344</ele>
        <time>2017-02-26T10:05:59Z</time>
      </trkpt>
      <trkpt lat="45.32795" lon="6.18507">
        <ele>2424.4899902344</ele>
        <time>2017-02-26T10:06:16Z</time>
      </trkpt>
      <trkpt lat="45.32792" lon="6.18503">
        <ele>2427.4899902344</ele>
        <time>2017-02-26T10:06:46Z</time>
      </trkpt>
      <trkpt lat="45.32789" lon="6.18498">
        <ele>2432.4899902344</ele>
        <time>2017-02-26T10:07:09Z</time>
      </trkpt>
      <trkpt lat="45.32785" lon="6.18492">
        <ele>2430.4899902344</ele>
        <time>2017-02-26T10:07:24Z</time>
      </trkpt>
      <trkpt lat="45.32783" lon="6.18486">
        <ele>2430.4899902344</ele>
        <time>2017-02-26T10:07:50Z</time>
      </trkpt>
      <trkpt lat="45.32785" lon="6.1848">
        <ele>2436.4899902344</ele>
        <time>2017-02-26T10:08:05Z</time>
      </trkpt>
      <trkpt lat="45.3278" lon="6.18479">
        <ele>2448.4899902344</ele>
        <time>2017-02-26T10:08:24Z</time>
      </trkpt>
      <trkpt lat="45.32776" lon="6.18484">
        <ele>2450.4899902344</ele>
        <time>2017-02-26T10:08:43Z</time>
      </trkpt>
      <trkpt lat="45.32773" lon="6.1849">
        <ele>2451.4899902344</ele>
        <time>2017-02-26T10:08:48Z</time>
      </trkpt>
      <trkpt lat="45.32769" lon="6.18495">
        <ele>2451.4899902344</ele>
        <time>2017-02-26T10:08:52Z</time>
      </trkpt>
      <trkpt lat="45.32765" lon="6.18498">
        <ele>2451.4899902344</ele>
        <time>2017-02-26T10:09:12Z</time>
      </trkpt>
      <trkpt lat="45.32762" lon="6.18504">
        <ele>2451.4899902344</ele>
        <time>2017-02-26T10:09:29Z</time>
      </trkpt>
      <trkpt lat="45.3276" lon="6.18512">
        <ele>2452.4899902344</ele>
        <time>2017-02-26T10:09:34Z</time>
      </trkpt>
      <trkpt lat="45.32757" lon="6.18519">
        <ele>2453.4899902344</ele>
        <time>2017-02-26T10:09:38Z</time>
      </trkpt>
      <trkpt lat="45.32756" lon="6.18526">
        <ele>2456.4899902344</ele>
        <time>2017-02-26T10:09:42Z</time>
      </trkpt>
      <trkpt lat="45.32754" lon="6.18532">
        <ele>2455.4899902344</ele>
        <time>2017-02-26T10:09:45Z</time>
      </trkpt>
      <trkpt lat="45.32754" lon="6.18539">
        <ele>2454.4899902344</ele>
        <time>2017-02-26T10:09:48Z</time>
      </trkpt>
      <trkpt lat="45.32751" lon="6.18546">
        <ele>2452.4899902344</ele>
        <time>2017-02-26T10:09:50Z</time>
      </trkpt>
      <trkpt lat="45.3275" lon="6.18553">
        <ele>2451.4899902344</ele>
        <time>2017-02-26T10:09:52Z</time>
      </trkpt>
      <trkpt lat="45.32751" lon="6.18562">
        <ele>2450.4899902344</ele>
        <time>2017-02-26T10:09:55Z</time>
      </trkpt>
      <trkpt lat="45.32748" lon="6.1857">
        <ele>2449.4899902344</ele>
        <time>2017-02-26T10:09:58Z</time>
      </trkpt>
      <trkpt lat="45.32749" lon="6.18578">
        <ele>2443.4899902344</ele>
        <time>2017-02-26T10:10:03Z</time>
      </trkpt>
      <trkpt lat="45.32747" lon="6.18586">
        <ele>2440.4899902344</ele>
        <time>2017-02-26T10:10:06Z</time>
      </trkpt>
      <trkpt lat="45.32739" lon="6.18583">
        <ele>2431.4899902344</ele>
        <time>2017-02-26T10:12:04Z</time>
      </trkpt>
      <trkpt lat="45.32727" lon="6.18572">
        <ele>2429.4899902344</ele>
        <time>2017-02-26T10:12:06Z</time>
      </trkpt>
      <trkpt lat="45.32718" lon="6.18564">
        <ele>2426.4899902344</ele>
        <time>2017-02-26T10:12:07Z</time>
      </trkpt>
      <trkpt lat="45.32703" lon="6.18548">
        <ele>2421.4899902344</ele>
        <time>2017-02-26T10:12:09Z</time>
      </trkpt>
      <trkpt lat="45.32686" lon="6.1854">
        <ele>2416.4899902344</ele>
        <time>2017-02-26T10:12:11Z</time>
      </trkpt>
      <trkpt lat="45.3268" lon="6.18532">
        <ele>2415.4899902344</ele>
        <time>2017-02-26T10:12:13Z</time>
      </trkpt>
      <trkpt lat="45.32671" lon="6.18524">
        <ele>2413.4899902344</ele>
        <time>2017-02-26T10:12:15Z</time>
      </trkpt>
      <trkpt lat="45.32658" lon="6.18514">
        <ele>2411.4899902344</ele>
        <time>2017-02-26T10:12:17Z</time>
      </trkpt>
      <trkpt lat="45.32647" lon="6.18506">
        <ele>2409.4899902344</ele>
        <time>2017-02-26T10:12:19Z</time>
      </trkpt>
      <trkpt lat="45.32636" lon="6.185">
        <ele>2407.4899902344</ele>
        <time>2017-02-26T10:12:22Z</time>
      </trkpt>
      <trkpt lat="45.32632" lon="6.18505">
        <ele>2401.4899902344</ele>
        <time>2017-02-26T10:12:35Z</time>
      </trkpt>
      <trkpt lat="45.32622" lon="6.18505">
        <ele>2399.4899902344</ele>
        <time>2017-02-26T10:12:37Z</time>
      </trkpt>
      <trkpt lat="45.32615" lon="6.18507">
        <ele>2398.4899902344</ele>
        <time>2017-02-26T10:12:39Z</time>
      </trkpt>
      <trkpt lat="45.32608" lon="6.18511">
        <ele>2398.4899902344</ele>
        <time>2017-02-26T10:12:41Z</time>
      </trkpt>
      <trkpt lat="45.32611" lon="6.18519">
        <ele>2396.4899902344</ele>
        <time>2017-02-26T10:12:45Z</time>
      </trkpt>
      <trkpt lat="45.3261" lon="6.18527">
        <ele>2394.4899902344</ele>
        <time>2017-02-26T10:12:52Z</time>
      </trkpt>
      <trkpt lat="45.32608" lon="6.18532">
        <ele>2392.4899902344</ele>
        <time>2017-02-26T10:12:56Z</time>
      </trkpt>
      <trkpt lat="45.32612" lon="6.1854">
        <ele>2387.4899902344</ele>
        <time>2017-02-26T10:13:02Z</time>
      </trkpt>
      <trkpt lat="45.32612" lon="6.18547">
        <ele>2384.4899902344</ele>
        <time>2017-02-26T10:13:04Z</time>
      </trkpt>
      <trkpt lat="45.3261" lon="6.18554">
        <ele>2379.4899902344</ele>
        <time>2017-02-26T10:13:08Z</time>
      </trkpt>
      <trkpt lat="45.32615" lon="6.18558">
        <ele>2379.4899902344</ele>
        <time>2017-02-26T10:13:09Z</time>
      </trkpt>
      <trkpt lat="45.32617" lon="6.18567">
        <ele>2376.4899902344</ele>
        <time>2017-02-26T10:13:11Z</time>
      </trkpt>
      <trkpt lat="45.32613" lon="6.18574">
        <ele>2374.4899902344</ele>
        <time>2017-02-26T10:13:13Z</time>
      </trkpt>
      <trkpt lat="45.32604" lon="6.18581">
        <ele>2373.4899902344</ele>
        <time>2017-02-26T10:13:15Z</time>
      </trkpt>
      <trkpt lat="45.32609" lon="6.18587">
        <ele>2372.4899902344</ele>
        <time>2017-02-26T10:13:16Z</time>
      </trkpt>
      <trkpt lat="45.32614" lon="6.18593">
        <ele>2370.4899902344</ele>
        <time>2017-02-26T10:13:18Z</time>
      </trkpt>
      <trkpt lat="45.32612" lon="6.18603">
        <ele>2368.4899902344</ele>
        <time>2017-02-26T10:13:20Z</time>
      </trkpt>
      <trkpt lat="45.32605" lon="6.1861">
        <ele>2365.4899902344</ele>
        <time>2017-02-26T10:13:22Z</time>
      </trkpt>
      <trkpt lat="45.32599" lon="6.18615">
        <ele>2363.4899902344</ele>
        <time>2017-02-26T10:13:24Z</time>
      </trkpt>
      <trkpt lat="45.32603" lon="6.1862">
        <ele>2363.4899902344</ele>
        <time>2017-02-26T10:13:25Z</time>
      </trkpt>
      <trkpt lat="45.32602" lon="6.18632">
        <ele>2361.4899902344</ele>
        <time>2017-02-26T10:13:27Z</time>
      </trkpt>
      <trkpt lat="45.32599" lon="6.18637">
        <ele>2360.4899902344</ele>
        <time>2017-02-26T10:13:28Z</time>
      </trkpt>
      <trkpt lat="45.32586" lon="6.18654">
        <ele>2357.4899902344</ele>
        <time>2017-02-26T10:13:30Z</time>
      </trkpt>
      <trkpt lat="45.32574" lon="6.18668">
        <ele>2357.4899902344</ele>
        <time>2017-02-26T10:13:31Z</time>
      </trkpt>
      <trkpt lat="45.3257" lon="6.18678">
        <ele>2356.4899902344</ele>
        <time>2017-02-26T10:13:32Z</time>
      </trkpt>
      <trkpt lat="45.32559" lon="6.18696">
        <ele>2352.4899902344</ele>
        <time>2017-02-26T10:13:34Z</time>
      </trkpt>
      <trkpt lat="45.32545" lon="6.18718">
        <ele>2349.4899902344</ele>
        <time>2017-02-26T10:13:36Z</time>
      </trkpt>
      <trkpt lat="45.3253" lon="6.18742">
        <ele>2346.4899902344</ele>
        <time>2017-02-26T10:13:38Z</time>
      </trkpt>
      <trkpt lat="45.32519" lon="6.18772">
        <ele>2342.4899902344</ele>
        <time>2017-02-26T10:13:40Z</time>
      </trkpt>
      <trkpt lat="45.32511" lon="6.18797">
        <ele>2339.4899902344</ele>
        <time>2017-02-26T10:13:42Z</time>
      </trkpt>
      <trkpt lat="45.32506" lon="6.18817">
        <ele>2336.4899902344</ele>
        <time>2017-02-26T10:13:44Z</time>
      </trkpt>
      <trkpt lat="45.32501" lon="6.18841">
        <ele>2332.4899902344</ele>
        <time>2017-02-26T10:13:46Z</time>
      </trkpt>
      <trkpt lat="45.32494" lon="6.18869">
        <ele>2328.4899902344</ele>
        <time>2017-02-26T10:13:48Z</time>
      </trkpt>
      <trkpt lat="45.32488" lon="6.18892">
        <ele>2326.4899902344</ele>
        <time>2017-02-26T10:13:50Z</time>
      </trkpt>
      <trkpt lat="45.32485" lon="6.18902">
        <ele>2326.4899902344</ele>
        <time>2017-02-26T10:13:51Z</time>
      </trkpt>
      <trkpt lat="45.32479" lon="6.18924">
        <ele>2324.4899902344</ele>
        <time>2017-02-26T10:13:53Z</time>
      </trkpt>
      <trkpt lat="45.32475" lon="6.18947">
        <ele>2321.4899902344</ele>
        <time>2017-02-26T10:13:55Z</time>
      </trkpt>
      <trkpt lat="45.32469" lon="6.18969">
        <ele>2314.4899902344</ele>
        <time>2017-02-26T10:13:57Z</time>
      </trkpt>
      <trkpt lat="45.32462" lon="6.19001">
        <ele>2310.4899902344</ele>
        <time>2017-02-26T10:13:59Z</time>
      </trkpt>
      <trkpt lat="45.32456" lon="6.1903">
        <ele>2308.4899902344</ele>
        <time>2017-02-26T10:14:01Z</time>
      </trkpt>
      <trkpt lat="45.32455" lon="6.19046">
        <ele>2307.4899902344</ele>
        <time>2017-02-26T10:14:02Z</time>
      </trkpt>
      <trkpt lat="45.32453" lon="6.19071">
        <ele>2303.4899902344</ele>
        <time>2017-02-26T10:14:04Z</time>
      </trkpt>
      <trkpt lat="45.32452" lon="6.19094">
        <ele>2299.4899902344</ele>
        <time>2017-02-26T10:14:06Z</time>
      </trkpt>
      <trkpt lat="45.32446" lon="6.19122">
        <ele>2300.4899902344</ele>
        <time>2017-02-26T10:14:08Z</time>
      </trkpt>
      <trkpt lat="45.32443" lon="6.1914">
        <ele>2292.4899902344</ele>
        <time>2017-02-26T10:14:10Z</time>
      </trkpt>
      <trkpt lat="45.32436" lon="6.19169">
        <ele>2291.4909667969</ele>
        <time>2017-02-26T10:14:12Z</time>
      </trkpt>
      <trkpt lat="45.32426" lon="6.19196">
        <ele>2289.4909667969</ele>
        <time>2017-02-26T10:14:14Z</time>
      </trkpt>
      <trkpt lat="45.32421" lon="6.19215">
        <ele>2283.4909667969</ele>
        <time>2017-02-26T10:14:16Z</time>
      </trkpt>
      <trkpt lat="45.32415" lon="6.19239">
        <ele>2281.4909667969</ele>
        <time>2017-02-26T10:14:18Z</time>
      </trkpt>
      <trkpt lat="45.32409" lon="6.19263">
        <ele>2278.4909667969</ele>
        <time>2017-02-26T10:14:20Z</time>
      </trkpt>
      <trkpt lat="45.32402" lon="6.1929">
        <ele>2278.4909667969</ele>
        <time>2017-02-26T10:14:22Z</time>
      </trkpt>
      <trkpt lat="45.32397" lon="6.19303">
        <ele>2277.4909667969</ele>
        <time>2017-02-26T10:14:23Z</time>
      </trkpt>
      <trkpt lat="45.32393" lon="6.1932">
        <ele>2269.4909667969</ele>
        <time>2017-02-26T10:14:25Z</time>
      </trkpt>
      <trkpt lat="45.32387" lon="6.19345">
        <ele>2266.4909667969</ele>
        <time>2017-02-26T10:14:27Z</time>
      </trkpt>
      <trkpt lat="45.32379" lon="6.19369">
        <ele>2265.4909667969</ele>
        <time>2017-02-26T10:14:29Z</time>
      </trkpt>
      <trkpt lat="45.32374" lon="6.19379">
        <ele>2264.4909667969</ele>
        <time>2017-02-26T10:14:30Z</time>
      </trkpt>
      <trkpt lat="45.32365" lon="6.19397">
        <ele>2263.4909667969</ele>
        <time>2017-02-26T10:14:32Z</time>
      </trkpt>
      <trkpt lat="45.32357" lon="6.19398">
        <ele>2253.4909667969</ele>
        <time>2017-02-26T10:14:36Z</time>
      </trkpt>
      <trkpt lat="45.32361" lon="6.19392">
        <ele>2250.4909667969</ele>
        <time>2017-02-26T10:14:37Z</time>
      </trkpt>
      <trkpt lat="45.32363" lon="6.19386">
        <ele>2239.4909667969</ele>
        <time>2017-02-26T10:14:50Z</time>
      </trkpt>
      <trkpt lat="45.3236" lon="6.1938">
        <ele>2220.4909667969</ele>
        <time>2017-02-26T10:17:15Z</time>
      </trkpt>
      <trkpt lat="45.32357" lon="6.19376">
        <ele>2214.4909667969</ele>
        <time>2017-02-26T10:17:21Z</time>
      </trkpt>
      <trkpt lat="45.32357" lon="6.1937">
        <ele>2207.4909667969</ele>
        <time>2017-02-26T10:17:23Z</time>
      </trkpt>
      <trkpt lat="45.32353" lon="6.19366">
        <ele>2201.4909667969</ele>
        <time>2017-02-26T10:17:31Z</time>
      </trkpt>
      <trkpt lat="45.32347" lon="6.19368">
        <ele>2201.4909667969</ele>
        <time>2017-02-26T10:17:35Z</time>
      </trkpt>
      <trkpt lat="45.32345" lon="6.19375">
        <ele>2202.4909667969</ele>
        <time>2017-02-26T10:17:43Z</time>
      </trkpt>
      <trkpt lat="45.32343" lon="6.1938">
        <ele>2202.4909667969</ele>
        <time>2017-02-26T10:17:48Z</time>
      </trkpt>
      <trkpt lat="45.32342" lon="6.19387">
        <ele>2204.4909667969</ele>
        <time>2017-02-26T10:17:53Z</time>
      </trkpt>
      <trkpt lat="45.32338" lon="6.1939">
        <ele>2206.4909667969</ele>
        <time>2017-02-26T10:17:58Z</time>
      </trkpt>
      <trkpt lat="45.32334" lon="6.19387">
        <ele>2206.4909667969</ele>
        <time>2017-02-26T10:18:03Z</time>
      </trkpt>
      <trkpt lat="45.32333" lon="6.1938">
        <ele>2206.4909667969</ele>
        <time>2017-02-26T10:18:10Z</time>
      </trkpt>
      <trkpt lat="45.32329" lon="6.19374">
        <ele>2205.4909667969</ele>
        <time>2017-02-26T10:18:15Z</time>
      </trkpt>
      <trkpt lat="45.32327" lon="6.19368">
        <ele>2208.4909667969</ele>
        <time>2017-02-26T10:18:25Z</time>
      </trkpt>
      <trkpt lat="45.32323" lon="6.19373">
        <ele>2209.4909667969</ele>
        <time>2017-02-26T10:18:39Z</time>
      </trkpt>
      <trkpt lat="45.32321" lon="6.19379">
        <ele>2209.4909667969</ele>
        <time>2017-02-26T10:18:45Z</time>
      </trkpt>
      <trkpt lat="45.32319" lon="6.19387">
        <ele>2210.4909667969</ele>
        <time>2017-02-26T10:18:52Z</time>
      </trkpt>
      <trkpt lat="45.32314" lon="6.1939">
        <ele>2211.4909667969</ele>
        <time>2017-02-26T10:19:01Z</time>
      </trkpt>
      <trkpt lat="45.32311" lon="6.19383">
        <ele>2210.4909667969</ele>
        <time>2017-02-26T10:19:07Z</time>
      </trkpt>
      <trkpt lat="45.32309" lon="6.19377">
        <ele>2209.4909667969</ele>
        <time>2017-02-26T10:19:17Z</time>
      </trkpt>
      <trkpt lat="45.32305" lon="6.19381">
        <ele>2209.4909667969</ele>
        <time>2017-02-26T10:19:25Z</time>
      </trkpt>
      <trkpt lat="45.32303" lon="6.19387">
        <ele>2214.4909667969</ele>
        <time>2017-02-26T10:19:32Z</time>
      </trkpt>
      <trkpt lat="45.32301" lon="6.19394">
        <ele>2215.4909667969</ele>
        <time>2017-02-26T10:19:38Z</time>
      </trkpt>
      <trkpt lat="45.32298" lon="6.194">
        <ele>2217.4909667969</ele>
        <time>2017-02-26T10:19:43Z</time>
      </trkpt>
      <trkpt lat="45.32294" lon="6.19398">
        <ele>2217.4909667969</ele>
        <time>2017-02-26T10:19:56Z</time>
      </trkpt>
      <trkpt lat="45.3229" lon="6.19394">
        <ele>2216.4909667969</ele>
        <time>2017-02-26T10:19:59Z</time>
      </trkpt>
      <trkpt lat="45.32285" lon="6.19391">
        <ele>2213.4909667969</ele>
        <time>2017-02-26T10:20:04Z</time>
      </trkpt>
      <trkpt lat="45.32281" lon="6.19393">
        <ele>2219.4909667969</ele>
        <time>2017-02-26T10:20:21Z</time>
      </trkpt>
      <trkpt lat="45.32277" lon="6.19398">
        <ele>2220.4909667969</ele>
        <time>2017-02-26T10:20:27Z</time>
      </trkpt>
      <trkpt lat="45.32273" lon="6.19401">
        <ele>2222.4909667969</ele>
        <time>2017-02-26T10:20:36Z</time>
      </trkpt>
      <trkpt lat="45.32268" lon="6.19399">
        <ele>2221.4909667969</ele>
        <time>2017-02-26T10:20:40Z</time>
      </trkpt>
      <trkpt lat="45.32264" lon="6.19398">
        <ele>2219.4899902344</ele>
        <time>2017-02-26T10:20:45Z</time>
      </trkpt>
      <trkpt lat="45.32259" lon="6.19401">
        <ele>2216.4899902344</ele>
        <time>2017-02-26T10:20:49Z</time>
      </trkpt>
      <trkpt lat="45.32254" lon="6.19402">
        <ele>2218.4899902344</ele>
        <time>2017-02-26T10:20:55Z</time>
      </trkpt>
      <trkpt lat="45.32249" lon="6.19401">
        <ele>2216.4899902344</ele>
        <time>2017-02-26T10:21:01Z</time>
      </trkpt>
      <trkpt lat="45.32246" lon="6.19405">
        <ele>2220.4899902344</ele>
        <time>2017-02-26T10:21:14Z</time>
      </trkpt>
      <trkpt lat="45.32241" lon="6.19406">
        <ele>2220.4899902344</ele>
        <time>2017-02-26T10:21:21Z</time>
      </trkpt>
      <trkpt lat="45.32237" lon="6.1941">
        <ele>2216.4899902344</ele>
        <time>2017-02-26T10:21:29Z</time>
      </trkpt>
      <trkpt lat="45.32231" lon="6.19413">
        <ele>2219.4899902344</ele>
        <time>2017-02-26T10:21:38Z</time>
      </trkpt>
      <trkpt lat="45.32227" lon="6.19414">
        <ele>2219.4899902344</ele>
        <time>2017-02-26T10:21:44Z</time>
      </trkpt>
      <trkpt lat="45.32222" lon="6.19416">
        <ele>2222.4899902344</ele>
        <time>2017-02-26T10:21:53Z</time>
      </trkpt>
      <trkpt lat="45.32223" lon="6.19423">
        <ele>2225.4899902344</ele>
        <time>2017-02-26T10:22:00Z</time>
      </trkpt>
      <trkpt lat="45.3222" lon="6.19429">
        <ele>2233.4899902344</ele>
        <time>2017-02-26T10:22:12Z</time>
      </trkpt>
      <trkpt lat="45.32214" lon="6.19428">
        <ele>2234.4899902344</ele>
        <time>2017-02-26T10:22:17Z</time>
      </trkpt>
      <trkpt lat="45.3221" lon="6.19425">
        <ele>2239.4899902344</ele>
        <time>2017-02-26T10:22:25Z</time>
      </trkpt>
      <trkpt lat="45.32207" lon="6.19433">
        <ele>2238.4899902344</ele>
        <time>2017-02-26T10:22:31Z</time>
      </trkpt>
      <trkpt lat="45.32202" lon="6.19435">
        <ele>2243.4899902344</ele>
        <time>2017-02-26T10:22:45Z</time>
      </trkpt>
      <trkpt lat="45.32197" lon="6.19434">
        <ele>2241.4899902344</ele>
        <time>2017-02-26T10:22:49Z</time>
      </trkpt>
      <trkpt lat="45.322" lon="6.1944">
        <ele>2243.4899902344</ele>
        <time>2017-02-26T10:23:06Z</time>
      </trkpt>
      <trkpt lat="45.32194" lon="6.19438">
        <ele>2242.4899902344</ele>
        <time>2017-02-26T10:23:12Z</time>
      </trkpt>
      <trkpt lat="45.3219" lon="6.19442">
        <ele>2245.4899902344</ele>
        <time>2017-02-26T10:23:21Z</time>
      </trkpt>
      <trkpt lat="45.32191" lon="6.19449">
        <ele>2248.4899902344</ele>
        <time>2017-02-26T10:23:29Z</time>
      </trkpt>
      <trkpt lat="45.32185" lon="6.19451">
        <ele>2255.4899902344</ele>
        <time>2017-02-26T10:23:43Z</time>
      </trkpt>
      <trkpt lat="45.3218" lon="6.19452">
        <ele>2254.4899902344</ele>
        <time>2017-02-26T10:23:47Z</time>
      </trkpt>
      <trkpt lat="45.32175" lon="6.1945">
        <ele>2256.4899902344</ele>
        <time>2017-02-26T10:23:56Z</time>
      </trkpt>
      <trkpt lat="45.32175" lon="6.19456">
        <ele>2255.4899902344</ele>
        <time>2017-02-26T10:24:03Z</time>
      </trkpt>
      <trkpt lat="45.3217" lon="6.19458">
        <ele>2261.4899902344</ele>
        <time>2017-02-26T10:24:18Z</time>
      </trkpt>
      <trkpt lat="45.32168" lon="6.19452">
        <ele>2268.4899902344</ele>
        <time>2017-02-26T10:24:28Z</time>
      </trkpt>
      <trkpt lat="45.32163" lon="6.19455">
        <ele>2270.4899902344</ele>
        <time>2017-02-26T10:24:48Z</time>
      </trkpt>
      <trkpt lat="45.32157" lon="6.19455">
        <ele>2268.4899902344</ele>
        <time>2017-02-26T10:24:56Z</time>
      </trkpt>
      <trkpt lat="45.32157" lon="6.19462">
        <ele>2273.4899902344</ele>
        <time>2017-02-26T10:25:10Z</time>
      </trkpt>
      <trkpt lat="45.32152" lon="6.19463">
        <ele>2277.4899902344</ele>
        <time>2017-02-26T10:25:21Z</time>
      </trkpt>
      <trkpt lat="45.32148" lon="6.19459">
        <ele>2283.4899902344</ele>
        <time>2017-02-26T10:25:31Z</time>
      </trkpt>
      <trkpt lat="45.32143" lon="6.19457">
        <ele>2282.4899902344</ele>
        <time>2017-02-26T10:25:37Z</time>
      </trkpt>
      <trkpt lat="45.32139" lon="6.19462">
        <ele>2281.4899902344</ele>
        <time>2017-02-26T10:25:45Z</time>
      </trkpt>
      <trkpt lat="45.32134" lon="6.19466">
        <ele>2287.4899902344</ele>
        <time>2017-02-26T10:26:01Z</time>
      </trkpt>
      <trkpt lat="45.32129" lon="6.19463">
        <ele>2288.4899902344</ele>
        <time>2017-02-26T10:26:07Z</time>
      </trkpt>
      <trkpt lat="45.32125" lon="6.19465">
        <ele>2285.4899902344</ele>
        <time>2017-02-26T10:26:10Z</time>
      </trkpt>
      <trkpt lat="45.32125" lon="6.19472">
        <ele>2288.4899902344</ele>
        <time>2017-02-26T10:26:18Z</time>
      </trkpt>
      <trkpt lat="45.32119" lon="6.19472">
        <ele>2288.4899902344</ele>
        <time>2017-02-26T10:26:22Z</time>
      </trkpt>
      <trkpt lat="45.32115" lon="6.19467">
        <ele>2292.4899902344</ele>
        <time>2017-02-26T10:26:31Z</time>
      </trkpt>
      <trkpt lat="45.32112" lon="6.19461">
        <ele>2295.4899902344</ele>
        <time>2017-02-26T10:26:42Z</time>
      </trkpt>
      <trkpt lat="45.32108" lon="6.19457">
        <ele>2295.4899902344</ele>
        <time>2017-02-26T10:26:45Z</time>
      </trkpt>
      <trkpt lat="45.32103" lon="6.19454">
        <ele>2296.4899902344</ele>
        <time>2017-02-26T10:26:52Z</time>
      </trkpt>
      <trkpt lat="45.32099" lon="6.19451">
        <ele>2299.4899902344</ele>
        <time>2017-02-26T10:27:01Z</time>
      </trkpt>
      <trkpt lat="45.32095" lon="6.19457">
        <ele>2297.4899902344</ele>
        <time>2017-02-26T10:27:13Z</time>
      </trkpt>
      <trkpt lat="45.32091" lon="6.19459">
        <ele>2303.4899902344</ele>
        <time>2017-02-26T10:27:19Z</time>
      </trkpt>
      <trkpt lat="45.32087" lon="6.19461">
        <ele>2306.4899902344</ele>
        <time>2017-02-26T10:27:22Z</time>
      </trkpt>
      <trkpt lat="45.32081" lon="6.19461">
        <ele>2303.4899902344</ele>
        <time>2017-02-26T10:27:27Z</time>
      </trkpt>
      <trkpt lat="45.32078" lon="6.19455">
        <ele>2300.4899902344</ele>
        <time>2017-02-26T10:27:33Z</time>
      </trkpt>
      <trkpt lat="45.32074" lon="6.19453">
        <ele>2297.4899902344</ele>
        <time>2017-02-26T10:27:36Z</time>
      </trkpt>
      <trkpt lat="45.32069" lon="6.1945">
        <ele>2303.4899902344</ele>
        <time>2017-02-26T10:27:48Z</time>
      </trkpt>
      <trkpt lat="45.32063" lon="6.19449">
        <ele>2301.4899902344</ele>
        <time>2017-02-26T10:27:57Z</time>
      </trkpt>
      <trkpt lat="45.32059" lon="6.19446">
        <ele>2300.4899902344</ele>
        <time>2017-02-26T10:28:00Z</time>
      </trkpt>
      <trkpt lat="45.32054" lon="6.19445">
        <ele>2298.4899902344</ele>
        <time>2017-02-26T10:28:02Z</time>
      </trkpt>
      <trkpt lat="45.32049" lon="6.19442">
        <ele>2301.4899902344</ele>
        <time>2017-02-26T10:28:08Z</time>
      </trkpt>
      <trkpt lat="45.32043" lon="6.19442">
        <ele>2301.4899902344</ele>
        <time>2017-02-26T10:28:11Z</time>
      </trkpt>
      <trkpt lat="45.32039" lon="6.19439">
        <ele>2301.4899902344</ele>
        <time>2017-02-26T10:28:14Z</time>
      </trkpt>
      <trkpt lat="45.32034" lon="6.19437">
        <ele>2299.4899902344</ele>
        <time>2017-02-26T10:28:19Z</time>
      </trkpt>
      <trkpt lat="45.32028" lon="6.19437">
        <ele>2302.4899902344</ele>
        <time>2017-02-26T10:28:26Z</time>
      </trkpt>
      <trkpt lat="45.32024" lon="6.19432">
        <ele>2306.4899902344</ele>
        <time>2017-02-26T10:28:33Z</time>
      </trkpt>
      <trkpt lat="45.32025" lon="6.19439">
        <ele>2312.4899902344</ele>
        <time>2017-02-26T10:28:46Z</time>
      </trkpt>
      <trkpt lat="45.32023" lon="6.19445">
        <ele>2312.4899902344</ele>
        <time>2017-02-26T10:28:49Z</time>
      </trkpt>
      <trkpt lat="45.32027" lon="6.19449">
        <ele>2312.4899902344</ele>
        <time>2017-02-26T10:28:55Z</time>
      </trkpt>
      <trkpt lat="45.32028" lon="6.19455">
        <ele>2315.4899902344</ele>
        <time>2017-02-26T10:29:01Z</time>
      </trkpt>
      <trkpt lat="45.32027" lon="6.19461">
        <ele>2314.4899902344</ele>
        <time>2017-02-26T10:29:11Z</time>
      </trkpt>
      <trkpt lat="45.32022" lon="6.19463">
        <ele>2314.4899902344</ele>
        <time>2017-02-26T10:29:15Z</time>
      </trkpt>
      <trkpt lat="45.32018" lon="6.19465">
        <ele>2318.4899902344</ele>
        <time>2017-02-26T10:29:20Z</time>
      </trkpt>
      <trkpt lat="45.32012" lon="6.19467">
        <ele>2320.4899902344</ele>
        <time>2017-02-26T10:29:26Z</time>
      </trkpt>
      <trkpt lat="45.32009" lon="6.19474">
        <ele>2329.4899902344</ele>
        <time>2017-02-26T10:29:51Z</time>
      </trkpt>
      <trkpt lat="45.32013" lon="6.1948">
        <ele>2332.4899902344</ele>
        <time>2017-02-26T10:29:57Z</time>
      </trkpt>
      <trkpt lat="45.3201" lon="6.19486">
        <ele>2334.4899902344</ele>
        <time>2017-02-26T10:30:05Z</time>
      </trkpt>
      <trkpt lat="45.32005" lon="6.19484">
        <ele>2332.4899902344</ele>
        <time>2017-02-26T10:30:14Z</time>
      </trkpt>
      <trkpt lat="45.32" lon="6.19482">
        <ele>2328.4899902344</ele>
        <time>2017-02-26T10:30:18Z</time>
      </trkpt>
      <trkpt lat="45.31995" lon="6.19479">
        <ele>2329.4899902344</ele>
        <time>2017-02-26T10:30:23Z</time>
      </trkpt>
      <trkpt lat="45.31988" lon="6.19481">
        <ele>2327.4899902344</ele>
        <time>2017-02-26T10:30:27Z</time>
      </trkpt>
      <trkpt lat="45.31992" lon="6.19487">
        <ele>2333.4899902344</ele>
        <time>2017-02-26T10:30:38Z</time>
      </trkpt>
      <trkpt lat="45.31996" lon="6.19491">
        <ele>2335.4899902344</ele>
        <time>2017-02-26T10:30:44Z</time>
      </trkpt>
      <trkpt lat="45.31991" lon="6.19492">
        <ele>2343.4899902344</ele>
        <time>2017-02-26T10:30:57Z</time>
      </trkpt>
      <trkpt lat="45.31987" lon="6.1949">
        <ele>2339.4899902344</ele>
        <time>2017-02-26T10:31:03Z</time>
      </trkpt>
      <trkpt lat="45.31982" lon="6.19487">
        <ele>2338.4899902344</ele>
        <time>2017-02-26T10:31:06Z</time>
      </trkpt>
      <trkpt lat="45.31977" lon="6.19486">
        <ele>2333.4899902344</ele>
        <time>2017-02-26T10:31:09Z</time>
      </trkpt>
      <trkpt lat="45.3198" lon="6.19491">
        <ele>2335.4899902344</ele>
        <time>2017-02-26T10:31:18Z</time>
      </trkpt>
      <trkpt lat="45.3198" lon="6.19498">
        <ele>2339.4899902344</ele>
        <time>2017-02-26T10:31:23Z</time>
      </trkpt>
      <trkpt lat="45.31975" lon="6.19499">
        <ele>2343.4899902344</ele>
        <time>2017-02-26T10:31:35Z</time>
      </trkpt>
      <trkpt lat="45.31973" lon="6.19493">
        <ele>2347.4899902344</ele>
        <time>2017-02-26T10:31:42Z</time>
      </trkpt>
      <trkpt lat="45.31968" lon="6.1949">
        <ele>2346.4899902344</ele>
        <time>2017-02-26T10:31:50Z</time>
      </trkpt>
      <trkpt lat="45.31967" lon="6.19483">
        <ele>2348.4899902344</ele>
        <time>2017-02-26T10:31:55Z</time>
      </trkpt>
      <trkpt lat="45.31966" lon="6.1949">
        <ele>2348.4899902344</ele>
        <time>2017-02-26T10:32:09Z</time>
      </trkpt>
      <trkpt lat="45.31963" lon="6.19495">
        <ele>2357.4899902344</ele>
        <time>2017-02-26T10:32:22Z</time>
      </trkpt>
      <trkpt lat="45.31958" lon="6.19491">
        <ele>2362.4899902344</ele>
        <time>2017-02-26T10:32:29Z</time>
      </trkpt>
      <trkpt lat="45.31954" lon="6.19487">
        <ele>2362.4899902344</ele>
        <time>2017-02-26T10:32:34Z</time>
      </trkpt>
      <trkpt lat="45.31951" lon="6.19483">
        <ele>2362.4899902344</ele>
        <time>2017-02-26T10:32:39Z</time>
      </trkpt>
      <trkpt lat="45.31947" lon="6.19478">
        <ele>2363.4899902344</ele>
        <time>2017-02-26T10:32:45Z</time>
      </trkpt>
      <trkpt lat="45.31951" lon="6.19482">
        <ele>2367.4899902344</ele>
        <time>2017-02-26T10:32:58Z</time>
      </trkpt>
      <trkpt lat="45.31947" lon="6.19488">
        <ele>2365.4899902344</ele>
        <time>2017-02-26T10:33:04Z</time>
      </trkpt>
      <trkpt lat="45.31942" lon="6.1949">
        <ele>2366.4899902344</ele>
        <time>2017-02-26T10:33:09Z</time>
      </trkpt>
      <trkpt lat="45.31939" lon="6.19486">
        <ele>2368.4899902344</ele>
        <time>2017-02-26T10:33:13Z</time>
      </trkpt>
      <trkpt lat="45.31933" lon="6.19484">
        <ele>2366.4899902344</ele>
        <time>2017-02-26T10:33:20Z</time>
      </trkpt>
      <trkpt lat="45.31927" lon="6.19482">
        <ele>2366.4899902344</ele>
        <time>2017-02-26T10:33:25Z</time>
      </trkpt>
      <trkpt lat="45.31925" lon="6.19489">
        <ele>2368.4899902344</ele>
        <time>2017-02-26T10:33:50Z</time>
      </trkpt>
      <trkpt lat="45.3192" lon="6.19489">
        <ele>2369.4899902344</ele>
        <time>2017-02-26T10:33:54Z</time>
      </trkpt>
      <trkpt lat="45.31916" lon="6.19484">
        <ele>2372.4899902344</ele>
        <time>2017-02-26T10:34:06Z</time>
      </trkpt>
      <trkpt lat="45.31918" lon="6.19491">
        <ele>2376.4899902344</ele>
        <time>2017-02-26T10:34:15Z</time>
      </trkpt>
      <trkpt lat="45.31918" lon="6.19499">
        <ele>2377.4899902344</ele>
        <time>2017-02-26T10:34:20Z</time>
      </trkpt>
      <trkpt lat="45.31921" lon="6.19505">
        <ele>2379.4899902344</ele>
        <time>2017-02-26T10:34:29Z</time>
      </trkpt>
      <trkpt lat="45.31915" lon="6.19502">
        <ele>2384.4899902344</ele>
        <time>2017-02-26T10:34:46Z</time>
      </trkpt>
      <trkpt lat="45.31911" lon="6.19499">
        <ele>2384.4899902344</ele>
        <time>2017-02-26T10:34:50Z</time>
      </trkpt>
      <trkpt lat="45.31907" lon="6.19495">
        <ele>2385.4899902344</ele>
        <time>2017-02-26T10:34:53Z</time>
      </trkpt>
      <trkpt lat="45.31903" lon="6.19491">
        <ele>2385.4899902344</ele>
        <time>2017-02-26T10:35:01Z</time>
      </trkpt>
      <trkpt lat="45.31899" lon="6.19488">
        <ele>2383.4899902344</ele>
        <time>2017-02-26T10:35:09Z</time>
      </trkpt>
      <trkpt lat="45.31893" lon="6.19486">
        <ele>2383.4899902344</ele>
        <time>2017-02-26T10:35:14Z</time>
      </trkpt>
      <trkpt lat="45.31888" lon="6.19484">
        <ele>2382.4899902344</ele>
        <time>2017-02-26T10:35:19Z</time>
      </trkpt>
      <trkpt lat="45.31883" lon="6.1948">
        <ele>2382.4899902344</ele>
        <time>2017-02-26T10:35:24Z</time>
      </trkpt>
      <trkpt lat="45.31879" lon="6.19476">
        <ele>2385.4899902344</ele>
        <time>2017-02-26T10:35:29Z</time>
      </trkpt>
      <trkpt lat="45.31873" lon="6.19475">
        <ele>2386.4899902344</ele>
        <time>2017-02-26T10:35:36Z</time>
      </trkpt>
      <trkpt lat="45.31872" lon="6.19481">
        <ele>2388.4899902344</ele>
        <time>2017-02-26T10:35:50Z</time>
      </trkpt>
      <trkpt lat="45.31871" lon="6.19488">
        <ele>2391.4899902344</ele>
        <time>2017-02-26T10:35:56Z</time>
      </trkpt>
      <trkpt lat="45.31872" lon="6.19496">
        <ele>2396.4899902344</ele>
        <time>2017-02-26T10:36:05Z</time>
      </trkpt>
      <trkpt lat="45.31868" lon="6.19496">
        <ele>2397.4899902344</ele>
        <time>2017-02-26T10:36:12Z</time>
      </trkpt>
      <trkpt lat="45.31863" lon="6.19492">
        <ele>2399.4899902344</ele>
        <time>2017-02-26T10:36:22Z</time>
      </trkpt>
      <trkpt lat="45.31859" lon="6.19488">
        <ele>2403.4899902344</ele>
        <time>2017-02-26T10:36:29Z</time>
      </trkpt>
      <trkpt lat="45.31854" lon="6.19485">
        <ele>2405.4899902344</ele>
        <time>2017-02-26T10:36:37Z</time>
      </trkpt>
      <trkpt lat="45.31852" lon="6.19479">
        <ele>2408.4899902344</ele>
        <time>2017-02-26T10:36:42Z</time>
      </trkpt>
      <trkpt lat="45.31851" lon="6.19485">
        <ele>2413.4899902344</ele>
        <time>2017-02-26T10:37:02Z</time>
      </trkpt>
      <trkpt lat="45.31854" lon="6.19491">
        <ele>2414.4899902344</ele>
        <time>2017-02-26T10:37:07Z</time>
      </trkpt>
      <trkpt lat="45.31849" lon="6.19492">
        <ele>2416.4899902344</ele>
        <time>2017-02-26T10:37:15Z</time>
      </trkpt>
      <trkpt lat="45.31845" lon="6.1949">
        <ele>2419.4899902344</ele>
        <time>2017-02-26T10:37:22Z</time>
      </trkpt>
      <trkpt lat="45.31839" lon="6.19488">
        <ele>2418.4899902344</ele>
        <time>2017-02-26T10:37:29Z</time>
      </trkpt>
      <trkpt lat="45.31836" lon="6.19483">
        <ele>2418.4899902344</ele>
        <time>2017-02-26T10:37:36Z</time>
      </trkpt>
      <trkpt lat="45.31836" lon="6.1949">
        <ele>2421.4899902344</ele>
        <time>2017-02-26T10:37:50Z</time>
      </trkpt>
      <trkpt lat="45.31837" lon="6.19497">
        <ele>2423.4899902344</ele>
        <time>2017-02-26T10:37:56Z</time>
      </trkpt>
      <trkpt lat="45.31838" lon="6.19504">
        <ele>2425.4899902344</ele>
        <time>2017-02-26T10:38:01Z</time>
      </trkpt>
      <trkpt lat="45.31833" lon="6.19501">
        <ele>2425.4899902344</ele>
        <time>2017-02-26T10:38:17Z</time>
      </trkpt>
      <trkpt lat="45.31829" lon="6.19497">
        <ele>2426.4899902344</ele>
        <time>2017-02-26T10:38:21Z</time>
      </trkpt>
      <trkpt lat="45.31828" lon="6.19488">
        <ele>2431.4899902344</ele>
        <time>2017-02-26T10:38:26Z</time>
      </trkpt>
      <trkpt lat="45.31823" lon="6.19488">
        <ele>2428.4899902344</ele>
        <time>2017-02-26T10:38:30Z</time>
      </trkpt>
      <trkpt lat="45.3182" lon="6.19483">
        <ele>2428.4899902344</ele>
        <time>2017-02-26T10:38:35Z</time>
      </trkpt>
      <trkpt lat="45.31816" lon="6.19479">
        <ele>2431.4899902344</ele>
        <time>2017-02-26T10:38:40Z</time>
      </trkpt>
      <trkpt lat="45.31816" lon="6.19486">
        <ele>2434.4899902344</ele>
        <time>2017-02-26T10:38:48Z</time>
      </trkpt>
      <trkpt lat="45.31817" lon="6.19492">
        <ele>2437.4899902344</ele>
        <time>2017-02-26T10:38:55Z</time>
      </trkpt>
      <trkpt lat="45.3182" lon="6.19497">
        <ele>2440.4899902344</ele>
        <time>2017-02-26T10:39:01Z</time>
      </trkpt>
      <trkpt lat="45.31815" lon="6.19495">
        <ele>2438.4899902344</ele>
        <time>2017-02-26T10:39:05Z</time>
      </trkpt>
      <trkpt lat="45.31812" lon="6.1949">
        <ele>2439.4899902344</ele>
        <time>2017-02-26T10:39:13Z</time>
      </trkpt>
      <trkpt lat="45.31808" lon="6.19486">
        <ele>2441.4899902344</ele>
        <time>2017-02-26T10:39:20Z</time>
      </trkpt>
      <trkpt lat="45.31805" lon="6.1948">
        <ele>2441.4899902344</ele>
        <time>2017-02-26T10:39:24Z</time>
      </trkpt>
      <trkpt lat="45.31801" lon="6.19477">
        <ele>2440.4899902344</ele>
        <time>2017-02-26T10:39:29Z</time>
      </trkpt>
      <trkpt lat="45.31797" lon="6.19473">
        <ele>2447.4899902344</ele>
        <time>2017-02-26T10:39:59Z</time>
      </trkpt>
      <trkpt lat="45.31793" lon="6.19467">
        <ele>2450.4899902344</ele>
        <time>2017-02-26T10:40:06Z</time>
      </trkpt>
      <trkpt lat="45.31793" lon="6.19461">
        <ele>2455.4899902344</ele>
        <time>2017-02-26T10:40:15Z</time>
      </trkpt>
      <trkpt lat="45.3179" lon="6.19456">
        <ele>2455.4899902344</ele>
        <time>2017-02-26T10:40:26Z</time>
      </trkpt>
      <trkpt lat="45.31786" lon="6.1946">
        <ele>2455.4899902344</ele>
        <time>2017-02-26T10:40:32Z</time>
      </trkpt>
      <trkpt lat="45.31782" lon="6.19464">
        <ele>2462.4899902344</ele>
        <time>2017-02-26T10:41:02Z</time>
      </trkpt>
      <trkpt lat="45.31777" lon="6.19465">
        <ele>2459.4899902344</ele>
        <time>2017-02-26T10:41:48Z</time>
      </trkpt>
      <trkpt lat="45.31771" lon="6.19465">
        <ele>2455.4899902344</ele>
        <time>2017-02-26T10:41:52Z</time>
      </trkpt>
      <trkpt lat="45.31761" lon="6.19468">
        <ele>2454.4899902344</ele>
        <time>2017-02-26T10:41:54Z</time>
      </trkpt>
      <trkpt lat="45.3175" lon="6.19482">
        <ele>2454.4899902344</ele>
        <time>2017-02-26T10:41:56Z</time>
      </trkpt>
      <trkpt lat="45.31737" lon="6.19493">
        <ele>2453.4899902344</ele>
        <time>2017-02-26T10:41:58Z</time>
      </trkpt>
      <trkpt lat="45.31722" lon="6.19505">
        <ele>2453.4899902344</ele>
        <time>2017-02-26T10:42:00Z</time>
      </trkpt>
      <trkpt lat="45.31707" lon="6.19517">
        <ele>2452.4899902344</ele>
        <time>2017-02-26T10:42:02Z</time>
      </trkpt>
      <trkpt lat="45.31691" lon="6.19529">
        <ele>2452.4899902344</ele>
        <time>2017-02-26T10:42:04Z</time>
      </trkpt>
      <trkpt lat="45.31675" lon="6.19543">
        <ele>2451.4899902344</ele>
        <time>2017-02-26T10:42:06Z</time>
      </trkpt>
      <trkpt lat="45.31658" lon="6.19554">
        <ele>2450.4899902344</ele>
        <time>2017-02-26T10:42:08Z</time>
      </trkpt>
      <trkpt lat="45.31638" lon="6.19553">
        <ele>2442.4899902344</ele>
        <time>2017-02-26T10:42:10Z</time>
      </trkpt>
      <trkpt lat="45.31628" lon="6.19555">
        <ele>2438.4890136719</ele>
        <time>2017-02-26T10:42:11Z</time>
      </trkpt>
      <trkpt lat="45.3161" lon="6.19568">
        <ele>2434.4890136719</ele>
        <time>2017-02-26T10:42:13Z</time>
      </trkpt>
      <trkpt lat="45.31592" lon="6.19581">
        <ele>2432.4890136719</ele>
        <time>2017-02-26T10:42:15Z</time>
      </trkpt>
      <trkpt lat="45.31577" lon="6.19593">
        <ele>2431.4890136719</ele>
        <time>2017-02-26T10:42:17Z</time>
      </trkpt>
      <trkpt lat="45.31565" lon="6.19601">
        <ele>2425.4890136719</ele>
        <time>2017-02-26T10:42:19Z</time>
      </trkpt>
      <trkpt lat="45.31552" lon="6.19618">
        <ele>2421.4890136719</ele>
        <time>2017-02-26T10:42:21Z</time>
      </trkpt>
      <trkpt lat="45.31539" lon="6.19622">
        <ele>2418.4890136719</ele>
        <time>2017-02-26T10:42:23Z</time>
      </trkpt>
      <trkpt lat="45.31518" lon="6.19616">
        <ele>2415.4890136719</ele>
        <time>2017-02-26T10:42:25Z</time>
      </trkpt>
      <trkpt lat="45.31495" lon="6.19608">
        <ele>2412.4890136719</ele>
        <time>2017-02-26T10:42:27Z</time>
      </trkpt>
      <trkpt lat="45.3148" lon="6.19582">
        <ele>2408.4890136719</ele>
        <time>2017-02-26T10:42:29Z</time>
      </trkpt>
      <trkpt lat="45.31469" lon="6.19568">
        <ele>2403.4890136719</ele>
        <time>2017-02-26T10:42:31Z</time>
      </trkpt>
      <trkpt lat="45.31463" lon="6.19582">
        <ele>2400.4890136719</ele>
        <time>2017-02-26T10:42:32Z</time>
      </trkpt>
      <trkpt lat="45.31456" lon="6.19594">
        <ele>2396.4890136719</ele>
        <time>2017-02-26T10:42:38Z</time>
      </trkpt>
      <trkpt lat="45.31451" lon="6.19597">
        <ele>2398.4890136719</ele>
        <time>2017-02-26T10:42:40Z</time>
      </trkpt>
      <trkpt lat="45.31451" lon="6.19604">
        <ele>2389.4890136719</ele>
        <time>2017-02-26T10:43:19Z</time>
      </trkpt>
      <trkpt lat="45.31451" lon="6.1961">
        <ele>2389.4890136719</ele>
        <time>2017-02-26T10:43:32Z</time>
      </trkpt>
      <trkpt lat="45.31451" lon="6.19618">
        <ele>2385.4890136719</ele>
        <time>2017-02-26T10:43:45Z</time>
      </trkpt>
      <trkpt lat="45.3145" lon="6.19625">
        <ele>2383.4890136719</ele>
        <time>2017-02-26T10:43:56Z</time>
      </trkpt>
      <trkpt lat="45.31453" lon="6.19631">
        <ele>2387.4890136719</ele>
        <time>2017-02-26T10:44:18Z</time>
      </trkpt>
      <trkpt lat="45.31454" lon="6.19637">
        <ele>2398.4890136719</ele>
        <time>2017-02-26T10:44:34Z</time>
      </trkpt>
      <trkpt lat="45.31454" lon="6.19644">
        <ele>2402.4890136719</ele>
        <time>2017-02-26T10:44:49Z</time>
      </trkpt>
      <trkpt lat="45.31457" lon="6.19648">
        <ele>2404.4890136719</ele>
        <time>2017-02-26T10:45:03Z</time>
      </trkpt>
      <trkpt lat="45.31456" lon="6.19656">
        <ele>2405.4890136719</ele>
        <time>2017-02-26T10:45:22Z</time>
      </trkpt>
      <trkpt lat="45.31453" lon="6.1966">
        <ele>2407.4890136719</ele>
        <time>2017-02-26T10:45:29Z</time>
      </trkpt>
      <trkpt lat="45.31448" lon="6.19662">
        <ele>2402.4890136719</ele>
        <time>2017-02-26T10:46:07Z</time>
      </trkpt>
      <trkpt lat="45.31443" lon="6.19661">
        <ele>2408.4890136719</ele>
        <time>2017-02-26T10:46:36Z</time>
      </trkpt>
      <trkpt lat="45.31437" lon="6.19663">
        <ele>2409.4890136719</ele>
        <time>2017-02-26T10:46:45Z</time>
      </trkpt>
      <trkpt lat="45.31432" lon="6.19665">
        <ele>2411.4890136719</ele>
        <time>2017-02-26T10:47:00Z</time>
      </trkpt>
      <trkpt lat="45.31428" lon="6.19668">
        <ele>2414.4890136719</ele>
        <time>2017-02-26T10:47:09Z</time>
      </trkpt>
      <trkpt lat="45.31424" lon="6.19671">
        <ele>2413.4890136719</ele>
        <time>2017-02-26T10:47:19Z</time>
      </trkpt>
      <trkpt lat="45.3142" lon="6.19674">
        <ele>2418.4890136719</ele>
        <time>2017-02-26T10:47:32Z</time>
      </trkpt>
      <trkpt lat="45.31416" lon="6.19677">
        <ele>2421.4890136719</ele>
        <time>2017-02-26T10:47:40Z</time>
      </trkpt>
      <trkpt lat="45.31414" lon="6.19683">
        <ele>2424.4890136719</ele>
        <time>2017-02-26T10:47:49Z</time>
      </trkpt>
      <trkpt lat="45.31409" lon="6.19684">
        <ele>2428.4890136719</ele>
        <time>2017-02-26T10:48:07Z</time>
      </trkpt>
      <trkpt lat="45.31405" lon="6.19687">
        <ele>2431.4890136719</ele>
        <time>2017-02-26T10:48:15Z</time>
      </trkpt>
      <trkpt lat="45.314" lon="6.19688">
        <ele>2434.4890136719</ele>
        <time>2017-02-26T10:48:30Z</time>
      </trkpt>
      <trkpt lat="45.31396" lon="6.19693">
        <ele>2437.4890136719</ele>
        <time>2017-02-26T10:48:45Z</time>
      </trkpt>
      <trkpt lat="45.31391" lon="6.19692">
        <ele>2439.4890136719</ele>
        <time>2017-02-26T10:48:52Z</time>
      </trkpt>
      <trkpt lat="45.31386" lon="6.19693">
        <ele>2438.4890136719</ele>
        <time>2017-02-26T10:48:58Z</time>
      </trkpt>
      <trkpt lat="45.31381" lon="6.19695">
        <ele>2438.4890136719</ele>
        <time>2017-02-26T10:49:04Z</time>
      </trkpt>
      <trkpt lat="45.31376" lon="6.19693">
        <ele>2438.4890136719</ele>
        <time>2017-02-26T10:49:09Z</time>
      </trkpt>
      <trkpt lat="45.31371" lon="6.19695">
        <ele>2442.4890136719</ele>
        <time>2017-02-26T10:49:16Z</time>
      </trkpt>
      <trkpt lat="45.31367" lon="6.19695">
        <ele>2446.4890136719</ele>
        <time>2017-02-26T10:49:20Z</time>
      </trkpt>
      <trkpt lat="45.31361" lon="6.19701">
        <ele>2443.4890136719</ele>
        <time>2017-02-26T10:49:57Z</time>
      </trkpt>
      <trkpt lat="45.31358" lon="6.19708">
        <ele>2443.4890136719</ele>
        <time>2017-02-26T10:49:59Z</time>
      </trkpt>
      <trkpt lat="45.31364" lon="6.19715">
        <ele>2442.4890136719</ele>
        <time>2017-02-26T10:50:01Z</time>
      </trkpt>
      <trkpt lat="45.31365" lon="6.19726">
        <ele>2439.4890136719</ele>
        <time>2017-02-26T10:50:03Z</time>
      </trkpt>
      <trkpt lat="45.3136" lon="6.19733">
        <ele>2439.4890136719</ele>
        <time>2017-02-26T10:50:05Z</time>
      </trkpt>
      <trkpt lat="45.31362" lon="6.19741">
        <ele>2437.4890136719</ele>
        <time>2017-02-26T10:50:07Z</time>
      </trkpt>
      <trkpt lat="45.31367" lon="6.19755">
        <ele>2432.4890136719</ele>
        <time>2017-02-26T10:50:09Z</time>
      </trkpt>
      <trkpt lat="45.31359" lon="6.19762">
        <ele>2430.4890136719</ele>
        <time>2017-02-26T10:50:11Z</time>
      </trkpt>
      <trkpt lat="45.31348" lon="6.1978">
        <ele>2425.4890136719</ele>
        <time>2017-02-26T10:50:14Z</time>
      </trkpt>
      <trkpt lat="45.31343" lon="6.19793">
        <ele>2420.4890136719</ele>
        <time>2017-02-26T10:50:16Z</time>
      </trkpt>
      <trkpt lat="45.31335" lon="6.19805">
        <ele>2417.4890136719</ele>
        <time>2017-02-26T10:50:18Z</time>
      </trkpt>
      <trkpt lat="45.31338" lon="6.19811">
        <ele>2412.4890136719</ele>
        <time>2017-02-26T10:50:19Z</time>
      </trkpt>
      <trkpt lat="45.31329" lon="6.19827">
        <ele>2408.4890136719</ele>
        <time>2017-02-26T10:50:21Z</time>
      </trkpt>
      <trkpt lat="45.31314" lon="6.19836">
        <ele>2402.4890136719</ele>
        <time>2017-02-26T10:50:24Z</time>
      </trkpt>
      <trkpt lat="45.31303" lon="6.19844">
        <ele>2398.4890136719</ele>
        <time>2017-02-26T10:50:26Z</time>
      </trkpt>
      <trkpt lat="45.31295" lon="6.19855">
        <ele>2396.4890136719</ele>
        <time>2017-02-26T10:50:28Z</time>
      </trkpt>
      <trkpt lat="45.31305" lon="6.19896">
        <ele>2393.4890136719</ele>
        <time>2017-02-26T10:50:30Z</time>
      </trkpt>
      <trkpt lat="45.3131" lon="6.19899">
        <ele>2388.4890136719</ele>
        <time>2017-02-26T10:50:31Z</time>
      </trkpt>
      <trkpt lat="45.31317" lon="6.19919">
        <ele>2383.4890136719</ele>
        <time>2017-02-26T10:50:33Z</time>
      </trkpt>
      <trkpt lat="45.31312" lon="6.19929">
        <ele>2377.4890136719</ele>
        <time>2017-02-26T10:50:35Z</time>
      </trkpt>
      <trkpt lat="45.31307" lon="6.19936">
        <ele>2369.4890136719</ele>
        <time>2017-02-26T10:50:36Z</time>
      </trkpt>
      <trkpt lat="45.313" lon="6.19956">
        <ele>2362.4890136719</ele>
        <time>2017-02-26T10:50:38Z</time>
      </trkpt>
      <trkpt lat="45.31299" lon="6.19969">
        <ele>2358.4890136719</ele>
        <time>2017-02-26T10:50:39Z</time>
      </trkpt>
      <trkpt lat="45.31291" lon="6.19989">
        <ele>2354.4890136719</ele>
        <time>2017-02-26T10:50:41Z</time>
      </trkpt>
      <trkpt lat="45.31289" lon="6.20017">
        <ele>2348.4890136719</ele>
        <time>2017-02-26T10:50:43Z</time>
      </trkpt>
      <trkpt lat="45.31284" lon="6.20022">
        <ele>2342.4890136719</ele>
        <time>2017-02-26T10:50:44Z</time>
      </trkpt>
      <trkpt lat="45.3127" lon="6.20032">
        <ele>2341.4890136719</ele>
        <time>2017-02-26T10:50:46Z</time>
      </trkpt>
      <trkpt lat="45.31269" lon="6.20049">
        <ele>2336.4890136719</ele>
        <time>2017-02-26T10:50:48Z</time>
      </trkpt>
      <trkpt lat="45.31268" lon="6.20072">
        <ele>2332.4899902344</ele>
        <time>2017-02-26T10:50:50Z</time>
      </trkpt>
      <trkpt lat="45.31261" lon="6.20074">
        <ele>2322.4890136719</ele>
        <time>2017-02-26T10:50:53Z</time>
      </trkpt>
      <trkpt lat="45.31258" lon="6.20086">
        <ele>2310.4899902344</ele>
        <time>2017-02-26T10:51:01Z</time>
      </trkpt>
      <trkpt lat="45.31259" lon="6.20094">
        <ele>2308.4899902344</ele>
        <time>2017-02-26T10:51:02Z</time>
      </trkpt>
      <trkpt lat="45.31259" lon="6.2011">
        <ele>2306.4899902344</ele>
        <time>2017-02-26T10:51:04Z</time>
      </trkpt>
      <trkpt lat="45.31262" lon="6.20128">
        <ele>2304.4899902344</ele>
        <time>2017-02-26T10:51:06Z</time>
      </trkpt>
      <trkpt lat="45.31264" lon="6.20143">
        <ele>2302.4899902344</ele>
        <time>2017-02-26T10:51:08Z</time>
      </trkpt>
      <trkpt lat="45.31258" lon="6.20154">
        <ele>2295.4899902344</ele>
        <time>2017-02-26T10:51:10Z</time>
      </trkpt>
      <trkpt lat="45.3126" lon="6.20162">
        <ele>2293.4899902344</ele>
        <time>2017-02-26T10:51:11Z</time>
      </trkpt>
      <trkpt lat="45.31268" lon="6.20181">
        <ele>2288.4899902344</ele>
        <time>2017-02-26T10:51:14Z</time>
      </trkpt>
      <trkpt lat="45.31277" lon="6.20194">
        <ele>2285.4899902344</ele>
        <time>2017-02-26T10:51:16Z</time>
      </trkpt>
      <trkpt lat="45.31282" lon="6.2021">
        <ele>2280.4899902344</ele>
        <time>2017-02-26T10:51:18Z</time>
      </trkpt>
      <trkpt lat="45.31279" lon="6.2023">
        <ele>2275.4899902344</ele>
        <time>2017-02-26T10:51:21Z</time>
      </trkpt>
      <trkpt lat="45.31263" lon="6.20243">
        <ele>2273.4899902344</ele>
        <time>2017-02-26T10:51:24Z</time>
      </trkpt>
      <trkpt lat="45.31267" lon="6.20258">
        <ele>2267.4899902344</ele>
        <time>2017-02-26T10:51:26Z</time>
      </trkpt>
      <trkpt lat="45.31272" lon="6.20283">
        <ele>2262.4899902344</ele>
        <time>2017-02-26T10:51:28Z</time>
      </trkpt>
      <trkpt lat="45.31275" lon="6.20305">
        <ele>2255.4899902344</ele>
        <time>2017-02-26T10:51:30Z</time>
      </trkpt>
      <trkpt lat="45.31275" lon="6.20318">
        <ele>2253.4899902344</ele>
        <time>2017-02-26T10:51:31Z</time>
      </trkpt>
      <trkpt lat="45.31274" lon="6.20346">
        <ele>2250.4899902344</ele>
        <time>2017-02-26T10:51:33Z</time>
      </trkpt>
      <trkpt lat="45.31271" lon="6.20374">
        <ele>2249.4899902344</ele>
        <time>2017-02-26T10:51:35Z</time>
      </trkpt>
      <trkpt lat="45.3127" lon="6.20388">
        <ele>2243.4899902344</ele>
        <time>2017-02-26T10:51:36Z</time>
      </trkpt>
      <trkpt lat="45.31268" lon="6.20416">
        <ele>2236.4899902344</ele>
        <time>2017-02-26T10:51:38Z</time>
      </trkpt>
      <trkpt lat="45.31266" lon="6.20432">
        <ele>2233.4899902344</ele>
        <time>2017-02-26T10:51:39Z</time>
      </trkpt>
      <trkpt lat="45.31258" lon="6.20469">
        <ele>2229.4899902344</ele>
        <time>2017-02-26T10:51:41Z</time>
      </trkpt>
      <trkpt lat="45.31254" lon="6.20489">
        <ele>2227.4899902344</ele>
        <time>2017-02-26T10:51:42Z</time>
      </trkpt>
      <trkpt lat="45.31243" lon="6.20518">
        <ele>2219.4899902344</ele>
        <time>2017-02-26T10:51:44Z</time>
      </trkpt>
      <trkpt lat="45.31238" lon="6.20534">
        <ele>2218.4899902344</ele>
        <time>2017-02-26T10:51:45Z</time>
      </trkpt>
      <trkpt lat="45.31227" lon="6.20561">
        <ele>2216.4899902344</ele>
        <time>2017-02-26T10:51:47Z</time>
      </trkpt>
      <trkpt lat="45.31219" lon="6.20576">
        <ele>2210.4899902344</ele>
        <time>2017-02-26T10:51:49Z</time>
      </trkpt>
      <trkpt lat="45.31212" lon="6.20593">
        <ele>2209.4899902344</ele>
        <time>2017-02-26T10:51:51Z</time>
      </trkpt>
      <trkpt lat="45.3121" lon="6.20608">
        <ele>2210.4899902344</ele>
        <time>2017-02-26T10:51:53Z</time>
      </trkpt>
      <trkpt lat="45.31213" lon="6.20615">
        <ele>2211.4899902344</ele>
        <time>2017-02-26T10:51:55Z</time>
      </trkpt>
      <trkpt lat="45.31214" lon="6.20622">
        <ele>2210.4899902344</ele>
        <time>2017-02-26T10:51:58Z</time>
      </trkpt>
      <trkpt lat="45.31212" lon="6.20629">
        <ele>2205.4899902344</ele>
        <time>2017-02-26T10:52:00Z</time>
      </trkpt>
      <trkpt lat="45.31211" lon="6.20642">
        <ele>2200.4899902344</ele>
        <time>2017-02-26T10:52:02Z</time>
      </trkpt>
      <trkpt lat="45.31215" lon="6.20657">
        <ele>2197.4899902344</ele>
        <time>2017-02-26T10:52:04Z</time>
      </trkpt>
      <trkpt lat="45.31212" lon="6.2067">
        <ele>2195.4899902344</ele>
        <time>2017-02-26T10:52:06Z</time>
      </trkpt>
      <trkpt lat="45.31212" lon="6.20681">
        <ele>2193.4899902344</ele>
        <time>2017-02-26T10:52:08Z</time>
      </trkpt>
      <trkpt lat="45.31215" lon="6.20694">
        <ele>2190.4899902344</ele>
        <time>2017-02-26T10:52:10Z</time>
      </trkpt>
      <trkpt lat="45.31221" lon="6.20709">
        <ele>2187.4899902344</ele>
        <time>2017-02-26T10:52:12Z</time>
      </trkpt>
      <trkpt lat="45.31225" lon="6.2072">
        <ele>2185.4899902344</ele>
        <time>2017-02-26T10:52:14Z</time>
      </trkpt>
      <trkpt lat="45.31228" lon="6.2073">
        <ele>2183.4899902344</ele>
        <time>2017-02-26T10:52:16Z</time>
      </trkpt>
      <trkpt lat="45.31239" lon="6.20738">
        <ele>2181.4899902344</ele>
        <time>2017-02-26T10:52:18Z</time>
      </trkpt>
      <trkpt lat="45.31247" lon="6.20754">
        <ele>2177.4899902344</ele>
        <time>2017-02-26T10:52:21Z</time>
      </trkpt>
      <trkpt lat="45.31244" lon="6.2076">
        <ele>2177.4899902344</ele>
        <time>2017-02-26T10:52:23Z</time>
      </trkpt>
      <trkpt lat="45.31249" lon="6.20773">
        <ele>2174.4899902344</ele>
        <time>2017-02-26T10:52:25Z</time>
      </trkpt>
      <trkpt lat="45.31253" lon="6.20785">
        <ele>2170.4899902344</ele>
        <time>2017-02-26T10:52:27Z</time>
      </trkpt>
      <trkpt lat="45.31254" lon="6.20803">
        <ele>2163.4899902344</ele>
        <time>2017-02-26T10:52:30Z</time>
      </trkpt>
      <trkpt lat="45.31253" lon="6.20827">
        <ele>2160.4899902344</ele>
        <time>2017-02-26T10:52:33Z</time>
      </trkpt>
      <trkpt lat="45.31259" lon="6.20839">
        <ele>2155.4909667969</ele>
        <time>2017-02-26T10:52:35Z</time>
      </trkpt>
      <trkpt lat="45.31259" lon="6.20851">
        <ele>2145.4909667969</ele>
        <time>2017-02-26T10:52:37Z</time>
      </trkpt>
      <trkpt lat="45.31256" lon="6.20867">
        <ele>2135.4909667969</ele>
        <time>2017-02-26T10:52:39Z</time>
      </trkpt>
      <trkpt lat="45.31256" lon="6.20894">
        <ele>2133.4909667969</ele>
        <time>2017-02-26T10:52:41Z</time>
      </trkpt>
      <trkpt lat="45.31272" lon="6.20948">
        <ele>2128.4909667969</ele>
        <time>2017-02-26T10:52:45Z</time>
      </trkpt>
      <trkpt lat="45.31274" lon="6.20964">
        <ele>2123.4909667969</ele>
        <time>2017-02-26T10:52:46Z</time>
      </trkpt>
      <trkpt lat="45.31281" lon="6.20995">
        <ele>2121.4909667969</ele>
        <time>2017-02-26T10:52:48Z</time>
      </trkpt>
      <trkpt lat="45.3128" lon="6.21035">
        <ele>2115.4909667969</ele>
        <time>2017-02-26T10:52:50Z</time>
      </trkpt>
      <trkpt lat="45.3128" lon="6.21042">
        <ele>2108.4909667969</ele>
        <time>2017-02-26T10:52:51Z</time>
      </trkpt>
      <trkpt lat="45.31276" lon="6.2106">
        <ele>2105.4909667969</ele>
        <time>2017-02-26T10:52:52Z</time>
      </trkpt>
      <trkpt lat="45.31266" lon="6.21082">
        <ele>2103.4909667969</ele>
        <time>2017-02-26T10:52:54Z</time>
      </trkpt>
      <trkpt lat="45.31257" lon="6.21105">
        <ele>2101.4909667969</ele>
        <time>2017-02-26T10:52:56Z</time>
      </trkpt>
      <trkpt lat="45.31253" lon="6.21113">
        <ele>2099.4909667969</ele>
        <time>2017-02-26T10:52:57Z</time>
      </trkpt>
      <trkpt lat="45.31244" lon="6.21132">
        <ele>2096.4909667969</ele>
        <time>2017-02-26T10:52:59Z</time>
      </trkpt>
      <trkpt lat="45.31239" lon="6.21153">
        <ele>2093.4909667969</ele>
        <time>2017-02-26T10:53:01Z</time>
      </trkpt>
      <trkpt lat="45.31234" lon="6.21167">
        <ele>2091.4909667969</ele>
        <time>2017-02-26T10:53:03Z</time>
      </trkpt>
      <trkpt lat="45.31229" lon="6.21172">
        <ele>2090.4909667969</ele>
        <time>2017-02-26T10:53:05Z</time>
      </trkpt>
      <trkpt lat="45.31239" lon="6.21166">
        <ele>2079.4909667969</ele>
        <time>2017-02-26T10:53:19Z</time>
      </trkpt>
      <trkpt lat="45.31246" lon="6.21169">
        <ele>2077.4909667969</ele>
        <time>2017-02-26T10:53:20Z</time>
      </trkpt>
      <trkpt lat="45.31248" lon="6.21179">
        <ele>2073.4909667969</ele>
        <time>2017-02-26T10:53:22Z</time>
      </trkpt>
      <trkpt lat="45.31239" lon="6.21181">
        <ele>2071.4909667969</ele>
        <time>2017-02-26T10:53:23Z</time>
      </trkpt>
      <trkpt lat="45.31233" lon="6.21187">
        <ele>2068.4909667969</ele>
        <time>2017-02-26T10:53:25Z</time>
      </trkpt>
      <trkpt lat="45.31244" lon="6.21198">
        <ele>2061.4909667969</ele>
        <time>2017-02-26T10:53:28Z</time>
      </trkpt>
      <trkpt lat="45.31248" lon="6.21212">
        <ele>2056.4909667969</ele>
        <time>2017-02-26T10:53:30Z</time>
      </trkpt>
      <trkpt lat="45.31239" lon="6.21219">
        <ele>2053.4909667969</ele>
        <time>2017-02-26T10:53:32Z</time>
      </trkpt>
      <trkpt lat="45.31234" lon="6.21222">
        <ele>2052.4909667969</ele>
        <time>2017-02-26T10:53:33Z</time>
      </trkpt>
      <trkpt lat="45.31226" lon="6.21226">
        <ele>2048.4909667969</ele>
        <time>2017-02-26T10:53:35Z</time>
      </trkpt>
      <trkpt lat="45.31232" lon="6.21239">
        <ele>2042.4909667969</ele>
        <time>2017-02-26T10:53:37Z</time>
      </trkpt>
      <trkpt lat="45.31235" lon="6.21256">
        <ele>2040.4909667969</ele>
        <time>2017-02-26T10:53:39Z</time>
      </trkpt>
      <trkpt lat="45.31224" lon="6.21263">
        <ele>2038.4909667969</ele>
        <time>2017-02-26T10:53:41Z</time>
      </trkpt>
      <trkpt lat="45.31228" lon="6.21276">
        <ele>2035.4909667969</ele>
        <time>2017-02-26T10:53:43Z</time>
      </trkpt>
      <trkpt lat="45.31224" lon="6.21283">
        <ele>2031.4909667969</ele>
        <time>2017-02-26T10:53:44Z</time>
      </trkpt>
      <trkpt lat="45.31221" lon="6.21298">
        <ele>2029.4909667969</ele>
        <time>2017-02-26T10:53:46Z</time>
      </trkpt>
      <trkpt lat="45.3121" lon="6.21298">
        <ele>2026.4909667969</ele>
        <time>2017-02-26T10:53:47Z</time>
      </trkpt>
      <trkpt lat="45.31196" lon="6.21308">
        <ele>2021.4909667969</ele>
        <time>2017-02-26T10:53:49Z</time>
      </trkpt>
      <trkpt lat="45.31189" lon="6.21323">
        <ele>2017.4909667969</ele>
        <time>2017-02-26T10:53:51Z</time>
      </trkpt>
      <trkpt lat="45.31198" lon="6.21333">
        <ele>2008.4909667969</ele>
        <time>2017-02-26T10:53:53Z</time>
      </trkpt>
      <trkpt lat="45.31197" lon="6.21349">
        <ele>2004.4909667969</ele>
        <time>2017-02-26T10:53:55Z</time>
      </trkpt>
      <trkpt lat="45.3119" lon="6.21359">
        <ele>1998.4909667969</ele>
        <time>2017-02-26T10:53:56Z</time>
      </trkpt>
      <trkpt lat="45.31177" lon="6.21372">
        <ele>1995.4909667969</ele>
        <time>2017-02-26T10:53:58Z</time>
      </trkpt>
      <trkpt lat="45.31165" lon="6.2138">
        <ele>1989.4909667969</ele>
        <time>2017-02-26T10:54:00Z</time>
      </trkpt>
      <trkpt lat="45.31156" lon="6.21402">
        <ele>1986.4909667969</ele>
        <time>2017-02-26T10:54:02Z</time>
      </trkpt>
      <trkpt lat="45.31152" lon="6.21429">
        <ele>1984.4909667969</ele>
        <time>2017-02-26T10:54:04Z</time>
      </trkpt>
      <trkpt lat="45.3114" lon="6.21447">
        <ele>1982.4909667969</ele>
        <time>2017-02-26T10:54:06Z</time>
      </trkpt>
      <trkpt lat="45.31135" lon="6.21452">
        <ele>1976.4909667969</ele>
        <time>2017-02-26T10:54:08Z</time>
      </trkpt>
      <trkpt lat="45.31138" lon="6.21461">
        <ele>1974.4909667969</ele>
        <time>2017-02-26T10:54:09Z</time>
      </trkpt>
      <trkpt lat="45.31132" lon="6.21478">
        <ele>1971.4909667969</ele>
        <time>2017-02-26T10:54:11Z</time>
      </trkpt>
      <trkpt lat="45.31125" lon="6.21485">
        <ele>1965.4909667969</ele>
        <time>2017-02-26T10:54:13Z</time>
      </trkpt>
      <trkpt lat="45.31116" lon="6.21491">
        <ele>1962.4909667969</ele>
        <time>2017-02-26T10:54:15Z</time>
      </trkpt>
      <trkpt lat="45.31113" lon="6.21506">
        <ele>1960.4909667969</ele>
        <time>2017-02-26T10:54:17Z</time>
      </trkpt>
      <trkpt lat="45.31103" lon="6.2152">
        <ele>1959.4909667969</ele>
        <time>2017-02-26T10:54:19Z</time>
      </trkpt>
      <trkpt lat="45.31099" lon="6.21524">
        <ele>1957.4909667969</ele>
        <time>2017-02-26T10:54:20Z</time>
      </trkpt>
      <trkpt lat="45.31089" lon="6.21533">
        <ele>1950.4909667969</ele>
        <time>2017-02-26T10:54:22Z</time>
      </trkpt>
      <trkpt lat="45.31076" lon="6.21538">
        <ele>1945.4909667969</ele>
        <time>2017-02-26T10:54:24Z</time>
      </trkpt>
      <trkpt lat="45.31065" lon="6.21544">
        <ele>1941.4909667969</ele>
        <time>2017-02-26T10:54:26Z</time>
      </trkpt>
      <trkpt lat="45.31056" lon="6.21553">
        <ele>1939.4909667969</ele>
        <time>2017-02-26T10:54:28Z</time>
      </trkpt>
      <trkpt lat="45.31058" lon="6.2156">
        <ele>1935.4909667969</ele>
        <time>2017-02-26T10:54:30Z</time>
      </trkpt>
      <trkpt lat="45.31064" lon="6.2157">
        <ele>1933.4909667969</ele>
        <time>2017-02-26T10:54:32Z</time>
      </trkpt>
      <trkpt lat="45.31062" lon="6.21584">
        <ele>1930.4909667969</ele>
        <time>2017-02-26T10:54:33Z</time>
      </trkpt>
      <trkpt lat="45.31053" lon="6.21608">
        <ele>1926.4909667969</ele>
        <time>2017-02-26T10:54:35Z</time>
      </trkpt>
      <trkpt lat="45.31037" lon="6.21628">
        <ele>1921.4909667969</ele>
        <time>2017-02-26T10:54:37Z</time>
      </trkpt>
      <trkpt lat="45.31025" lon="6.21637">
        <ele>1916.4909667969</ele>
        <time>2017-02-26T10:54:39Z</time>
      </trkpt>
      <trkpt lat="45.31013" lon="6.21648">
        <ele>1911.4909667969</ele>
        <time>2017-02-26T10:54:41Z</time>
      </trkpt>
      <trkpt lat="45.31008" lon="6.21653">
        <ele>1910.4909667969</ele>
        <time>2017-02-26T10:54:42Z</time>
      </trkpt>
      <trkpt lat="45.31007" lon="6.21665">
        <ele>1907.4909667969</ele>
        <time>2017-02-26T10:54:44Z</time>
      </trkpt>
      <trkpt lat="45.31002" lon="6.21672">
        <ele>1906.4909667969</ele>
        <time>2017-02-26T10:54:45Z</time>
      </trkpt>
      <trkpt lat="45.30999" lon="6.21686">
        <ele>1899.4909667969</ele>
        <time>2017-02-26T10:54:48Z</time>
      </trkpt>
      <trkpt lat="45.30995" lon="6.21691">
        <ele>1896.4909667969</ele>
        <time>2017-02-26T10:54:50Z</time>
      </trkpt>
      <trkpt lat="45.30993" lon="6.21699">
        <ele>1892.4909667969</ele>
        <time>2017-02-26T10:54:52Z</time>
      </trkpt>
      <trkpt lat="45.30995" lon="6.21718">
        <ele>1890.4909667969</ele>
        <time>2017-02-26T10:54:54Z</time>
      </trkpt>
      <trkpt lat="45.30994" lon="6.21728">
        <ele>1889.4909667969</ele>
        <time>2017-02-26T10:54:55Z</time>
      </trkpt>
      <trkpt lat="45.30983" lon="6.21742">
        <ele>1886.4909667969</ele>
        <time>2017-02-26T10:54:57Z</time>
      </trkpt>
      <trkpt lat="45.30975" lon="6.21763">
        <ele>1883.4909667969</ele>
        <time>2017-02-26T10:54:59Z</time>
      </trkpt>
      <trkpt lat="45.3097" lon="6.2178">
        <ele>1881.4909667969</ele>
        <time>2017-02-26T10:55:00Z</time>
      </trkpt>
      <trkpt lat="45.3097" lon="6.21794">
        <ele>1870.4909667969</ele>
        <time>2017-02-26T10:55:02Z</time>
      </trkpt>
      <trkpt lat="45.30967" lon="6.21803">
        <ele>1867.4909667969</ele>
        <time>2017-02-26T10:55:03Z</time>
      </trkpt>
      <trkpt lat="45.30956" lon="6.2181">
        <ele>1861.4909667969</ele>
        <time>2017-02-26T10:55:05Z</time>
      </trkpt>
      <trkpt lat="45.3095" lon="6.21827">
        <ele>1858.4909667969</ele>
        <time>2017-02-26T10:55:07Z</time>
      </trkpt>
      <trkpt lat="45.30945" lon="6.21832">
        <ele>1856.4909667969</ele>
        <time>2017-02-26T10:55:08Z</time>
      </trkpt>
      <trkpt lat="45.30936" lon="6.21837">
        <ele>1852.4909667969</ele>
        <time>2017-02-26T10:55:10Z</time>
      </trkpt>
      <trkpt lat="45.30941" lon="6.21844">
        <ele>1846.4909667969</ele>
        <time>2017-02-26T10:55:12Z</time>
      </trkpt>
      <trkpt lat="45.30945" lon="6.21852">
        <ele>1840.4909667969</ele>
        <time>2017-02-26T10:55:14Z</time>
      </trkpt>
      <trkpt lat="45.3094" lon="6.21856">
        <ele>1839.4909667969</ele>
        <time>2017-02-26T10:55:16Z</time>
      </trkpt>
      <trkpt lat="45.30942" lon="6.21866">
        <ele>1838.4909667969</ele>
        <time>2017-02-26T10:55:18Z</time>
      </trkpt>
      <trkpt lat="45.30938" lon="6.21882">
        <ele>1831.4909667969</ele>
        <time>2017-02-26T10:55:21Z</time>
      </trkpt>
      <trkpt lat="45.30931" lon="6.21881">
        <ele>1830.4909667969</ele>
        <time>2017-02-26T10:55:22Z</time>
      </trkpt>
      <trkpt lat="45.30923" lon="6.21885">
        <ele>1829.4909667969</ele>
        <time>2017-02-26T10:55:24Z</time>
      </trkpt>
      <trkpt lat="45.30927" lon="6.21897">
        <ele>1827.4909667969</ele>
        <time>2017-02-26T10:55:25Z</time>
      </trkpt>
      <trkpt lat="45.30932" lon="6.21905">
        <ele>1824.4909667969</ele>
        <time>2017-02-26T10:55:26Z</time>
      </trkpt>
      <trkpt lat="45.30932" lon="6.21912">
        <ele>1823.4909667969</ele>
        <time>2017-02-26T10:55:27Z</time>
      </trkpt>
      <trkpt lat="45.3092" lon="6.2192">
        <ele>1821.4909667969</ele>
        <time>2017-02-26T10:55:29Z</time>
      </trkpt>
      <trkpt lat="45.30918" lon="6.21936">
        <ele>1818.4909667969</ele>
        <time>2017-02-26T10:55:31Z</time>
      </trkpt>
      <trkpt lat="45.30919" lon="6.21951">
        <ele>1813.4909667969</ele>
        <time>2017-02-26T10:55:33Z</time>
      </trkpt>
      <trkpt lat="45.30921" lon="6.21963">
        <ele>1808.4909667969</ele>
        <time>2017-02-26T10:55:36Z</time>
      </trkpt>
      <trkpt lat="45.30934" lon="6.21971">
        <ele>1799.4909667969</ele>
        <time>2017-02-26T10:55:39Z</time>
      </trkpt>
      <trkpt lat="45.30926" lon="6.21986">
        <ele>1797.4909667969</ele>
        <time>2017-02-26T10:55:41Z</time>
      </trkpt>
      <trkpt lat="45.30915" lon="6.21992">
        <ele>1794.4909667969</ele>
        <time>2017-02-26T10:55:43Z</time>
      </trkpt>
      <trkpt lat="45.30912" lon="6.22005">
        <ele>1794.4909667969</ele>
        <time>2017-02-26T10:55:45Z</time>
      </trkpt>
      <trkpt lat="45.30918" lon="6.22009">
        <ele>1788.4909667969</ele>
        <time>2017-02-26T10:55:47Z</time>
      </trkpt>
      <trkpt lat="45.30919" lon="6.22022">
        <ele>1783.4909667969</ele>
        <time>2017-02-26T10:55:49Z</time>
      </trkpt>
      <trkpt lat="45.30913" lon="6.22027">
        <ele>1781.4909667969</ele>
        <time>2017-02-26T10:55:51Z</time>
      </trkpt>
      <trkpt lat="45.30913" lon="6.22038">
        <ele>1776.4909667969</ele>
        <time>2017-02-26T10:55:53Z</time>
      </trkpt>
      <trkpt lat="45.30906" lon="6.22053">
        <ele>1768.4909667969</ele>
        <time>2017-02-26T10:55:57Z</time>
      </trkpt>
      <trkpt lat="45.30895" lon="6.22069">
        <ele>1766.4909667969</ele>
        <time>2017-02-26T10:55:59Z</time>
      </trkpt>
      <trkpt lat="45.30881" lon="6.2208">
        <ele>1762.4909667969</ele>
        <time>2017-02-26T10:56:01Z</time>
      </trkpt>
      <trkpt lat="45.30864" lon="6.22073">
        <ele>1758.4909667969</ele>
        <time>2017-02-26T10:56:03Z</time>
      </trkpt>
      <trkpt lat="45.30847" lon="6.22071">
        <ele>1756.4909667969</ele>
        <time>2017-02-26T10:56:05Z</time>
      </trkpt>
      <trkpt lat="45.30838" lon="6.22069">
        <ele>1755.4909667969</ele>
        <time>2017-02-26T10:56:06Z</time>
      </trkpt>
      <trkpt lat="45.30821" lon="6.2207">
        <ele>1753.4909667969</ele>
        <time>2017-02-26T10:56:08Z</time>
      </trkpt>
      <trkpt lat="45.30805" lon="6.22071">
        <ele>1750.4909667969</ele>
        <time>2017-02-26T10:56:10Z</time>
      </trkpt>
      <trkpt lat="45.3079" lon="6.22082">
        <ele>1747.4909667969</ele>
        <time>2017-02-26T10:56:12Z</time>
      </trkpt>
      <trkpt lat="45.30775" lon="6.22098">
        <ele>1745.4909667969</ele>
        <time>2017-02-26T10:56:14Z</time>
      </trkpt>
      <trkpt lat="45.30759" lon="6.22108">
        <ele>1739.4909667969</ele>
        <time>2017-02-26T10:56:16Z</time>
      </trkpt>
      <trkpt lat="45.3074" lon="6.22106">
        <ele>1737.4909667969</ele>
        <time>2017-02-26T10:56:18Z</time>
      </trkpt>
      <trkpt lat="45.30721" lon="6.22106">
        <ele>1733.4909667969</ele>
        <time>2017-02-26T10:56:20Z</time>
      </trkpt>
      <trkpt lat="45.30706" lon="6.22122">
        <ele>1731.4909667969</ele>
        <time>2017-02-26T10:56:22Z</time>
      </trkpt>
      <trkpt lat="45.30696" lon="6.22143">
        <ele>1731.4909667969</ele>
        <time>2017-02-26T10:56:24Z</time>
      </trkpt>
      <trkpt lat="45.30684" lon="6.22157">
        <ele>1728.4909667969</ele>
        <time>2017-02-26T10:56:26Z</time>
      </trkpt>
      <trkpt lat="45.30672" lon="6.22171">
        <ele>1726.4909667969</ele>
        <time>2017-02-26T10:56:28Z</time>
      </trkpt>
      <trkpt lat="45.30659" lon="6.22185">
        <ele>1726.4909667969</ele>
        <time>2017-02-26T10:56:30Z</time>
      </trkpt>
      <trkpt lat="45.30653" lon="6.22187">
        <ele>1722.4909667969</ele>
        <time>2017-02-26T10:56:31Z</time>
      </trkpt>
      <trkpt lat="45.3064" lon="6.22199">
        <ele>1722.4909667969</ele>
        <time>2017-02-26T10:56:33Z</time>
      </trkpt>
      <trkpt lat="45.30629" lon="6.22205">
        <ele>1720.4909667969</ele>
        <time>2017-02-26T10:56:35Z</time>
      </trkpt>
      <trkpt lat="45.3062" lon="6.22212">
        <ele>1719.4909667969</ele>
        <time>2017-02-26T10:56:37Z</time>
      </trkpt>
      <trkpt lat="45.30606" lon="6.22217">
        <ele>1716.4909667969</ele>
        <time>2017-02-26T10:56:39Z</time>
      </trkpt>
      <trkpt lat="45.30593" lon="6.22225">
        <ele>1716.4909667969</ele>
        <time>2017-02-26T10:56:41Z</time>
      </trkpt>
      <trkpt lat="45.3058" lon="6.22229">
        <ele>1717.4909667969</ele>
        <time>2017-02-26T10:56:43Z</time>
      </trkpt>
      <trkpt lat="45.30563" lon="6.22223">
        <ele>1714.4909667969</ele>
        <time>2017-02-26T10:56:45Z</time>
      </trkpt>
      <trkpt lat="45.30548" lon="6.22215">
        <ele>1712.4909667969</ele>
        <time>2017-02-26T10:56:47Z</time>
      </trkpt>
      <trkpt lat="45.30535" lon="6.22205">
        <ele>1711.4909667969</ele>
        <time>2017-02-26T10:56:49Z</time>
      </trkpt>
      <trkpt lat="45.3052" lon="6.22195">
        <ele>1710.4909667969</ele>
        <time>2017-02-26T10:56:51Z</time>
      </trkpt>
      <trkpt lat="45.30512" lon="6.22188">
        <ele>1709.4909667969</ele>
        <time>2017-02-26T10:56:52Z</time>
      </trkpt>
      <trkpt lat="45.30505" lon="6.22184">
        <ele>1708.4909667969</ele>
        <time>2017-02-26T10:56:53Z</time>
      </trkpt>
      <trkpt lat="45.30496" lon="6.22181">
        <ele>1707.4909667969</ele>
        <time>2017-02-26T10:56:54Z</time>
      </trkpt>
      <trkpt lat="45.30478" lon="6.22175">
        <ele>1708.4909667969</ele>
        <time>2017-02-26T10:56:56Z</time>
      </trkpt>
      <trkpt lat="45.3046" lon="6.22171">
        <ele>1709.4909667969</ele>
        <time>2017-02-26T10:56:58Z</time>
      </trkpt>
      <trkpt lat="45.30441" lon="6.22162">
        <ele>1708.4909667969</ele>
        <time>2017-02-26T10:57:00Z</time>
      </trkpt>
      <trkpt lat="45.30433" lon="6.22159">
        <ele>1708.4909667969</ele>
        <time>2017-02-26T10:57:01Z</time>
      </trkpt>
      <trkpt lat="45.30419" lon="6.22151">
        <ele>1704.4909667969</ele>
        <time>2017-02-26T10:57:03Z</time>
      </trkpt>
      <trkpt lat="45.304" lon="6.22145">
        <ele>1703.4909667969</ele>
        <time>2017-02-26T10:57:05Z</time>
      </trkpt>
      <trkpt lat="45.30389" lon="6.22127">
        <ele>1701.4909667969</ele>
        <time>2017-02-26T10:57:07Z</time>
      </trkpt>
      <trkpt lat="45.30374" lon="6.22111">
        <ele>1701.4909667969</ele>
        <time>2017-02-26T10:57:09Z</time>
      </trkpt>
      <trkpt lat="45.30356" lon="6.22098">
        <ele>1699.4909667969</ele>
        <time>2017-02-26T10:57:11Z</time>
      </trkpt>
      <trkpt lat="45.30341" lon="6.22081">
        <ele>1693.4899902344</ele>
        <time>2017-02-26T10:57:13Z</time>
      </trkpt>
      <trkpt lat="45.30324" lon="6.22058">
        <ele>1688.4899902344</ele>
        <time>2017-02-26T10:57:15Z</time>
      </trkpt>
      <trkpt lat="45.30316" lon="6.2205">
        <ele>1686.4899902344</ele>
        <time>2017-02-26T10:57:16Z</time>
      </trkpt>
      <trkpt lat="45.30308" lon="6.22041">
        <ele>1682.4899902344</ele>
        <time>2017-02-26T10:57:17Z</time>
      </trkpt>
      <trkpt lat="45.30294" lon="6.22017">
        <ele>1679.4899902344</ele>
        <time>2017-02-26T10:57:19Z</time>
      </trkpt>
      <trkpt lat="45.30286" lon="6.21991">
        <ele>1677.4899902344</ele>
        <time>2017-02-26T10:57:21Z</time>
      </trkpt>
      <trkpt lat="45.30272" lon="6.21979">
        <ele>1673.4899902344</ele>
        <time>2017-02-26T10:57:24Z</time>
      </trkpt>
      <trkpt lat="45.30274" lon="6.21996">
        <ele>1670.4899902344</ele>
        <time>2017-02-26T10:57:26Z</time>
      </trkpt>
      <trkpt lat="45.30282" lon="6.22014">
        <ele>1668.4899902344</ele>
        <time>2017-02-26T10:57:28Z</time>
      </trkpt>
      <trkpt lat="45.30286" lon="6.22026">
        <ele>1668.4899902344</ele>
        <time>2017-02-26T10:57:29Z</time>
      </trkpt>
      <trkpt lat="45.30293" lon="6.22046">
        <ele>1669.4899902344</ele>
        <time>2017-02-26T10:57:31Z</time>
      </trkpt>
      <trkpt lat="45.30301" lon="6.22054">
        <ele>1667.4899902344</ele>
        <time>2017-02-26T10:57:32Z</time>
      </trkpt>
      <trkpt lat="45.30315" lon="6.22068">
        <ele>1665.4899902344</ele>
        <time>2017-02-26T10:57:34Z</time>
      </trkpt>
      <trkpt lat="45.3032" lon="6.22077">
        <ele>1665.4899902344</ele>
        <time>2017-02-26T10:57:35Z</time>
      </trkpt>
      <trkpt lat="45.3032" lon="6.22094">
        <ele>1664.4899902344</ele>
        <time>2017-02-26T10:57:36Z</time>
      </trkpt>
      <trkpt lat="45.30325" lon="6.22102">
        <ele>1663.4899902344</ele>
        <time>2017-02-26T10:57:37Z</time>
      </trkpt>
      <trkpt lat="45.30335" lon="6.2212">
        <ele>1662.4899902344</ele>
        <time>2017-02-26T10:57:39Z</time>
      </trkpt>
      <trkpt lat="45.30347" lon="6.2214">
        <ele>1661.4909667969</ele>
        <time>2017-02-26T10:57:41Z</time>
      </trkpt>
      <trkpt lat="45.30358" lon="6.22163">
        <ele>1661.4909667969</ele>
        <time>2017-02-26T10:57:43Z</time>
      </trkpt>
      <trkpt lat="45.30367" lon="6.22189">
        <ele>1660.4909667969</ele>
        <time>2017-02-26T10:57:45Z</time>
      </trkpt>
      <trkpt lat="45.30377" lon="6.22214">
        <ele>1659.4909667969</ele>
        <time>2017-02-26T10:57:47Z</time>
      </trkpt>
      <trkpt lat="45.30388" lon="6.22236">
        <ele>1659.4909667969</ele>
        <time>2017-02-26T10:57:49Z</time>
      </trkpt>
      <trkpt lat="45.30401" lon="6.22258">
        <ele>1658.4909667969</ele>
        <time>2017-02-26T10:57:51Z</time>
      </trkpt>
      <trkpt lat="45.30408" lon="6.22267">
        <ele>1657.4909667969</ele>
        <time>2017-02-26T10:57:52Z</time>
      </trkpt>
      <trkpt lat="45.30428" lon="6.22271">
        <ele>1653.4909667969</ele>
        <time>2017-02-26T10:57:54Z</time>
      </trkpt>
      <trkpt lat="45.30442" lon="6.22291">
        <ele>1652.4909667969</ele>
        <time>2017-02-26T10:57:56Z</time>
      </trkpt>
      <trkpt lat="45.30462" lon="6.22303">
        <ele>1650.4909667969</ele>
        <time>2017-02-26T10:57:58Z</time>
      </trkpt>
      <trkpt lat="45.3048" lon="6.22315">
        <ele>1649.4909667969</ele>
        <time>2017-02-26T10:58:00Z</time>
      </trkpt>
      <trkpt lat="45.30497" lon="6.22329">
        <ele>1646.4909667969</ele>
        <time>2017-02-26T10:58:02Z</time>
      </trkpt>
      <trkpt lat="45.30498" lon="6.22344">
        <ele>1642.4909667969</ele>
        <time>2017-02-26T10:58:03Z</time>
      </trkpt>
      <trkpt lat="45.30502" lon="6.22357">
        <ele>1640.4909667969</ele>
        <time>2017-02-26T10:58:04Z</time>
      </trkpt>
      <trkpt lat="45.30507" lon="6.22367">
        <ele>1640.4909667969</ele>
        <time>2017-02-26T10:58:05Z</time>
      </trkpt>
      <trkpt lat="45.30518" lon="6.2239">
        <ele>1639.4909667969</ele>
        <time>2017-02-26T10:58:07Z</time>
      </trkpt>
      <trkpt lat="45.30532" lon="6.22408">
        <ele>1637.4909667969</ele>
        <time>2017-02-26T10:58:09Z</time>
      </trkpt>
      <trkpt lat="45.30546" lon="6.22424">
        <ele>1637.4909667969</ele>
        <time>2017-02-26T10:58:11Z</time>
      </trkpt>
      <trkpt lat="45.3056" lon="6.22422">
        <ele>1634.4909667969</ele>
        <time>2017-02-26T10:58:12Z</time>
      </trkpt>
      <trkpt lat="45.30564" lon="6.22429">
        <ele>1630.4909667969</ele>
        <time>2017-02-26T10:58:13Z</time>
      </trkpt>
      <trkpt lat="45.30565" lon="6.22448">
        <ele>1628.4909667969</ele>
        <time>2017-02-26T10:58:15Z</time>
      </trkpt>
      <trkpt lat="45.30556" lon="6.22444">
        <ele>1621.4909667969</ele>
        <time>2017-02-26T10:58:18Z</time>
      </trkpt>
      <trkpt lat="45.30544" lon="6.22435">
        <ele>1622.4909667969</ele>
        <time>2017-02-26T10:58:19Z</time>
      </trkpt>
      <trkpt lat="45.30529" lon="6.22417">
        <ele>1621.4909667969</ele>
        <time>2017-02-26T10:58:21Z</time>
      </trkpt>
      <trkpt lat="45.30524" lon="6.22412">
        <ele>1621.4909667969</ele>
        <time>2017-02-26T10:58:22Z</time>
      </trkpt>
      <trkpt lat="45.30519" lon="6.22407">
        <ele>1620.4909667969</ele>
        <time>2017-02-26T10:58:23Z</time>
      </trkpt>
      <trkpt lat="45.30509" lon="6.22399">
        <ele>1619.4909667969</ele>
        <time>2017-02-26T10:58:25Z</time>
      </trkpt>
      <trkpt lat="45.30498" lon="6.22394">
        <ele>1617.4909667969</ele>
        <time>2017-02-26T10:58:27Z</time>
      </trkpt>
      <trkpt lat="45.30488" lon="6.22385">
        <ele>1617.4909667969</ele>
        <time>2017-02-26T10:58:29Z</time>
      </trkpt>
      <trkpt lat="45.30475" lon="6.22375">
        <ele>1617.4909667969</ele>
        <time>2017-02-26T10:58:31Z</time>
      </trkpt>
      <trkpt lat="45.30464" lon="6.22365">
        <ele>1616.4909667969</ele>
        <time>2017-02-26T10:58:33Z</time>
      </trkpt>
      <trkpt lat="45.30449" lon="6.22359">
        <ele>1616.4909667969</ele>
        <time>2017-02-26T10:58:35Z</time>
      </trkpt>
      <trkpt lat="45.30437" lon="6.22347">
        <ele>1614.4909667969</ele>
        <time>2017-02-26T10:58:37Z</time>
      </trkpt>
      <trkpt lat="45.30428" lon="6.22334">
        <ele>1610.4909667969</ele>
        <time>2017-02-26T10:58:39Z</time>
      </trkpt>
      <trkpt lat="45.30415" lon="6.22324">
        <ele>1612.4909667969</ele>
        <time>2017-02-26T10:58:41Z</time>
      </trkpt>
      <trkpt lat="45.30396" lon="6.2232">
        <ele>1612.4909667969</ele>
        <time>2017-02-26T10:58:43Z</time>
      </trkpt>
      <trkpt lat="45.3039" lon="6.22316">
        <ele>1609.4909667969</ele>
        <time>2017-02-26T10:58:44Z</time>
      </trkpt>
      <trkpt lat="45.30375" lon="6.22307">
        <ele>1606.4909667969</ele>
        <time>2017-02-26T10:58:46Z</time>
      </trkpt>
      <trkpt lat="45.30359" lon="6.22303">
        <ele>1604.4909667969</ele>
        <time>2017-02-26T10:58:48Z</time>
      </trkpt>
      <trkpt lat="45.30344" lon="6.22296">
        <ele>1601.4909667969</ele>
        <time>2017-02-26T10:58:50Z</time>
      </trkpt>
      <trkpt lat="45.30338" lon="6.22292">
        <ele>1601.4909667969</ele>
        <time>2017-02-26T10:58:51Z</time>
      </trkpt>
      <trkpt lat="45.30322" lon="6.22284">
        <ele>1602.4909667969</ele>
        <time>2017-02-26T10:58:53Z</time>
      </trkpt>
      <trkpt lat="45.30308" lon="6.22267">
        <ele>1595.4909667969</ele>
        <time>2017-02-26T10:58:55Z</time>
      </trkpt>
      <trkpt lat="45.30296" lon="6.2225">
        <ele>1595.4909667969</ele>
        <time>2017-02-26T10:58:57Z</time>
      </trkpt>
      <trkpt lat="45.30283" lon="6.22237">
        <ele>1594.4909667969</ele>
        <time>2017-02-26T10:58:59Z</time>
      </trkpt>
      <trkpt lat="45.30266" lon="6.22226">
        <ele>1594.4909667969</ele>
        <time>2017-02-26T10:59:01Z</time>
      </trkpt>
      <trkpt lat="45.30261" lon="6.22221">
        <ele>1593.4899902344</ele>
        <time>2017-02-26T10:59:02Z</time>
      </trkpt>
      <trkpt lat="45.30248" lon="6.22208">
        <ele>1592.4899902344</ele>
        <time>2017-02-26T10:59:04Z</time>
      </trkpt>
      <trkpt lat="45.30237" lon="6.22191">
        <ele>1587.4899902344</ele>
        <time>2017-02-26T10:59:06Z</time>
      </trkpt>
      <trkpt lat="45.30226" lon="6.22178">
        <ele>1584.4899902344</ele>
        <time>2017-02-26T10:59:08Z</time>
      </trkpt>
      <trkpt lat="45.30211" lon="6.22167">
        <ele>1581.4899902344</ele>
        <time>2017-02-26T10:59:10Z</time>
      </trkpt>
      <trkpt lat="45.30203" lon="6.22153">
        <ele>1579.4899902344</ele>
        <time>2017-02-26T10:59:12Z</time>
      </trkpt>
      <trkpt lat="45.30194" lon="6.22137">
        <ele>1577.4899902344</ele>
        <time>2017-02-26T10:59:14Z</time>
      </trkpt>
      <trkpt lat="45.30186" lon="6.22119">
        <ele>1576.4899902344</ele>
        <time>2017-02-26T10:59:16Z</time>
      </trkpt>
      <trkpt lat="45.30178" lon="6.22101">
        <ele>1576.4899902344</ele>
        <time>2017-02-26T10:59:18Z</time>
      </trkpt>
      <trkpt lat="45.30169" lon="6.22085">
        <ele>1574.4899902344</ele>
        <time>2017-02-26T10:59:20Z</time>
      </trkpt>
      <trkpt lat="45.30161" lon="6.2207">
        <ele>1574.4899902344</ele>
        <time>2017-02-26T10:59:22Z</time>
      </trkpt>
      <trkpt lat="45.30152" lon="6.22055">
        <ele>1573.4899902344</ele>
        <time>2017-02-26T10:59:24Z</time>
      </trkpt>
      <trkpt lat="45.30146" lon="6.22037">
        <ele>1571.4899902344</ele>
        <time>2017-02-26T10:59:26Z</time>
      </trkpt>
      <trkpt lat="45.30139" lon="6.22017">
        <ele>1571.4899902344</ele>
        <time>2017-02-26T10:59:29Z</time>
      </trkpt>
      <trkpt lat="45.30133" lon="6.22017">
        <ele>1572.4899902344</ele>
        <time>2017-02-26T10:59:30Z</time>
      </trkpt>
      <trkpt lat="45.30122" lon="6.22023">
        <ele>1568.4899902344</ele>
        <time>2017-02-26T10:59:33Z</time>
      </trkpt>
      <trkpt lat="45.3013" lon="6.22033">
        <ele>1566.4899902344</ele>
        <time>2017-02-26T10:59:34Z</time>
      </trkpt>
      <trkpt lat="45.30132" lon="6.2204">
        <ele>1565.4899902344</ele>
        <time>2017-02-26T10:59:35Z</time>
      </trkpt>
      <trkpt lat="45.30135" lon="6.22047">
        <ele>1565.4899902344</ele>
        <time>2017-02-26T10:59:36Z</time>
      </trkpt>
      <trkpt lat="45.30142" lon="6.22064">
        <ele>1560.4899902344</ele>
        <time>2017-02-26T10:59:38Z</time>
      </trkpt>
      <trkpt lat="45.30147" lon="6.22084">
        <ele>1560.4899902344</ele>
        <time>2017-02-26T10:59:40Z</time>
      </trkpt>
      <trkpt lat="45.30153" lon="6.22104">
        <ele>1559.4899902344</ele>
        <time>2017-02-26T10:59:42Z</time>
      </trkpt>
      <trkpt lat="45.30158" lon="6.22125">
        <ele>1559.4899902344</ele>
        <time>2017-02-26T10:59:44Z</time>
      </trkpt>
      <trkpt lat="45.30164" lon="6.22146">
        <ele>1559.4899902344</ele>
        <time>2017-02-26T10:59:46Z</time>
      </trkpt>
      <trkpt lat="45.30171" lon="6.2217">
        <ele>1558.4899902344</ele>
        <time>2017-02-26T10:59:48Z</time>
      </trkpt>
      <trkpt lat="45.30176" lon="6.22195">
        <ele>1557.4899902344</ele>
        <time>2017-02-26T10:59:50Z</time>
      </trkpt>
      <trkpt lat="45.30184" lon="6.22219">
        <ele>1557.4899902344</ele>
        <time>2017-02-26T10:59:52Z</time>
      </trkpt>
      <trkpt lat="45.30193" lon="6.22236">
        <ele>1552.4899902344</ele>
        <time>2017-02-26T10:59:54Z</time>
      </trkpt>
      <trkpt lat="45.30203" lon="6.22258">
        <ele>1550.4899902344</ele>
        <time>2017-02-26T10:59:56Z</time>
      </trkpt>
      <trkpt lat="45.30217" lon="6.22279">
        <ele>1550.4899902344</ele>
        <time>2017-02-26T10:59:58Z</time>
      </trkpt>
      <trkpt lat="45.30233" lon="6.22291">
        <ele>1547.4909667969</ele>
        <time>2017-02-26T11:00:00Z</time>
      </trkpt>
      <trkpt lat="45.30238" lon="6.22302">
        <ele>1547.4909667969</ele>
        <time>2017-02-26T11:00:01Z</time>
      </trkpt>
      <trkpt lat="45.30247" lon="6.22328">
        <ele>1548.4909667969</ele>
        <time>2017-02-26T11:00:03Z</time>
      </trkpt>
      <trkpt lat="45.30258" lon="6.22356">
        <ele>1543.4909667969</ele>
        <time>2017-02-26T11:00:05Z</time>
      </trkpt>
      <trkpt lat="45.30275" lon="6.22372">
        <ele>1539.4909667969</ele>
        <time>2017-02-26T11:00:07Z</time>
      </trkpt>
      <trkpt lat="45.30284" lon="6.22404">
        <ele>1536.4909667969</ele>
        <time>2017-02-26T11:00:09Z</time>
      </trkpt>
      <trkpt lat="45.30299" lon="6.22429">
        <ele>1534.4909667969</ele>
        <time>2017-02-26T11:00:11Z</time>
      </trkpt>
      <trkpt lat="45.30318" lon="6.22452">
        <ele>1534.4909667969</ele>
        <time>2017-02-26T11:00:13Z</time>
      </trkpt>
      <trkpt lat="45.30336" lon="6.22473">
        <ele>1534.4909667969</ele>
        <time>2017-02-26T11:00:15Z</time>
      </trkpt>
      <trkpt lat="45.30335" lon="6.22496">
        <ele>1531.4909667969</ele>
        <time>2017-02-26T11:00:16Z</time>
      </trkpt>
      <trkpt lat="45.30333" lon="6.22517">
        <ele>1529.4909667969</ele>
        <time>2017-02-26T11:00:17Z</time>
      </trkpt>
      <trkpt lat="45.30351" lon="6.22538">
        <ele>1529.4909667969</ele>
        <time>2017-02-26T11:00:19Z</time>
      </trkpt>
      <trkpt lat="45.30364" lon="6.22563">
        <ele>1529.4909667969</ele>
        <time>2017-02-26T11:00:21Z</time>
      </trkpt>
      <trkpt lat="45.30379" lon="6.22587">
        <ele>1529.4909667969</ele>
        <time>2017-02-26T11:00:23Z</time>
      </trkpt>
      <trkpt lat="45.3039" lon="6.22595">
        <ele>1528.4909667969</ele>
        <time>2017-02-26T11:00:24Z</time>
      </trkpt>
      <trkpt lat="45.30408" lon="6.22612">
        <ele>1525.4909667969</ele>
        <time>2017-02-26T11:00:26Z</time>
      </trkpt>
      <trkpt lat="45.30424" lon="6.22636">
        <ele>1525.4909667969</ele>
        <time>2017-02-26T11:00:28Z</time>
      </trkpt>
      <trkpt lat="45.30438" lon="6.22658">
        <ele>1522.4909667969</ele>
        <time>2017-02-26T11:00:30Z</time>
      </trkpt>
      <trkpt lat="45.30437" lon="6.22665">
        <ele>1513.4909667969</ele>
        <time>2017-02-26T11:00:31Z</time>
      </trkpt>
      <trkpt lat="45.30443" lon="6.22685">
        <ele>1507.4909667969</ele>
        <time>2017-02-26T11:00:33Z</time>
      </trkpt>
      <trkpt lat="45.30434" lon="6.22708">
        <ele>1503.4909667969</ele>
        <time>2017-02-26T11:00:35Z</time>
      </trkpt>
      <trkpt lat="45.3043" lon="6.22719">
        <ele>1502.4909667969</ele>
        <time>2017-02-26T11:00:36Z</time>
      </trkpt>
      <trkpt lat="45.30419" lon="6.22709">
        <ele>1492.4909667969</ele>
        <time>2017-02-26T11:00:38Z</time>
      </trkpt>
      <trkpt lat="45.30413" lon="6.22689">
        <ele>1491.4909667969</ele>
        <time>2017-02-26T11:00:40Z</time>
      </trkpt>
      <trkpt lat="45.30402" lon="6.22674">
        <ele>1490.4909667969</ele>
        <time>2017-02-26T11:00:42Z</time>
      </trkpt>
      <trkpt lat="45.30392" lon="6.2266">
        <ele>1489.4909667969</ele>
        <time>2017-02-26T11:00:44Z</time>
      </trkpt>
      <trkpt lat="45.30378" lon="6.22649">
        <ele>1489.4909667969</ele>
        <time>2017-02-26T11:00:47Z</time>
      </trkpt>
      <trkpt lat="45.30373" lon="6.22644">
        <ele>1489.4909667969</ele>
        <time>2017-02-26T11:00:48Z</time>
      </trkpt>
      <trkpt lat="45.30361" lon="6.22637">
        <ele>1489.4909667969</ele>
        <time>2017-02-26T11:00:50Z</time>
      </trkpt>
      <trkpt lat="45.30348" lon="6.22628">
        <ele>1488.4909667969</ele>
        <time>2017-02-26T11:00:52Z</time>
      </trkpt>
      <trkpt lat="45.30337" lon="6.22624">
        <ele>1488.4909667969</ele>
        <time>2017-02-26T11:00:54Z</time>
      </trkpt>
      <trkpt lat="45.3033" lon="6.22617">
        <ele>1488.4909667969</ele>
        <time>2017-02-26T11:00:55Z</time>
      </trkpt>
      <trkpt lat="45.30317" lon="6.22605">
        <ele>1488.4909667969</ele>
        <time>2017-02-26T11:00:57Z</time>
      </trkpt>
      <trkpt lat="45.30302" lon="6.22596">
        <ele>1489.4909667969</ele>
        <time>2017-02-26T11:00:59Z</time>
      </trkpt>
      <trkpt lat="45.30291" lon="6.22585">
        <ele>1489.4909667969</ele>
        <time>2017-02-26T11:01:01Z</time>
      </trkpt>
      <trkpt lat="45.30282" lon="6.2258">
        <ele>1490.4909667969</ele>
        <time>2017-02-26T11:01:02Z</time>
      </trkpt>
      <trkpt lat="45.3027" lon="6.22569">
        <ele>1488.4909667969</ele>
        <time>2017-02-26T11:01:04Z</time>
      </trkpt>
      <trkpt lat="45.30256" lon="6.22557">
        <ele>1488.4909667969</ele>
        <time>2017-02-26T11:01:06Z</time>
      </trkpt>
      <trkpt lat="45.30245" lon="6.22542">
        <ele>1484.4909667969</ele>
        <time>2017-02-26T11:01:08Z</time>
      </trkpt>
      <trkpt lat="45.30234" lon="6.22526">
        <ele>1480.4909667969</ele>
        <time>2017-02-26T11:01:10Z</time>
      </trkpt>
      <trkpt lat="45.30229" lon="6.22517">
        <ele>1478.4909667969</ele>
        <time>2017-02-26T11:01:11Z</time>
      </trkpt>
      <trkpt lat="45.30219" lon="6.22506">
        <ele>1474.4909667969</ele>
        <time>2017-02-26T11:01:13Z</time>
      </trkpt>
      <trkpt lat="45.30216" lon="6.22501">
        <ele>1472.4909667969</ele>
        <time>2017-02-26T11:01:14Z</time>
      </trkpt>
      <trkpt lat="45.30206" lon="6.22488">
        <ele>1471.4909667969</ele>
        <time>2017-02-26T11:01:17Z</time>
      </trkpt>
      <trkpt lat="45.30201" lon="6.22485">
        <ele>1471.4909667969</ele>
        <time>2017-02-26T11:01:19Z</time>
      </trkpt>
      <trkpt lat="45.30192" lon="6.2248">
        <ele>1470.4909667969</ele>
        <time>2017-02-26T11:01:22Z</time>
      </trkpt>
      <trkpt lat="45.30187" lon="6.22475">
        <ele>1470.4909667969</ele>
        <time>2017-02-26T11:01:24Z</time>
      </trkpt>
      <trkpt lat="45.30181" lon="6.2247">
        <ele>1470.4909667969</ele>
        <time>2017-02-26T11:01:26Z</time>
      </trkpt>
      <trkpt lat="45.30176" lon="6.22469">
        <ele>1471.4909667969</ele>
        <time>2017-02-26T11:01:27Z</time>
      </trkpt>
      <trkpt lat="45.30167" lon="6.22469">
        <ele>1469.4909667969</ele>
        <time>2017-02-26T11:01:29Z</time>
      </trkpt>
      <trkpt lat="45.30163" lon="6.22471">
        <ele>1469.4909667969</ele>
        <time>2017-02-26T11:01:32Z</time>
      </trkpt>
      <trkpt lat="45.3016" lon="6.22465">
        <ele>1471.4909667969</ele>
        <time>2017-02-26T11:02:05Z</time>
      </trkpt>
      <trkpt lat="45.30156" lon="6.2247">
        <ele>1471.4909667969</ele>
        <time>2017-02-26T11:02:14Z</time>
      </trkpt>
      <trkpt lat="45.30161" lon="6.22471">
        <ele>1464.4909667969</ele>
        <time>2017-02-26T11:02:29Z</time>
      </trkpt>
      <trkpt lat="45.30162" lon="6.22478">
        <ele>1462.4909667969</ele>
        <time>2017-02-26T11:02:51Z</time>
      </trkpt>
      <trkpt lat="45.30163" lon="6.22487">
        <ele>1458.4909667969</ele>
        <time>2017-02-26T11:02:55Z</time>
      </trkpt>
      <trkpt lat="45.30167" lon="6.22494">
        <ele>1458.4909667969</ele>
        <time>2017-02-26T11:02:57Z</time>
      </trkpt>
      <trkpt lat="45.3017" lon="6.22501">
        <ele>1458.4909667969</ele>
        <time>2017-02-26T11:02:59Z</time>
      </trkpt>
      <trkpt lat="45.30174" lon="6.2251">
        <ele>1458.4909667969</ele>
        <time>2017-02-26T11:03:01Z</time>
      </trkpt>
      <trkpt lat="45.30178" lon="6.22517">
        <ele>1458.4909667969</ele>
        <time>2017-02-26T11:03:03Z</time>
      </trkpt>
      <trkpt lat="45.30182" lon="6.22527">
        <ele>1460.4909667969</ele>
        <time>2017-02-26T11:03:05Z</time>
      </trkpt>
      <trkpt lat="45.30185" lon="6.22538">
        <ele>1460.4909667969</ele>
        <time>2017-02-26T11:03:07Z</time>
      </trkpt>
      <trkpt lat="45.30189" lon="6.22546">
        <ele>1458.4909667969</ele>
        <time>2017-02-26T11:03:09Z</time>
      </trkpt>
      <trkpt lat="45.30191" lon="6.22557">
        <ele>1457.4909667969</ele>
        <time>2017-02-26T11:03:11Z</time>
      </trkpt>
      <trkpt lat="45.30197" lon="6.22575">
        <ele>1459.4909667969</ele>
        <time>2017-02-26T11:03:14Z</time>
      </trkpt>
      <trkpt lat="45.30202" lon="6.22586">
        <ele>1457.4909667969</ele>
        <time>2017-02-26T11:03:16Z</time>
      </trkpt>
      <trkpt lat="45.30206" lon="6.22591">
        <ele>1456.4909667969</ele>
        <time>2017-02-26T11:03:17Z</time>
      </trkpt>
      <trkpt lat="45.30211" lon="6.22607">
        <ele>1453.4909667969</ele>
        <time>2017-02-26T11:03:20Z</time>
      </trkpt>
      <trkpt lat="45.3022" lon="6.22616">
        <ele>1452.4909667969</ele>
        <time>2017-02-26T11:03:22Z</time>
      </trkpt>
      <trkpt lat="45.30227" lon="6.22625">
        <ele>1450.4909667969</ele>
        <time>2017-02-26T11:03:24Z</time>
      </trkpt>
      <trkpt lat="45.30235" lon="6.22635">
        <ele>1449.4909667969</ele>
        <time>2017-02-26T11:03:26Z</time>
      </trkpt>
      <trkpt lat="45.3024" lon="6.22643">
        <ele>1447.4909667969</ele>
        <time>2017-02-26T11:03:28Z</time>
      </trkpt>
      <trkpt lat="45.30248" lon="6.2265">
        <ele>1447.4909667969</ele>
        <time>2017-02-26T11:03:30Z</time>
      </trkpt>
      <trkpt lat="45.30249" lon="6.22657">
        <ele>1446.4909667969</ele>
        <time>2017-02-26T11:03:31Z</time>
      </trkpt>
      <trkpt lat="45.3025" lon="6.22664">
        <ele>1446.4909667969</ele>
        <time>2017-02-26T11:03:32Z</time>
      </trkpt>
      <trkpt lat="45.30254" lon="6.22679">
        <ele>1444.4909667969</ele>
        <time>2017-02-26T11:03:34Z</time>
      </trkpt>
      <trkpt lat="45.30257" lon="6.22689">
        <ele>1443.4909667969</ele>
        <time>2017-02-26T11:03:36Z</time>
      </trkpt>
      <trkpt lat="45.30259" lon="6.22698">
        <ele>1441.4909667969</ele>
        <time>2017-02-26T11:03:38Z</time>
      </trkpt>
      <trkpt lat="45.30266" lon="6.22703">
        <ele>1438.4909667969</ele>
        <time>2017-02-26T11:03:40Z</time>
      </trkpt>
      <trkpt lat="45.30269" lon="6.22709">
        <ele>1438.4909667969</ele>
        <time>2017-02-26T11:03:42Z</time>
      </trkpt>
      <trkpt lat="45.30268" lon="6.22716">
        <ele>1441.4909667969</ele>
        <time>2017-02-26T11:03:52Z</time>
      </trkpt>
      <trkpt lat="45.30274" lon="6.22716">
        <ele>1444.4909667969</ele>
        <time>2017-02-26T11:04:24Z</time>
      </trkpt>
      <trkpt lat="45.30274" lon="6.22724">
        <ele>1439.4909667969</ele>
        <time>2017-02-26T11:04:56Z</time>
      </trkpt>
      <trkpt lat="45.30277" lon="6.22731">
        <ele>1438.4909667969</ele>
        <time>2017-02-26T11:05:01Z</time>
      </trkpt>
      <trkpt lat="45.3028" lon="6.22737">
        <ele>1433.4909667969</ele>
        <time>2017-02-26T11:05:08Z</time>
      </trkpt>
      <trkpt lat="45.30283" lon="6.22741">
        <ele>1431.4909667969</ele>
        <time>2017-02-26T11:05:14Z</time>
      </trkpt>
      <trkpt lat="45.30283" lon="6.22749">
        <ele>1434.4909667969</ele>
        <time>2017-02-26T11:05:19Z</time>
      </trkpt>
      <trkpt lat="45.30284" lon="6.22756">
        <ele>1438.4909667969</ele>
        <time>2017-02-26T11:05:23Z</time>
      </trkpt>
      <trkpt lat="45.30284" lon="6.22763">
        <ele>1438.4909667969</ele>
        <time>2017-02-26T11:05:25Z</time>
      </trkpt>
      <trkpt lat="45.30285" lon="6.2277">
        <ele>1439.4909667969</ele>
        <time>2017-02-26T11:05:27Z</time>
      </trkpt>
      <trkpt lat="45.30286" lon="6.22777">
        <ele>1439.4909667969</ele>
        <time>2017-02-26T11:05:29Z</time>
      </trkpt>
      <trkpt lat="45.30285" lon="6.22783">
        <ele>1438.4909667969</ele>
        <time>2017-02-26T11:05:33Z</time>
      </trkpt>
      <trkpt lat="45.30282" lon="6.22788">
        <ele>1437.4909667969</ele>
        <time>2017-02-26T11:05:37Z</time>
      </trkpt>
      <trkpt lat="45.30286" lon="6.22793">
        <ele>1435.4909667969</ele>
        <time>2017-02-26T11:05:44Z</time>
      </trkpt>
      <trkpt lat="45.30289" lon="6.22798">
        <ele>1431.4909667969</ele>
        <time>2017-02-26T11:06:02Z</time>
      </trkpt>
      <trkpt lat="45.30291" lon="6.22805">
        <ele>1431.4909667969</ele>
        <time>2017-02-26T11:06:08Z</time>
      </trkpt>
      <trkpt lat="45.30296" lon="6.22806">
        <ele>1429.4909667969</ele>
        <time>2017-02-26T11:06:14Z</time>
      </trkpt>
      <trkpt lat="45.303" lon="6.22805">
        <ele>1425.4909667969</ele>
        <time>2017-02-26T11:06:57Z</time>
      </trkpt>
      <trkpt lat="45.30296" lon="6.22809">
        <ele>1428.4909667969</ele>
        <time>2017-02-26T11:07:03Z</time>
      </trkpt>
      <trkpt lat="45.30292" lon="6.22805">
        <ele>1430.4909667969</ele>
        <time>2017-02-26T11:09:52Z</time>
      </trkpt>
      <trkpt lat="45.30287" lon="6.22807">
        <ele>1433.4909667969</ele>
        <time>2017-02-26T11:10:00Z</time>
      </trkpt>
      <trkpt lat="45.30282" lon="6.22806">
        <ele>1435.4909667969</ele>
        <time>2017-02-26T11:10:08Z</time>
      </trkpt>
      <trkpt lat="45.30287" lon="6.22803">
        <ele>1430.4909667969</ele>
        <time>2017-02-26T11:15:24Z</time>
      </trkpt>
      <trkpt lat="45.30291" lon="6.22807">
        <ele>1435.4909667969</ele>
        <time>2017-02-26T11:15:31Z</time>
      </trkpt>
      <trkpt lat="45.30296" lon="6.22805">
        <ele>1433.4909667969</ele>
        <time>2017-02-26T11:20:52Z</time>
      </trkpt>
      <trkpt lat="45.30291" lon="6.22803">
        <ele>1427.4909667969</ele>
        <time>2017-02-26T11:22:20Z</time>
      </trkpt>
      <trkpt lat="45.30286" lon="6.22802">
        <ele>1426.4909667969</ele>
        <time>2017-02-26T11:22:30Z</time>
      </trkpt>
      <trkpt lat="45.30283" lon="6.22796">
        <ele>1428.4909667969</ele>
        <time>2017-02-26T11:22:50Z</time>
      </trkpt>
      <trkpt lat="45.30283" lon="6.22788">
        <ele>1427.4909667969</ele>
        <time>2017-02-26T11:22:54Z</time>
      </trkpt>
      <trkpt lat="45.30279" lon="6.22784">
        <ele>1427.4909667969</ele>
        <time>2017-02-26T11:22:58Z</time>
      </trkpt>
      <trkpt lat="45.30273" lon="6.2278">
        <ele>1425.4909667969</ele>
        <time>2017-02-26T11:23:02Z</time>
      </trkpt>
      <trkpt lat="45.30269" lon="6.22777">
        <ele>1425.4909667969</ele>
        <time>2017-02-26T11:23:07Z</time>
      </trkpt>
      <trkpt lat="45.30265" lon="6.22773">
        <ele>1424.4909667969</ele>
        <time>2017-02-26T11:23:10Z</time>
      </trkpt>
      <trkpt lat="45.30262" lon="6.22768">
        <ele>1424.4909667969</ele>
        <time>2017-02-26T11:23:14Z</time>
      </trkpt>
      <trkpt lat="45.30257" lon="6.22765">
        <ele>1424.4909667969</ele>
        <time>2017-02-26T11:23:17Z</time>
      </trkpt>
      <trkpt lat="45.30252" lon="6.22759">
        <ele>1423.4909667969</ele>
        <time>2017-02-26T11:23:21Z</time>
      </trkpt>
      <trkpt lat="45.30252" lon="6.22751">
        <ele>1424.4909667969</ele>
        <time>2017-02-26T11:23:25Z</time>
      </trkpt>
      <trkpt lat="45.30248" lon="6.22746">
        <ele>1424.4909667969</ele>
        <time>2017-02-26T11:23:29Z</time>
      </trkpt>
      <trkpt lat="45.30243" lon="6.22742">
        <ele>1424.4909667969</ele>
        <time>2017-02-26T11:23:33Z</time>
      </trkpt>
      <trkpt lat="45.30241" lon="6.22736">
        <ele>1425.4909667969</ele>
        <time>2017-02-26T11:23:40Z</time>
      </trkpt>
      <trkpt lat="45.30237" lon="6.22731">
        <ele>1423.4909667969</ele>
        <time>2017-02-26T11:23:45Z</time>
      </trkpt>
      <trkpt lat="45.30233" lon="6.22727">
        <ele>1423.4909667969</ele>
        <time>2017-02-26T11:23:49Z</time>
      </trkpt>
      <trkpt lat="45.30229" lon="6.22722">
        <ele>1422.4909667969</ele>
        <time>2017-02-26T11:23:53Z</time>
      </trkpt>
      <trkpt lat="45.30226" lon="6.22717">
        <ele>1422.4909667969</ele>
        <time>2017-02-26T11:23:57Z</time>
      </trkpt>
      <trkpt lat="45.30224" lon="6.22711">
        <ele>1424.4909667969</ele>
        <time>2017-02-26T11:24:00Z</time>
      </trkpt>
      <trkpt lat="45.3022" lon="6.22705">
        <ele>1423.4909667969</ele>
        <time>2017-02-26T11:24:04Z</time>
      </trkpt>
      <trkpt lat="45.3022" lon="6.22698">
        <ele>1423.4909667969</ele>
        <time>2017-02-26T11:24:08Z</time>
      </trkpt>
      <trkpt lat="45.30216" lon="6.22694">
        <ele>1424.4909667969</ele>
        <time>2017-02-26T11:24:12Z</time>
      </trkpt>
      <trkpt lat="45.30212" lon="6.22689">
        <ele>1425.4909667969</ele>
        <time>2017-02-26T11:24:17Z</time>
      </trkpt>
      <trkpt lat="45.30209" lon="6.22682">
        <ele>1427.4909667969</ele>
        <time>2017-02-26T11:24:23Z</time>
      </trkpt>
      <trkpt lat="45.30207" lon="6.22676">
        <ele>1427.4909667969</ele>
        <time>2017-02-26T11:24:26Z</time>
      </trkpt>
      <trkpt lat="45.30203" lon="6.2267">
        <ele>1426.4909667969</ele>
        <time>2017-02-26T11:24:29Z</time>
      </trkpt>
      <trkpt lat="45.30199" lon="6.22667">
        <ele>1425.4909667969</ele>
        <time>2017-02-26T11:24:32Z</time>
      </trkpt>
      <trkpt lat="45.30193" lon="6.22662">
        <ele>1426.4909667969</ele>
        <time>2017-02-26T11:24:37Z</time>
      </trkpt>
      <trkpt lat="45.30189" lon="6.22659">
        <ele>1423.4909667969</ele>
        <time>2017-02-26T11:24:40Z</time>
      </trkpt>
      <trkpt lat="45.30185" lon="6.22653">
        <ele>1423.4909667969</ele>
        <time>2017-02-26T11:24:44Z</time>
      </trkpt>
      <trkpt lat="45.30182" lon="6.22647">
        <ele>1422.4909667969</ele>
        <time>2017-02-26T11:24:48Z</time>
      </trkpt>
      <trkpt lat="45.30178" lon="6.22646">
        <ele>1421.4909667969</ele>
        <time>2017-02-26T11:24:51Z</time>
      </trkpt>
      <trkpt lat="45.30176" lon="6.22639">
        <ele>1418.4909667969</ele>
        <time>2017-02-26T11:24:57Z</time>
      </trkpt>
      <trkpt lat="45.30173" lon="6.22632">
        <ele>1418.4909667969</ele>
        <time>2017-02-26T11:25:02Z</time>
      </trkpt>
      <trkpt lat="45.30169" lon="6.22628">
        <ele>1415.4909667969</ele>
        <time>2017-02-26T11:25:05Z</time>
      </trkpt>
      <trkpt lat="45.30164" lon="6.22622">
        <ele>1415.4909667969</ele>
        <time>2017-02-26T11:25:11Z</time>
      </trkpt>
      <trkpt lat="45.30159" lon="6.22619">
        <ele>1417.4909667969</ele>
        <time>2017-02-26T11:25:14Z</time>
      </trkpt>
      <trkpt lat="45.30156" lon="6.22614">
        <ele>1420.4909667969</ele>
        <time>2017-02-26T11:25:18Z</time>
      </trkpt>
      <trkpt lat="45.30153" lon="6.22607">
        <ele>1421.4909667969</ele>
        <time>2017-02-26T11:25:22Z</time>
      </trkpt>
      <trkpt lat="45.3015" lon="6.226">
        <ele>1421.4909667969</ele>
        <time>2017-02-26T11:25:27Z</time>
      </trkpt>
      <trkpt lat="45.30146" lon="6.22594">
        <ele>1418.4909667969</ele>
        <time>2017-02-26T11:25:32Z</time>
      </trkpt>
      <trkpt lat="45.30144" lon="6.22588">
        <ele>1417.4909667969</ele>
        <time>2017-02-26T11:25:36Z</time>
      </trkpt>
      <trkpt lat="45.3014" lon="6.22582">
        <ele>1418.4909667969</ele>
        <time>2017-02-26T11:25:40Z</time>
      </trkpt>
      <trkpt lat="45.30136" lon="6.22575">
        <ele>1416.4909667969</ele>
        <time>2017-02-26T11:25:44Z</time>
      </trkpt>
      <trkpt lat="45.30133" lon="6.22571">
        <ele>1417.4909667969</ele>
        <time>2017-02-26T11:25:47Z</time>
      </trkpt>
      <trkpt lat="45.30128" lon="6.22566">
        <ele>1417.4909667969</ele>
        <time>2017-02-26T11:25:52Z</time>
      </trkpt>
      <trkpt lat="45.30124" lon="6.2256">
        <ele>1419.4909667969</ele>
        <time>2017-02-26T11:25:56Z</time>
      </trkpt>
      <trkpt lat="45.3012" lon="6.22556">
        <ele>1419.4909667969</ele>
        <time>2017-02-26T11:26:00Z</time>
      </trkpt>
      <trkpt lat="45.30116" lon="6.22552">
        <ele>1418.4909667969</ele>
        <time>2017-02-26T11:26:04Z</time>
      </trkpt>
      <trkpt lat="45.30115" lon="6.22544">
        <ele>1415.4909667969</ele>
        <time>2017-02-26T11:26:09Z</time>
      </trkpt>
      <trkpt lat="45.30112" lon="6.22538">
        <ele>1415.4909667969</ele>
        <time>2017-02-26T11:26:13Z</time>
      </trkpt>
      <trkpt lat="45.3011" lon="6.22532">
        <ele>1416.4909667969</ele>
        <time>2017-02-26T11:26:17Z</time>
      </trkpt>
      <trkpt lat="45.30107" lon="6.22526">
        <ele>1412.4909667969</ele>
        <time>2017-02-26T11:26:21Z</time>
      </trkpt>
      <trkpt lat="45.30103" lon="6.22519">
        <ele>1411.4909667969</ele>
        <time>2017-02-26T11:26:25Z</time>
      </trkpt>
      <trkpt lat="45.30101" lon="6.22512">
        <ele>1412.4909667969</ele>
        <time>2017-02-26T11:26:29Z</time>
      </trkpt>
      <trkpt lat="45.30098" lon="6.22506">
        <ele>1411.4909667969</ele>
        <time>2017-02-26T11:26:33Z</time>
      </trkpt>
      <trkpt lat="45.30094" lon="6.22499">
        <ele>1407.4909667969</ele>
        <time>2017-02-26T11:26:37Z</time>
      </trkpt>
      <trkpt lat="45.30091" lon="6.22494">
        <ele>1407.4909667969</ele>
        <time>2017-02-26T11:26:40Z</time>
      </trkpt>
      <trkpt lat="45.30091" lon="6.22488">
        <ele>1406.4909667969</ele>
        <time>2017-02-26T11:26:44Z</time>
      </trkpt>
      <trkpt lat="45.30087" lon="6.22482">
        <ele>1406.4909667969</ele>
        <time>2017-02-26T11:26:48Z</time>
      </trkpt>
      <trkpt lat="45.30085" lon="6.22475">
        <ele>1407.4909667969</ele>
        <time>2017-02-26T11:26:52Z</time>
      </trkpt>
      <trkpt lat="45.30084" lon="6.22469">
        <ele>1408.4899902344</ele>
        <time>2017-02-26T11:26:56Z</time>
      </trkpt>
      <trkpt lat="45.30084" lon="6.22461">
        <ele>1410.4899902344</ele>
        <time>2017-02-26T11:27:04Z</time>
      </trkpt>
      <trkpt lat="45.30082" lon="6.22455">
        <ele>1406.4899902344</ele>
        <time>2017-02-26T11:27:07Z</time>
      </trkpt>
      <trkpt lat="45.3008" lon="6.22449">
        <ele>1407.4899902344</ele>
        <time>2017-02-26T11:27:11Z</time>
      </trkpt>
      <trkpt lat="45.30075" lon="6.22445">
        <ele>1403.4899902344</ele>
        <time>2017-02-26T11:27:14Z</time>
      </trkpt>
      <trkpt lat="45.30071" lon="6.2244">
        <ele>1404.4899902344</ele>
        <time>2017-02-26T11:27:17Z</time>
      </trkpt>
      <trkpt lat="45.30067" lon="6.22436">
        <ele>1402.4899902344</ele>
        <time>2017-02-26T11:27:21Z</time>
      </trkpt>
      <trkpt lat="45.30063" lon="6.22432">
        <ele>1400.4899902344</ele>
        <time>2017-02-26T11:27:24Z</time>
      </trkpt>
      <trkpt lat="45.30059" lon="6.22427">
        <ele>1400.4899902344</ele>
        <time>2017-02-26T11:27:30Z</time>
      </trkpt>
      <trkpt lat="45.30059" lon="6.22419">
        <ele>1399.4899902344</ele>
        <time>2017-02-26T11:27:34Z</time>
      </trkpt>
      <trkpt lat="45.30056" lon="6.22414">
        <ele>1398.4899902344</ele>
        <time>2017-02-26T11:27:38Z</time>
      </trkpt>
      <trkpt lat="45.30051" lon="6.22412">
        <ele>1398.4899902344</ele>
        <time>2017-02-26T11:27:41Z</time>
      </trkpt>
      <trkpt lat="45.30047" lon="6.22404">
        <ele>1399.4899902344</ele>
        <time>2017-02-26T11:27:45Z</time>
      </trkpt>
      <trkpt lat="45.30044" lon="6.224">
        <ele>1400.4899902344</ele>
        <time>2017-02-26T11:27:47Z</time>
      </trkpt>
      <trkpt lat="45.30039" lon="6.22393">
        <ele>1400.4899902344</ele>
        <time>2017-02-26T11:27:51Z</time>
      </trkpt>
      <trkpt lat="45.30036" lon="6.22386">
        <ele>1400.4899902344</ele>
        <time>2017-02-26T11:27:55Z</time>
      </trkpt>
      <trkpt lat="45.30031" lon="6.22385">
        <ele>1398.4899902344</ele>
        <time>2017-02-26T11:27:59Z</time>
      </trkpt>
      <trkpt lat="45.30027" lon="6.22387">
        <ele>1397.4899902344</ele>
        <time>2017-02-26T11:28:03Z</time>
      </trkpt>
      <trkpt lat="45.30025" lon="6.22394">
        <ele>1395.4899902344</ele>
        <time>2017-02-26T11:28:09Z</time>
      </trkpt>
      <trkpt lat="45.30026" lon="6.22401">
        <ele>1393.4899902344</ele>
        <time>2017-02-26T11:28:21Z</time>
      </trkpt>
      <trkpt lat="45.30031" lon="6.22403">
        <ele>1393.4899902344</ele>
        <time>2017-02-26T11:28:24Z</time>
      </trkpt>
      <trkpt lat="45.30032" lon="6.22413">
        <ele>1393.4899902344</ele>
        <time>2017-02-26T11:28:27Z</time>
      </trkpt>
      <trkpt lat="45.30034" lon="6.22419">
        <ele>1392.4899902344</ele>
        <time>2017-02-26T11:28:30Z</time>
      </trkpt>
      <trkpt lat="45.30037" lon="6.22425">
        <ele>1390.4899902344</ele>
        <time>2017-02-26T11:28:34Z</time>
      </trkpt>
      <trkpt lat="45.30038" lon="6.22434">
        <ele>1392.4899902344</ele>
        <time>2017-02-26T11:28:36Z</time>
      </trkpt>
      <trkpt lat="45.30042" lon="6.22438">
        <ele>1390.4899902344</ele>
        <time>2017-02-26T11:28:40Z</time>
      </trkpt>
      <trkpt lat="45.30045" lon="6.22446">
        <ele>1389.4899902344</ele>
        <time>2017-02-26T11:28:45Z</time>
      </trkpt>
      <trkpt lat="45.30049" lon="6.22451">
        <ele>1390.4899902344</ele>
        <time>2017-02-26T11:28:48Z</time>
      </trkpt>
      <trkpt lat="45.30053" lon="6.22452">
        <ele>1390.4899902344</ele>
        <time>2017-02-26T11:28:51Z</time>
      </trkpt>
      <trkpt lat="45.30056" lon="6.22459">
        <ele>1388.4899902344</ele>
        <time>2017-02-26T11:28:57Z</time>
      </trkpt>
      <trkpt lat="45.30058" lon="6.22465">
        <ele>1388.4899902344</ele>
        <time>2017-02-26T11:29:02Z</time>
      </trkpt>
      <trkpt lat="45.3006" lon="6.22472">
        <ele>1387.4899902344</ele>
        <time>2017-02-26T11:29:08Z</time>
      </trkpt>
      <trkpt lat="45.30062" lon="6.2248">
        <ele>1388.4899902344</ele>
        <time>2017-02-26T11:29:14Z</time>
      </trkpt>
      <trkpt lat="45.30061" lon="6.22488">
        <ele>1385.4899902344</ele>
        <time>2017-02-26T11:29:17Z</time>
      </trkpt>
      <trkpt lat="45.3006" lon="6.22497">
        <ele>1385.4899902344</ele>
        <time>2017-02-26T11:29:22Z</time>
      </trkpt>
      <trkpt lat="45.3006" lon="6.22509">
        <ele>1385.4909667969</ele>
        <time>2017-02-26T11:29:28Z</time>
      </trkpt>
      <trkpt lat="45.3006" lon="6.22519">
        <ele>1384.4909667969</ele>
        <time>2017-02-26T11:29:32Z</time>
      </trkpt>
      <trkpt lat="45.30061" lon="6.22526">
        <ele>1384.4909667969</ele>
        <time>2017-02-26T11:29:35Z</time>
      </trkpt>
      <trkpt lat="45.30062" lon="6.22533">
        <ele>1385.4909667969</ele>
        <time>2017-02-26T11:29:43Z</time>
      </trkpt>
      <trkpt lat="45.30061" lon="6.22541">
        <ele>1386.4909667969</ele>
        <time>2017-02-26T11:29:46Z</time>
      </trkpt>
      <trkpt lat="45.30064" lon="6.22547">
        <ele>1388.4909667969</ele>
        <time>2017-02-26T11:29:50Z</time>
      </trkpt>
      <trkpt lat="45.30063" lon="6.22553">
        <ele>1386.4909667969</ele>
        <time>2017-02-26T11:29:54Z</time>
      </trkpt>
      <trkpt lat="45.30065" lon="6.22561">
        <ele>1385.4909667969</ele>
        <time>2017-02-26T11:29:59Z</time>
      </trkpt>
      <trkpt lat="45.30064" lon="6.22568">
        <ele>1384.4909667969</ele>
        <time>2017-02-26T11:30:02Z</time>
      </trkpt>
      <trkpt lat="45.30065" lon="6.22574">
        <ele>1382.4909667969</ele>
        <time>2017-02-26T11:30:07Z</time>
      </trkpt>
      <trkpt lat="45.30066" lon="6.22583">
        <ele>1380.4909667969</ele>
        <time>2017-02-26T11:30:11Z</time>
      </trkpt>
      <trkpt lat="45.30067" lon="6.22589">
        <ele>1381.4909667969</ele>
        <time>2017-02-26T11:30:14Z</time>
      </trkpt>
      <trkpt lat="45.3007" lon="6.22595">
        <ele>1380.4909667969</ele>
        <time>2017-02-26T11:30:18Z</time>
      </trkpt>
      <trkpt lat="45.30072" lon="6.22602">
        <ele>1381.4909667969</ele>
        <time>2017-02-26T11:30:24Z</time>
      </trkpt>
      <trkpt lat="45.30075" lon="6.2261">
        <ele>1381.4909667969</ele>
        <time>2017-02-26T11:30:29Z</time>
      </trkpt>
      <trkpt lat="45.30077" lon="6.22615">
        <ele>1382.4909667969</ele>
        <time>2017-02-26T11:30:32Z</time>
      </trkpt>
      <trkpt lat="45.3008" lon="6.22621">
        <ele>1382.4909667969</ele>
        <time>2017-02-26T11:30:34Z</time>
      </trkpt>
      <trkpt lat="45.30082" lon="6.22627">
        <ele>1385.4909667969</ele>
        <time>2017-02-26T11:30:37Z</time>
      </trkpt>
      <trkpt lat="45.30082" lon="6.22634">
        <ele>1380.4909667969</ele>
        <time>2017-02-26T11:30:42Z</time>
      </trkpt>
      <trkpt lat="45.3008" lon="6.22645">
        <ele>1380.4909667969</ele>
        <time>2017-02-26T11:30:47Z</time>
      </trkpt>
      <trkpt lat="45.30076" lon="6.22649">
        <ele>1381.4909667969</ele>
        <time>2017-02-26T11:30:51Z</time>
      </trkpt>
      <trkpt lat="45.30072" lon="6.22647">
        <ele>1381.4909667969</ele>
        <time>2017-02-26T11:30:55Z</time>
      </trkpt>
      <trkpt lat="45.30073" lon="6.2264">
        <ele>1374.4909667969</ele>
        <time>2017-02-26T11:31:00Z</time>
      </trkpt>
      <trkpt lat="45.3007" lon="6.22634">
        <ele>1374.4909667969</ele>
        <time>2017-02-26T11:31:04Z</time>
      </trkpt>
      <trkpt lat="45.3007" lon="6.22626">
        <ele>1374.4909667969</ele>
        <time>2017-02-26T11:31:08Z</time>
      </trkpt>
      <trkpt lat="45.30068" lon="6.2262">
        <ele>1375.4909667969</ele>
        <time>2017-02-26T11:31:12Z</time>
      </trkpt>
      <trkpt lat="45.30064" lon="6.22616">
        <ele>1371.4909667969</ele>
        <time>2017-02-26T11:31:14Z</time>
      </trkpt>
      <trkpt lat="45.30061" lon="6.22609">
        <ele>1374.4909667969</ele>
        <time>2017-02-26T11:31:19Z</time>
      </trkpt>
      <trkpt lat="45.30057" lon="6.22604">
        <ele>1370.4909667969</ele>
        <time>2017-02-26T11:31:23Z</time>
      </trkpt>
      <trkpt lat="45.30053" lon="6.226">
        <ele>1370.4909667969</ele>
        <time>2017-02-26T11:31:27Z</time>
      </trkpt>
      <trkpt lat="45.30053" lon="6.22593">
        <ele>1370.4909667969</ele>
        <time>2017-02-26T11:31:32Z</time>
      </trkpt>
      <trkpt lat="45.3005" lon="6.22588">
        <ele>1368.4909667969</ele>
        <time>2017-02-26T11:31:36Z</time>
      </trkpt>
      <trkpt lat="45.30046" lon="6.22583">
        <ele>1370.4909667969</ele>
        <time>2017-02-26T11:31:40Z</time>
      </trkpt>
      <trkpt lat="45.30043" lon="6.22576">
        <ele>1368.4909667969</ele>
        <time>2017-02-26T11:31:44Z</time>
      </trkpt>
      <trkpt lat="45.30041" lon="6.22568">
        <ele>1369.4909667969</ele>
        <time>2017-02-26T11:31:48Z</time>
      </trkpt>
      <trkpt lat="45.30037" lon="6.22562">
        <ele>1368.4909667969</ele>
        <time>2017-02-26T11:31:51Z</time>
      </trkpt>
      <trkpt lat="45.30034" lon="6.22554">
        <ele>1370.4909667969</ele>
        <time>2017-02-26T11:31:54Z</time>
      </trkpt>
      <trkpt lat="45.30032" lon="6.22548">
        <ele>1369.4909667969</ele>
        <time>2017-02-26T11:32:00Z</time>
      </trkpt>
      <trkpt lat="45.3003" lon="6.22539">
        <ele>1367.4899902344</ele>
        <time>2017-02-26T11:32:07Z</time>
      </trkpt>
      <trkpt lat="45.30029" lon="6.2253">
        <ele>1368.4899902344</ele>
        <time>2017-02-26T11:32:14Z</time>
      </trkpt>
      <trkpt lat="45.3003" lon="6.22523">
        <ele>1364.4899902344</ele>
        <time>2017-02-26T11:32:17Z</time>
      </trkpt>
      <trkpt lat="45.30027" lon="6.22516">
        <ele>1361.4899902344</ele>
        <time>2017-02-26T11:32:20Z</time>
      </trkpt>
      <trkpt lat="45.30024" lon="6.22511">
        <ele>1364.4899902344</ele>
        <time>2017-02-26T11:32:24Z</time>
      </trkpt>
      <trkpt lat="45.30023" lon="6.22503">
        <ele>1363.4899902344</ele>
        <time>2017-02-26T11:32:29Z</time>
      </trkpt>
      <trkpt lat="45.30019" lon="6.225">
        <ele>1356.4899902344</ele>
        <time>2017-02-26T11:32:32Z</time>
      </trkpt>
      <trkpt lat="45.30013" lon="6.22499">
        <ele>1360.4899902344</ele>
        <time>2017-02-26T11:32:35Z</time>
      </trkpt>
      <trkpt lat="45.30007" lon="6.22496">
        <ele>1360.4899902344</ele>
        <time>2017-02-26T11:32:39Z</time>
      </trkpt>
      <trkpt lat="45.30003" lon="6.22494">
        <ele>1359.4899902344</ele>
        <time>2017-02-26T11:32:42Z</time>
      </trkpt>
      <trkpt lat="45.29997" lon="6.2249">
        <ele>1357.4899902344</ele>
        <time>2017-02-26T11:32:47Z</time>
      </trkpt>
      <trkpt lat="45.29993" lon="6.22487">
        <ele>1356.4899902344</ele>
        <time>2017-02-26T11:32:50Z</time>
      </trkpt>
      <trkpt lat="45.29988" lon="6.22485">
        <ele>1356.4899902344</ele>
        <time>2017-02-26T11:32:52Z</time>
      </trkpt>
      <trkpt lat="45.29984" lon="6.22482">
        <ele>1356.4899902344</ele>
        <time>2017-02-26T11:32:55Z</time>
      </trkpt>
      <trkpt lat="45.29981" lon="6.22478">
        <ele>1356.4899902344</ele>
        <time>2017-02-26T11:32:59Z</time>
      </trkpt>
      <trkpt lat="45.29975" lon="6.22476">
        <ele>1356.4899902344</ele>
        <time>2017-02-26T11:33:02Z</time>
      </trkpt>
      <trkpt lat="45.29968" lon="6.22478">
        <ele>1356.4899902344</ele>
        <time>2017-02-26T11:33:04Z</time>
      </trkpt>
      <trkpt lat="45.29963" lon="6.22474">
        <ele>1358.4899902344</ele>
        <time>2017-02-26T11:33:09Z</time>
      </trkpt>
      <trkpt lat="45.29958" lon="6.2247">
        <ele>1356.4899902344</ele>
        <time>2017-02-26T11:33:14Z</time>
      </trkpt>
      <trkpt lat="45.29955" lon="6.22462">
        <ele>1350.4899902344</ele>
        <time>2017-02-26T11:33:19Z</time>
      </trkpt>
      <trkpt lat="45.29953" lon="6.22455">
        <ele>1351.4899902344</ele>
        <time>2017-02-26T11:33:23Z</time>
      </trkpt>
      <trkpt lat="45.29949" lon="6.2245">
        <ele>1349.4899902344</ele>
        <time>2017-02-26T11:33:27Z</time>
      </trkpt>
      <trkpt lat="45.29944" lon="6.22446">
        <ele>1347.4899902344</ele>
        <time>2017-02-26T11:33:31Z</time>
      </trkpt>
      <trkpt lat="45.29941" lon="6.2244">
        <ele>1349.4899902344</ele>
        <time>2017-02-26T11:33:35Z</time>
      </trkpt>
      <trkpt lat="45.29937" lon="6.22435">
        <ele>1349.4899902344</ele>
        <time>2017-02-26T11:33:38Z</time>
      </trkpt>
      <trkpt lat="45.29934" lon="6.2243">
        <ele>1352.4899902344</ele>
        <time>2017-02-26T11:33:43Z</time>
      </trkpt>
      <trkpt lat="45.29931" lon="6.22423">
        <ele>1350.4899902344</ele>
        <time>2017-02-26T11:33:47Z</time>
      </trkpt>
      <trkpt lat="45.29929" lon="6.22416">
        <ele>1350.4899902344</ele>
        <time>2017-02-26T11:33:50Z</time>
      </trkpt>
      <trkpt lat="45.29927" lon="6.22411">
        <ele>1348.4899902344</ele>
        <time>2017-02-26T11:33:54Z</time>
      </trkpt>
      <trkpt lat="45.29924" lon="6.22405">
        <ele>1348.4899902344</ele>
        <time>2017-02-26T11:33:58Z</time>
      </trkpt>
      <trkpt lat="45.29921" lon="6.22397">
        <ele>1349.4899902344</ele>
        <time>2017-02-26T11:34:02Z</time>
      </trkpt>
      <trkpt lat="45.29917" lon="6.22392">
        <ele>1348.4899902344</ele>
        <time>2017-02-26T11:34:06Z</time>
      </trkpt>
      <trkpt lat="45.29914" lon="6.22387">
        <ele>1348.4899902344</ele>
        <time>2017-02-26T11:34:11Z</time>
      </trkpt>
      <trkpt lat="45.29909" lon="6.22383">
        <ele>1347.4899902344</ele>
        <time>2017-02-26T11:34:14Z</time>
      </trkpt>
      <trkpt lat="45.29905" lon="6.22377">
        <ele>1347.4899902344</ele>
        <time>2017-02-26T11:34:18Z</time>
      </trkpt>
      <trkpt lat="45.29902" lon="6.22371">
        <ele>1346.4899902344</ele>
        <time>2017-02-26T11:34:22Z</time>
      </trkpt>
      <trkpt lat="45.29898" lon="6.22368">
        <ele>1346.4899902344</ele>
        <time>2017-02-26T11:34:25Z</time>
      </trkpt>
      <trkpt lat="45.29892" lon="6.22363">
        <ele>1338.4899902344</ele>
        <time>2017-02-26T11:34:29Z</time>
      </trkpt>
      <trkpt lat="45.29887" lon="6.22364">
        <ele>1337.4899902344</ele>
        <time>2017-02-26T11:34:35Z</time>
      </trkpt>
      <trkpt lat="45.29883" lon="6.22369">
        <ele>1335.4899902344</ele>
        <time>2017-02-26T11:34:39Z</time>
      </trkpt>
      <trkpt lat="45.29885" lon="6.22375">
        <ele>1333.4899902344</ele>
        <time>2017-02-26T11:34:43Z</time>
      </trkpt>
      <trkpt lat="45.29888" lon="6.22381">
        <ele>1332.4899902344</ele>
        <time>2017-02-26T11:34:48Z</time>
      </trkpt>
      <trkpt lat="45.29892" lon="6.22385">
        <ele>1328.4899902344</ele>
        <time>2017-02-26T11:34:52Z</time>
      </trkpt>
      <trkpt lat="45.29892" lon="6.22393">
        <ele>1330.4899902344</ele>
        <time>2017-02-26T11:34:54Z</time>
      </trkpt>
      <trkpt lat="45.29896" lon="6.22398">
        <ele>1330.4899902344</ele>
        <time>2017-02-26T11:34:57Z</time>
      </trkpt>
      <trkpt lat="45.29897" lon="6.22404">
        <ele>1330.4899902344</ele>
        <time>2017-02-26T11:35:01Z</time>
      </trkpt>
      <trkpt lat="45.29901" lon="6.22409">
        <ele>1329.4899902344</ele>
        <time>2017-02-26T11:35:09Z</time>
      </trkpt>
      <trkpt lat="45.29903" lon="6.22415">
        <ele>1330.4899902344</ele>
        <time>2017-02-26T11:35:16Z</time>
      </trkpt>
      <trkpt lat="45.29904" lon="6.22425">
        <ele>1330.4899902344</ele>
        <time>2017-02-26T11:35:19Z</time>
      </trkpt>
      <trkpt lat="45.29905" lon="6.22432">
        <ele>1331.4899902344</ele>
        <time>2017-02-26T11:35:21Z</time>
      </trkpt>
      <trkpt lat="45.29909" lon="6.2244">
        <ele>1330.4899902344</ele>
        <time>2017-02-26T11:35:26Z</time>
      </trkpt>
      <trkpt lat="45.29912" lon="6.22446">
        <ele>1329.4899902344</ele>
        <time>2017-02-26T11:35:30Z</time>
      </trkpt>
      <trkpt lat="45.29914" lon="6.22454">
        <ele>1328.4899902344</ele>
        <time>2017-02-26T11:35:34Z</time>
      </trkpt>
      <trkpt lat="45.29917" lon="6.22462">
        <ele>1327.4899902344</ele>
        <time>2017-02-26T11:35:38Z</time>
      </trkpt>
      <trkpt lat="45.29923" lon="6.22465">
        <ele>1326.4899902344</ele>
        <time>2017-02-26T11:35:42Z</time>
      </trkpt>
      <trkpt lat="45.29927" lon="6.22468">
        <ele>1324.4899902344</ele>
        <time>2017-02-26T11:35:45Z</time>
      </trkpt>
      <trkpt lat="45.29931" lon="6.22477">
        <ele>1326.4899902344</ele>
        <time>2017-02-26T11:35:48Z</time>
      </trkpt>
      <trkpt lat="45.29935" lon="6.22484">
        <ele>1327.4899902344</ele>
        <time>2017-02-26T11:35:52Z</time>
      </trkpt>
      <trkpt lat="45.29935" lon="6.2249">
        <ele>1327.4899902344</ele>
        <time>2017-02-26T11:35:56Z</time>
      </trkpt>
      <trkpt lat="45.29938" lon="6.22496">
        <ele>1326.4899902344</ele>
        <time>2017-02-26T11:36:00Z</time>
      </trkpt>
      <trkpt lat="45.29941" lon="6.22503">
        <ele>1326.4899902344</ele>
        <time>2017-02-26T11:36:04Z</time>
      </trkpt>
      <trkpt lat="45.29943" lon="6.22509">
        <ele>1328.4899902344</ele>
        <time>2017-02-26T11:36:07Z</time>
      </trkpt>
      <trkpt lat="45.29944" lon="6.22516">
        <ele>1330.4899902344</ele>
        <time>2017-02-26T11:36:09Z</time>
      </trkpt>
      <trkpt lat="45.29948" lon="6.22523">
        <ele>1327.4899902344</ele>
        <time>2017-02-26T11:36:17Z</time>
      </trkpt>
      <trkpt lat="45.2995" lon="6.22529">
        <ele>1328.4899902344</ele>
        <time>2017-02-26T11:36:20Z</time>
      </trkpt>
      <trkpt lat="45.29954" lon="6.22532">
        <ele>1329.4899902344</ele>
        <time>2017-02-26T11:36:24Z</time>
      </trkpt>
      <trkpt lat="45.29959" lon="6.22531">
        <ele>1327.4899902344</ele>
        <time>2017-02-26T11:36:27Z</time>
      </trkpt>
      <trkpt lat="45.29963" lon="6.22536">
        <ele>1324.4899902344</ele>
        <time>2017-02-26T11:36:33Z</time>
      </trkpt>
      <trkpt lat="45.29967" lon="6.22537">
        <ele>1324.4899902344</ele>
        <time>2017-02-26T11:36:35Z</time>
      </trkpt>
      <trkpt lat="45.29972" lon="6.2254">
        <ele>1325.4899902344</ele>
        <time>2017-02-26T11:36:40Z</time>
      </trkpt>
      <trkpt lat="45.29972" lon="6.22547">
        <ele>1323.4899902344</ele>
        <time>2017-02-26T11:36:44Z</time>
      </trkpt>
      <trkpt lat="45.29974" lon="6.22554">
        <ele>1322.4899902344</ele>
        <time>2017-02-26T11:36:47Z</time>
      </trkpt>
      <trkpt lat="45.29976" lon="6.2256">
        <ele>1325.4899902344</ele>
        <time>2017-02-26T11:36:50Z</time>
      </trkpt>
      <trkpt lat="45.29977" lon="6.22568">
        <ele>1321.4899902344</ele>
        <time>2017-02-26T11:36:54Z</time>
      </trkpt>
      <trkpt lat="45.2998" lon="6.22574">
        <ele>1316.4899902344</ele>
        <time>2017-02-26T11:36:58Z</time>
      </trkpt>
      <trkpt lat="45.29981" lon="6.22581">
        <ele>1316.4899902344</ele>
        <time>2017-02-26T11:37:02Z</time>
      </trkpt>
      <trkpt lat="45.29982" lon="6.22589">
        <ele>1319.4899902344</ele>
        <time>2017-02-26T11:37:05Z</time>
      </trkpt>
      <trkpt lat="45.29985" lon="6.22597">
        <ele>1319.4899902344</ele>
        <time>2017-02-26T11:37:09Z</time>
      </trkpt>
      <trkpt lat="45.29987" lon="6.22603">
        <ele>1318.4899902344</ele>
        <time>2017-02-26T11:37:15Z</time>
      </trkpt>
      <trkpt lat="45.2999" lon="6.22609">
        <ele>1319.4909667969</ele>
        <time>2017-02-26T11:37:21Z</time>
      </trkpt>
      <trkpt lat="45.29992" lon="6.22615">
        <ele>1319.4909667969</ele>
        <time>2017-02-26T11:37:24Z</time>
      </trkpt>
      <trkpt lat="45.29994" lon="6.22622">
        <ele>1319.4909667969</ele>
        <time>2017-02-26T11:37:27Z</time>
      </trkpt>
      <trkpt lat="45.29996" lon="6.22628">
        <ele>1319.4909667969</ele>
        <time>2017-02-26T11:37:30Z</time>
      </trkpt>
      <trkpt lat="45.29998" lon="6.22636">
        <ele>1320.4909667969</ele>
        <time>2017-02-26T11:37:34Z</time>
      </trkpt>
      <trkpt lat="45.29999" lon="6.22645">
        <ele>1321.4909667969</ele>
        <time>2017-02-26T11:37:36Z</time>
      </trkpt>
      <trkpt lat="45.30001" lon="6.22652">
        <ele>1320.4909667969</ele>
        <time>2017-02-26T11:37:39Z</time>
      </trkpt>
      <trkpt lat="45.30001" lon="6.22661">
        <ele>1319.4909667969</ele>
        <time>2017-02-26T11:37:46Z</time>
      </trkpt>
      <trkpt lat="45.30004" lon="6.22667">
        <ele>1316.4909667969</ele>
        <time>2017-02-26T11:37:51Z</time>
      </trkpt>
      <trkpt lat="45.30005" lon="6.22675">
        <ele>1312.4909667969</ele>
        <time>2017-02-26T11:37:57Z</time>
      </trkpt>
      <trkpt lat="45.30007" lon="6.22682">
        <ele>1309.4909667969</ele>
        <time>2017-02-26T11:38:02Z</time>
      </trkpt>
      <trkpt lat="45.30009" lon="6.22688">
        <ele>1310.4909667969</ele>
        <time>2017-02-26T11:38:05Z</time>
      </trkpt>
      <trkpt lat="45.30011" lon="6.22693">
        <ele>1309.4909667969</ele>
        <time>2017-02-26T11:38:08Z</time>
      </trkpt>
      <trkpt lat="45.30013" lon="6.22703">
        <ele>1309.4909667969</ele>
        <time>2017-02-26T11:38:12Z</time>
      </trkpt>
      <trkpt lat="45.30013" lon="6.22711">
        <ele>1310.4909667969</ele>
        <time>2017-02-26T11:38:15Z</time>
      </trkpt>
      <trkpt lat="45.30014" lon="6.22718">
        <ele>1312.4909667969</ele>
        <time>2017-02-26T11:38:19Z</time>
      </trkpt>
      <trkpt lat="45.30016" lon="6.22726">
        <ele>1313.4909667969</ele>
        <time>2017-02-26T11:38:22Z</time>
      </trkpt>
      <trkpt lat="45.30014" lon="6.22732">
        <ele>1308.4909667969</ele>
        <time>2017-02-26T11:38:28Z</time>
      </trkpt>
      <trkpt lat="45.30015" lon="6.22738">
        <ele>1303.4909667969</ele>
        <time>2017-02-26T11:38:37Z</time>
      </trkpt>
      <trkpt lat="45.30016" lon="6.22745">
        <ele>1302.4909667969</ele>
        <time>2017-02-26T11:38:40Z</time>
      </trkpt>
      <trkpt lat="45.30018" lon="6.22753">
        <ele>1305.4909667969</ele>
        <time>2017-02-26T11:38:43Z</time>
      </trkpt>
      <trkpt lat="45.3002" lon="6.2276">
        <ele>1301.4909667969</ele>
        <time>2017-02-26T11:38:46Z</time>
      </trkpt>
      <trkpt lat="45.30022" lon="6.22769">
        <ele>1304.4909667969</ele>
        <time>2017-02-26T11:38:49Z</time>
      </trkpt>
      <trkpt lat="45.30021" lon="6.22776">
        <ele>1305.4909667969</ele>
        <time>2017-02-26T11:38:53Z</time>
      </trkpt>
      <trkpt lat="45.30022" lon="6.22783">
        <ele>1304.4909667969</ele>
        <time>2017-02-26T11:38:57Z</time>
      </trkpt>
      <trkpt lat="45.30022" lon="6.2279">
        <ele>1302.4909667969</ele>
        <time>2017-02-26T11:39:01Z</time>
      </trkpt>
      <trkpt lat="45.3002" lon="6.22832">
        <ele>1287.4909667969</ele>
        <time>2017-02-26T11:39:35Z</time>
      </trkpt>
      <trkpt lat="45.30023" lon="6.22843">
        <ele>1291.4909667969</ele>
        <time>2017-02-26T11:39:36Z</time>
      </trkpt>
      <trkpt lat="45.30025" lon="6.2285">
        <ele>1296.4909667969</ele>
        <time>2017-02-26T11:39:37Z</time>
      </trkpt>
      <trkpt lat="45.30026" lon="6.22857">
        <ele>1298.4909667969</ele>
        <time>2017-02-26T11:39:41Z</time>
      </trkpt>
      <trkpt lat="45.30027" lon="6.22864">
        <ele>1298.4909667969</ele>
        <time>2017-02-26T11:39:45Z</time>
      </trkpt>
      <trkpt lat="45.30027" lon="6.22871">
        <ele>1296.4909667969</ele>
        <time>2017-02-26T11:39:49Z</time>
      </trkpt>
      <trkpt lat="45.30028" lon="6.22878">
        <ele>1294.4909667969</ele>
        <time>2017-02-26T11:39:54Z</time>
      </trkpt>
      <trkpt lat="45.30029" lon="6.22884">
        <ele>1295.4909667969</ele>
        <time>2017-02-26T11:39:58Z</time>
      </trkpt>
      <trkpt lat="45.30031" lon="6.22892">
        <ele>1293.4909667969</ele>
        <time>2017-02-26T11:40:03Z</time>
      </trkpt>
      <trkpt lat="45.30032" lon="6.22899">
        <ele>1292.4909667969</ele>
        <time>2017-02-26T11:40:07Z</time>
      </trkpt>
      <trkpt lat="45.30034" lon="6.22905">
        <ele>1292.4909667969</ele>
        <time>2017-02-26T11:40:11Z</time>
      </trkpt>
      <trkpt lat="45.30037" lon="6.22912">
        <ele>1289.4909667969</ele>
        <time>2017-02-26T11:40:16Z</time>
      </trkpt>
      <trkpt lat="45.3004" lon="6.22917">
        <ele>1290.4909667969</ele>
        <time>2017-02-26T11:40:20Z</time>
      </trkpt>
      <trkpt lat="45.30043" lon="6.22923">
        <ele>1294.4909667969</ele>
        <time>2017-02-26T11:40:24Z</time>
      </trkpt>
      <trkpt lat="45.30048" lon="6.22927">
        <ele>1297.4909667969</ele>
        <time>2017-02-26T11:40:29Z</time>
      </trkpt>
      <trkpt lat="45.30052" lon="6.22931">
        <ele>1300.4909667969</ele>
        <time>2017-02-26T11:40:33Z</time>
      </trkpt>
      <trkpt lat="45.30057" lon="6.22935">
        <ele>1297.4909667969</ele>
        <time>2017-02-26T11:40:37Z</time>
      </trkpt>
      <trkpt lat="45.30062" lon="6.22939">
        <ele>1297.4909667969</ele>
        <time>2017-02-26T11:40:42Z</time>
      </trkpt>
      <trkpt lat="45.30066" lon="6.22943">
        <ele>1298.4909667969</ele>
        <time>2017-02-26T11:40:47Z</time>
      </trkpt>
      <trkpt lat="45.3007" lon="6.22949">
        <ele>1301.4909667969</ele>
        <time>2017-02-26T11:40:52Z</time>
      </trkpt>
      <trkpt lat="45.30072" lon="6.22958">
        <ele>1302.4909667969</ele>
        <time>2017-02-26T11:40:56Z</time>
      </trkpt>
      <trkpt lat="45.30074" lon="6.22965">
        <ele>1302.4909667969</ele>
        <time>2017-02-26T11:41:00Z</time>
      </trkpt>
      <trkpt lat="45.30075" lon="6.22971">
        <ele>1302.4909667969</ele>
        <time>2017-02-26T11:41:04Z</time>
      </trkpt>
      <trkpt lat="45.30076" lon="6.22978">
        <ele>1302.4909667969</ele>
        <time>2017-02-26T11:41:09Z</time>
      </trkpt>
      <trkpt lat="45.30075" lon="6.22984">
        <ele>1304.4909667969</ele>
        <time>2017-02-26T11:41:13Z</time>
      </trkpt>
      <trkpt lat="45.30074" lon="6.22991">
        <ele>1302.4909667969</ele>
        <time>2017-02-26T11:41:16Z</time>
      </trkpt>
      <trkpt lat="45.30073" lon="6.22997">
        <ele>1301.4909667969</ele>
        <time>2017-02-26T11:41:20Z</time>
      </trkpt>
      <trkpt lat="45.30072" lon="6.23003">
        <ele>1295.4909667969</ele>
        <time>2017-02-26T11:41:23Z</time>
      </trkpt>
      <trkpt lat="45.3007" lon="6.2301">
        <ele>1283.4909667969</ele>
        <time>2017-02-26T11:41:26Z</time>
      </trkpt>
      <trkpt lat="45.30068" lon="6.23017">
        <ele>1280.4909667969</ele>
        <time>2017-02-26T11:41:31Z</time>
      </trkpt>
      <trkpt lat="45.30065" lon="6.23023">
        <ele>1275.4909667969</ele>
        <time>2017-02-26T11:41:36Z</time>
      </trkpt>
      <trkpt lat="45.30062" lon="6.2303">
        <ele>1276.4909667969</ele>
        <time>2017-02-26T11:41:41Z</time>
      </trkpt>
      <trkpt lat="45.3006" lon="6.23036">
        <ele>1277.4909667969</ele>
        <time>2017-02-26T11:41:44Z</time>
      </trkpt>
      <trkpt lat="45.30058" lon="6.23042">
        <ele>1280.4909667969</ele>
        <time>2017-02-26T11:41:48Z</time>
      </trkpt>
      <trkpt lat="45.30054" lon="6.23048">
        <ele>1280.4909667969</ele>
        <time>2017-02-26T11:41:52Z</time>
      </trkpt>
      <trkpt lat="45.30055" lon="6.23056">
        <ele>1277.4909667969</ele>
        <time>2017-02-26T11:41:55Z</time>
      </trkpt>
      <trkpt lat="45.30054" lon="6.23063">
        <ele>1273.4909667969</ele>
        <time>2017-02-26T11:41:59Z</time>
      </trkpt>
      <trkpt lat="45.30053" lon="6.23071">
        <ele>1272.4909667969</ele>
        <time>2017-02-26T11:42:03Z</time>
      </trkpt>
      <trkpt lat="45.30054" lon="6.23078">
        <ele>1273.4909667969</ele>
        <time>2017-02-26T11:42:06Z</time>
      </trkpt>
      <trkpt lat="45.30054" lon="6.23086">
        <ele>1272.4909667969</ele>
        <time>2017-02-26T11:42:10Z</time>
      </trkpt>
      <trkpt lat="45.30055" lon="6.23093">
        <ele>1271.4909667969</ele>
        <time>2017-02-26T11:42:15Z</time>
      </trkpt>
      <trkpt lat="45.30057" lon="6.23101">
        <ele>1272.4909667969</ele>
        <time>2017-02-26T11:42:18Z</time>
      </trkpt>
      <trkpt lat="45.30059" lon="6.23107">
        <ele>1272.4909667969</ele>
        <time>2017-02-26T11:42:22Z</time>
      </trkpt>
      <trkpt lat="45.3006" lon="6.23113">
        <ele>1270.4909667969</ele>
        <time>2017-02-26T11:42:27Z</time>
      </trkpt>
      <trkpt lat="45.30061" lon="6.23121">
        <ele>1271.4909667969</ele>
        <time>2017-02-26T11:42:30Z</time>
      </trkpt>
      <trkpt lat="45.3006" lon="6.23128">
        <ele>1271.4909667969</ele>
        <time>2017-02-26T11:42:34Z</time>
      </trkpt>
      <trkpt lat="45.30062" lon="6.23135">
        <ele>1270.4909667969</ele>
        <time>2017-02-26T11:42:38Z</time>
      </trkpt>
      <trkpt lat="45.30063" lon="6.23141">
        <ele>1270.4909667969</ele>
        <time>2017-02-26T11:42:42Z</time>
      </trkpt>
      <trkpt lat="45.30065" lon="6.23148">
        <ele>1268.4909667969</ele>
        <time>2017-02-26T11:42:46Z</time>
      </trkpt>
      <trkpt lat="45.30068" lon="6.23155">
        <ele>1266.4909667969</ele>
        <time>2017-02-26T11:42:50Z</time>
      </trkpt>
      <trkpt lat="45.30069" lon="6.23161">
        <ele>1263.4909667969</ele>
        <time>2017-02-26T11:42:54Z</time>
      </trkpt>
      <trkpt lat="45.30074" lon="6.23164">
        <ele>1266.4909667969</ele>
        <time>2017-02-26T11:42:58Z</time>
      </trkpt>
      <trkpt lat="45.30079" lon="6.23165">
        <ele>1264.4909667969</ele>
        <time>2017-02-26T11:43:03Z</time>
      </trkpt>
      <trkpt lat="45.30085" lon="6.23163">
        <ele>1261.4909667969</ele>
        <time>2017-02-26T11:43:07Z</time>
      </trkpt>
      <trkpt lat="45.30089" lon="6.23165">
        <ele>1262.4909667969</ele>
        <time>2017-02-26T11:43:12Z</time>
      </trkpt>
      <trkpt lat="45.30094" lon="6.23166">
        <ele>1261.4909667969</ele>
        <time>2017-02-26T11:43:15Z</time>
      </trkpt>
      <trkpt lat="45.301" lon="6.23168">
        <ele>1261.4909667969</ele>
        <time>2017-02-26T11:43:19Z</time>
      </trkpt>
      <trkpt lat="45.30106" lon="6.23169">
        <ele>1261.4909667969</ele>
        <time>2017-02-26T11:43:24Z</time>
      </trkpt>
      <trkpt lat="45.30111" lon="6.23171">
        <ele>1259.4909667969</ele>
        <time>2017-02-26T11:43:27Z</time>
      </trkpt>
      <trkpt lat="45.30117" lon="6.23174">
        <ele>1258.4919433594</ele>
        <time>2017-02-26T11:43:32Z</time>
      </trkpt>
      <trkpt lat="45.30121" lon="6.23177">
        <ele>1257.4919433594</ele>
        <time>2017-02-26T11:43:37Z</time>
      </trkpt>
      <trkpt lat="45.30126" lon="6.2318">
        <ele>1256.4919433594</ele>
        <time>2017-02-26T11:43:40Z</time>
      </trkpt>
      <trkpt lat="45.3013" lon="6.23182">
        <ele>1256.4919433594</ele>
        <time>2017-02-26T11:43:42Z</time>
      </trkpt>
      <trkpt lat="45.30134" lon="6.23186">
        <ele>1255.4919433594</ele>
        <time>2017-02-26T11:43:46Z</time>
      </trkpt>
      <trkpt lat="45.30135" lon="6.23194">
        <ele>1254.4919433594</ele>
        <time>2017-02-26T11:43:51Z</time>
      </trkpt>
      <trkpt lat="45.30138" lon="6.232">
        <ele>1253.4919433594</ele>
        <time>2017-02-26T11:43:54Z</time>
      </trkpt>
      <trkpt lat="45.30142" lon="6.23206">
        <ele>1254.4919433594</ele>
        <time>2017-02-26T11:43:57Z</time>
      </trkpt>
      <trkpt lat="45.30145" lon="6.23211">
        <ele>1255.4919433594</ele>
        <time>2017-02-26T11:44:00Z</time>
      </trkpt>
      <trkpt lat="45.30148" lon="6.23217">
        <ele>1255.4919433594</ele>
        <time>2017-02-26T11:44:03Z</time>
      </trkpt>
      <trkpt lat="45.30152" lon="6.23225">
        <ele>1256.4919433594</ele>
        <time>2017-02-26T11:44:09Z</time>
      </trkpt>
      <trkpt lat="45.30155" lon="6.23231">
        <ele>1253.4919433594</ele>
        <time>2017-02-26T11:44:14Z</time>
      </trkpt>
      <trkpt lat="45.30157" lon="6.23237">
        <ele>1251.4919433594</ele>
        <time>2017-02-26T11:44:19Z</time>
      </trkpt>
      <trkpt lat="45.30158" lon="6.23246">
        <ele>1250.4919433594</ele>
        <time>2017-02-26T11:44:24Z</time>
      </trkpt>
      <trkpt lat="45.30158" lon="6.23255">
        <ele>1252.4919433594</ele>
        <time>2017-02-26T11:44:27Z</time>
      </trkpt>
      <trkpt lat="45.30154" lon="6.23259">
        <ele>1253.4919433594</ele>
        <time>2017-02-26T11:44:30Z</time>
      </trkpt>
      <trkpt lat="45.30149" lon="6.23259">
        <ele>1251.4919433594</ele>
        <time>2017-02-26T11:44:33Z</time>
      </trkpt>
      <trkpt lat="45.30144" lon="6.23255">
        <ele>1251.4919433594</ele>
        <time>2017-02-26T11:44:41Z</time>
      </trkpt>
      <trkpt lat="45.30139" lon="6.23253">
        <ele>1249.4919433594</ele>
        <time>2017-02-26T11:44:45Z</time>
      </trkpt>
      <trkpt lat="45.30135" lon="6.23249">
        <ele>1249.4919433594</ele>
        <time>2017-02-26T11:44:49Z</time>
      </trkpt>
      <trkpt lat="45.30131" lon="6.23246">
        <ele>1247.4919433594</ele>
        <time>2017-02-26T11:44:53Z</time>
      </trkpt>
      <trkpt lat="45.30126" lon="6.23242">
        <ele>1246.4919433594</ele>
        <time>2017-02-26T11:44:57Z</time>
      </trkpt>
      <trkpt lat="45.30123" lon="6.23237">
        <ele>1249.4919433594</ele>
        <time>2017-02-26T11:45:00Z</time>
      </trkpt>
      <trkpt lat="45.30119" lon="6.23232">
        <ele>1249.4919433594</ele>
        <time>2017-02-26T11:45:03Z</time>
      </trkpt>
      <trkpt lat="45.30115" lon="6.23229">
        <ele>1250.4919433594</ele>
        <time>2017-02-26T11:45:06Z</time>
      </trkpt>
      <trkpt lat="45.3011" lon="6.23226">
        <ele>1250.4919433594</ele>
        <time>2017-02-26T11:45:09Z</time>
      </trkpt>
      <trkpt lat="45.30107" lon="6.23222">
        <ele>1251.4919433594</ele>
        <time>2017-02-26T11:45:13Z</time>
      </trkpt>
      <trkpt lat="45.30102" lon="6.23221">
        <ele>1251.4919433594</ele>
        <time>2017-02-26T11:45:15Z</time>
      </trkpt>
      <trkpt lat="45.30097" lon="6.2322">
        <ele>1252.4919433594</ele>
        <time>2017-02-26T11:45:19Z</time>
      </trkpt>
      <trkpt lat="45.30093" lon="6.23216">
        <ele>1249.4919433594</ele>
        <time>2017-02-26T11:45:23Z</time>
      </trkpt>
      <trkpt lat="45.30088" lon="6.23214">
        <ele>1251.4919433594</ele>
        <time>2017-02-26T11:45:29Z</time>
      </trkpt>
      <trkpt lat="45.30084" lon="6.23209">
        <ele>1249.4909667969</ele>
        <time>2017-02-26T11:45:33Z</time>
      </trkpt>
      <trkpt lat="45.30079" lon="6.23208">
        <ele>1252.4909667969</ele>
        <time>2017-02-26T11:45:38Z</time>
      </trkpt>
      <trkpt lat="45.30072" lon="6.23208">
        <ele>899.49102783203</ele>
        <time>2017-02-26T11:45:43Z</time>
      </trkpt>
      <trkpt lat="45.30066" lon="6.23209">
        <ele>1038.4909667969</ele>
        <time>2017-02-26T11:45:47Z</time>
      </trkpt>
      <trkpt lat="45.30062" lon="6.2321">
        <ele>1189.4909667969</ele>
        <time>2017-02-26T11:45:55Z</time>
      </trkpt>
      <trkpt lat="45.30056" lon="6.23208">
        <ele>1208.4909667969</ele>
        <time>2017-02-26T11:45:58Z</time>
      </trkpt>
      <trkpt lat="45.30051" lon="6.23206">
        <ele>1217.4909667969</ele>
        <time>2017-02-26T11:46:01Z</time>
      </trkpt>
      <trkpt lat="45.30045" lon="6.23204">
        <ele>1219.4909667969</ele>
        <time>2017-02-26T11:46:04Z</time>
      </trkpt>
      <trkpt lat="45.30039" lon="6.23201">
        <ele>1227.4909667969</ele>
        <time>2017-02-26T11:46:06Z</time>
      </trkpt>
      <trkpt lat="45.30033" lon="6.23197">
        <ele>1230.4909667969</ele>
        <time>2017-02-26T11:46:12Z</time>
      </trkpt>
      <trkpt lat="45.3003" lon="6.23192">
        <ele>1235.4909667969</ele>
        <time>2017-02-26T11:46:16Z</time>
      </trkpt>
      <trkpt lat="45.30026" lon="6.23186">
        <ele>1234.4909667969</ele>
        <time>2017-02-26T11:46:21Z</time>
      </trkpt>
      <trkpt lat="45.30024" lon="6.23181">
        <ele>1235.4909667969</ele>
        <time>2017-02-26T11:46:23Z</time>
      </trkpt>
      <trkpt lat="45.30021" lon="6.23175">
        <ele>1231.4909667969</ele>
        <time>2017-02-26T11:46:28Z</time>
      </trkpt>
      <trkpt lat="45.30018" lon="6.23171">
        <ele>1233.4909667969</ele>
        <time>2017-02-26T11:46:31Z</time>
      </trkpt>
      <trkpt lat="45.30013" lon="6.23166">
        <ele>1237.4909667969</ele>
        <time>2017-02-26T11:46:35Z</time>
      </trkpt>
      <trkpt lat="45.3001" lon="6.23161">
        <ele>1236.4909667969</ele>
        <time>2017-02-26T11:46:38Z</time>
      </trkpt>
      <trkpt lat="45.30006" lon="6.23155">
        <ele>1236.4909667969</ele>
        <time>2017-02-26T11:46:43Z</time>
      </trkpt>
      <trkpt lat="45.30002" lon="6.23149">
        <ele>1235.4909667969</ele>
        <time>2017-02-26T11:46:49Z</time>
      </trkpt>
      <trkpt lat="45.29998" lon="6.23145">
        <ele>1233.4909667969</ele>
        <time>2017-02-26T11:46:53Z</time>
      </trkpt>
      <trkpt lat="45.29995" lon="6.2314">
        <ele>1232.4909667969</ele>
        <time>2017-02-26T11:46:56Z</time>
      </trkpt>
      <trkpt lat="45.29992" lon="6.23134">
        <ele>1230.4909667969</ele>
        <time>2017-02-26T11:46:59Z</time>
      </trkpt>
      <trkpt lat="45.29988" lon="6.23131">
        <ele>1230.4909667969</ele>
        <time>2017-02-26T11:47:03Z</time>
      </trkpt>
      <trkpt lat="45.29985" lon="6.23124">
        <ele>1231.4909667969</ele>
        <time>2017-02-26T11:47:06Z</time>
      </trkpt>
      <trkpt lat="45.29982" lon="6.23118">
        <ele>1231.4909667969</ele>
        <time>2017-02-26T11:47:09Z</time>
      </trkpt>
      <trkpt lat="45.2998" lon="6.23112">
        <ele>1231.4909667969</ele>
        <time>2017-02-26T11:47:12Z</time>
      </trkpt>
      <trkpt lat="45.29975" lon="6.23106">
        <ele>1229.4909667969</ele>
        <time>2017-02-26T11:47:16Z</time>
      </trkpt>
      <trkpt lat="45.29973" lon="6.23099">
        <ele>1227.4909667969</ele>
        <time>2017-02-26T11:47:21Z</time>
      </trkpt>
      <trkpt lat="45.29974" lon="6.23092">
        <ele>1227.4909667969</ele>
        <time>2017-02-26T11:47:25Z</time>
      </trkpt>
      <trkpt lat="45.29974" lon="6.23084">
        <ele>1225.4909667969</ele>
        <time>2017-02-26T11:47:29Z</time>
      </trkpt>
      <trkpt lat="45.29976" lon="6.23077">
        <ele>1222.4909667969</ele>
        <time>2017-02-26T11:47:34Z</time>
      </trkpt>
      <trkpt lat="45.29977" lon="6.23069">
        <ele>1219.4909667969</ele>
        <time>2017-02-26T11:47:39Z</time>
      </trkpt>
      <trkpt lat="45.29979" lon="6.23061">
        <ele>1221.4909667969</ele>
        <time>2017-02-26T11:47:44Z</time>
      </trkpt>
      <trkpt lat="45.2998" lon="6.23053">
        <ele>1220.4909667969</ele>
        <time>2017-02-26T11:47:49Z</time>
      </trkpt>
      <trkpt lat="45.29981" lon="6.23046">
        <ele>1221.4909667969</ele>
        <time>2017-02-26T11:47:52Z</time>
      </trkpt>
      <trkpt lat="45.29982" lon="6.23039">
        <ele>1221.4909667969</ele>
        <time>2017-02-26T11:47:56Z</time>
      </trkpt>
      <trkpt lat="45.29983" lon="6.23031">
        <ele>1224.4909667969</ele>
        <time>2017-02-26T11:48:00Z</time>
      </trkpt>
      <trkpt lat="45.29984" lon="6.23024">
        <ele>1225.4909667969</ele>
        <time>2017-02-26T11:48:03Z</time>
      </trkpt>
      <trkpt lat="45.29982" lon="6.23018">
        <ele>1226.4909667969</ele>
        <time>2017-02-26T11:48:07Z</time>
      </trkpt>
      <trkpt lat="45.29979" lon="6.23012">
        <ele>1227.4909667969</ele>
        <time>2017-02-26T11:48:11Z</time>
      </trkpt>
      <trkpt lat="45.29974" lon="6.23009">
        <ele>1228.4909667969</ele>
        <time>2017-02-26T11:48:15Z</time>
      </trkpt>
      <trkpt lat="45.29969" lon="6.23007">
        <ele>1233.4909667969</ele>
        <time>2017-02-26T11:48:20Z</time>
      </trkpt>
      <trkpt lat="45.29964" lon="6.23003">
        <ele>1232.4909667969</ele>
        <time>2017-02-26T11:48:24Z</time>
      </trkpt>
      <trkpt lat="45.2996" lon="6.23">
        <ele>1236.4909667969</ele>
        <time>2017-02-26T11:48:28Z</time>
      </trkpt>
      <trkpt lat="45.29955" lon="6.22999">
        <ele>1238.4909667969</ele>
        <time>2017-02-26T11:48:36Z</time>
      </trkpt>
      <trkpt lat="45.29951" lon="6.22996">
        <ele>1237.4909667969</ele>
        <time>2017-02-26T11:48:41Z</time>
      </trkpt>
      <trkpt lat="45.29951" lon="6.22989">
        <ele>1236.4909667969</ele>
        <time>2017-02-26T11:48:44Z</time>
      </trkpt>
      <trkpt lat="45.29948" lon="6.22984">
        <ele>1237.4909667969</ele>
        <time>2017-02-26T11:48:49Z</time>
      </trkpt>
      <trkpt lat="45.29944" lon="6.22978">
        <ele>1225.4909667969</ele>
        <time>2017-02-26T11:48:54Z</time>
      </trkpt>
      <trkpt lat="45.29939" lon="6.22976">
        <ele>1226.4909667969</ele>
        <time>2017-02-26T11:48:57Z</time>
      </trkpt>
      <trkpt lat="45.29937" lon="6.2297">
        <ele>1227.4909667969</ele>
        <time>2017-02-26T11:49:02Z</time>
      </trkpt>
      <trkpt lat="45.29932" lon="6.22969">
        <ele>1226.4909667969</ele>
        <time>2017-02-26T11:49:05Z</time>
      </trkpt>
      <trkpt lat="45.29926" lon="6.22967">
        <ele>1227.4909667969</ele>
        <time>2017-02-26T11:49:08Z</time>
      </trkpt>
      <trkpt lat="45.29922" lon="6.22966">
        <ele>1227.4909667969</ele>
        <time>2017-02-26T11:49:10Z</time>
      </trkpt>
      <trkpt lat="45.29913" lon="6.22966">
        <ele>1231.4909667969</ele>
        <time>2017-02-26T11:49:13Z</time>
      </trkpt>
      <trkpt lat="45.29909" lon="6.22965">
        <ele>1227.4909667969</ele>
        <time>2017-02-26T11:49:15Z</time>
      </trkpt>
      <trkpt lat="45.29904" lon="6.22963">
        <ele>1230.4909667969</ele>
        <time>2017-02-26T11:49:17Z</time>
      </trkpt>
      <trkpt lat="45.29898" lon="6.2296">
        <ele>1227.4909667969</ele>
        <time>2017-02-26T11:49:20Z</time>
      </trkpt>
      <trkpt lat="45.29894" lon="6.22956">
        <ele>1221.4909667969</ele>
        <time>2017-02-26T11:49:23Z</time>
      </trkpt>
      <trkpt lat="45.29891" lon="6.22952">
        <ele>1219.4909667969</ele>
        <time>2017-02-26T11:49:28Z</time>
      </trkpt>
      <trkpt lat="45.29886" lon="6.22948">
        <ele>1215.4909667969</ele>
        <time>2017-02-26T11:49:33Z</time>
      </trkpt>
      <trkpt lat="45.29883" lon="6.22943">
        <ele>1215.4909667969</ele>
        <time>2017-02-26T11:49:37Z</time>
      </trkpt>
      <trkpt lat="45.2988" lon="6.22936">
        <ele>1215.4909667969</ele>
        <time>2017-02-26T11:49:41Z</time>
      </trkpt>
      <trkpt lat="45.29875" lon="6.22934">
        <ele>1211.4909667969</ele>
        <time>2017-02-26T11:49:44Z</time>
      </trkpt>
      <trkpt lat="45.29874" lon="6.22927">
        <ele>1210.4909667969</ele>
        <time>2017-02-26T11:49:49Z</time>
      </trkpt>
      <trkpt lat="45.29872" lon="6.22921">
        <ele>1210.4909667969</ele>
        <time>2017-02-26T11:49:52Z</time>
      </trkpt>
      <trkpt lat="45.2987" lon="6.22914">
        <ele>1211.4909667969</ele>
        <time>2017-02-26T11:49:55Z</time>
      </trkpt>
      <trkpt lat="45.29868" lon="6.22907">
        <ele>1213.4909667969</ele>
        <time>2017-02-26T11:49:58Z</time>
      </trkpt>
      <trkpt lat="45.29868" lon="6.22899">
        <ele>1216.4909667969</ele>
        <time>2017-02-26T11:50:03Z</time>
      </trkpt>
      <trkpt lat="45.29865" lon="6.22895">
        <ele>1212.4909667969</ele>
        <time>2017-02-26T11:50:07Z</time>
      </trkpt>
      <trkpt lat="45.2986" lon="6.2289">
        <ele>1208.4909667969</ele>
        <time>2017-02-26T11:50:10Z</time>
      </trkpt>
      <trkpt lat="45.29858" lon="6.22884">
        <ele>1205.4909667969</ele>
        <time>2017-02-26T11:50:14Z</time>
      </trkpt>
      <trkpt lat="45.29856" lon="6.22877">
        <ele>1201.4909667969</ele>
        <time>2017-02-26T11:50:19Z</time>
      </trkpt>
      <trkpt lat="45.29851" lon="6.22873">
        <ele>1201.4909667969</ele>
        <time>2017-02-26T11:50:23Z</time>
      </trkpt>
      <trkpt lat="45.29847" lon="6.2287">
        <ele>1202.4909667969</ele>
        <time>2017-02-26T11:50:27Z</time>
      </trkpt>
      <trkpt lat="45.29843" lon="6.22866">
        <ele>1202.4909667969</ele>
        <time>2017-02-26T11:50:31Z</time>
      </trkpt>
      <trkpt lat="45.29837" lon="6.22864">
        <ele>1200.4909667969</ele>
        <time>2017-02-26T11:50:35Z</time>
      </trkpt>
      <trkpt lat="45.29832" lon="6.22862">
        <ele>1204.4909667969</ele>
        <time>2017-02-26T11:50:39Z</time>
      </trkpt>
      <trkpt lat="45.29827" lon="6.22859">
        <ele>1201.4909667969</ele>
        <time>2017-02-26T11:50:42Z</time>
      </trkpt>
      <trkpt lat="45.29822" lon="6.22855">
        <ele>1198.4909667969</ele>
        <time>2017-02-26T11:50:47Z</time>
      </trkpt>
      <trkpt lat="45.29818" lon="6.22852">
        <ele>1200.4909667969</ele>
        <time>2017-02-26T11:50:50Z</time>
      </trkpt>
      <trkpt lat="45.29814" lon="6.22848">
        <ele>1202.4899902344</ele>
        <time>2017-02-26T11:50:53Z</time>
      </trkpt>
      <trkpt lat="45.29811" lon="6.22843">
        <ele>1203.4899902344</ele>
        <time>2017-02-26T11:50:56Z</time>
      </trkpt>
      <trkpt lat="45.29808" lon="6.22837">
        <ele>1202.4899902344</ele>
        <time>2017-02-26T11:50:59Z</time>
      </trkpt>
      <trkpt lat="45.29804" lon="6.22833">
        <ele>1204.4899902344</ele>
        <time>2017-02-26T11:51:02Z</time>
      </trkpt>
      <trkpt lat="45.29801" lon="6.22825">
        <ele>1204.4899902344</ele>
        <time>2017-02-26T11:51:07Z</time>
      </trkpt>
      <trkpt lat="45.29798" lon="6.2282">
        <ele>1206.4899902344</ele>
        <time>2017-02-26T11:51:10Z</time>
      </trkpt>
      <trkpt lat="45.29792" lon="6.22815">
        <ele>1204.4899902344</ele>
        <time>2017-02-26T11:51:17Z</time>
      </trkpt>
      <trkpt lat="45.29788" lon="6.2281">
        <ele>1199.4899902344</ele>
        <time>2017-02-26T11:51:21Z</time>
      </trkpt>
      <trkpt lat="45.29787" lon="6.22804">
        <ele>1197.4899902344</ele>
        <time>2017-02-26T11:51:24Z</time>
      </trkpt>
      <trkpt lat="45.29784" lon="6.22797">
        <ele>1197.4899902344</ele>
        <time>2017-02-26T11:51:27Z</time>
      </trkpt>
      <trkpt lat="45.29781" lon="6.22792">
        <ele>1198.4899902344</ele>
        <time>2017-02-26T11:51:30Z</time>
      </trkpt>
      <trkpt lat="45.29777" lon="6.22787">
        <ele>1197.4899902344</ele>
        <time>2017-02-26T11:51:35Z</time>
      </trkpt>
      <trkpt lat="45.29774" lon="6.22781">
        <ele>1198.4899902344</ele>
        <time>2017-02-26T11:51:39Z</time>
      </trkpt>
      <trkpt lat="45.29769" lon="6.22774">
        <ele>1194.4899902344</ele>
        <time>2017-02-26T11:51:42Z</time>
      </trkpt>
      <trkpt lat="45.29768" lon="6.22767">
        <ele>1191.4899902344</ele>
        <time>2017-02-26T11:51:45Z</time>
      </trkpt>
      <trkpt lat="45.29765" lon="6.22762">
        <ele>1190.4899902344</ele>
        <time>2017-02-26T11:51:48Z</time>
      </trkpt>
      <trkpt lat="45.29761" lon="6.22757">
        <ele>1192.4899902344</ele>
        <time>2017-02-26T11:51:52Z</time>
      </trkpt>
      <trkpt lat="45.29758" lon="6.22752">
        <ele>1190.4899902344</ele>
        <time>2017-02-26T11:51:56Z</time>
      </trkpt>
      <trkpt lat="45.29753" lon="6.22748">
        <ele>1189.4899902344</ele>
        <time>2017-02-26T11:52:03Z</time>
      </trkpt>
      <trkpt lat="45.29751" lon="6.22742">
        <ele>1190.4899902344</ele>
        <time>2017-02-26T11:52:05Z</time>
      </trkpt>
      <trkpt lat="45.29749" lon="6.22733">
        <ele>1187.4899902344</ele>
        <time>2017-02-26T11:52:08Z</time>
      </trkpt>
      <trkpt lat="45.29746" lon="6.22726">
        <ele>1185.4899902344</ele>
        <time>2017-02-26T11:52:12Z</time>
      </trkpt>
      <trkpt lat="45.29742" lon="6.2272">
        <ele>1186.4899902344</ele>
        <time>2017-02-26T11:52:16Z</time>
      </trkpt>
      <trkpt lat="45.29741" lon="6.22712">
        <ele>1188.4899902344</ele>
        <time>2017-02-26T11:52:20Z</time>
      </trkpt>
      <trkpt lat="45.2974" lon="6.22704">
        <ele>1187.4899902344</ele>
        <time>2017-02-26T11:52:22Z</time>
      </trkpt>
      <trkpt lat="45.29739" lon="6.22697">
        <ele>1186.4899902344</ele>
        <time>2017-02-26T11:52:24Z</time>
      </trkpt>
      <trkpt lat="45.29735" lon="6.22694">
        <ele>1186.4899902344</ele>
        <time>2017-02-26T11:52:30Z</time>
      </trkpt>
      <trkpt lat="45.29732" lon="6.22687">
        <ele>1184.4899902344</ele>
        <time>2017-02-26T11:52:40Z</time>
      </trkpt>
      <trkpt lat="45.29731" lon="6.22681">
        <ele>1179.4899902344</ele>
        <time>2017-02-26T11:52:43Z</time>
      </trkpt>
      <trkpt lat="45.2973" lon="6.22674">
        <ele>1175.4899902344</ele>
        <time>2017-02-26T11:52:47Z</time>
      </trkpt>
      <trkpt lat="45.29725" lon="6.2267">
        <ele>1176.4899902344</ele>
        <time>2017-02-26T11:52:50Z</time>
      </trkpt>
      <trkpt lat="45.29721" lon="6.22665">
        <ele>1179.4899902344</ele>
        <time>2017-02-26T11:52:53Z</time>
      </trkpt>
      <trkpt lat="45.29715" lon="6.22664">
        <ele>1179.4899902344</ele>
        <time>2017-02-26T11:52:56Z</time>
      </trkpt>
      <trkpt lat="45.29712" lon="6.22659">
        <ele>1175.4899902344</ele>
        <time>2017-02-26T11:53:01Z</time>
      </trkpt>
      <trkpt lat="45.29708" lon="6.22655">
        <ele>1174.4899902344</ele>
        <time>2017-02-26T11:53:04Z</time>
      </trkpt>
      <trkpt lat="45.29705" lon="6.22649">
        <ele>1177.4899902344</ele>
        <time>2017-02-26T11:53:08Z</time>
      </trkpt>
      <trkpt lat="45.297" lon="6.22643">
        <ele>1176.4899902344</ele>
        <time>2017-02-26T11:53:14Z</time>
      </trkpt>
      <trkpt lat="45.29697" lon="6.22637">
        <ele>1177.4899902344</ele>
        <time>2017-02-26T11:53:17Z</time>
      </trkpt>
      <trkpt lat="45.29693" lon="6.22631">
        <ele>1177.4899902344</ele>
        <time>2017-02-26T11:53:21Z</time>
      </trkpt>
      <trkpt lat="45.2969" lon="6.22626">
        <ele>1172.4899902344</ele>
        <time>2017-02-26T11:53:24Z</time>
      </trkpt>
      <trkpt lat="45.29687" lon="6.2262">
        <ele>1170.4899902344</ele>
        <time>2017-02-26T11:53:27Z</time>
      </trkpt>
      <trkpt lat="45.29683" lon="6.22616">
        <ele>1171.4899902344</ele>
        <time>2017-02-26T11:53:31Z</time>
      </trkpt>
      <trkpt lat="45.29681" lon="6.22609">
        <ele>1169.4899902344</ele>
        <time>2017-02-26T11:53:37Z</time>
      </trkpt>
      <trkpt lat="45.29678" lon="6.22602">
        <ele>1171.4899902344</ele>
        <time>2017-02-26T11:53:41Z</time>
      </trkpt>
      <trkpt lat="45.29673" lon="6.226">
        <ele>1171.4899902344</ele>
        <time>2017-02-26T11:53:46Z</time>
      </trkpt>
      <trkpt lat="45.29669" lon="6.22596">
        <ele>1173.4899902344</ele>
        <time>2017-02-26T11:53:49Z</time>
      </trkpt>
      <trkpt lat="45.29667" lon="6.22591">
        <ele>1174.4899902344</ele>
        <time>2017-02-26T11:53:53Z</time>
      </trkpt>
      <trkpt lat="45.29662" lon="6.22586">
        <ele>1176.4899902344</ele>
        <time>2017-02-26T11:53:57Z</time>
      </trkpt>
      <trkpt lat="45.29657" lon="6.22584">
        <ele>1176.4899902344</ele>
        <time>2017-02-26T11:54:01Z</time>
      </trkpt>
      <trkpt lat="45.29652" lon="6.2258">
        <ele>1172.4899902344</ele>
        <time>2017-02-26T11:54:05Z</time>
      </trkpt>
      <trkpt lat="45.29646" lon="6.22578">
        <ele>1172.4899902344</ele>
        <time>2017-02-26T11:54:10Z</time>
      </trkpt>
      <trkpt lat="45.29641" lon="6.22572">
        <ele>1172.4899902344</ele>
        <time>2017-02-26T11:54:13Z</time>
      </trkpt>
      <trkpt lat="45.29636" lon="6.22568">
        <ele>1169.4899902344</ele>
        <time>2017-02-26T11:54:17Z</time>
      </trkpt>
      <trkpt lat="45.29631" lon="6.22568">
        <ele>1168.4899902344</ele>
        <time>2017-02-26T11:54:20Z</time>
      </trkpt>
      <trkpt lat="45.29625" lon="6.22567">
        <ele>1167.4899902344</ele>
        <time>2017-02-26T11:54:24Z</time>
      </trkpt>
      <trkpt lat="45.2962" lon="6.22564">
        <ele>1168.4899902344</ele>
        <time>2017-02-26T11:54:27Z</time>
      </trkpt>
      <trkpt lat="45.29615" lon="6.22562">
        <ele>1173.4899902344</ele>
        <time>2017-02-26T11:54:30Z</time>
      </trkpt>
      <trkpt lat="45.2961" lon="6.2256">
        <ele>1171.4899902344</ele>
        <time>2017-02-26T11:54:33Z</time>
      </trkpt>
      <trkpt lat="45.29606" lon="6.22556">
        <ele>1169.4899902344</ele>
        <time>2017-02-26T11:54:37Z</time>
      </trkpt>
      <trkpt lat="45.29604" lon="6.2255">
        <ele>1169.4899902344</ele>
        <time>2017-02-26T11:54:41Z</time>
      </trkpt>
      <trkpt lat="45.29599" lon="6.22548">
        <ele>1170.4899902344</ele>
        <time>2017-02-26T11:54:44Z</time>
      </trkpt>
      <trkpt lat="45.29595" lon="6.22545">
        <ele>1169.4899902344</ele>
        <time>2017-02-26T11:54:47Z</time>
      </trkpt>
      <trkpt lat="45.2959" lon="6.22543">
        <ele>1168.4899902344</ele>
        <time>2017-02-26T11:54:50Z</time>
      </trkpt>
      <trkpt lat="45.29586" lon="6.22539">
        <ele>1166.4899902344</ele>
        <time>2017-02-26T11:54:54Z</time>
      </trkpt>
      <trkpt lat="45.29582" lon="6.22535">
        <ele>1166.4899902344</ele>
        <time>2017-02-26T11:54:58Z</time>
      </trkpt>
      <trkpt lat="45.29577" lon="6.22532">
        <ele>1165.4899902344</ele>
        <time>2017-02-26T11:55:01Z</time>
      </trkpt>
      <trkpt lat="45.29573" lon="6.2253">
        <ele>1164.4899902344</ele>
        <time>2017-02-26T11:55:04Z</time>
      </trkpt>
      <trkpt lat="45.29568" lon="6.22528">
        <ele>1164.4899902344</ele>
        <time>2017-02-26T11:55:07Z</time>
      </trkpt>
      <trkpt lat="45.29564" lon="6.22523">
        <ele>1164.4899902344</ele>
        <time>2017-02-26T11:55:11Z</time>
      </trkpt>
      <trkpt lat="45.2956" lon="6.22518">
        <ele>1163.4899902344</ele>
        <time>2017-02-26T11:55:15Z</time>
      </trkpt>
      <trkpt lat="45.29556" lon="6.22514">
        <ele>1162.4899902344</ele>
        <time>2017-02-26T11:55:19Z</time>
      </trkpt>
      <trkpt lat="45.29551" lon="6.22508">
        <ele>1162.4899902344</ele>
        <time>2017-02-26T11:55:23Z</time>
      </trkpt>
      <trkpt lat="45.29548" lon="6.22504">
        <ele>1159.4899902344</ele>
        <time>2017-02-26T11:55:28Z</time>
      </trkpt>
      <trkpt lat="45.29544" lon="6.22498">
        <ele>1159.4899902344</ele>
        <time>2017-02-26T11:55:33Z</time>
      </trkpt>
      <trkpt lat="45.29541" lon="6.22504">
        <ele>1159.4899902344</ele>
        <time>2017-02-26T11:55:44Z</time>
      </trkpt>
      <trkpt lat="45.2954" lon="6.22511">
        <ele>1162.4899902344</ele>
        <time>2017-02-26T11:55:49Z</time>
      </trkpt>
      <trkpt lat="45.29535" lon="6.22514">
        <ele>1160.4899902344</ele>
        <time>2017-02-26T11:56:00Z</time>
      </trkpt>
      <trkpt lat="45.29531" lon="6.22516">
        <ele>1158.4899902344</ele>
        <time>2017-02-26T11:56:05Z</time>
      </trkpt>
      <trkpt lat="45.29526" lon="6.22519">
        <ele>1158.4899902344</ele>
        <time>2017-02-26T11:56:09Z</time>
      </trkpt>
      <trkpt lat="45.29524" lon="6.22526">
        <ele>1155.4899902344</ele>
        <time>2017-02-26T11:56:21Z</time>
      </trkpt>
      <trkpt lat="45.2952" lon="6.22531">
        <ele>1154.4899902344</ele>
        <time>2017-02-26T11:56:25Z</time>
      </trkpt>
      <trkpt lat="45.29515" lon="6.22535">
        <ele>1154.4899902344</ele>
        <time>2017-02-26T11:56:29Z</time>
      </trkpt>
      <trkpt lat="45.29512" lon="6.22539">
        <ele>1153.4899902344</ele>
        <time>2017-02-26T11:56:32Z</time>
      </trkpt>
      <trkpt lat="45.29507" lon="6.22542">
        <ele>1154.4899902344</ele>
        <time>2017-02-26T11:56:42Z</time>
      </trkpt>
      <trkpt lat="45.29503" lon="6.22544">
        <ele>1151.4890136719</ele>
        <time>2017-02-26T11:56:46Z</time>
      </trkpt>
      <trkpt lat="45.29498" lon="6.22545">
        <ele>1150.4890136719</ele>
        <time>2017-02-26T11:56:52Z</time>
      </trkpt>
      <trkpt lat="45.29494" lon="6.22548">
        <ele>1149.4890136719</ele>
        <time>2017-02-26T11:56:57Z</time>
      </trkpt>
      <trkpt lat="45.2949" lon="6.22552">
        <ele>1149.4890136719</ele>
        <time>2017-02-26T11:57:02Z</time>
      </trkpt>
      <trkpt lat="45.29485" lon="6.22553">
        <ele>1148.4890136719</ele>
        <time>2017-02-26T11:57:07Z</time>
      </trkpt>
      <trkpt lat="45.2948" lon="6.22555">
        <ele>1145.4890136719</ele>
        <time>2017-02-26T11:57:12Z</time>
      </trkpt>
      <trkpt lat="45.29479" lon="6.22562">
        <ele>1145.4890136719</ele>
        <time>2017-02-26T11:57:17Z</time>
      </trkpt>
      <trkpt lat="45.2948" lon="6.22569">
        <ele>1145.4890136719</ele>
        <time>2017-02-26T11:57:21Z</time>
      </trkpt>
      <trkpt lat="45.29482" lon="6.22575">
        <ele>1147.4899902344</ele>
        <time>2017-02-26T11:57:25Z</time>
      </trkpt>
      <trkpt lat="45.29482" lon="6.22582">
        <ele>1146.4899902344</ele>
        <time>2017-02-26T11:57:29Z</time>
      </trkpt>
      <trkpt lat="45.29484" lon="6.22589">
        <ele>1146.4899902344</ele>
        <time>2017-02-26T11:57:33Z</time>
      </trkpt>
      <trkpt lat="45.29484" lon="6.22597">
        <ele>1144.4899902344</ele>
        <time>2017-02-26T11:57:38Z</time>
      </trkpt>
      <trkpt lat="45.29483" lon="6.22605">
        <ele>1142.4899902344</ele>
        <time>2017-02-26T11:57:42Z</time>
      </trkpt>
      <trkpt lat="45.29479" lon="6.22603">
        <ele>1136.4899902344</ele>
        <time>2017-02-26T11:57:56Z</time>
      </trkpt>
      <trkpt lat="45.29474" lon="6.226">
        <ele>1132.4899902344</ele>
        <time>2017-02-26T11:58:01Z</time>
      </trkpt>
      <trkpt lat="45.29469" lon="6.22599">
        <ele>1129.4899902344</ele>
        <time>2017-02-26T11:58:06Z</time>
      </trkpt>
      <trkpt lat="45.29463" lon="6.22602">
        <ele>1125.4899902344</ele>
        <time>2017-02-26T11:58:10Z</time>
      </trkpt>
      <trkpt lat="45.29458" lon="6.22602">
        <ele>1124.4890136719</ele>
        <time>2017-02-26T11:58:14Z</time>
      </trkpt>
      <trkpt lat="45.29453" lon="6.22602">
        <ele>1125.4890136719</ele>
        <time>2017-02-26T11:58:20Z</time>
      </trkpt>
      <trkpt lat="45.29448" lon="6.22604">
        <ele>1125.4890136719</ele>
        <time>2017-02-26T11:58:24Z</time>
      </trkpt>
      <trkpt lat="45.29442" lon="6.22607">
        <ele>1124.4890136719</ele>
        <time>2017-02-26T11:58:29Z</time>
      </trkpt>
      <trkpt lat="45.29442" lon="6.22614">
        <ele>1124.4890136719</ele>
        <time>2017-02-26T11:58:47Z</time>
      </trkpt>
      <trkpt lat="45.29439" lon="6.22621">
        <ele>1123.4890136719</ele>
        <time>2017-02-26T11:58:51Z</time>
      </trkpt>
      <trkpt lat="45.29437" lon="6.22627">
        <ele>1122.4890136719</ele>
        <time>2017-02-26T11:58:55Z</time>
      </trkpt>
      <trkpt lat="45.29432" lon="6.22629">
        <ele>1122.4890136719</ele>
        <time>2017-02-26T11:59:01Z</time>
      </trkpt>
      <trkpt lat="45.29429" lon="6.22635">
        <ele>1124.4890136719</ele>
        <time>2017-02-26T11:59:07Z</time>
      </trkpt>
      <trkpt lat="45.2943" lon="6.22642">
        <ele>1123.4890136719</ele>
        <time>2017-02-26T11:59:12Z</time>
      </trkpt>
      <trkpt lat="45.29431" lon="6.2265">
        <ele>1118.4899902344</ele>
        <time>2017-02-26T11:59:15Z</time>
      </trkpt>
      <trkpt lat="45.29434" lon="6.22655">
        <ele>1117.4899902344</ele>
        <time>2017-02-26T11:59:20Z</time>
      </trkpt>
      <trkpt lat="45.29434" lon="6.22662">
        <ele>1116.4899902344</ele>
        <time>2017-02-26T11:59:27Z</time>
      </trkpt>
      <trkpt lat="45.29433" lon="6.2267">
        <ele>1117.4899902344</ele>
        <time>2017-02-26T11:59:31Z</time>
      </trkpt>
      <trkpt lat="45.29432" lon="6.22677">
        <ele>1112.4899902344</ele>
        <time>2017-02-26T11:59:46Z</time>
      </trkpt>
      <trkpt lat="45.29431" lon="6.22684">
        <ele>1112.4899902344</ele>
        <time>2017-02-26T11:59:50Z</time>
      </trkpt>
      <trkpt lat="45.29429" lon="6.22691">
        <ele>1113.4899902344</ele>
        <time>2017-02-26T11:59:54Z</time>
      </trkpt>
      <trkpt lat="45.29426" lon="6.22697">
        <ele>1110.4899902344</ele>
        <time>2017-02-26T12:00:00Z</time>
      </trkpt>
      <trkpt lat="45.29429" lon="6.22701">
        <ele>1110.4899902344</ele>
        <time>2017-02-26T12:00:04Z</time>
      </trkpt>
      <trkpt lat="45.29432" lon="6.22708">
        <ele>1109.4899902344</ele>
        <time>2017-02-26T12:00:08Z</time>
      </trkpt>
      <trkpt lat="45.29434" lon="6.22714">
        <ele>1109.4899902344</ele>
        <time>2017-02-26T12:00:12Z</time>
      </trkpt>
      <trkpt lat="45.29431" lon="6.22721">
        <ele>1110.4899902344</ele>
        <time>2017-02-26T12:00:15Z</time>
      </trkpt>
      <trkpt lat="45.29426" lon="6.22725">
        <ele>1106.4899902344</ele>
        <time>2017-02-26T12:01:13Z</time>
      </trkpt>
      <trkpt lat="45.29424" lon="6.2272">
        <ele>1100.4899902344</ele>
        <time>2017-02-26T12:02:13Z</time>
      </trkpt>
    </trkseg>
  </trk>
</gpx>